<?xml version='1.0' encoding='UTF-8'?><gpx version="1.1" creator="JPX - https://github.com/jenetics/jpx" xmlns="http://www.topografix.com/GPX/1/1"><trk><trkseg><trkpt lat="46.5639454" lon="12.5811146"><ele>937.0</ele><time>2026-05-01T07:37:07.752Z</time></trkpt><trkpt lat="46.5640274" lon="12.5810447"><ele>937.0</ele><time>2026-05-01T07:37:10.752Z</time></trkpt><trkpt lat="46.5637939" lon="12.5815175"><ele>937.4000000000001</ele><time>2026-05-01T07:37:11.753Z</time></trkpt><trkpt lat="46.5637221" lon="12.5816474"><ele>937.8000000000001</ele><time>2026-05-01T07:37:13.753Z</time></trkpt><trkpt lat="46.5636443" lon="12.5816937"><ele>938.2</ele><time>2026-05-01T07:37:14.752Z</time></trkpt><trkpt lat="46.5635554" lon="12.5817604"><ele>938.6</ele><time>2026-05-01T07:37:15.753Z</time></trkpt><trkpt lat="46.5634552" lon="12.5818365"><ele>939.0</ele><time>2026-05-01T07:37:16.753Z</time></trkpt><trkpt lat="46.5633396" lon="12.5819096"><ele>940.0</ele><time>2026-05-01T07:37:17.752Z</time></trkpt><trkpt lat="46.5632254" lon="12.5819778"><ele>941.0</ele><time>2026-05-01T07:37:18.753Z</time></trkpt><trkpt lat="46.5631153" lon="12.5820463"><ele>942.0</ele><time>2026-05-01T07:37:19.752Z</time></trkpt><trkpt lat="46.5630096" lon="12.582113"><ele>943.0</ele><time>2026-05-01T07:37:20.753Z</time></trkpt><trkpt lat="46.5629093" lon="12.5821862"><ele>944.25</ele><time>2026-05-01T07:37:21.753Z</time></trkpt><trkpt lat="46.5628165" lon="12.5822711"><ele>945.5</ele><time>2026-05-01T07:37:22.753Z</time></trkpt><trkpt lat="46.5627256" lon="12.582368"><ele>946.75</ele><time>2026-05-01T07:37:23.753Z</time></trkpt><trkpt lat="46.5626296" lon="12.5824683"><ele>948.0</ele><time>2026-05-01T07:37:24.751Z</time></trkpt><trkpt lat="46.5625305" lon="12.582563"><ele>948.0</ele><time>2026-05-01T07:37:25.752Z</time></trkpt><trkpt lat="46.5624304" lon="12.582661"><ele>948.0</ele><time>2026-05-01T07:37:26.752Z</time></trkpt><trkpt lat="46.5623318" lon="12.5827599"><ele>948.0</ele><time>2026-05-01T07:37:27.753Z</time></trkpt><trkpt lat="46.5622372" lon="12.5828593"><ele>948.0</ele><time>2026-05-01T07:37:28.753Z</time></trkpt><trkpt lat="46.5621455" lon="12.5829616"><ele>948.2</ele><time>2026-05-01T07:37:29.753Z</time></trkpt><trkpt lat="46.5620627" lon="12.5830727"><ele>948.4</ele><time>2026-05-01T07:37:30.753Z</time></trkpt><trkpt lat="46.5619893" lon="12.5831982"><ele>948.6000000000001</ele><time>2026-05-01T07:37:31.752Z</time></trkpt><trkpt lat="46.5619223" lon="12.5833252"><ele>948.8000000000001</ele><time>2026-05-01T07:37:32.753Z</time></trkpt><trkpt lat="46.5618503" lon="12.5834494"><ele>949.0</ele><time>2026-05-01T07:37:33.753Z</time></trkpt><trkpt lat="46.5617742" lon="12.5835702"><ele>949.5</ele><time>2026-05-01T07:37:34.753Z</time></trkpt><trkpt lat="46.5616905" lon="12.5836827"><ele>950.0</ele><time>2026-05-01T07:37:35.753Z</time></trkpt><trkpt lat="46.5616065" lon="12.5837977"><ele>950.5</ele><time>2026-05-01T07:37:36.752Z</time></trkpt><trkpt lat="46.5615247" lon="12.5839161"><ele>951.0</ele><time>2026-05-01T07:37:37.753Z</time></trkpt><trkpt lat="46.5614361" lon="12.5840231"><ele>951.0</ele><time>2026-05-01T07:37:38.752Z</time></trkpt><trkpt lat="46.5613523" lon="12.5841319"><ele>951.0</ele><time>2026-05-01T07:37:39.752Z</time></trkpt><trkpt lat="46.5612476" lon="12.5842197"><ele>951.0</ele><time>2026-05-01T07:37:40.753Z</time></trkpt><trkpt lat="46.5611495" lon="12.5843084"><ele>951.0</ele><time>2026-05-01T07:37:41.753Z</time></trkpt><trkpt lat="46.5610483" lon="12.5843915"><ele>951.1999999999999</ele><time>2026-05-01T07:37:42.753Z</time></trkpt><trkpt lat="46.5609503" lon="12.584474"><ele>951.3999999999999</ele><time>2026-05-01T07:37:43.752Z</time></trkpt><trkpt lat="46.5608494" lon="12.5845487"><ele>951.6</ele><time>2026-05-01T07:37:44.753Z</time></trkpt><trkpt lat="46.56075" lon="12.5846152"><ele>951.8</ele><time>2026-05-01T07:37:45.753Z</time></trkpt><trkpt lat="46.5606489" lon="12.5846619"><ele>952.0</ele><time>2026-05-01T07:37:46.752Z</time></trkpt><trkpt lat="46.560544" lon="12.5846976"><ele>952.75</ele><time>2026-05-01T07:37:47.753Z</time></trkpt><trkpt lat="46.5604428" lon="12.5847275"><ele>953.5</ele><time>2026-05-01T07:37:48.753Z</time></trkpt><trkpt lat="46.5603316" lon="12.5847648"><ele>954.25</ele><time>2026-05-01T07:37:49.753Z</time></trkpt><trkpt lat="46.5602177" lon="12.5848008"><ele>955.0</ele><time>2026-05-01T07:37:50.751Z</time></trkpt><trkpt lat="46.5601017" lon="12.5848346"><ele>955.0</ele><time>2026-05-01T07:37:51.753Z</time></trkpt><trkpt lat="46.5599789" lon="12.5848715"><ele>955.0</ele><time>2026-05-01T07:37:52.752Z</time></trkpt><trkpt lat="46.5598493" lon="12.5849119"><ele>955.0</ele><time>2026-05-01T07:37:53.753Z</time></trkpt><trkpt lat="46.5597221" lon="12.5849487"><ele>955.0</ele><time>2026-05-01T07:37:54.753Z</time></trkpt><trkpt lat="46.5595812" lon="12.584988"><ele>955.6666666666666</ele><time>2026-05-01T07:37:55.753Z</time></trkpt><trkpt lat="46.5594251" lon="12.5850255"><ele>956.3333333333333</ele><time>2026-05-01T07:37:56.753Z</time></trkpt><trkpt lat="46.5592555" lon="12.5850502"><ele>957.0</ele><time>2026-05-01T07:37:57.753Z</time></trkpt><trkpt lat="46.5590962" lon="12.5850971"><ele>957.0</ele><time>2026-05-01T07:37:58.753Z</time></trkpt><trkpt lat="46.5589431" lon="12.5851642"><ele>957.0</ele><time>2026-05-01T07:37:59.753Z</time></trkpt><trkpt lat="46.5587978" lon="12.5852629"><ele>957.0</ele><time>2026-05-01T07:38:00.752Z</time></trkpt><trkpt lat="46.5586606" lon="12.585369"><ele>962.3333333333333</ele><time>2026-05-01T07:38:01.753Z</time></trkpt><trkpt lat="46.558524" lon="12.585477"><ele>967.6666666666666</ele><time>2026-05-01T07:38:02.753Z</time></trkpt><trkpt lat="46.5583839" lon="12.5855801"><ele>973.0</ele><time>2026-05-01T07:38:03.751Z</time></trkpt><trkpt lat="46.5582407" lon="12.5856695"><ele>973.0</ele><time>2026-05-01T07:38:04.753Z</time></trkpt><trkpt lat="46.5580955" lon="12.5857555"><ele>973.0</ele><time>2026-05-01T07:38:05.752Z</time></trkpt><trkpt lat="46.5579489" lon="12.5858397"><ele>973.0</ele><time>2026-05-01T07:38:06.753Z</time></trkpt><trkpt lat="46.5578027" lon="12.5859194"><ele>971.0</ele><time>2026-05-01T07:38:07.753Z</time></trkpt><trkpt lat="46.5576566" lon="12.5860002"><ele>969.0</ele><time>2026-05-01T07:38:08.753Z</time></trkpt><trkpt lat="46.5575101" lon="12.5860715"><ele>967.0</ele><time>2026-05-01T07:38:09.753Z</time></trkpt><trkpt lat="46.5573637" lon="12.5861416"><ele>970.3333333333333</ele><time>2026-05-01T07:38:10.753Z</time></trkpt><trkpt lat="46.5572177" lon="12.5862093"><ele>973.6666666666667</ele><time>2026-05-01T07:38:11.753Z</time></trkpt><trkpt lat="46.5570758" lon="12.5862828"><ele>977.0</ele><time>2026-05-01T07:38:12.752Z</time></trkpt><trkpt lat="46.5569352" lon="12.5863552"><ele>977.0</ele><time>2026-05-01T07:38:13.753Z</time></trkpt><trkpt lat="46.5567944" lon="12.5864221"><ele>977.0</ele><time>2026-05-01T07:38:14.753Z</time></trkpt><trkpt lat="46.5566568" lon="12.5864875"><ele>977.0</ele><time>2026-05-01T07:38:15.752Z</time></trkpt><trkpt lat="46.5565174" lon="12.5865532"><ele>977.0</ele><time>2026-05-01T07:38:16.753Z</time></trkpt><trkpt lat="46.556383" lon="12.5866205"><ele>977.0</ele><time>2026-05-01T07:38:17.752Z</time></trkpt><trkpt lat="46.5562454" lon="12.5866863"><ele>977.0</ele><time>2026-05-01T07:38:18.751Z</time></trkpt><trkpt lat="46.5561077" lon="12.5867507"><ele>977.0</ele><time>2026-05-01T07:38:19.753Z</time></trkpt><trkpt lat="46.5559679" lon="12.5868119"><ele>977.0</ele><time>2026-05-01T07:38:20.753Z</time></trkpt><trkpt lat="46.5558262" lon="12.5868632"><ele>976.25</ele><time>2026-05-01T07:38:21.753Z</time></trkpt><trkpt lat="46.5556805" lon="12.5868647"><ele>975.5</ele><time>2026-05-01T07:38:22.753Z</time></trkpt><trkpt lat="46.5555374" lon="12.5868608"><ele>974.75</ele><time>2026-05-01T07:38:23.753Z</time></trkpt><trkpt lat="46.5553902" lon="12.5868505"><ele>974.0</ele><time>2026-05-01T07:38:24.753Z</time></trkpt><trkpt lat="46.5552471" lon="12.5868683"><ele>974.0</ele><time>2026-05-01T07:38:25.753Z</time></trkpt><trkpt lat="46.5551105" lon="12.5869276"><ele>974.0</ele><time>2026-05-01T07:38:26.752Z</time></trkpt><trkpt lat="46.5549918" lon="12.587046"><ele>974.0</ele><time>2026-05-01T07:38:27.752Z</time></trkpt><trkpt lat="46.5548729" lon="12.5871836"><ele>974.0</ele><time>2026-05-01T07:38:28.753Z</time></trkpt><trkpt lat="46.5547542" lon="12.5873264"><ele>976.0</ele><time>2026-05-01T07:38:29.753Z</time></trkpt><trkpt lat="46.5546337" lon="12.5874676"><ele>978.0</ele><time>2026-05-01T07:38:30.753Z</time></trkpt><trkpt lat="46.554514" lon="12.5876094"><ele>980.0</ele><time>2026-05-01T07:38:31.753Z</time></trkpt><trkpt lat="46.5543874" lon="12.5877518"><ele>986.0</ele><time>2026-05-01T07:38:32.752Z</time></trkpt><trkpt lat="46.5542561" lon="12.5878867"><ele>992.0</ele><time>2026-05-01T07:38:33.752Z</time></trkpt><trkpt lat="46.5541152" lon="12.5880053"><ele>998.0</ele><time>2026-05-01T07:38:34.753Z</time></trkpt><trkpt lat="46.5539684" lon="12.5881043"><ele>998.0</ele><time>2026-05-01T07:38:35.752Z</time></trkpt><trkpt lat="46.5538215" lon="12.5882005"><ele>998.0</ele><time>2026-05-01T07:38:36.753Z</time></trkpt><trkpt lat="46.5536759" lon="12.5882888"><ele>998.0</ele><time>2026-05-01T07:38:37.753Z</time></trkpt><trkpt lat="46.5535319" lon="12.5883713"><ele>994.0</ele><time>2026-05-01T07:38:38.752Z</time></trkpt><trkpt lat="46.5533875" lon="12.5884527"><ele>990.0</ele><time>2026-05-01T07:38:39.752Z</time></trkpt><trkpt lat="46.553245" lon="12.5885412"><ele>986.0</ele><time>2026-05-01T07:38:40.753Z</time></trkpt><trkpt lat="46.5531142" lon="12.5886428"><ele>986.0</ele><time>2026-05-01T07:38:41.753Z</time></trkpt><trkpt lat="46.5529953" lon="12.5887716"><ele>986.0</ele><time>2026-05-01T07:38:42.752Z</time></trkpt><trkpt lat="46.5529087" lon="12.588924"><ele>986.0</ele><time>2026-05-01T07:38:43.753Z</time></trkpt><trkpt lat="46.5528508" lon="12.5890982"><ele>986.0</ele><time>2026-05-01T07:38:44.753Z</time></trkpt><trkpt lat="46.552811" lon="12.5892988"><ele>986.0</ele><time>2026-05-01T07:38:45.753Z</time></trkpt><trkpt lat="46.5527804" lon="12.5895033"><ele>986.0</ele><time>2026-05-01T07:38:46.753Z</time></trkpt><trkpt lat="46.5527581" lon="12.5897221"><ele>986.0</ele><time>2026-05-01T07:38:47.753Z</time></trkpt><trkpt lat="46.5527349" lon="12.5899411"><ele>986.0</ele><time>2026-05-01T07:38:48.752Z</time></trkpt><trkpt lat="46.5527152" lon="12.5901533"><ele>992.0</ele><time>2026-05-01T07:38:49.752Z</time></trkpt><trkpt lat="46.5526806" lon="12.5903646"><ele>998.0</ele><time>2026-05-01T07:38:50.753Z</time></trkpt><trkpt lat="46.5526182" lon="12.5905704"><ele>1004.0</ele><time>2026-05-01T07:38:51.753Z</time></trkpt><trkpt lat="46.5525303" lon="12.5907563"><ele>1004.0</ele><time>2026-05-01T07:38:52.753Z</time></trkpt><trkpt lat="46.5524182" lon="12.5909251"><ele>1004.0</ele><time>2026-05-01T07:38:53.752Z</time></trkpt><trkpt lat="46.5522888" lon="12.5910769"><ele>1004.0</ele><time>2026-05-01T07:38:54.752Z</time></trkpt><trkpt lat="46.5521522" lon="12.5912291"><ele>1007.0</ele><time>2026-05-01T07:38:55.753Z</time></trkpt><trkpt lat="46.5520142" lon="12.5913712"><ele>1010.0</ele><time>2026-05-01T07:38:56.753Z</time></trkpt><trkpt lat="46.5518583" lon="12.5914888"><ele>1013.0</ele><time>2026-05-01T07:38:57.753Z</time></trkpt><trkpt lat="46.5516989" lon="12.5915874"><ele>1013.0</ele><time>2026-05-01T07:38:58.753Z</time></trkpt><trkpt lat="46.5515355" lon="12.5916719"><ele>1013.0</ele><time>2026-05-01T07:38:59.753Z</time></trkpt><trkpt lat="46.5513713" lon="12.5917563"><ele>1013.0</ele><time>2026-05-01T07:39:00.753Z</time></trkpt><trkpt lat="46.5512058" lon="12.5918411"><ele>1009.6666666666667</ele><time>2026-05-01T07:39:01.752Z</time></trkpt><trkpt lat="46.5510383" lon="12.5919244"><ele>1006.3333333333333</ele><time>2026-05-01T07:39:02.753Z</time></trkpt><trkpt lat="46.5508717" lon="12.5920086"><ele>1003.0</ele><time>2026-05-01T07:39:03.752Z</time></trkpt><trkpt lat="46.5507036" lon="12.5920891"><ele>1006.3333333333333</ele><time>2026-05-01T07:39:04.753Z</time></trkpt><trkpt lat="46.5505454" lon="12.5921644"><ele>1009.6666666666667</ele><time>2026-05-01T07:39:05.753Z</time></trkpt><trkpt lat="46.5503878" lon="12.5922423"><ele>1013.0</ele><time>2026-05-01T07:39:06.753Z</time></trkpt><trkpt lat="46.5502356" lon="12.592331"><ele>1013.0</ele><time>2026-05-01T07:39:07.752Z</time></trkpt><trkpt lat="46.5500956" lon="12.5924383"><ele>1013.0</ele><time>2026-05-01T07:39:08.753Z</time></trkpt><trkpt lat="46.5499623" lon="12.592578"><ele>1013.0</ele><time>2026-05-01T07:39:09.752Z</time></trkpt><trkpt lat="46.5498408" lon="12.5927497"><ele>1015.3333333333334</ele><time>2026-05-01T07:39:10.753Z</time></trkpt><trkpt lat="46.5497309" lon="12.5929278"><ele>1017.6666666666667</ele><time>2026-05-01T07:39:11.753Z</time></trkpt><trkpt lat="46.549626" lon="12.5930999"><ele>1020.0</ele><time>2026-05-01T07:39:12.753Z</time></trkpt><trkpt lat="46.5495355" lon="12.5932435"><ele>1020.0</ele><time>2026-05-01T07:39:13.751Z</time></trkpt><trkpt lat="46.5494548" lon="12.5933799"><ele>1020.0</ele><time>2026-05-01T07:39:14.753Z</time></trkpt><trkpt lat="46.5493732" lon="12.593503"><ele>1020.0</ele><time>2026-05-01T07:39:15.752Z</time></trkpt><trkpt lat="46.5492908" lon="12.5936156"><ele>1020.0</ele><time>2026-05-01T07:39:16.753Z</time></trkpt><trkpt lat="46.5491865" lon="12.5936993"><ele>1025.5</ele><time>2026-05-01T07:39:17.753Z</time></trkpt><trkpt lat="46.5490847" lon="12.59378"><ele>1031.0</ele><time>2026-05-01T07:39:18.753Z</time></trkpt><trkpt lat="46.5489776" lon="12.5938588"><ele>1036.5</ele><time>2026-05-01T07:39:19.752Z</time></trkpt><trkpt lat="46.5488714" lon="12.5939378"><ele>1042.0</ele><time>2026-05-01T07:39:20.753Z</time></trkpt><trkpt lat="46.5487712" lon="12.5940075"><ele>1041.6</ele><time>2026-05-01T07:39:21.751Z</time></trkpt><trkpt lat="46.5486782" lon="12.5940752"><ele>1041.2</ele><time>2026-05-01T07:39:22.753Z</time></trkpt><trkpt lat="46.5485912" lon="12.5941432"><ele>1040.8</ele><time>2026-05-01T07:39:23.753Z</time></trkpt><trkpt lat="46.5485031" lon="12.5942038"><ele>1040.4</ele><time>2026-05-01T07:39:24.753Z</time></trkpt><trkpt lat="46.5484324" lon="12.5942558"><ele>1040.0</ele><time>2026-05-01T07:39:25.752Z</time></trkpt><trkpt lat="46.5483382" lon="12.5943593"><ele>1040.0</ele><time>2026-05-01T07:39:27.753Z</time></trkpt><trkpt lat="46.5482583" lon="12.5944076"><ele>1040.0</ele><time>2026-05-01T07:39:29.752Z</time></trkpt><trkpt lat="46.5481831" lon="12.5944088"><ele>1040.0</ele><time>2026-05-01T07:39:31.752Z</time></trkpt><trkpt lat="46.5480853" lon="12.5943817"><ele>1040.0</ele><time>2026-05-01T07:39:33.753Z</time></trkpt><trkpt lat="46.5480227" lon="12.5943964"><ele>1040.0</ele><time>2026-05-01T07:39:34.753Z</time></trkpt><trkpt lat="46.5479024" lon="12.5944361"><ele>1040.0</ele><time>2026-05-01T07:39:36.752Z</time></trkpt><trkpt lat="46.5478019" lon="12.5945185"><ele>1045.6666666666667</ele><time>2026-05-01T07:39:38.752Z</time></trkpt><trkpt lat="46.5477204" lon="12.5945736"><ele>1051.3333333333335</ele><time>2026-05-01T07:39:40.753Z</time></trkpt><trkpt lat="46.5476523" lon="12.5945938"><ele>1057.0</ele><time>2026-05-01T07:39:42.753Z</time></trkpt><trkpt lat="46.5475918" lon="12.5946191"><ele>1062.6666666666667</ele><time>2026-05-01T07:39:44.753Z</time></trkpt><trkpt lat="46.5475316" lon="12.5946539"><ele>1068.3333333333333</ele><time>2026-05-01T07:39:48.751Z</time></trkpt><trkpt lat="46.5474727" lon="12.5947071"><ele>1074.0</ele><time>2026-05-01T07:39:52.753Z</time></trkpt><trkpt lat="46.5474032" lon="12.5948028"><ele>1074.0</ele><time>2026-05-01T07:39:54.753Z</time></trkpt><trkpt lat="46.5473313" lon="12.5949056"><ele>1074.0</ele><time>2026-05-01T07:39:56.753Z</time></trkpt><trkpt lat="46.54724" lon="12.5949923"><ele>1074.0</ele><time>2026-05-01T07:39:58.753Z</time></trkpt><trkpt lat="46.5471767" lon="12.59508"><ele>1074.0</ele><time>2026-05-01T07:40:00.753Z</time></trkpt><trkpt lat="46.5471032" lon="12.5951933"><ele>1074.0</ele><time>2026-05-01T07:40:02.753Z</time></trkpt><trkpt lat="46.5470297" lon="12.5953277"><ele>1074.6000000000001</ele><time>2026-05-01T07:40:04.752Z</time></trkpt><trkpt lat="46.5470014" lon="12.5954797"><ele>1075.2</ele><time>2026-05-01T07:40:06.753Z</time></trkpt><trkpt lat="46.5469778" lon="12.5956386"><ele>1075.8000000000002</ele><time>2026-05-01T07:40:08.752Z</time></trkpt><trkpt lat="46.5469251" lon="12.5957542"><ele>1076.4</ele><time>2026-05-01T07:40:10.753Z</time></trkpt><trkpt lat="46.5468671" lon="12.5958578"><ele>1077.0</ele><time>2026-05-01T07:40:12.753Z</time></trkpt><trkpt lat="46.5467887" lon="12.5959431"><ele>1077.0</ele><time>2026-05-01T07:40:14.751Z</time></trkpt><trkpt lat="46.5467268" lon="12.5960312"><ele>1077.0</ele><time>2026-05-01T07:40:16.753Z</time></trkpt><trkpt lat="46.5466849" lon="12.5961469"><ele>1077.0</ele><time>2026-05-01T07:40:18.753Z</time></trkpt><trkpt lat="46.546681" lon="12.5962775"><ele>1077.0</ele><time>2026-05-01T07:40:20.752Z</time></trkpt><trkpt lat="46.5467003" lon="12.5964235"><ele>1077.0</ele><time>2026-05-01T07:40:22.753Z</time></trkpt><trkpt lat="46.5466996" lon="12.5965339"><ele>1077.0</ele><time>2026-05-01T07:40:24.752Z</time></trkpt><trkpt lat="46.5466288" lon="12.5966044"><ele>1081.7142857142858</ele><time>2026-05-01T07:40:26.753Z</time></trkpt><trkpt lat="46.5465639" lon="12.5966371"><ele>1086.4285714285716</ele><time>2026-05-01T07:40:28.753Z</time></trkpt><trkpt lat="46.546507" lon="12.5966814"><ele>1091.1428571428573</ele><time>2026-05-01T07:40:30.752Z</time></trkpt><trkpt lat="46.5464576" lon="12.596742"><ele>1095.857142857143</ele><time>2026-05-01T07:40:32.752Z</time></trkpt><trkpt lat="46.5465372" lon="12.596783"><ele>1100.5714285714287</ele><time>2026-05-01T07:40:37.753Z</time></trkpt><trkpt lat="46.5466278" lon="12.5967986"><ele>1105.2857142857144</ele><time>2026-05-01T07:40:39.753Z</time></trkpt><trkpt lat="46.5466919" lon="12.5968115"><ele>1110.0</ele><time>2026-05-01T07:40:41.753Z</time></trkpt><trkpt lat="46.5467706" lon="12.5968319"><ele>1110.0</ele><time>2026-05-01T07:40:43.753Z</time></trkpt><trkpt lat="46.5468508" lon="12.5968659"><ele>1110.0</ele><time>2026-05-01T07:40:45.753Z</time></trkpt><trkpt lat="46.5469162" lon="12.5969322"><ele>1110.0</ele><time>2026-05-01T07:40:47.753Z</time></trkpt><trkpt lat="46.5469899" lon="12.596921"><ele>1110.0</ele><time>2026-05-01T07:40:50.752Z</time></trkpt><trkpt lat="46.5470581" lon="12.5968979"><ele>1110.0</ele><time>2026-05-01T07:40:52.753Z</time></trkpt><trkpt lat="46.5471043" lon="12.5969909"><ele>1110.0</ele><time>2026-05-01T07:40:55.753Z</time></trkpt><trkpt lat="46.5470601" lon="12.5971214"><ele>1115.6666666666667</ele><time>2026-05-01T07:40:57.753Z</time></trkpt><trkpt lat="46.5469973" lon="12.5972292"><ele>1121.3333333333333</ele><time>2026-05-01T07:40:59.753Z</time></trkpt><trkpt lat="46.5469348" lon="12.5972949"><ele>1127.0</ele><time>2026-05-01T07:41:01.752Z</time></trkpt><trkpt lat="46.5468855" lon="12.5973956"><ele>1132.6666666666665</ele><time>2026-05-01T07:41:03.752Z</time></trkpt><trkpt lat="46.5468515" lon="12.5974987"><ele>1138.3333333333333</ele><time>2026-05-01T07:41:05.753Z</time></trkpt><trkpt lat="46.5468928" lon="12.5976305"><ele>1144.0</ele><time>2026-05-01T07:41:12.753Z</time></trkpt><trkpt lat="46.546942" lon="12.5977358"><ele>1146.5</ele><time>2026-05-01T07:41:14.753Z</time></trkpt><trkpt lat="46.5469851" lon="12.5978386"><ele>1149.0</ele><time>2026-05-01T07:41:16.753Z</time></trkpt><trkpt lat="46.5470382" lon="12.5979191"><ele>1151.5</ele><time>2026-05-01T07:41:18.752Z</time></trkpt><trkpt lat="46.5471051" lon="12.5978751"><ele>1154.0</ele><time>2026-05-01T07:41:20.753Z</time></trkpt><trkpt lat="46.5471708" lon="12.5978308"><ele>1156.5</ele><time>2026-05-01T07:41:22.753Z</time></trkpt><trkpt lat="46.5472453" lon="12.5978077"><ele>1159.0</ele><time>2026-05-01T07:41:24.753Z</time></trkpt><trkpt lat="46.5473233" lon="12.5978582"><ele>1163.6666666666665</ele><time>2026-05-01T07:41:27.753Z</time></trkpt><trkpt lat="46.5474033" lon="12.5979481"><ele>1168.3333333333333</ele><time>2026-05-01T07:41:32.753Z</time></trkpt><trkpt lat="46.5474593" lon="12.5980381"><ele>1173.0</ele><time>2026-05-01T07:41:34.753Z</time></trkpt><trkpt lat="46.5475344" lon="12.5980741"><ele>1177.6666666666667</ele><time>2026-05-01T07:41:36.753Z</time></trkpt><trkpt lat="46.5476129" lon="12.5980535"><ele>1182.3333333333335</ele><time>2026-05-01T07:41:38.753Z</time></trkpt><trkpt lat="46.547701" lon="12.5980513"><ele>1187.0</ele><time>2026-05-01T07:41:40.752Z</time></trkpt><trkpt lat="46.5478003" lon="12.5980552"><ele>1187.0</ele><time>2026-05-01T07:41:42.753Z</time></trkpt><trkpt lat="46.5478871" lon="12.5981116"><ele>1187.0</ele><time>2026-05-01T07:41:44.753Z</time></trkpt><trkpt lat="46.547965" lon="12.5981845"><ele>1187.0</ele><time>2026-05-01T07:41:46.752Z</time></trkpt><trkpt lat="46.5480452" lon="12.5982405"><ele>1187.0</ele><time>2026-05-01T07:41:48.753Z</time></trkpt><trkpt lat="46.5480804" lon="12.5983457"><ele>1187.0</ele><time>2026-05-01T07:41:50.753Z</time></trkpt><trkpt lat="46.5481466" lon="12.5984344"><ele>1187.0</ele><time>2026-05-01T07:41:52.753Z</time></trkpt><trkpt lat="46.5481988" lon="12.5985013"><ele>1187.0</ele><time>2026-05-01T07:41:54.753Z</time></trkpt><trkpt lat="46.5482619" lon="12.5985834"><ele>1187.0</ele><time>2026-05-01T07:41:59.753Z</time></trkpt><trkpt lat="46.548271" lon="12.5986784"><ele>1187.0</ele><time>2026-05-01T07:42:01.753Z</time></trkpt><trkpt lat="46.548275" lon="12.5987862"><ele>1187.0</ele><time>2026-05-01T07:42:03.753Z</time></trkpt><trkpt lat="46.5482412" lon="12.5988779"><ele>1187.0</ele><time>2026-05-01T07:42:05.753Z</time></trkpt><trkpt lat="46.5481807" lon="12.5989454"><ele>1187.0</ele><time>2026-05-01T07:42:07.753Z</time></trkpt><trkpt lat="46.5480906" lon="12.5989041"><ele>1192.1666666666667</ele><time>2026-05-01T07:42:09.767Z</time></trkpt><trkpt lat="46.5479894" lon="12.5988956"><ele>1197.3333333333335</ele><time>2026-05-01T07:42:11.753Z</time></trkpt><trkpt lat="46.5479317" lon="12.5989408"><ele>1202.5</ele><time>2026-05-01T07:42:13.753Z</time></trkpt><trkpt lat="46.5479133" lon="12.5990293"><ele>1207.6666666666667</ele><time>2026-05-01T07:42:15.752Z</time></trkpt><trkpt lat="46.5479595" lon="12.5991129"><ele>1212.8333333333333</ele><time>2026-05-01T07:42:17.753Z</time></trkpt><trkpt lat="46.5480415" lon="12.59916"><ele>1218.0</ele><time>2026-05-01T07:42:24.753Z</time></trkpt><trkpt lat="46.5481363" lon="12.5992176"><ele>1218.0</ele><time>2026-05-01T07:42:26.752Z</time></trkpt><trkpt lat="46.5481922" lon="12.5992691"><ele>1218.0</ele><time>2026-05-01T07:42:27.753Z</time></trkpt><trkpt lat="46.5482759" lon="12.5993359"><ele>1218.0</ele><time>2026-05-01T07:42:29.752Z</time></trkpt><trkpt lat="46.5483322" lon="12.5994385"><ele>1218.0</ele><time>2026-05-01T07:42:31.754Z</time></trkpt><trkpt lat="46.5484046" lon="12.5995103"><ele>1218.0</ele><time>2026-05-01T07:42:33.753Z</time></trkpt><trkpt lat="46.5485035" lon="12.5995429"><ele>1218.0</ele><time>2026-05-01T07:42:35.753Z</time></trkpt><trkpt lat="46.5485762" lon="12.5995798"><ele>1217.8333333333333</ele><time>2026-05-01T07:42:37.753Z</time></trkpt><trkpt lat="46.5486747" lon="12.5995228"><ele>1217.6666666666667</ele><time>2026-05-01T07:42:40.753Z</time></trkpt><trkpt lat="46.548734" lon="12.5994649"><ele>1217.5</ele><time>2026-05-01T07:42:42.753Z</time></trkpt><trkpt lat="46.5488074" lon="12.5994744"><ele>1217.3333333333335</ele><time>2026-05-01T07:42:44.753Z</time></trkpt><trkpt lat="46.5488965" lon="12.5994791"><ele>1217.1666666666667</ele><time>2026-05-01T07:42:46.753Z</time></trkpt><trkpt lat="46.5489801" lon="12.5994314"><ele>1217.0</ele><time>2026-05-01T07:42:48.753Z</time></trkpt><trkpt lat="46.5490676" lon="12.5994571"><ele>1222.2</ele><time>2026-05-01T07:42:50.752Z</time></trkpt><trkpt lat="46.5491698" lon="12.5995458"><ele>1227.4</ele><time>2026-05-01T07:42:52.752Z</time></trkpt><trkpt lat="46.549258" lon="12.5996366"><ele>1232.6</ele><time>2026-05-01T07:42:54.753Z</time></trkpt><trkpt lat="46.5493359" lon="12.5997148"><ele>1237.8</ele><time>2026-05-01T07:42:56.753Z</time></trkpt><trkpt lat="46.5494254" lon="12.5997995"><ele>1243.0</ele><time>2026-05-01T07:42:58.753Z</time></trkpt><trkpt lat="46.5495276" lon="12.5998569"><ele>1242.8333333333333</ele><time>2026-05-01T07:43:00.753Z</time></trkpt><trkpt lat="46.5495976" lon="12.5999296"><ele>1242.6666666666665</ele><time>2026-05-01T07:43:02.753Z</time></trkpt><trkpt lat="46.5496643" lon="12.6000298"><ele>1242.5</ele><time>2026-05-01T07:43:04.753Z</time></trkpt><trkpt lat="46.5497372" lon="12.6001423"><ele>1242.3333333333333</ele><time>2026-05-01T07:43:06.754Z</time></trkpt><trkpt lat="46.5497353" lon="12.6002511"><ele>1242.1666666666667</ele><time>2026-05-01T07:43:09.752Z</time></trkpt><trkpt lat="46.5496761" lon="12.6002906"><ele>1242.0</ele><time>2026-05-01T07:43:11.752Z</time></trkpt><trkpt lat="46.5496163" lon="12.6003936"><ele>1246.8333333333333</ele><time>2026-05-01T07:43:14.752Z</time></trkpt><trkpt lat="46.5495261" lon="12.6004675"><ele>1251.6666666666667</ele><time>2026-05-01T07:43:17.753Z</time></trkpt><trkpt lat="46.5494485" lon="12.6004567"><ele>1256.5</ele><time>2026-05-01T07:43:19.753Z</time></trkpt><trkpt lat="46.5494277" lon="12.6005492"><ele>1261.3333333333335</ele><time>2026-05-01T07:43:25.753Z</time></trkpt><trkpt lat="46.5494479" lon="12.6006708"><ele>1266.1666666666667</ele><time>2026-05-01T07:43:34.754Z</time></trkpt><trkpt lat="46.5494932" lon="12.600762"><ele>1271.0</ele><time>2026-05-01T07:43:44.752Z</time></trkpt><trkpt lat="46.5495401" lon="12.6008347"><ele>1269.3999999999999</ele><time>2026-05-01T07:43:46.753Z</time></trkpt><trkpt lat="46.5495586" lon="12.6009589"><ele>1267.8</ele><time>2026-05-01T07:43:49.753Z</time></trkpt><trkpt lat="46.5495915" lon="12.6011011"><ele>1266.1999999999998</ele><time>2026-05-01T07:43:52.752Z</time></trkpt><trkpt lat="46.549615" lon="12.601205"><ele>1264.6</ele><time>2026-05-01T07:43:54.751Z</time></trkpt><trkpt lat="46.5496625" lon="12.6013086"><ele>1263.0</ele><time>2026-05-01T07:43:56.754Z</time></trkpt><trkpt lat="46.5497162" lon="12.6014415"><ele>1265.8333333333333</ele><time>2026-05-01T07:43:58.754Z</time></trkpt><trkpt lat="46.5497732" lon="12.6015183"><ele>1268.6666666666667</ele><time>2026-05-01T07:44:00.752Z</time></trkpt><trkpt lat="46.5498126" lon="12.6016034"><ele>1271.5</ele><time>2026-05-01T07:44:02.753Z</time></trkpt><trkpt lat="46.5498892" lon="12.6016875"><ele>1274.3333333333335</ele><time>2026-05-01T07:44:04.753Z</time></trkpt><trkpt lat="46.5499619" lon="12.6017319"><ele>1277.1666666666667</ele><time>2026-05-01T07:44:05.753Z</time></trkpt><trkpt lat="46.5500217" lon="12.601783"><ele>1280.0</ele><time>2026-05-01T07:44:06.753Z</time></trkpt><trkpt lat="46.5500762" lon="12.6018429"><ele>1280.0</ele><time>2026-05-01T07:44:07.753Z</time></trkpt><trkpt lat="46.5501875" lon="12.6019288"><ele>1280.0</ele><time>2026-05-01T07:44:09.753Z</time></trkpt><trkpt lat="46.550297" lon="12.6019962"><ele>1280.0</ele><time>2026-05-01T07:44:11.753Z</time></trkpt><trkpt lat="46.5504087" lon="12.6019912"><ele>1280.0</ele><time>2026-05-01T07:44:13.753Z</time></trkpt><trkpt lat="46.550476" lon="12.6018622"><ele>1283.3333333333335</ele><time>2026-05-01T07:44:15.753Z</time></trkpt><trkpt lat="46.5504907" lon="12.6017628"><ele>1286.6666666666667</ele><time>2026-05-01T07:44:16.754Z</time></trkpt><trkpt lat="46.5504938" lon="12.6016378"><ele>1290.0</ele><time>2026-05-01T07:44:17.752Z</time></trkpt><trkpt lat="46.5505067" lon="12.6015153"><ele>1293.3333333333333</ele><time>2026-05-01T07:44:18.753Z</time></trkpt><trkpt lat="46.5505278" lon="12.6013922"><ele>1296.6666666666665</ele><time>2026-05-01T07:44:19.754Z</time></trkpt><trkpt lat="46.5505948" lon="12.6012943"><ele>1300.0</ele><time>2026-05-01T07:44:20.753Z</time></trkpt><trkpt lat="46.5506632" lon="12.6011952"><ele>1297.6666666666665</ele><time>2026-05-01T07:44:21.752Z</time></trkpt><trkpt lat="46.5507206" lon="12.6010793"><ele>1295.3333333333333</ele><time>2026-05-01T07:44:22.754Z</time></trkpt><trkpt lat="46.5507746" lon="12.6009895"><ele>1293.0</ele><time>2026-05-01T07:44:23.752Z</time></trkpt><trkpt lat="46.550825" lon="12.6009304"><ele>1290.6666666666667</ele><time>2026-05-01T07:44:24.752Z</time></trkpt><trkpt lat="46.5509292" lon="12.6008451"><ele>1288.3333333333335</ele><time>2026-05-01T07:44:26.752Z</time></trkpt><trkpt lat="46.5510091" lon="12.6008781"><ele>1286.0</ele><time>2026-05-01T07:44:28.753Z</time></trkpt><trkpt lat="46.5510555" lon="12.6009487"><ele>1286.0</ele><time>2026-05-01T07:44:30.752Z</time></trkpt><trkpt lat="46.5511378" lon="12.601005"><ele>1286.0</ele><time>2026-05-01T07:44:32.753Z</time></trkpt><trkpt lat="46.5512325" lon="12.6009988"><ele>1286.0</ele><time>2026-05-01T07:44:34.753Z</time></trkpt><trkpt lat="46.5512976" lon="12.6009206"><ele>1286.0</ele><time>2026-05-01T07:44:35.753Z</time></trkpt><trkpt lat="46.5513568" lon="12.6008804"><ele>1286.0</ele><time>2026-05-01T07:44:36.753Z</time></trkpt><trkpt lat="46.5514373" lon="12.6008214"><ele>1286.0</ele><time>2026-05-01T07:44:37.753Z</time></trkpt><trkpt lat="46.5515232" lon="12.6007569"><ele>1291.6</ele><time>2026-05-01T07:44:38.753Z</time></trkpt><trkpt lat="46.5516164" lon="12.6007091"><ele>1297.1999999999998</ele><time>2026-05-01T07:44:39.752Z</time></trkpt><trkpt lat="46.5517041" lon="12.6006489"><ele>1302.8000000000002</ele><time>2026-05-01T07:44:40.753Z</time></trkpt><trkpt lat="46.5517956" lon="12.6006"><ele>1308.4</ele><time>2026-05-01T07:44:41.752Z</time></trkpt><trkpt lat="46.5518803" lon="12.6005438"><ele>1314.0</ele><time>2026-05-01T07:44:42.753Z</time></trkpt><trkpt lat="46.5519764" lon="12.6004822"><ele>1313.4</ele><time>2026-05-01T07:44:43.753Z</time></trkpt><trkpt lat="46.552071" lon="12.6004141"><ele>1312.8000000000002</ele><time>2026-05-01T07:44:44.753Z</time></trkpt><trkpt lat="46.552162" lon="12.6003532"><ele>1312.1999999999998</ele><time>2026-05-01T07:44:45.753Z</time></trkpt><trkpt lat="46.55224" lon="12.6002972"><ele>1311.6</ele><time>2026-05-01T07:44:46.752Z</time></trkpt><trkpt lat="46.5523071" lon="12.6002709"><ele>1311.0</ele><time>2026-05-01T07:44:47.754Z</time></trkpt><trkpt lat="46.552395" lon="12.60029"><ele>1316.4</ele><time>2026-05-01T07:44:49.754Z</time></trkpt><trkpt lat="46.5523481" lon="12.6004265"><ele>1321.8</ele><time>2026-05-01T07:44:51.753Z</time></trkpt><trkpt lat="46.5523005" lon="12.6004982"><ele>1327.2</ele><time>2026-05-01T07:44:52.753Z</time></trkpt><trkpt lat="46.5522449" lon="12.600601"><ele>1332.6000000000001</ele><time>2026-05-01T07:44:53.753Z</time></trkpt><trkpt lat="46.552188" lon="12.6007116"><ele>1338.0</ele><time>2026-05-01T07:44:54.753Z</time></trkpt><trkpt lat="46.5521331" lon="12.600832"><ele>1338.0</ele><time>2026-05-01T07:44:55.753Z</time></trkpt><trkpt lat="46.5520743" lon="12.6009776"><ele>1338.0</ele><time>2026-05-01T07:44:56.753Z</time></trkpt><trkpt lat="46.5520207" lon="12.601137"><ele>1338.0</ele><time>2026-05-01T07:44:57.752Z</time></trkpt><trkpt lat="46.5519668" lon="12.6012938"><ele>1338.0</ele><time>2026-05-01T07:44:58.752Z</time></trkpt><trkpt lat="46.551908" lon="12.6014509"><ele>1337.25</ele><time>2026-05-01T07:44:59.753Z</time></trkpt><trkpt lat="46.5518458" lon="12.6016185"><ele>1336.5</ele><time>2026-05-01T07:45:00.753Z</time></trkpt><trkpt lat="46.5517933" lon="12.6017746"><ele>1335.75</ele><time>2026-05-01T07:45:01.753Z</time></trkpt><trkpt lat="46.5517482" lon="12.6019418"><ele>1335.0</ele><time>2026-05-01T07:45:02.753Z</time></trkpt><trkpt lat="46.5517026" lon="12.6021151"><ele>1339.0</ele><time>2026-05-01T07:45:03.753Z</time></trkpt><trkpt lat="46.5516744" lon="12.6023034"><ele>1343.0</ele><time>2026-05-01T07:45:04.753Z</time></trkpt><trkpt lat="46.5516689" lon="12.6024885"><ele>1347.0</ele><time>2026-05-01T07:45:05.753Z</time></trkpt><trkpt lat="46.5516661" lon="12.6026716"><ele>1351.0</ele><time>2026-05-01T07:45:06.751Z</time></trkpt><trkpt lat="46.551667" lon="12.6028533"><ele>1354.5</ele><time>2026-05-01T07:45:07.753Z</time></trkpt><trkpt lat="46.5516744" lon="12.6030201"><ele>1358.0</ele><time>2026-05-01T07:45:08.752Z</time></trkpt><trkpt lat="46.5516797" lon="12.6031912"><ele>1361.5</ele><time>2026-05-01T07:45:09.754Z</time></trkpt><trkpt lat="46.5516766" lon="12.6033641"><ele>1365.0</ele><time>2026-05-01T07:45:10.753Z</time></trkpt><trkpt lat="46.5516521" lon="12.6035363"><ele>1369.0</ele><time>2026-05-01T07:45:11.752Z</time></trkpt><trkpt lat="46.5516222" lon="12.6037078"><ele>1373.0</ele><time>2026-05-01T07:45:12.753Z</time></trkpt><trkpt lat="46.5515882" lon="12.6038949"><ele>1377.0</ele><time>2026-05-01T07:45:13.753Z</time></trkpt><trkpt lat="46.5515659" lon="12.6040789"><ele>1381.0</ele><time>2026-05-01T07:45:14.752Z</time></trkpt><trkpt lat="46.5515459" lon="12.6042732"><ele>1381.0</ele><time>2026-05-01T07:45:15.753Z</time></trkpt><trkpt lat="46.5515121" lon="12.6044597"><ele>1381.0</ele><time>2026-05-01T07:45:16.751Z</time></trkpt><trkpt lat="46.5514809" lon="12.6046426"><ele>1381.0</ele><time>2026-05-01T07:45:17.753Z</time></trkpt><trkpt lat="46.5514467" lon="12.6048224"><ele>1381.0</ele><time>2026-05-01T07:45:18.752Z</time></trkpt><trkpt lat="46.5514076" lon="12.6050112"><ele>1384.5</ele><time>2026-05-01T07:45:19.753Z</time></trkpt><trkpt lat="46.5513724" lon="12.6052063"><ele>1388.0</ele><time>2026-05-01T07:45:20.753Z</time></trkpt><trkpt lat="46.5513448" lon="12.6053943"><ele>1391.5</ele><time>2026-05-01T07:45:21.752Z</time></trkpt><trkpt lat="46.5513302" lon="12.6055691"><ele>1395.0</ele><time>2026-05-01T07:45:22.753Z</time></trkpt><trkpt lat="46.5513268" lon="12.6057387"><ele>1397.0</ele><time>2026-05-01T07:45:23.753Z</time></trkpt><trkpt lat="46.551317" lon="12.6058591"><ele>1399.0</ele><time>2026-05-01T07:45:24.752Z</time></trkpt><trkpt lat="46.5512916" lon="12.6059768"><ele>1401.0</ele><time>2026-05-01T07:45:25.752Z</time></trkpt><trkpt lat="46.5512586" lon="12.6060771"><ele>1403.0</ele><time>2026-05-01T07:45:26.753Z</time></trkpt><trkpt lat="46.5512246" lon="12.6061578"><ele>1405.0</ele><time>2026-05-01T07:45:27.753Z</time></trkpt><trkpt lat="46.5512208" lon="12.6062912"><ele>1407.0</ele><time>2026-05-01T07:45:29.752Z</time></trkpt><trkpt lat="46.5512991" lon="12.6063401"><ele>1407.0</ele><time>2026-05-01T07:45:31.753Z</time></trkpt><trkpt lat="46.5513558" lon="12.6062854"><ele>1407.0</ele><time>2026-05-01T07:45:32.753Z</time></trkpt><trkpt lat="46.551423" lon="12.6062224"><ele>1407.0</ele><time>2026-05-01T07:45:33.753Z</time></trkpt><trkpt lat="46.5515107" lon="12.6060792"><ele>1407.0</ele><time>2026-05-01T07:45:34.752Z</time></trkpt><trkpt lat="46.5515952" lon="12.605951"><ele>1407.0</ele><time>2026-05-01T07:45:35.753Z</time></trkpt><trkpt lat="46.5516786" lon="12.6057965"><ele>1407.0</ele><time>2026-05-01T07:45:36.753Z</time></trkpt><trkpt lat="46.5517355" lon="12.6056501"><ele>1407.0</ele><time>2026-05-01T07:45:37.751Z</time></trkpt><trkpt lat="46.551791" lon="12.6055057"><ele>1407.0</ele><time>2026-05-01T07:45:38.753Z</time></trkpt><trkpt lat="46.5518438" lon="12.6053929"><ele>1407.0</ele><time>2026-05-01T07:45:39.752Z</time></trkpt><trkpt lat="46.551924" lon="12.6052875"><ele>1407.0</ele><time>2026-05-01T07:45:40.753Z</time></trkpt><trkpt lat="46.5520221" lon="12.6051877"><ele>1413.25</ele><time>2026-05-01T07:45:41.753Z</time></trkpt><trkpt lat="46.5521322" lon="12.6050934"><ele>1419.5</ele><time>2026-05-01T07:45:42.751Z</time></trkpt><trkpt lat="46.5522572" lon="12.6050425"><ele>1425.75</ele><time>2026-05-01T07:45:43.754Z</time></trkpt><trkpt lat="46.5523697" lon="12.6049869"><ele>1432.0</ele><time>2026-05-01T07:45:44.753Z</time></trkpt><trkpt lat="46.5524632" lon="12.6048909"><ele>1432.0</ele><time>2026-05-01T07:45:45.753Z</time></trkpt><trkpt lat="46.5525523" lon="12.6047655"><ele>1432.0</ele><time>2026-05-01T07:45:46.753Z</time></trkpt><trkpt lat="46.5526251" lon="12.604604"><ele>1432.0</ele><time>2026-05-01T07:45:47.753Z</time></trkpt><trkpt lat="46.5527155" lon="12.6044412"><ele>1432.0</ele><time>2026-05-01T07:45:48.752Z</time></trkpt><trkpt lat="46.5527976" lon="12.6042922"><ele>1434.0</ele><time>2026-05-01T07:45:49.752Z</time></trkpt><trkpt lat="46.5528684" lon="12.6041704"><ele>1436.0</ele><time>2026-05-01T07:45:50.754Z</time></trkpt><trkpt lat="46.5529397" lon="12.6040773"><ele>1438.0</ele><time>2026-05-01T07:45:51.753Z</time></trkpt><trkpt lat="46.5530198" lon="12.6040059"><ele>1440.0</ele><time>2026-05-01T07:45:52.754Z</time></trkpt><trkpt lat="46.5531046" lon="12.6039581"><ele>1442.0</ele><time>2026-05-01T07:45:53.753Z</time></trkpt><trkpt lat="46.5531866" lon="12.6039327"><ele>1442.0</ele><time>2026-05-01T07:45:54.754Z</time></trkpt><trkpt lat="46.5532578" lon="12.6039733"><ele>1442.0</ele><time>2026-05-01T07:45:55.753Z</time></trkpt><trkpt lat="46.553322" lon="12.6040382"><ele>1442.0</ele><time>2026-05-01T07:45:56.754Z</time></trkpt><trkpt lat="46.5533794" lon="12.6041243"><ele>1442.0</ele><time>2026-05-01T07:45:57.753Z</time></trkpt><trkpt lat="46.5534244" lon="12.6042393"><ele>1442.0</ele><time>2026-05-01T07:45:58.753Z</time></trkpt><trkpt lat="46.5534622" lon="12.6043581"><ele>1442.0</ele><time>2026-05-01T07:45:59.753Z</time></trkpt><trkpt lat="46.5534808" lon="12.6044901"><ele>1445.3999999999999</ele><time>2026-05-01T07:46:00.753Z</time></trkpt><trkpt lat="46.5534626" lon="12.6045976"><ele>1448.8</ele><time>2026-05-01T07:46:01.752Z</time></trkpt><trkpt lat="46.5534132" lon="12.6046981"><ele>1452.2</ele><time>2026-05-01T07:46:02.753Z</time></trkpt><trkpt lat="46.5533381" lon="12.604801"><ele>1455.6</ele><time>2026-05-01T07:46:03.753Z</time></trkpt><trkpt lat="46.5532517" lon="12.6049089"><ele>1459.0</ele><time>2026-05-01T07:46:04.753Z</time></trkpt><trkpt lat="46.5531687" lon="12.6050167"><ele>1459.0</ele><time>2026-05-01T07:46:05.753Z</time></trkpt><trkpt lat="46.5530951" lon="12.6051571"><ele>1459.0</ele><time>2026-05-01T07:46:06.751Z</time></trkpt><trkpt lat="46.5530358" lon="12.6053062"><ele>1459.0</ele><time>2026-05-01T07:46:07.753Z</time></trkpt><trkpt lat="46.5529895" lon="12.6054666"><ele>1459.0</ele><time>2026-05-01T07:46:08.754Z</time></trkpt><trkpt lat="46.552958" lon="12.6056248"><ele>1463.0</ele><time>2026-05-01T07:46:09.751Z</time></trkpt><trkpt lat="46.552962" lon="12.6057734"><ele>1467.0</ele><time>2026-05-01T07:46:10.754Z</time></trkpt><trkpt lat="46.5529713" lon="12.6059262"><ele>1471.0</ele><time>2026-05-01T07:46:11.754Z</time></trkpt><trkpt lat="46.5529872" lon="12.6060764"><ele>1475.0</ele><time>2026-05-01T07:46:12.753Z</time></trkpt><trkpt lat="46.5530008" lon="12.6062468"><ele>1479.0</ele><time>2026-05-01T07:46:13.753Z</time></trkpt><trkpt lat="46.5530001" lon="12.6064362"><ele>1482.5</ele><time>2026-05-01T07:46:14.752Z</time></trkpt><trkpt lat="46.5529996" lon="12.6066378"><ele>1486.0</ele><time>2026-05-01T07:46:15.753Z</time></trkpt><trkpt lat="46.5529966" lon="12.6068455"><ele>1489.5</ele><time>2026-05-01T07:46:16.753Z</time></trkpt><trkpt lat="46.5529914" lon="12.6070487"><ele>1493.0</ele><time>2026-05-01T07:46:17.753Z</time></trkpt><trkpt lat="46.552986" lon="12.6072686"><ele>1496.5</ele><time>2026-05-01T07:46:18.754Z</time></trkpt><trkpt lat="46.5529651" lon="12.6074543"><ele>1500.0</ele><time>2026-05-01T07:46:19.753Z</time></trkpt><trkpt lat="46.5529559" lon="12.6076398"><ele>1503.5</ele><time>2026-05-01T07:46:20.752Z</time></trkpt><trkpt lat="46.5529544" lon="12.6078855"><ele>1507.0</ele><time>2026-05-01T07:46:21.753Z</time></trkpt><trkpt lat="46.5529542" lon="12.6081178"><ele>1509.75</ele><time>2026-05-01T07:46:22.752Z</time></trkpt><trkpt lat="46.5529567" lon="12.6083306"><ele>1512.5</ele><time>2026-05-01T07:46:23.753Z</time></trkpt><trkpt lat="46.5529561" lon="12.608542"><ele>1515.25</ele><time>2026-05-01T07:46:24.752Z</time></trkpt><trkpt lat="46.5529241" lon="12.608689"><ele>1518.0</ele><time>2026-05-01T07:46:25.752Z</time></trkpt><trkpt lat="46.5528911" lon="12.6088416"><ele>1515.4</ele><time>2026-05-01T07:46:26.754Z</time></trkpt><trkpt lat="46.5528616" lon="12.6089805"><ele>1512.8000000000002</ele><time>2026-05-01T07:46:27.752Z</time></trkpt><trkpt lat="46.552849" lon="12.6090847"><ele>1510.2</ele><time>2026-05-01T07:46:28.752Z</time></trkpt><trkpt lat="46.5529014" lon="12.6091927"><ele>1507.6</ele><time>2026-05-01T07:46:30.753Z</time></trkpt><trkpt lat="46.5529824" lon="12.609087"><ele>1505.0</ele><time>2026-05-01T07:46:32.754Z</time></trkpt><trkpt lat="46.5530496" lon="12.6089059"><ele>1507.6</ele><time>2026-05-01T07:46:34.752Z</time></trkpt><trkpt lat="46.5531024" lon="12.6087897"><ele>1510.2</ele><time>2026-05-01T07:46:35.754Z</time></trkpt><trkpt lat="46.5531503" lon="12.6086782"><ele>1512.8000000000002</ele><time>2026-05-01T07:46:36.753Z</time></trkpt><trkpt lat="46.5531827" lon="12.6085534"><ele>1515.4</ele><time>2026-05-01T07:46:37.753Z</time></trkpt><trkpt lat="46.5531935" lon="12.6084227"><ele>1518.0</ele><time>2026-05-01T07:46:38.751Z</time></trkpt><trkpt lat="46.5532082" lon="12.6083017"><ele>1518.0</ele><time>2026-05-01T07:46:39.753Z</time></trkpt><trkpt lat="46.5532271" lon="12.608154"><ele>1518.0</ele><time>2026-05-01T07:46:40.754Z</time></trkpt><trkpt lat="46.5532457" lon="12.6080188"><ele>1518.0</ele><time>2026-05-01T07:46:41.753Z</time></trkpt><trkpt lat="46.5532495" lon="12.60789"><ele>1518.0</ele><time>2026-05-01T07:46:42.754Z</time></trkpt><trkpt lat="46.5532521" lon="12.6077654"><ele>1518.0</ele><time>2026-05-01T07:46:43.753Z</time></trkpt><trkpt lat="46.5532713" lon="12.6076352"><ele>1516.1666666666667</ele><time>2026-05-01T07:46:44.753Z</time></trkpt><trkpt lat="46.5532873" lon="12.6075152"><ele>1514.3333333333333</ele><time>2026-05-01T07:46:45.754Z</time></trkpt><trkpt lat="46.5533111" lon="12.607401"><ele>1512.5</ele><time>2026-05-01T07:46:46.752Z</time></trkpt><trkpt lat="46.553333" lon="12.6072978"><ele>1510.6666666666665</ele><time>2026-05-01T07:46:47.754Z</time></trkpt><trkpt lat="46.5533612" lon="12.6072061"><ele>1508.8333333333333</ele><time>2026-05-01T07:46:48.754Z</time></trkpt><trkpt lat="46.5534285" lon="12.6070828"><ele>1507.0</ele><time>2026-05-01T07:46:50.754Z</time></trkpt><trkpt lat="46.5534959" lon="12.6070177"><ele>1507.0</ele><time>2026-05-01T07:46:52.752Z</time></trkpt><trkpt lat="46.5535655" lon="12.6070541"><ele>1507.0</ele><time>2026-05-01T07:46:55.753Z</time></trkpt><trkpt lat="46.5536234" lon="12.6071355"><ele>1507.0</ele><time>2026-05-01T07:46:58.753Z</time></trkpt><trkpt lat="46.5536885" lon="12.6072035"><ele>1507.0</ele><time>2026-05-01T07:47:01.753Z</time></trkpt><trkpt lat="46.5537315" lon="12.6072756"><ele>1507.0</ele><time>2026-05-01T07:47:03.752Z</time></trkpt><trkpt lat="46.5537146" lon="12.60741"><ele>1507.0</ele><time>2026-05-01T07:47:06.753Z</time></trkpt><trkpt lat="46.5536922" lon="12.6075183"><ele>1507.0</ele><time>2026-05-01T07:47:08.753Z</time></trkpt><trkpt lat="46.5537003" lon="12.6076558"><ele>1507.0</ele><time>2026-05-01T07:47:10.754Z</time></trkpt><trkpt lat="46.5537053" lon="12.6078039"><ele>1507.0</ele><time>2026-05-01T07:47:12.752Z</time></trkpt><trkpt lat="46.5537138" lon="12.6079588"><ele>1507.0</ele><time>2026-05-01T07:47:14.753Z</time></trkpt><trkpt lat="46.5537271" lon="12.6080827"><ele>1507.0</ele><time>2026-05-01T07:47:16.753Z</time></trkpt><trkpt lat="46.5537457" lon="12.6082172"><ele>1512.6666666666665</ele><time>2026-05-01T07:47:18.754Z</time></trkpt><trkpt lat="46.5537687" lon="12.6083339"><ele>1518.3333333333333</ele><time>2026-05-01T07:47:20.752Z</time></trkpt><trkpt lat="46.5537704" lon="12.6084586"><ele>1524.0</ele><time>2026-05-01T07:47:22.753Z</time></trkpt><trkpt lat="46.5537611" lon="12.6085516"><ele>1529.6666666666665</ele><time>2026-05-01T07:47:23.753Z</time></trkpt><trkpt lat="46.5537497" lon="12.6086924"><ele>1535.3333333333333</ele><time>2026-05-01T07:47:25.754Z</time></trkpt><trkpt lat="46.5537503" lon="12.608827"><ele>1541.0</ele><time>2026-05-01T07:47:27.753Z</time></trkpt><trkpt lat="46.5537197" lon="12.6089276"><ele>1543.6</ele><time>2026-05-01T07:47:29.753Z</time></trkpt><trkpt lat="46.5537274" lon="12.609048"><ele>1546.1999999999998</ele><time>2026-05-01T07:47:31.753Z</time></trkpt><trkpt lat="46.5537063" lon="12.6091766"><ele>1548.8000000000002</ele><time>2026-05-01T07:47:33.753Z</time></trkpt><trkpt lat="46.5537063" lon="12.6093548"><ele>1551.4</ele><time>2026-05-01T07:47:35.752Z</time></trkpt><trkpt lat="46.5536915" lon="12.609506"><ele>1554.0</ele><time>2026-05-01T07:47:37.752Z</time></trkpt><trkpt lat="46.5536993" lon="12.6096392"><ele>1554.0</ele><time>2026-05-01T07:47:39.753Z</time></trkpt><trkpt lat="46.5536877" lon="12.6097784"><ele>1554.0</ele><time>2026-05-01T07:47:41.753Z</time></trkpt><trkpt lat="46.5536458" lon="12.6099482"><ele>1554.0</ele><time>2026-05-01T07:47:43.753Z</time></trkpt><trkpt lat="46.5536139" lon="12.6100336"><ele>1554.0</ele><time>2026-05-01T07:47:44.753Z</time></trkpt><trkpt lat="46.5535349" lon="12.6101933"><ele>1554.0</ele><time>2026-05-01T07:47:46.753Z</time></trkpt><trkpt lat="46.5534794" lon="12.6102659"><ele>1557.1666666666667</ele><time>2026-05-01T07:47:47.752Z</time></trkpt><trkpt lat="46.5534281" lon="12.6103388"><ele>1560.3333333333335</ele><time>2026-05-01T07:47:48.753Z</time></trkpt><trkpt lat="46.5533722" lon="12.6104154"><ele>1563.5</ele><time>2026-05-01T07:47:49.753Z</time></trkpt><trkpt lat="46.5533213" lon="12.6104902"><ele>1566.6666666666667</ele><time>2026-05-01T07:47:50.753Z</time></trkpt><trkpt lat="46.5532762" lon="12.6105772"><ele>1569.8333333333335</ele><time>2026-05-01T07:47:51.751Z</time></trkpt><trkpt lat="46.5532383" lon="12.6106556"><ele>1573.0</ele><time>2026-05-01T07:47:52.753Z</time></trkpt><trkpt lat="46.5531713" lon="12.6108006"><ele>1573.0000000000002</ele><time>2026-05-01T07:47:54.754Z</time></trkpt><trkpt lat="46.553134" lon="12.6108798"><ele>1573.0</ele><time>2026-05-01T07:47:55.753Z</time></trkpt><trkpt lat="46.5530942" lon="12.6109521"><ele>1573.0</ele><time>2026-05-01T07:47:56.753Z</time></trkpt><trkpt lat="46.5530474" lon="12.6110208"><ele>1573.0</ele><time>2026-05-01T07:47:57.753Z</time></trkpt><trkpt lat="46.5529961" lon="12.6110834"><ele>1573.0000000000002</ele><time>2026-05-01T07:47:58.754Z</time></trkpt><trkpt lat="46.5529025" lon="12.6111867"><ele>1573.0</ele><time>2026-05-01T07:48:00.754Z</time></trkpt><trkpt lat="46.5527984" lon="12.6112182"><ele>1572.0</ele><time>2026-05-01T07:48:02.753Z</time></trkpt><trkpt lat="46.552699" lon="12.6112756"><ele>1571.0</ele><time>2026-05-01T07:48:04.752Z</time></trkpt><trkpt lat="46.5525969" lon="12.6113707"><ele>1570.0</ele><time>2026-05-01T07:48:06.753Z</time></trkpt><trkpt lat="46.5525037" lon="12.6114693"><ele>1569.0</ele><time>2026-05-01T07:48:08.753Z</time></trkpt><trkpt lat="46.5524052" lon="12.6115381"><ele>1569.0</ele><time>2026-05-01T07:48:10.753Z</time></trkpt><trkpt lat="46.5523169" lon="12.6116254"><ele>1569.0</ele><time>2026-05-01T07:48:12.753Z</time></trkpt><trkpt lat="46.5522725" lon="12.6116935"><ele>1569.0</ele><time>2026-05-01T07:48:13.752Z</time></trkpt><trkpt lat="46.5522227" lon="12.6117546"><ele>1569.0</ele><time>2026-05-01T07:48:14.753Z</time></trkpt><trkpt lat="46.5521798" lon="12.6118266"><ele>1569.0</ele><time>2026-05-01T07:48:15.753Z</time></trkpt><trkpt lat="46.5521124" lon="12.6119604"><ele>1569.0</ele><time>2026-05-01T07:48:17.752Z</time></trkpt><trkpt lat="46.5520473" lon="12.6120872"><ele>1566.8000000000002</ele><time>2026-05-01T07:48:19.752Z</time></trkpt><trkpt lat="46.5519703" lon="12.6121857"><ele>1564.6000000000001</ele><time>2026-05-01T07:48:21.754Z</time></trkpt><trkpt lat="46.5518844" lon="12.6122575"><ele>1562.4</ele><time>2026-05-01T07:48:23.752Z</time></trkpt><trkpt lat="46.5518208" lon="12.6123672"><ele>1560.2</ele><time>2026-05-01T07:48:25.753Z</time></trkpt><trkpt lat="46.5517781" lon="12.6124961"><ele>1558.0</ele><time>2026-05-01T07:48:27.753Z</time></trkpt><trkpt lat="46.5517505" lon="12.6126494"><ele>1558.0</ele><time>2026-05-01T07:48:29.754Z</time></trkpt><trkpt lat="46.5517398" lon="12.6128208"><ele>1558.0</ele><time>2026-05-01T07:48:31.753Z</time></trkpt><trkpt lat="46.5517051" lon="12.6129914"><ele>1558.0</ele><time>2026-05-01T07:48:33.753Z</time></trkpt><trkpt lat="46.5516122" lon="12.613089"><ele>1558.0</ele><time>2026-05-01T07:48:35.753Z</time></trkpt><trkpt lat="46.5515461" lon="12.6131041"><ele>1558.0</ele><time>2026-05-01T07:48:36.753Z</time></trkpt><trkpt lat="46.5514809" lon="12.6131221"><ele>1559.0</ele><time>2026-05-01T07:48:37.752Z</time></trkpt><trkpt lat="46.5513674" lon="12.6131834"><ele>1560.0</ele><time>2026-05-01T07:48:39.753Z</time></trkpt><trkpt lat="46.5512594" lon="12.6132245"><ele>1561.0</ele><time>2026-05-01T07:48:41.752Z</time></trkpt><trkpt lat="46.551197" lon="12.613237"><ele>1562.0</ele><time>2026-05-01T07:48:43.753Z</time></trkpt><trkpt lat="46.5511241" lon="12.613236"><ele>1563.0</ele><time>2026-05-01T07:52:44.752Z</time></trkpt><trkpt lat="46.5510409" lon="12.6132139"><ele>1561.1666666666667</ele><time>2026-05-01T07:52:47.752Z</time></trkpt><trkpt lat="46.5509736" lon="12.6132857"><ele>1559.3333333333335</ele><time>2026-05-01T07:52:50.754Z</time></trkpt><trkpt lat="46.5509044" lon="12.6133163"><ele>1557.5</ele><time>2026-05-01T07:52:52.753Z</time></trkpt><trkpt lat="46.5508144" lon="12.6133316"><ele>1555.6666666666667</ele><time>2026-05-01T07:52:54.753Z</time></trkpt><trkpt lat="46.5507475" lon="12.6133863"><ele>1553.8333333333335</ele><time>2026-05-01T07:52:56.753Z</time></trkpt><trkpt lat="46.5506886" lon="12.6134531"><ele>1552.0</ele><time>2026-05-01T07:52:58.751Z</time></trkpt><trkpt lat="46.5506287" lon="12.6134927"><ele>1552.0000000000002</ele><time>2026-05-01T07:53:00.753Z</time></trkpt><trkpt lat="46.550572" lon="12.6135489"><ele>1552.0</ele><time>2026-05-01T07:53:02.753Z</time></trkpt><trkpt lat="46.5505054" lon="12.6136552"><ele>1552.0</ele><time>2026-05-01T07:53:05.754Z</time></trkpt><trkpt lat="46.5504503" lon="12.6137612"><ele>1552.0</ele><time>2026-05-01T07:53:08.753Z</time></trkpt><trkpt lat="46.5503881" lon="12.6138265"><ele>1552.0000000000002</ele><time>2026-05-01T07:53:11.753Z</time></trkpt><trkpt lat="46.5503247" lon="12.6139338"><ele>1552.0</ele><time>2026-05-01T07:53:14.753Z</time></trkpt><trkpt lat="46.5503007" lon="12.6140489"><ele>1553.3333333333335</ele><time>2026-05-01T07:53:16.754Z</time></trkpt><trkpt lat="46.5502501" lon="12.6141279"><ele>1554.6666666666667</ele><time>2026-05-01T07:53:18.753Z</time></trkpt><trkpt lat="46.5502104" lon="12.614238"><ele>1556.0</ele><time>2026-05-01T07:53:21.753Z</time></trkpt><trkpt lat="46.5502102" lon="12.6143436"><ele>1557.3333333333335</ele><time>2026-05-01T07:53:24.753Z</time></trkpt><trkpt lat="46.5502185" lon="12.6144437"><ele>1558.6666666666667</ele><time>2026-05-01T07:53:26.754Z</time></trkpt><trkpt lat="46.5502187" lon="12.6145748"><ele>1560.0</ele><time>2026-05-01T07:53:29.753Z</time></trkpt><trkpt lat="46.5502426" lon="12.6146621"><ele>1562.8333333333333</ele><time>2026-05-01T07:53:33.753Z</time></trkpt><trkpt lat="46.5502683" lon="12.614783"><ele>1565.6666666666665</ele><time>2026-05-01T07:53:37.753Z</time></trkpt><trkpt lat="46.5502658" lon="12.6148933"><ele>1568.5</ele><time>2026-05-01T07:53:39.752Z</time></trkpt><trkpt lat="46.5502486" lon="12.6150365"><ele>1571.3333333333333</ele><time>2026-05-01T07:53:41.753Z</time></trkpt><trkpt lat="46.5502352" lon="12.6151477"><ele>1574.1666666666665</ele><time>2026-05-01T07:53:43.754Z</time></trkpt><trkpt lat="46.5501894" lon="12.6152724"><ele>1577.0</ele><time>2026-05-01T07:53:45.753Z</time></trkpt><trkpt lat="46.5501602" lon="12.6153987"><ele>1579.2857142857144</ele><time>2026-05-01T07:53:47.753Z</time></trkpt><trkpt lat="46.550147" lon="12.6154962"><ele>1581.5714285714284</ele><time>2026-05-01T07:53:49.753Z</time></trkpt><trkpt lat="46.5501579" lon="12.6155916"><ele>1583.857142857143</ele><time>2026-05-01T07:53:52.753Z</time></trkpt><trkpt lat="46.5501842" lon="12.6156763"><ele>1586.1428571428573</ele><time>2026-05-01T07:53:55.753Z</time></trkpt><trkpt lat="46.5501334" lon="12.6157531"><ele>1588.4285714285716</ele><time>2026-05-01T07:54:12.754Z</time></trkpt><trkpt lat="46.5501537" lon="12.6158739"><ele>1590.7142857142858</ele><time>2026-05-01T07:54:14.754Z</time></trkpt><trkpt lat="46.5501772" lon="12.6159731"><ele>1593.0</ele><time>2026-05-01T07:54:17.754Z</time></trkpt><trkpt lat="46.5501629" lon="12.616105"><ele>1595.3333333333333</ele><time>2026-05-01T07:54:20.754Z</time></trkpt><trkpt lat="46.5501106" lon="12.616208"><ele>1597.6666666666665</ele><time>2026-05-01T07:54:22.753Z</time></trkpt><trkpt lat="46.5500569" lon="12.6162754"><ele>1600.0</ele><time>2026-05-01T07:54:25.754Z</time></trkpt><trkpt lat="46.5499892" lon="12.6163286"><ele>1602.3333333333333</ele><time>2026-05-01T07:54:28.754Z</time></trkpt><trkpt lat="46.549944" lon="12.6164402"><ele>1604.6666666666665</ele><time>2026-05-01T07:54:31.752Z</time></trkpt><trkpt lat="46.5499711" lon="12.6165445"><ele>1607.0</ele><time>2026-05-01T07:54:36.753Z</time></trkpt><trkpt lat="46.5500039" lon="12.6166248"><ele>1606.9999999999998</ele><time>2026-05-01T07:54:40.754Z</time></trkpt><trkpt lat="46.5500525" lon="12.6167174"><ele>1607.0</ele><time>2026-05-01T07:54:43.753Z</time></trkpt><trkpt lat="46.5501061" lon="12.616815"><ele>1607.0</ele><time>2026-05-01T07:54:46.752Z</time></trkpt><trkpt lat="46.5501475" lon="12.6169419"><ele>1607.0</ele><time>2026-05-01T07:54:49.752Z</time></trkpt><trkpt lat="46.5501723" lon="12.617045"><ele>1606.9999999999998</ele><time>2026-05-01T07:54:51.754Z</time></trkpt><trkpt lat="46.5501799" lon="12.617155"><ele>1607.0</ele><time>2026-05-01T07:54:53.753Z</time></trkpt><trkpt lat="46.5501648" lon="12.6172568"><ele>1608.9999999999998</ele><time>2026-05-01T07:54:55.752Z</time></trkpt><trkpt lat="46.5501312" lon="12.6173495"><ele>1611.0</ele><time>2026-05-01T07:54:57.754Z</time></trkpt><trkpt lat="46.550075" lon="12.6174457"><ele>1613.0</ele><time>2026-05-01T07:54:59.754Z</time></trkpt><trkpt lat="46.5500604" lon="12.617543"><ele>1615.0</ele><time>2026-05-01T07:55:01.753Z</time></trkpt><trkpt lat="46.5500753" lon="12.6176348"><ele>1616.9999999999998</ele><time>2026-05-01T07:55:03.754Z</time></trkpt><trkpt lat="46.5500373" lon="12.6177324"><ele>1619.0</ele><time>2026-05-01T07:55:06.753Z</time></trkpt><trkpt lat="46.5499995" lon="12.6178541"><ele>1620.1666666666665</ele><time>2026-05-01T07:55:09.753Z</time></trkpt><trkpt lat="46.5500075" lon="12.6179701"><ele>1621.3333333333333</ele><time>2026-05-01T07:55:11.754Z</time></trkpt><trkpt lat="46.550018" lon="12.6180967"><ele>1622.5</ele><time>2026-05-01T07:55:13.754Z</time></trkpt><trkpt lat="46.5500009" lon="12.6182175"><ele>1623.6666666666665</ele><time>2026-05-01T07:55:15.753Z</time></trkpt><trkpt lat="46.5499857" lon="12.6183527"><ele>1624.8333333333333</ele><time>2026-05-01T07:55:17.754Z</time></trkpt><trkpt lat="46.5499634" lon="12.6184949"><ele>1626.0</ele><time>2026-05-01T07:55:19.753Z</time></trkpt><trkpt lat="46.5499465" lon="12.6186511"><ele>1627.8333333333333</ele><time>2026-05-01T07:55:21.752Z</time></trkpt><trkpt lat="46.549936" lon="12.6187426"><ele>1629.6666666666665</ele><time>2026-05-01T07:55:22.754Z</time></trkpt><trkpt lat="46.549923" lon="12.618842"><ele>1631.5</ele><time>2026-05-01T07:55:23.751Z</time></trkpt><trkpt lat="46.54991" lon="12.6189401"><ele>1633.3333333333333</ele><time>2026-05-01T07:55:24.753Z</time></trkpt><trkpt lat="46.549893" lon="12.6190388"><ele>1635.1666666666665</ele><time>2026-05-01T07:55:25.753Z</time></trkpt><trkpt lat="46.5498693" lon="12.6192142"><ele>1637.0</ele><time>2026-05-01T07:55:27.753Z</time></trkpt><trkpt lat="46.5498609" lon="12.6193816"><ele>1641.0</ele><time>2026-05-01T07:55:29.754Z</time></trkpt><trkpt lat="46.5498712" lon="12.6195449"><ele>1645.0</ele><time>2026-05-01T07:55:31.754Z</time></trkpt><trkpt lat="46.5498905" lon="12.6197078"><ele>1649.0</ele><time>2026-05-01T07:55:33.752Z</time></trkpt><trkpt lat="46.5498693" lon="12.6198515"><ele>1653.0</ele><time>2026-05-01T07:55:35.754Z</time></trkpt><trkpt lat="46.5498346" lon="12.6199762"><ele>1657.0</ele><time>2026-05-01T07:55:37.754Z</time></trkpt><trkpt lat="46.5497965" lon="12.6200888"><ele>1657.0000000000002</ele><time>2026-05-01T07:55:39.752Z</time></trkpt><trkpt lat="46.5497703" lon="12.6202172"><ele>1657.0</ele><time>2026-05-01T07:55:41.753Z</time></trkpt><trkpt lat="46.5498107" lon="12.6203558"><ele>1657.0</ele><time>2026-05-01T07:55:43.753Z</time></trkpt><trkpt lat="46.549859" lon="12.6204551"><ele>1657.0</ele><time>2026-05-01T07:55:45.754Z</time></trkpt><trkpt lat="46.5498907" lon="12.6205375"><ele>1657.0000000000002</ele><time>2026-05-01T07:55:47.753Z</time></trkpt><trkpt lat="46.5498818" lon="12.6206502"><ele>1657.0</ele><time>2026-05-01T07:55:49.753Z</time></trkpt><trkpt lat="46.5498579" lon="12.6207661"><ele>1658.3999999999999</ele><time>2026-05-01T07:55:51.753Z</time></trkpt><trkpt lat="46.5498666" lon="12.6208953"><ele>1659.8</ele><time>2026-05-01T07:55:53.753Z</time></trkpt><trkpt lat="46.5498562" lon="12.6210347"><ele>1661.2</ele><time>2026-05-01T07:55:55.754Z</time></trkpt><trkpt lat="46.5498549" lon="12.6211834"><ele>1662.6</ele><time>2026-05-01T07:55:57.753Z</time></trkpt><trkpt lat="46.5498514" lon="12.6213439"><ele>1664.0</ele><time>2026-05-01T07:55:59.754Z</time></trkpt><trkpt lat="46.5498404" lon="12.6214853"><ele>1665.8000000000002</ele><time>2026-05-01T07:56:01.753Z</time></trkpt><trkpt lat="46.5498489" lon="12.6216393"><ele>1667.6000000000001</ele><time>2026-05-01T07:56:03.753Z</time></trkpt><trkpt lat="46.5498741" lon="12.6217983"><ele>1669.4</ele><time>2026-05-01T07:56:05.754Z</time></trkpt><trkpt lat="46.5498869" lon="12.6219715"><ele>1671.2</ele><time>2026-05-01T07:56:07.753Z</time></trkpt><trkpt lat="46.5498854" lon="12.6220643"><ele>1673.0</ele><time>2026-05-01T07:56:08.754Z</time></trkpt><trkpt lat="46.5498664" lon="12.6221538"><ele>1674.0</ele><time>2026-05-01T07:56:09.754Z</time></trkpt><trkpt lat="46.5498706" lon="12.6223077"><ele>1675.0</ele><time>2026-05-01T07:56:11.753Z</time></trkpt><trkpt lat="46.5499767" lon="12.6223614"><ele>1676.0</ele><time>2026-05-01T07:56:13.753Z</time></trkpt><trkpt lat="46.5500459" lon="12.6223539"><ele>1677.0</ele><time>2026-05-01T07:56:14.754Z</time></trkpt><trkpt lat="46.5501105" lon="12.6223316"><ele>1678.0</ele><time>2026-05-01T07:56:15.752Z</time></trkpt><trkpt lat="46.5502194" lon="12.6223183"><ele>1678.0000000000002</ele><time>2026-05-01T07:56:17.753Z</time></trkpt><trkpt lat="46.5502919" lon="12.6222892"><ele>1678.0</ele><time>2026-05-01T07:56:21.753Z</time></trkpt><trkpt lat="46.5503596" lon="12.622327"><ele>1678.0</ele><time>2026-05-01T07:56:23.753Z</time></trkpt><trkpt lat="46.550427" lon="12.6223728"><ele>1678.0</ele><time>2026-05-01T07:56:25.753Z</time></trkpt><trkpt lat="46.550495" lon="12.6224093"><ele>1678.0000000000002</ele><time>2026-05-01T07:56:27.752Z</time></trkpt><trkpt lat="46.5505923" lon="12.6224351"><ele>1678.0</ele><time>2026-05-01T07:56:29.753Z</time></trkpt><trkpt lat="46.5506739" lon="12.6224621"><ele>1677.0</ele><time>2026-05-01T07:56:31.752Z</time></trkpt><trkpt lat="46.5507398" lon="12.6224766"><ele>1676.0</ele><time>2026-05-01T07:56:33.754Z</time></trkpt><trkpt lat="46.550793" lon="12.6224261"><ele>1675.0</ele><time>2026-05-01T07:57:01.752Z</time></trkpt><trkpt lat="46.5508239" lon="12.6223289"><ele>1674.0</ele><time>2026-05-01T07:57:04.753Z</time></trkpt><trkpt lat="46.5508794" lon="12.6222731"><ele>1673.0</ele><time>2026-05-01T07:57:07.753Z</time></trkpt><trkpt lat="46.5509202" lon="12.6221798"><ele>1672.0</ele><time>2026-05-01T07:57:11.754Z</time></trkpt><trkpt lat="46.5509441" lon="12.6220714"><ele>1671.0</ele><time>2026-05-01T07:57:16.753Z</time></trkpt><trkpt lat="46.5509895" lon="12.6219795"><ele>1671.0</ele><time>2026-05-01T07:57:19.754Z</time></trkpt><trkpt lat="46.5510611" lon="12.6219228"><ele>1671.0</ele><time>2026-05-01T07:57:22.753Z</time></trkpt><trkpt lat="46.5511507" lon="12.6218938"><ele>1671.0</ele><time>2026-05-01T07:57:25.754Z</time></trkpt><trkpt lat="46.5512166" lon="12.6218196"><ele>1671.0</ele><time>2026-05-01T07:57:28.752Z</time></trkpt><trkpt lat="46.5512418" lon="12.6217018"><ele>1671.0</ele><time>2026-05-01T07:57:31.754Z</time></trkpt><trkpt lat="46.5512712" lon="12.6216172"><ele>1671.0</ele><time>2026-05-01T07:57:34.753Z</time></trkpt><trkpt lat="46.5513167" lon="12.6215246"><ele>1673.6666666666667</ele><time>2026-05-01T07:57:37.753Z</time></trkpt><trkpt lat="46.5513705" lon="12.6214745"><ele>1676.3333333333335</ele><time>2026-05-01T07:57:44.754Z</time></trkpt><trkpt lat="46.5514498" lon="12.6214144"><ele>1679.0</ele><time>2026-05-01T07:57:47.754Z</time></trkpt><trkpt lat="46.5515335" lon="12.6213735"><ele>1681.6666666666667</ele><time>2026-05-01T07:57:50.751Z</time></trkpt><trkpt lat="46.5515882" lon="12.621294"><ele>1684.3333333333335</ele><time>2026-05-01T07:57:54.753Z</time></trkpt><trkpt lat="46.5516633" lon="12.6212613"><ele>1687.0</ele><time>2026-05-01T07:57:58.754Z</time></trkpt><trkpt lat="46.5517106" lon="12.6211828"><ele>1685.142857142857</ele><time>2026-05-01T07:58:01.753Z</time></trkpt><trkpt lat="46.5517417" lon="12.6210923"><ele>1683.2857142857142</ele><time>2026-05-01T07:58:04.753Z</time></trkpt><trkpt lat="46.5517651" lon="12.621"><ele>1681.4285714285716</ele><time>2026-05-01T07:58:08.753Z</time></trkpt><trkpt lat="46.551785" lon="12.6208984"><ele>1679.5714285714284</ele><time>2026-05-01T07:58:12.752Z</time></trkpt><trkpt lat="46.5518197" lon="12.6208044"><ele>1677.7142857142858</ele><time>2026-05-01T07:58:15.754Z</time></trkpt><trkpt lat="46.5518609" lon="12.6207161"><ele>1675.857142857143</ele><time>2026-05-01T07:58:19.752Z</time></trkpt><trkpt lat="46.5519422" lon="12.6206965"><ele>1674.0</ele><time>2026-05-01T07:58:22.753Z</time></trkpt><trkpt lat="46.5520163" lon="12.6206631"><ele>1674.0</ele><time>2026-05-01T07:58:26.753Z</time></trkpt><trkpt lat="46.5520351" lon="12.6205755"><ele>1674.0</ele><time>2026-05-01T07:59:30.752Z</time></trkpt><trkpt lat="46.5520868" lon="12.6205055"><ele>1674.0</ele><time>2026-05-01T07:59:34.752Z</time></trkpt><trkpt lat="46.5521369" lon="12.6204412"><ele>1674.0</ele><time>2026-05-01T07:59:40.753Z</time></trkpt><trkpt lat="46.5522052" lon="12.6203842"><ele>1674.0</ele><time>2026-05-01T08:01:51.752Z</time></trkpt><trkpt lat="46.5522678" lon="12.6203478"><ele>1674.0</ele><time>2026-05-01T08:01:53.752Z</time></trkpt><trkpt lat="46.5523258" lon="12.6203081"><ele>1674.0</ele><time>2026-05-01T08:01:55.752Z</time></trkpt><trkpt lat="46.5523938" lon="12.6202266"><ele>1674.6666666666667</ele><time>2026-05-01T08:01:58.752Z</time></trkpt><trkpt lat="46.5524693" lon="12.6202159"><ele>1675.3333333333335</ele><time>2026-05-01T08:02:01.753Z</time></trkpt><trkpt lat="46.55254" lon="12.6202303"><ele>1676.0</ele><time>2026-05-01T08:02:04.753Z</time></trkpt><trkpt lat="46.5525899" lon="12.6201596"><ele>1676.6666666666667</ele><time>2026-05-01T08:02:07.752Z</time></trkpt><trkpt lat="46.5526487" lon="12.6201084"><ele>1677.3333333333335</ele><time>2026-05-01T08:02:10.752Z</time></trkpt><trkpt lat="46.5527275" lon="12.6200519"><ele>1678.0</ele><time>2026-05-01T08:02:13.752Z</time></trkpt><trkpt lat="46.5528024" lon="12.6199811"><ele>1678.0000000000002</ele><time>2026-05-01T08:02:16.753Z</time></trkpt><trkpt lat="46.5527987" lon="12.6198755"><ele>1678.0</ele><time>2026-05-01T08:07:28.752Z</time></trkpt><trkpt lat="46.5527418" lon="12.6197612"><ele>1678.0</ele><time>2026-05-01T08:07:31.752Z</time></trkpt><trkpt lat="46.5526975" lon="12.6196668"><ele>1678.0</ele><time>2026-05-01T08:07:33.753Z</time></trkpt><trkpt lat="46.5526938" lon="12.6195377"><ele>1678.0000000000002</ele><time>2026-05-01T08:07:35.752Z</time></trkpt><trkpt lat="46.5526705" lon="12.6194035"><ele>1678.0</ele><time>2026-05-01T08:07:37.753Z</time></trkpt><trkpt lat="46.5526606" lon="12.6192832"><ele>1675.6666666666667</ele><time>2026-05-01T08:07:39.753Z</time></trkpt><trkpt lat="46.5526475" lon="12.6191828"><ele>1673.3333333333335</ele><time>2026-05-01T08:07:41.753Z</time></trkpt><trkpt lat="46.5525959" lon="12.6191272"><ele>1671.0</ele><time>2026-05-01T08:07:43.754Z</time></trkpt><trkpt lat="46.5525453" lon="12.6190365"><ele>1668.6666666666665</ele><time>2026-05-01T08:07:45.754Z</time></trkpt><trkpt lat="46.5525111" lon="12.6189061"><ele>1666.3333333333333</ele><time>2026-05-01T08:07:47.754Z</time></trkpt><trkpt lat="46.5525137" lon="12.6187709"><ele>1664.0</ele><time>2026-05-01T08:07:49.753Z</time></trkpt><trkpt lat="46.5525089" lon="12.6186637"><ele>1661.4</ele><time>2026-05-01T08:07:51.754Z</time></trkpt><trkpt lat="46.5524983" lon="12.618538"><ele>1658.8000000000002</ele><time>2026-05-01T08:07:53.754Z</time></trkpt><trkpt lat="46.5524878" lon="12.6184025"><ele>1656.1999999999998</ele><time>2026-05-01T08:07:55.752Z</time></trkpt><trkpt lat="46.5524733" lon="12.618253"><ele>1653.6</ele><time>2026-05-01T08:07:57.752Z</time></trkpt><trkpt lat="46.5524435" lon="12.6181232"><ele>1651.0</ele><time>2026-05-01T08:07:59.754Z</time></trkpt><trkpt lat="46.5524237" lon="12.6180085"><ele>1651.0</ele><time>2026-05-01T08:08:01.752Z</time></trkpt><trkpt lat="46.5524096" lon="12.6178761"><ele>1651.0</ele><time>2026-05-01T08:08:03.753Z</time></trkpt><trkpt lat="46.55237" lon="12.6177334"><ele>1651.0</ele><time>2026-05-01T08:08:05.753Z</time></trkpt><trkpt lat="46.5523645" lon="12.6176245"><ele>1651.0</ele><time>2026-05-01T08:08:07.754Z</time></trkpt><trkpt lat="46.5523616" lon="12.6174668"><ele>1651.0</ele><time>2026-05-01T08:08:09.753Z</time></trkpt><trkpt lat="46.5523073" lon="12.6173164"><ele>1649.6666666666667</ele><time>2026-05-01T08:08:11.754Z</time></trkpt><trkpt lat="46.5523104" lon="12.6172023"><ele>1648.3333333333335</ele><time>2026-05-01T08:08:13.752Z</time></trkpt><trkpt lat="46.5522803" lon="12.6170548"><ele>1647.0</ele><time>2026-05-01T08:08:15.754Z</time></trkpt><trkpt lat="46.5522559" lon="12.6169655"><ele>1645.6666666666665</ele><time>2026-05-01T08:08:16.754Z</time></trkpt><trkpt lat="46.5522197" lon="12.6168793"><ele>1644.3333333333333</ele><time>2026-05-01T08:08:17.754Z</time></trkpt><trkpt lat="46.5521767" lon="12.6167384"><ele>1643.0</ele><time>2026-05-01T08:08:19.754Z</time></trkpt><trkpt lat="46.5522001" lon="12.6166103"><ele>1639.6000000000001</ele><time>2026-05-01T08:08:21.752Z</time></trkpt><trkpt lat="46.5522114" lon="12.6164469"><ele>1636.2</ele><time>2026-05-01T08:08:23.754Z</time></trkpt><trkpt lat="46.5522218" lon="12.6163414"><ele>1632.8</ele><time>2026-05-01T08:08:24.753Z</time></trkpt><trkpt lat="46.5522038" lon="12.6161818"><ele>1629.4</ele><time>2026-05-01T08:08:26.753Z</time></trkpt><trkpt lat="46.5521641" lon="12.6160689"><ele>1626.0</ele><time>2026-05-01T08:08:28.753Z</time></trkpt><trkpt lat="46.552169" lon="12.615935"><ele>1624.6666666666667</ele><time>2026-05-01T08:08:30.753Z</time></trkpt><trkpt lat="46.5522283" lon="12.6157677"><ele>1623.3333333333335</ele><time>2026-05-01T08:08:32.753Z</time></trkpt><trkpt lat="46.5522615" lon="12.6156847"><ele>1622.0</ele><time>2026-05-01T08:08:33.753Z</time></trkpt><trkpt lat="46.552295" lon="12.6156056"><ele>1620.6666666666667</ele><time>2026-05-01T08:08:34.753Z</time></trkpt><trkpt lat="46.5523302" lon="12.6155199"><ele>1619.3333333333335</ele><time>2026-05-01T08:08:35.753Z</time></trkpt><trkpt lat="46.5523447" lon="12.6154254"><ele>1618.0</ele><time>2026-05-01T08:08:36.754Z</time></trkpt><trkpt lat="46.5523488" lon="12.6153324"><ele>1616.857142857143</ele><time>2026-05-01T08:08:37.753Z</time></trkpt><trkpt lat="46.5523581" lon="12.6152399"><ele>1615.7142857142858</ele><time>2026-05-01T08:08:38.754Z</time></trkpt><trkpt lat="46.5523662" lon="12.6151404"><ele>1614.5714285714284</ele><time>2026-05-01T08:08:39.753Z</time></trkpt><trkpt lat="46.5523777" lon="12.6150496"><ele>1613.4285714285716</ele><time>2026-05-01T08:08:40.751Z</time></trkpt><trkpt lat="46.5523808" lon="12.6149561"><ele>1612.2857142857142</ele><time>2026-05-01T08:08:41.754Z</time></trkpt><trkpt lat="46.55238" lon="12.6148556"><ele>1611.142857142857</ele><time>2026-05-01T08:08:42.754Z</time></trkpt><trkpt lat="46.5523812" lon="12.6147498"><ele>1610.0</ele><time>2026-05-01T08:08:43.753Z</time></trkpt><trkpt lat="46.5523906" lon="12.6146467"><ele>1609.9999999999998</ele><time>2026-05-01T08:08:44.754Z</time></trkpt><trkpt lat="46.5524001" lon="12.6145401"><ele>1610.0</ele><time>2026-05-01T08:08:45.752Z</time></trkpt><trkpt lat="46.5524137" lon="12.6144277"><ele>1610.0</ele><time>2026-05-01T08:08:46.754Z</time></trkpt><trkpt lat="46.5524392" lon="12.6143104"><ele>1610.0</ele><time>2026-05-01T08:08:47.753Z</time></trkpt><trkpt lat="46.5524544" lon="12.6142005"><ele>1609.9999999999998</ele><time>2026-05-01T08:08:48.753Z</time></trkpt><trkpt lat="46.5524733" lon="12.6140986"><ele>1610.0</ele><time>2026-05-01T08:08:49.753Z</time></trkpt><trkpt lat="46.5524842" lon="12.6139932"><ele>1608.4285714285713</ele><time>2026-05-01T08:08:50.754Z</time></trkpt><trkpt lat="46.5524827" lon="12.6138803"><ele>1606.857142857143</ele><time>2026-05-01T08:08:51.753Z</time></trkpt><trkpt lat="46.5524769" lon="12.6137725"><ele>1605.2857142857142</ele><time>2026-05-01T08:08:52.753Z</time></trkpt><trkpt lat="46.5524672" lon="12.6136665"><ele>1603.7142857142858</ele><time>2026-05-01T08:08:53.753Z</time></trkpt><trkpt lat="46.5524597" lon="12.6135631"><ele>1602.142857142857</ele><time>2026-05-01T08:08:54.753Z</time></trkpt><trkpt lat="46.5524539" lon="12.6134563"><ele>1600.5714285714284</ele><time>2026-05-01T08:08:55.752Z</time></trkpt><trkpt lat="46.5524503" lon="12.6133544"><ele>1599.0</ele><time>2026-05-01T08:08:56.753Z</time></trkpt><trkpt lat="46.5524498" lon="12.613255"><ele>1598.0</ele><time>2026-05-01T08:08:57.753Z</time></trkpt><trkpt lat="46.5524448" lon="12.6131619"><ele>1597.0</ele><time>2026-05-01T08:08:58.753Z</time></trkpt><trkpt lat="46.5524375" lon="12.613055"><ele>1596.0</ele><time>2026-05-01T08:08:59.754Z</time></trkpt><trkpt lat="46.5524332" lon="12.6129443"><ele>1595.0</ele><time>2026-05-01T08:09:00.753Z</time></trkpt><trkpt lat="46.55244" lon="12.612836"><ele>1594.0</ele><time>2026-05-01T08:09:01.754Z</time></trkpt><trkpt lat="46.5524542" lon="12.6127179"><ele>1593.0</ele><time>2026-05-01T08:09:02.753Z</time></trkpt><trkpt lat="46.5524696" lon="12.6126002"><ele>1591.1666666666667</ele><time>2026-05-01T08:09:03.753Z</time></trkpt><trkpt lat="46.5524881" lon="12.6124854"><ele>1589.3333333333335</ele><time>2026-05-01T08:09:04.752Z</time></trkpt><trkpt lat="46.5525056" lon="12.6123686"><ele>1587.5</ele><time>2026-05-01T08:09:05.753Z</time></trkpt><trkpt lat="46.5525274" lon="12.612256"><ele>1585.6666666666667</ele><time>2026-05-01T08:09:06.753Z</time></trkpt><trkpt lat="46.5525497" lon="12.6121394"><ele>1583.8333333333335</ele><time>2026-05-01T08:09:07.753Z</time></trkpt><trkpt lat="46.5525777" lon="12.6120342"><ele>1582.0</ele><time>2026-05-01T08:09:08.754Z</time></trkpt><trkpt lat="46.552613" lon="12.6119244"><ele>1579.8333333333335</ele><time>2026-05-01T08:09:09.753Z</time></trkpt><trkpt lat="46.5526523" lon="12.6118257"><ele>1577.6666666666667</ele><time>2026-05-01T08:09:10.753Z</time></trkpt><trkpt lat="46.5526914" lon="12.6117316"><ele>1575.5</ele><time>2026-05-01T08:09:11.754Z</time></trkpt><trkpt lat="46.5527355" lon="12.611629"><ele>1573.3333333333335</ele><time>2026-05-01T08:09:12.753Z</time></trkpt><trkpt lat="46.552778" lon="12.6115343"><ele>1571.1666666666667</ele><time>2026-05-01T08:09:13.753Z</time></trkpt><trkpt lat="46.5528194" lon="12.6114477"><ele>1569.0</ele><time>2026-05-01T08:09:14.752Z</time></trkpt><trkpt lat="46.5528551" lon="12.6113568"><ele>1569.5714285714287</ele><time>2026-05-01T08:09:15.754Z</time></trkpt><trkpt lat="46.5528943" lon="12.6112692"><ele>1570.1428571428573</ele><time>2026-05-01T08:09:16.754Z</time></trkpt><trkpt lat="46.5529377" lon="12.6111872"><ele>1570.7142857142858</ele><time>2026-05-01T08:09:17.753Z</time></trkpt><trkpt lat="46.5529897" lon="12.6111109"><ele>1571.2857142857142</ele><time>2026-05-01T08:09:18.752Z</time></trkpt><trkpt lat="46.5530468" lon="12.6110415"><ele>1571.857142857143</ele><time>2026-05-01T08:09:19.753Z</time></trkpt><trkpt lat="46.5530985" lon="12.6109583"><ele>1572.4285714285713</ele><time>2026-05-01T08:09:20.753Z</time></trkpt><trkpt lat="46.553148" lon="12.6108751"><ele>1573.0</ele><time>2026-05-01T08:09:21.753Z</time></trkpt><trkpt lat="46.5531917" lon="12.61078"><ele>1573.0000000000002</ele><time>2026-05-01T08:09:22.753Z</time></trkpt><trkpt lat="46.5532371" lon="12.6106901"><ele>1573.0</ele><time>2026-05-01T08:09:23.753Z</time></trkpt><trkpt lat="46.5532825" lon="12.6105941"><ele>1573.0</ele><time>2026-05-01T08:09:24.754Z</time></trkpt><trkpt lat="46.5533314" lon="12.6105055"><ele>1573.0</ele><time>2026-05-01T08:09:25.754Z</time></trkpt><trkpt lat="46.5533864" lon="12.6104179"><ele>1573.0000000000002</ele><time>2026-05-01T08:09:26.754Z</time></trkpt><trkpt lat="46.5534441" lon="12.610325"><ele>1573.0</ele><time>2026-05-01T08:09:27.754Z</time></trkpt><trkpt lat="46.5535061" lon="12.6102366"><ele>1576.2</ele><time>2026-05-01T08:09:28.753Z</time></trkpt><trkpt lat="46.5535625" lon="12.6101388"><ele>1579.4</ele><time>2026-05-01T08:09:29.754Z</time></trkpt><trkpt lat="46.5536077" lon="12.6100343"><ele>1582.6000000000001</ele><time>2026-05-01T08:09:30.753Z</time></trkpt><trkpt lat="46.5536395" lon="12.6099278"><ele>1585.8000000000002</ele><time>2026-05-01T08:09:31.753Z</time></trkpt><trkpt lat="46.5536669" lon="12.6098239"><ele>1589.0</ele><time>2026-05-01T08:09:32.753Z</time></trkpt><trkpt lat="46.5537097" lon="12.6096588"><ele>1583.8000000000002</ele><time>2026-05-01T08:09:34.754Z</time></trkpt><trkpt lat="46.5537001" lon="12.6095385"><ele>1578.6000000000001</ele><time>2026-05-01T08:09:37.753Z</time></trkpt><trkpt lat="46.5537158" lon="12.6094122"><ele>1573.4</ele><time>2026-05-01T08:09:39.752Z</time></trkpt><trkpt lat="46.5537219" lon="12.6092664"><ele>1568.2</ele><time>2026-05-01T08:09:41.753Z</time></trkpt><trkpt lat="46.553739" lon="12.6091398"><ele>1563.0</ele><time>2026-05-01T08:09:43.754Z</time></trkpt><trkpt lat="46.5537494" lon="12.6090105"><ele>1563.0</ele><time>2026-05-01T08:09:45.754Z</time></trkpt><trkpt lat="46.5537509" lon="12.608902"><ele>1563.0</ele><time>2026-05-01T08:09:47.752Z</time></trkpt><trkpt lat="46.5537661" lon="12.6087688"><ele>1563.0</ele><time>2026-05-01T08:09:50.753Z</time></trkpt><trkpt lat="46.5537747" lon="12.6086622"><ele>1563.0</ele><time>2026-05-01T08:09:52.753Z</time></trkpt><trkpt lat="46.55377" lon="12.6085639"><ele>1563.0</ele><time>2026-05-01T08:09:54.754Z</time></trkpt><trkpt lat="46.5537836" lon="12.6084046"><ele>1563.0</ele><time>2026-05-01T08:09:56.752Z</time></trkpt><trkpt lat="46.5537904" lon="12.6082966"><ele>1559.3333333333333</ele><time>2026-05-01T08:09:58.753Z</time></trkpt><trkpt lat="46.5537645" lon="12.6081708"><ele>1555.6666666666665</ele><time>2026-05-01T08:10:00.753Z</time></trkpt><trkpt lat="46.5537368" lon="12.6080613"><ele>1552.0</ele><time>2026-05-01T08:10:02.754Z</time></trkpt><trkpt lat="46.5537201" lon="12.6079304"><ele>1548.3333333333333</ele><time>2026-05-01T08:10:04.754Z</time></trkpt><trkpt lat="46.5537092" lon="12.607814"><ele>1544.6666666666665</ele><time>2026-05-01T08:10:06.753Z</time></trkpt><trkpt lat="46.5537029" lon="12.6077212"><ele>1541.0</ele><time>2026-05-01T08:10:08.753Z</time></trkpt><trkpt lat="46.5537006" lon="12.607622"><ele>1537.6666666666665</ele><time>2026-05-01T08:10:10.754Z</time></trkpt><trkpt lat="46.553711" lon="12.6074953"><ele>1534.3333333333333</ele><time>2026-05-01T08:10:12.753Z</time></trkpt><trkpt lat="46.5537336" lon="12.6073846"><ele>1531.0</ele><time>2026-05-01T08:10:14.752Z</time></trkpt><trkpt lat="46.5537157" lon="12.607292"><ele>1527.6666666666665</ele><time>2026-05-01T08:10:18.753Z</time></trkpt><trkpt lat="46.5536374" lon="12.6072538"><ele>1524.3333333333333</ele><time>2026-05-01T08:11:10.753Z</time></trkpt><trkpt lat="46.5535552" lon="12.6071863"><ele>1521.0</ele><time>2026-05-01T08:11:13.752Z</time></trkpt><trkpt lat="46.5534867" lon="12.6071974"><ele>1518.6666666666667</ele><time>2026-05-01T08:11:16.753Z</time></trkpt><trkpt lat="46.5533944" lon="12.6072142"><ele>1516.3333333333333</ele><time>2026-05-01T08:11:19.753Z</time></trkpt><trkpt lat="46.5533513" lon="12.6073005"><ele>1514.0</ele><time>2026-05-01T08:11:21.754Z</time></trkpt><trkpt lat="46.5533187" lon="12.607469"><ele>1511.6666666666665</ele><time>2026-05-01T08:11:23.754Z</time></trkpt><trkpt lat="46.5532962" lon="12.6075648"><ele>1509.3333333333333</ele><time>2026-05-01T08:11:24.752Z</time></trkpt><trkpt lat="46.5532756" lon="12.6076767"><ele>1507.0</ele><time>2026-05-01T08:11:25.754Z</time></trkpt><trkpt lat="46.5532567" lon="12.6077927"><ele>1508.8333333333333</ele><time>2026-05-01T08:11:26.753Z</time></trkpt><trkpt lat="46.5532421" lon="12.6079145"><ele>1510.6666666666665</ele><time>2026-05-01T08:11:27.753Z</time></trkpt><trkpt lat="46.5532281" lon="12.6080369"><ele>1512.5</ele><time>2026-05-01T08:11:28.754Z</time></trkpt><trkpt lat="46.5532159" lon="12.6081521"><ele>1514.3333333333333</ele><time>2026-05-01T08:11:29.754Z</time></trkpt><trkpt lat="46.5532048" lon="12.6082605"><ele>1516.1666666666667</ele><time>2026-05-01T08:11:30.753Z</time></trkpt><trkpt lat="46.5531899" lon="12.6083687"><ele>1518.0</ele><time>2026-05-01T08:11:31.754Z</time></trkpt><trkpt lat="46.5531735" lon="12.6084907"><ele>1518.0</ele><time>2026-05-01T08:11:32.752Z</time></trkpt><trkpt lat="46.5531495" lon="12.6085985"><ele>1518.0</ele><time>2026-05-01T08:11:33.753Z</time></trkpt><trkpt lat="46.553124" lon="12.6086912"><ele>1518.0</ele><time>2026-05-01T08:11:34.752Z</time></trkpt><trkpt lat="46.5530911" lon="12.6087799"><ele>1518.0</ele><time>2026-05-01T08:11:35.752Z</time></trkpt><trkpt lat="46.5530523" lon="12.6088628"><ele>1518.0</ele><time>2026-05-01T08:11:36.753Z</time></trkpt><trkpt lat="46.5530189" lon="12.6089475"><ele>1518.0</ele><time>2026-05-01T08:11:37.754Z</time></trkpt><trkpt lat="46.5529598" lon="12.6090934"><ele>1518.0</ele><time>2026-05-01T08:11:39.754Z</time></trkpt><trkpt lat="46.552898" lon="12.6091529"><ele>1518.0</ele><time>2026-05-01T08:11:41.752Z</time></trkpt><trkpt lat="46.5528419" lon="12.609014"><ele>1518.0</ele><time>2026-05-01T08:11:43.752Z</time></trkpt><trkpt lat="46.5528498" lon="12.608909"><ele>1518.0</ele><time>2026-05-01T08:11:44.752Z</time></trkpt><trkpt lat="46.552878" lon="12.6088098"><ele>1518.0</ele><time>2026-05-01T08:11:45.753Z</time></trkpt><trkpt lat="46.5529047" lon="12.6087132"><ele>1518.0</ele><time>2026-05-01T08:11:46.753Z</time></trkpt><trkpt lat="46.5529211" lon="12.6086078"><ele>1518.0</ele><time>2026-05-01T08:11:47.754Z</time></trkpt><trkpt lat="46.5529355" lon="12.6084926"><ele>1518.0</ele><time>2026-05-01T08:11:48.752Z</time></trkpt><trkpt lat="46.5529425" lon="12.6083677"><ele>1518.0</ele><time>2026-05-01T08:11:49.753Z</time></trkpt><trkpt lat="46.5529513" lon="12.6082348"><ele>1518.0</ele><time>2026-05-01T08:11:50.754Z</time></trkpt><trkpt lat="46.5529441" lon="12.6080968"><ele>1518.0</ele><time>2026-05-01T08:11:51.752Z</time></trkpt><trkpt lat="46.5529406" lon="12.6079597"><ele>1518.0</ele><time>2026-05-01T08:11:52.753Z</time></trkpt><trkpt lat="46.5529391" lon="12.6078444"><ele>1516.1666666666667</ele><time>2026-05-01T08:11:53.754Z</time></trkpt><trkpt lat="46.5529356" lon="12.607725"><ele>1514.3333333333333</ele><time>2026-05-01T08:11:54.753Z</time></trkpt><trkpt lat="46.5529359" lon="12.6076031"><ele>1512.5</ele><time>2026-05-01T08:11:55.752Z</time></trkpt><trkpt lat="46.5529453" lon="12.6074714"><ele>1510.6666666666665</ele><time>2026-05-01T08:11:56.754Z</time></trkpt><trkpt lat="46.5529548" lon="12.607353"><ele>1508.8333333333333</ele><time>2026-05-01T08:11:57.752Z</time></trkpt><trkpt lat="46.5529655" lon="12.6072425"><ele>1507.0</ele><time>2026-05-01T08:11:58.754Z</time></trkpt><trkpt lat="46.5529788" lon="12.6071271"><ele>1507.0</ele><time>2026-05-01T08:11:59.753Z</time></trkpt><trkpt lat="46.5529837" lon="12.6070039"><ele>1507.0</ele><time>2026-05-01T08:12:00.753Z</time></trkpt><trkpt lat="46.5529875" lon="12.6068841"><ele>1507.0</ele><time>2026-05-01T08:12:01.753Z</time></trkpt><trkpt lat="46.5529921" lon="12.6067749"><ele>1507.0</ele><time>2026-05-01T08:12:02.753Z</time></trkpt><trkpt lat="46.5529959" lon="12.6066619"><ele>1507.0</ele><time>2026-05-01T08:12:03.754Z</time></trkpt><trkpt lat="46.553003" lon="12.6065428"><ele>1507.0</ele><time>2026-05-01T08:12:04.753Z</time></trkpt><trkpt lat="46.5530069" lon="12.6064247"><ele>1504.6666666666665</ele><time>2026-05-01T08:12:05.753Z</time></trkpt><trkpt lat="46.5530085" lon="12.6063145"><ele>1502.3333333333333</ele><time>2026-05-01T08:12:06.754Z</time></trkpt><trkpt lat="46.5530114" lon="12.6062075"><ele>1500.0</ele><time>2026-05-01T08:12:07.753Z</time></trkpt><trkpt lat="46.5530057" lon="12.6061055"><ele>1497.6666666666667</ele><time>2026-05-01T08:12:08.754Z</time></trkpt><trkpt lat="46.5529861" lon="12.6060027"><ele>1495.3333333333335</ele><time>2026-05-01T08:12:09.753Z</time></trkpt><trkpt lat="46.5529642" lon="12.6058873"><ele>1493.0</ele><time>2026-05-01T08:12:10.753Z</time></trkpt><trkpt lat="46.5529548" lon="12.6057577"><ele>1490.6666666666667</ele><time>2026-05-01T08:12:11.754Z</time></trkpt><trkpt lat="46.5529628" lon="12.6056212"><ele>1488.3333333333335</ele><time>2026-05-01T08:12:12.752Z</time></trkpt><trkpt lat="46.5529829" lon="12.6055139"><ele>1486.0</ele><time>2026-05-01T08:12:13.752Z</time></trkpt><trkpt lat="46.553011" lon="12.6053826"><ele>1483.6666666666667</ele><time>2026-05-01T08:12:14.753Z</time></trkpt><trkpt lat="46.5530453" lon="12.60525"><ele>1481.3333333333333</ele><time>2026-05-01T08:12:15.754Z</time></trkpt><trkpt lat="46.5530848" lon="12.6051451"><ele>1479.0</ele><time>2026-05-01T08:12:16.754Z</time></trkpt><trkpt lat="46.55314" lon="12.605056"><ele>1475.6666666666667</ele><time>2026-05-01T08:12:17.752Z</time></trkpt><trkpt lat="46.5532071" lon="12.6049612"><ele>1472.3333333333333</ele><time>2026-05-01T08:12:18.754Z</time></trkpt><trkpt lat="46.5532798" lon="12.6048722"><ele>1469.0</ele><time>2026-05-01T08:12:19.753Z</time></trkpt><trkpt lat="46.5533532" lon="12.604798"><ele>1465.6666666666665</ele><time>2026-05-01T08:12:20.753Z</time></trkpt><trkpt lat="46.5534097" lon="12.6047249"><ele>1462.3333333333333</ele><time>2026-05-01T08:12:21.754Z</time></trkpt><trkpt lat="46.553457" lon="12.6046476"><ele>1459.0</ele><time>2026-05-01T08:12:22.753Z</time></trkpt><trkpt lat="46.5534892" lon="12.604548"><ele>1456.1666666666665</ele><time>2026-05-01T08:12:23.754Z</time></trkpt><trkpt lat="46.5534955" lon="12.6044495"><ele>1453.3333333333333</ele><time>2026-05-01T08:12:24.754Z</time></trkpt><trkpt lat="46.5534818" lon="12.6043377"><ele>1450.5</ele><time>2026-05-01T08:12:25.754Z</time></trkpt><trkpt lat="46.5534437" lon="12.6042327"><ele>1447.6666666666667</ele><time>2026-05-01T08:12:26.753Z</time></trkpt><trkpt lat="46.5533992" lon="12.6041268"><ele>1444.8333333333335</ele><time>2026-05-01T08:12:27.753Z</time></trkpt><trkpt lat="46.5533451" lon="12.604027"><ele>1442.0</ele><time>2026-05-01T08:12:28.753Z</time></trkpt><trkpt lat="46.5532868" lon="12.6039476"><ele>1442.0</ele><time>2026-05-01T08:12:29.753Z</time></trkpt><trkpt lat="46.5532285" lon="12.6038887"><ele>1442.0</ele><time>2026-05-01T08:12:30.753Z</time></trkpt><trkpt lat="46.5531137" lon="12.6039016"><ele>1442.0</ele><time>2026-05-01T08:12:32.754Z</time></trkpt><trkpt lat="46.553049" lon="12.603923"><ele>1442.0</ele><time>2026-05-01T08:12:33.754Z</time></trkpt><trkpt lat="46.5529767" lon="12.603969"><ele>1442.0</ele><time>2026-05-01T08:12:34.753Z</time></trkpt><trkpt lat="46.5529097" lon="12.6040529"><ele>1442.0</ele><time>2026-05-01T08:12:35.754Z</time></trkpt><trkpt lat="46.552841" lon="12.6041543"><ele>1440.0</ele><time>2026-05-01T08:12:36.752Z</time></trkpt><trkpt lat="46.5527751" lon="12.6042592"><ele>1438.0</ele><time>2026-05-01T08:12:37.753Z</time></trkpt><trkpt lat="46.5527061" lon="12.6043783"><ele>1436.0</ele><time>2026-05-01T08:12:38.753Z</time></trkpt><trkpt lat="46.5526447" lon="12.6045053"><ele>1434.0</ele><time>2026-05-01T08:12:39.754Z</time></trkpt><trkpt lat="46.5525795" lon="12.6046484"><ele>1432.0</ele><time>2026-05-01T08:12:40.753Z</time></trkpt><trkpt lat="46.5525225" lon="12.604778"><ele>1432.0</ele><time>2026-05-01T08:12:41.754Z</time></trkpt><trkpt lat="46.5524492" lon="12.6048845"><ele>1432.0</ele><time>2026-05-01T08:12:42.753Z</time></trkpt><trkpt lat="46.5523769" lon="12.6049453"><ele>1432.0</ele><time>2026-05-01T08:12:43.754Z</time></trkpt><trkpt lat="46.5522965" lon="12.6050009"><ele>1432.0</ele><time>2026-05-01T08:12:44.753Z</time></trkpt><trkpt lat="46.5522058" lon="12.6050437"><ele>1432.0</ele><time>2026-05-01T08:12:45.754Z</time></trkpt><trkpt lat="46.5521129" lon="12.6050889"><ele>1427.0</ele><time>2026-05-01T08:12:46.754Z</time></trkpt><trkpt lat="46.5520281" lon="12.6051497"><ele>1422.0</ele><time>2026-05-01T08:12:47.753Z</time></trkpt><trkpt lat="46.5519464" lon="12.6052285"><ele>1417.0</ele><time>2026-05-01T08:12:48.754Z</time></trkpt><trkpt lat="46.5518778" lon="12.6053184"><ele>1412.0</ele><time>2026-05-01T08:12:49.754Z</time></trkpt><trkpt lat="46.5518199" lon="12.6054167"><ele>1407.0</ele><time>2026-05-01T08:12:50.754Z</time></trkpt><trkpt lat="46.5517695" lon="12.6055278"><ele>1407.0</ele><time>2026-05-01T08:12:51.753Z</time></trkpt><trkpt lat="46.5517242" lon="12.6056476"><ele>1407.0</ele><time>2026-05-01T08:12:52.752Z</time></trkpt><trkpt lat="46.5516793" lon="12.6057803"><ele>1407.0</ele><time>2026-05-01T08:12:53.753Z</time></trkpt><trkpt lat="46.5516151" lon="12.6059059"><ele>1407.0</ele><time>2026-05-01T08:12:54.753Z</time></trkpt><trkpt lat="46.5515403" lon="12.6060191"><ele>1407.0</ele><time>2026-05-01T08:12:55.754Z</time></trkpt><trkpt lat="46.5514653" lon="12.6061227"><ele>1407.0</ele><time>2026-05-01T08:12:56.753Z</time></trkpt><trkpt lat="46.5513987" lon="12.6062124"><ele>1407.0</ele><time>2026-05-01T08:12:57.753Z</time></trkpt><trkpt lat="46.5513493" lon="12.6062772"><ele>1407.0</ele><time>2026-05-01T08:12:58.754Z</time></trkpt><trkpt lat="46.5512502" lon="12.6063269"><ele>1407.0</ele><time>2026-05-01T08:13:00.754Z</time></trkpt><trkpt lat="46.551186" lon="12.6062288"><ele>1407.0</ele><time>2026-05-01T08:13:02.753Z</time></trkpt><trkpt lat="46.5512297" lon="12.6060934"><ele>1407.0</ele><time>2026-05-01T08:13:04.753Z</time></trkpt><trkpt lat="46.5512901" lon="12.6059633"><ele>1407.0</ele><time>2026-05-01T08:13:06.754Z</time></trkpt><trkpt lat="46.5513316" lon="12.6058337"><ele>1407.0</ele><time>2026-05-01T08:13:08.753Z</time></trkpt><trkpt lat="46.5513181" lon="12.6057288"><ele>1407.0</ele><time>2026-05-01T08:13:10.752Z</time></trkpt><trkpt lat="46.55131" lon="12.6056294"><ele>1407.0</ele><time>2026-05-01T08:13:12.753Z</time></trkpt><trkpt lat="46.5513217" lon="12.6054759"><ele>1407.0</ele><time>2026-05-01T08:13:14.754Z</time></trkpt><trkpt lat="46.55133" lon="12.6053812"><ele>1407.0</ele><time>2026-05-01T08:13:15.754Z</time></trkpt><trkpt lat="46.5513479" lon="12.6052715"><ele>1407.0</ele><time>2026-05-01T08:13:16.754Z</time></trkpt><trkpt lat="46.5513714" lon="12.6051452"><ele>1407.0</ele><time>2026-05-01T08:13:17.754Z</time></trkpt><trkpt lat="46.5513962" lon="12.6050119"><ele>1407.0</ele><time>2026-05-01T08:13:18.753Z</time></trkpt><trkpt lat="46.5514111" lon="12.6048666"><ele>1407.0</ele><time>2026-05-01T08:13:19.754Z</time></trkpt><trkpt lat="46.5514571" lon="12.60472"><ele>1404.0</ele><time>2026-05-01T08:13:20.754Z</time></trkpt><trkpt lat="46.5514896" lon="12.6045698"><ele>1401.0</ele><time>2026-05-01T08:13:21.752Z</time></trkpt><trkpt lat="46.5515097" lon="12.6044105"><ele>1398.0</ele><time>2026-05-01T08:13:22.754Z</time></trkpt><trkpt lat="46.5515341" lon="12.6042443"><ele>1395.0</ele><time>2026-05-01T08:13:23.754Z</time></trkpt><trkpt lat="46.55155" lon="12.6040697"><ele>1392.2</ele><time>2026-05-01T08:13:24.753Z</time></trkpt><trkpt lat="46.5515599" lon="12.6039325"><ele>1389.4</ele><time>2026-05-01T08:13:25.754Z</time></trkpt><trkpt lat="46.5515897" lon="12.6037667"><ele>1386.6</ele><time>2026-05-01T08:13:26.754Z</time></trkpt><trkpt lat="46.551613" lon="12.6036176"><ele>1383.8</ele><time>2026-05-01T08:13:27.754Z</time></trkpt><trkpt lat="46.5516355" lon="12.6034578"><ele>1381.0</ele><time>2026-05-01T08:13:28.754Z</time></trkpt><trkpt lat="46.5516546" lon="12.6033081"><ele>1377.0</ele><time>2026-05-01T08:13:29.752Z</time></trkpt><trkpt lat="46.5516275" lon="12.603148"><ele>1373.0</ele><time>2026-05-01T08:13:30.753Z</time></trkpt><trkpt lat="46.5516208" lon="12.602988"><ele>1369.0</ele><time>2026-05-01T08:13:31.754Z</time></trkpt><trkpt lat="46.5516202" lon="12.6028351"><ele>1365.0</ele><time>2026-05-01T08:13:32.753Z</time></trkpt><trkpt lat="46.5516183" lon="12.6026549"><ele>1362.2</ele><time>2026-05-01T08:13:33.754Z</time></trkpt><trkpt lat="46.5516159" lon="12.602506"><ele>1359.4</ele><time>2026-05-01T08:13:34.754Z</time></trkpt><trkpt lat="46.5516132" lon="12.6023765"><ele>1356.6</ele><time>2026-05-01T08:13:35.754Z</time></trkpt><trkpt lat="46.5516234" lon="12.6022426"><ele>1353.8</ele><time>2026-05-01T08:13:36.754Z</time></trkpt><trkpt lat="46.5516615" lon="12.6020924"><ele>1351.0</ele><time>2026-05-01T08:13:37.753Z</time></trkpt><trkpt lat="46.551713" lon="12.6019371"><ele>1347.0</ele><time>2026-05-01T08:13:38.754Z</time></trkpt><trkpt lat="46.5517738" lon="12.6017768"><ele>1343.0</ele><time>2026-05-01T08:13:39.754Z</time></trkpt><trkpt lat="46.5518347" lon="12.6016176"><ele>1339.0</ele><time>2026-05-01T08:13:40.754Z</time></trkpt><trkpt lat="46.5518927" lon="12.6014482"><ele>1335.0</ele><time>2026-05-01T08:13:41.754Z</time></trkpt><trkpt lat="46.5519645" lon="12.6012733"><ele>1335.75</ele><time>2026-05-01T08:13:42.754Z</time></trkpt><trkpt lat="46.5520301" lon="12.6010979"><ele>1336.5</ele><time>2026-05-01T08:13:43.754Z</time></trkpt><trkpt lat="46.5520945" lon="12.6009142"><ele>1337.25</ele><time>2026-05-01T08:13:44.753Z</time></trkpt><trkpt lat="46.5521508" lon="12.6007468"><ele>1338.0</ele><time>2026-05-01T08:13:45.754Z</time></trkpt><trkpt lat="46.552213" lon="12.6006222"><ele>1338.0</ele><time>2026-05-01T08:13:46.753Z</time></trkpt><trkpt lat="46.552268" lon="12.6005252"><ele>1338.0</ele><time>2026-05-01T08:13:47.754Z</time></trkpt><trkpt lat="46.5523224" lon="12.6004534"><ele>1338.0</ele><time>2026-05-01T08:13:48.753Z</time></trkpt><trkpt lat="46.5523772" lon="12.6003464"><ele>1338.0</ele><time>2026-05-01T08:13:50.753Z</time></trkpt><trkpt lat="46.552349" lon="12.6002581"><ele>1338.0</ele><time>2026-05-01T08:13:52.754Z</time></trkpt><trkpt lat="46.5522688" lon="12.6002605"><ele>1338.0</ele><time>2026-05-01T08:13:54.754Z</time></trkpt><trkpt lat="46.5521531" lon="12.6003166"><ele>1338.0</ele><time>2026-05-01T08:13:56.753Z</time></trkpt><trkpt lat="46.5520796" lon="12.6003639"><ele>1338.0</ele><time>2026-05-01T08:13:57.752Z</time></trkpt><trkpt lat="46.5520002" lon="12.6004264"><ele>1338.0</ele><time>2026-05-01T08:13:58.753Z</time></trkpt><trkpt lat="46.5519051" lon="12.6004829"><ele>1338.0</ele><time>2026-05-01T08:13:59.753Z</time></trkpt><trkpt lat="46.5518028" lon="12.6005508"><ele>1338.0</ele><time>2026-05-01T08:14:00.753Z</time></trkpt><trkpt lat="46.5517013" lon="12.6006141"><ele>1332.0</ele><time>2026-05-01T08:14:01.754Z</time></trkpt><trkpt lat="46.5515937" lon="12.6006971"><ele>1326.0</ele><time>2026-05-01T08:14:02.754Z</time></trkpt><trkpt lat="46.5514789" lon="12.6007794"><ele>1320.0</ele><time>2026-05-01T08:14:03.752Z</time></trkpt><trkpt lat="46.551373" lon="12.6008569"><ele>1314.0</ele><time>2026-05-01T08:14:04.753Z</time></trkpt><trkpt lat="46.5512798" lon="12.6009237"><ele>1308.4</ele><time>2026-05-01T08:14:05.753Z</time></trkpt><trkpt lat="46.5512005" lon="12.6009824"><ele>1302.8000000000002</ele><time>2026-05-01T08:14:06.754Z</time></trkpt><trkpt lat="46.5511218" lon="12.6010528"><ele>1297.1999999999998</ele><time>2026-05-01T08:14:07.753Z</time></trkpt><trkpt lat="46.5510379" lon="12.6011265"><ele>1291.6</ele><time>2026-05-01T08:14:09.754Z</time></trkpt><trkpt lat="46.5509869" lon="12.601032"><ele>1286.0</ele><time>2026-05-01T08:14:12.753Z</time></trkpt><trkpt lat="46.5510237" lon="12.6009121"><ele>1286.0</ele><time>2026-05-01T08:14:14.754Z</time></trkpt><trkpt lat="46.551054" lon="12.6007875"><ele>1286.0</ele><time>2026-05-01T08:14:16.753Z</time></trkpt><trkpt lat="46.5510381" lon="12.6006929"><ele>1286.0</ele><time>2026-05-01T08:14:18.754Z</time></trkpt><trkpt lat="46.5509652" lon="12.6007785"><ele>1286.0</ele><time>2026-05-01T08:14:20.754Z</time></trkpt><trkpt lat="46.5508859" lon="12.6008725"><ele>1286.0</ele><time>2026-05-01T08:14:22.753Z</time></trkpt><trkpt lat="46.5507961" lon="12.6009898"><ele>1286.0</ele><time>2026-05-01T08:14:24.754Z</time></trkpt><trkpt lat="46.5507436" lon="12.6010519"><ele>1286.0</ele><time>2026-05-01T08:14:25.754Z</time></trkpt><trkpt lat="46.5506986" lon="12.6011328"><ele>1286.0</ele><time>2026-05-01T08:14:26.754Z</time></trkpt><trkpt lat="46.5506499" lon="12.6012092"><ele>1286.0</ele><time>2026-05-01T08:14:27.752Z</time></trkpt><trkpt lat="46.5506022" lon="12.6012855"><ele>1286.0</ele><time>2026-05-01T08:14:28.754Z</time></trkpt><trkpt lat="46.5505455" lon="12.601362"><ele>1286.0</ele><time>2026-05-01T08:14:29.753Z</time></trkpt><trkpt lat="46.5505174" lon="12.6014708"><ele>1286.0</ele><time>2026-05-01T08:14:30.754Z</time></trkpt><trkpt lat="46.5504925" lon="12.6015739"><ele>1284.8</ele><time>2026-05-01T08:14:31.754Z</time></trkpt><trkpt lat="46.5504828" lon="12.6016863"><ele>1283.6</ele><time>2026-05-01T08:14:32.754Z</time></trkpt><trkpt lat="46.5504756" lon="12.6018045"><ele>1282.4</ele><time>2026-05-01T08:14:33.754Z</time></trkpt><trkpt lat="46.5504525" lon="12.6019001"><ele>1281.2</ele><time>2026-05-01T08:14:34.754Z</time></trkpt><trkpt lat="46.5503661" lon="12.6019895"><ele>1280.0</ele><time>2026-05-01T08:14:36.754Z</time></trkpt><trkpt lat="46.5502483" lon="12.6019424"><ele>1280.0</ele><time>2026-05-01T08:14:38.753Z</time></trkpt><trkpt lat="46.550185" lon="12.6019067"><ele>1280.0</ele><time>2026-05-01T08:14:39.753Z</time></trkpt><trkpt lat="46.5501199" lon="12.6018593"><ele>1280.0</ele><time>2026-05-01T08:14:40.752Z</time></trkpt><trkpt lat="46.5500572" lon="12.6018018"><ele>1280.0</ele><time>2026-05-01T08:14:41.754Z</time></trkpt><trkpt lat="46.5499971" lon="12.6017512"><ele>1280.0</ele><time>2026-05-01T08:14:42.752Z</time></trkpt><trkpt lat="46.5499444" lon="12.6016979"><ele>1280.0</ele><time>2026-05-01T08:14:43.753Z</time></trkpt><trkpt lat="46.549839" lon="12.6016196"><ele>1280.0</ele><time>2026-05-01T08:14:45.752Z</time></trkpt><trkpt lat="46.5497345" lon="12.6015451"><ele>1280.0</ele><time>2026-05-01T08:14:47.753Z</time></trkpt><trkpt lat="46.5496332" lon="12.6014402"><ele>1280.0</ele><time>2026-05-01T08:14:49.753Z</time></trkpt><trkpt lat="46.5495781" lon="12.601369"><ele>1280.0</ele><time>2026-05-01T08:14:50.753Z</time></trkpt><trkpt lat="46.5495179" lon="12.6012928"><ele>1280.0</ele><time>2026-05-01T08:14:51.754Z</time></trkpt><trkpt lat="46.5494596" lon="12.6012136"><ele>1278.2</ele><time>2026-05-01T08:14:52.753Z</time></trkpt><trkpt lat="46.5494038" lon="12.6011225"><ele>1276.4</ele><time>2026-05-01T08:14:53.753Z</time></trkpt><trkpt lat="46.5493443" lon="12.6010321"><ele>1274.6</ele><time>2026-05-01T08:14:54.753Z</time></trkpt><trkpt lat="46.5492885" lon="12.6009283"><ele>1272.8</ele><time>2026-05-01T08:14:55.753Z</time></trkpt><trkpt lat="46.5492485" lon="12.6008064"><ele>1271.0</ele><time>2026-05-01T08:14:56.754Z</time></trkpt><trkpt lat="46.5491874" lon="12.6006949"><ele>1271.0</ele><time>2026-05-01T08:14:57.753Z</time></trkpt><trkpt lat="46.5491323" lon="12.6005996"><ele>1271.0</ele><time>2026-05-01T08:14:58.754Z</time></trkpt><trkpt lat="46.5490342" lon="12.6004869"><ele>1271.0</ele><time>2026-05-01T08:15:00.754Z</time></trkpt><trkpt lat="46.5489336" lon="12.6003945"><ele>1271.0</ele><time>2026-05-01T08:15:02.754Z</time></trkpt><trkpt lat="46.5488066" lon="12.600396"><ele>1271.0</ele><time>2026-05-01T08:15:04.752Z</time></trkpt><trkpt lat="46.5487354" lon="12.6004418"><ele>1271.0</ele><time>2026-05-01T08:15:05.754Z</time></trkpt><trkpt lat="46.5486545" lon="12.6004941"><ele>1271.0</ele><time>2026-05-01T08:15:06.753Z</time></trkpt><trkpt lat="46.5485789" lon="12.6005349"><ele>1271.0</ele><time>2026-05-01T08:15:07.754Z</time></trkpt><trkpt lat="46.5485148" lon="12.6005509"><ele>1271.0</ele><time>2026-05-01T08:15:08.754Z</time></trkpt><trkpt lat="46.5484504" lon="12.6005567"><ele>1271.0</ele><time>2026-05-01T08:15:09.753Z</time></trkpt><trkpt lat="46.5483511" lon="12.6005104"><ele>1270.6666666666667</ele><time>2026-05-01T08:15:11.754Z</time></trkpt><trkpt lat="46.5482848" lon="12.6004731"><ele>1270.3333333333335</ele><time>2026-05-01T08:15:12.754Z</time></trkpt><trkpt lat="46.5482174" lon="12.6004171"><ele>1270.0</ele><time>2026-05-01T08:15:13.754Z</time></trkpt><trkpt lat="46.5481469" lon="12.6003695"><ele>1269.6666666666667</ele><time>2026-05-01T08:15:14.754Z</time></trkpt><trkpt lat="46.5480658" lon="12.6003157"><ele>1269.3333333333333</ele><time>2026-05-01T08:15:15.753Z</time></trkpt><trkpt lat="46.5479709" lon="12.6002647"><ele>1269.0</ele><time>2026-05-01T08:15:16.754Z</time></trkpt><trkpt lat="46.5478853" lon="12.6002079"><ele>1264.0</ele><time>2026-05-01T08:15:17.754Z</time></trkpt><trkpt lat="46.5478119" lon="12.6001259"><ele>1259.0</ele><time>2026-05-01T08:15:18.753Z</time></trkpt><trkpt lat="46.547744" lon="12.6000436"><ele>1254.0</ele><time>2026-05-01T08:15:19.754Z</time></trkpt><trkpt lat="46.5476793" lon="12.5999659"><ele>1249.0</ele><time>2026-05-01T08:15:20.754Z</time></trkpt><trkpt lat="46.5476247" lon="12.5999053"><ele>1244.0</ele><time>2026-05-01T08:15:21.753Z</time></trkpt><trkpt lat="46.5475202" lon="12.5998363"><ele>1239.0</ele><time>2026-05-01T08:15:23.752Z</time></trkpt><trkpt lat="46.5474545" lon="12.5998233"><ele>1239.0</ele><time>2026-05-01T08:15:24.753Z</time></trkpt><trkpt lat="46.5473764" lon="12.599811"><ele>1239.0</ele><time>2026-05-01T08:15:25.753Z</time></trkpt><trkpt lat="46.5472906" lon="12.5997793"><ele>1239.0</ele><time>2026-05-01T08:15:26.754Z</time></trkpt><trkpt lat="46.5472104" lon="12.5997109"><ele>1239.0</ele><time>2026-05-01T08:15:27.753Z</time></trkpt><trkpt lat="46.5471441" lon="12.5996221"><ele>1239.0</ele><time>2026-05-01T08:15:28.754Z</time></trkpt><trkpt lat="46.5470884" lon="12.5995548"><ele>1239.0</ele><time>2026-05-01T08:15:29.753Z</time></trkpt><trkpt lat="46.5470296" lon="12.5994982"><ele>1234.1666666666667</ele><time>2026-05-01T08:15:30.752Z</time></trkpt><trkpt lat="46.5469694" lon="12.5994579"><ele>1229.3333333333333</ele><time>2026-05-01T08:15:31.753Z</time></trkpt><trkpt lat="46.5468928" lon="12.5994363"><ele>1224.5</ele><time>2026-05-01T08:15:32.754Z</time></trkpt><trkpt lat="46.5468063" lon="12.5994421"><ele>1219.6666666666665</ele><time>2026-05-01T08:15:33.754Z</time></trkpt><trkpt lat="46.5467174" lon="12.5994508"><ele>1214.8333333333333</ele><time>2026-05-01T08:15:34.753Z</time></trkpt><trkpt lat="46.5466238" lon="12.5994677"><ele>1210.0</ele><time>2026-05-01T08:15:35.754Z</time></trkpt><trkpt lat="46.5465252" lon="12.5994796"><ele>1210.0</ele><time>2026-05-01T08:15:36.754Z</time></trkpt><trkpt lat="46.5464236" lon="12.599495"><ele>1210.0</ele><time>2026-05-01T08:15:37.754Z</time></trkpt><trkpt lat="46.5463319" lon="12.599505"><ele>1210.0</ele><time>2026-05-01T08:15:38.754Z</time></trkpt><trkpt lat="46.5462623" lon="12.5995033"><ele>1210.0</ele><time>2026-05-01T08:15:39.754Z</time></trkpt><trkpt lat="46.5461993" lon="12.5994762"><ele>1210.0</ele><time>2026-05-01T08:15:40.752Z</time></trkpt><trkpt lat="46.5461329" lon="12.5994219"><ele>1210.0</ele><time>2026-05-01T08:15:41.754Z</time></trkpt><trkpt lat="46.5460608" lon="12.5993655"><ele>1209.2</ele><time>2026-05-01T08:15:42.754Z</time></trkpt><trkpt lat="46.5459888" lon="12.5993121"><ele>1208.4</ele><time>2026-05-01T08:15:43.754Z</time></trkpt><trkpt lat="46.5459055" lon="12.5992552"><ele>1207.6</ele><time>2026-05-01T08:15:44.753Z</time></trkpt><trkpt lat="46.5458191" lon="12.5992204"><ele>1206.8</ele><time>2026-05-01T08:15:45.753Z</time></trkpt><trkpt lat="46.545721" lon="12.5991988"><ele>1206.0</ele><time>2026-05-01T08:15:46.753Z</time></trkpt><trkpt lat="46.5456189" lon="12.5991703"><ele>1206.0</ele><time>2026-05-01T08:15:47.753Z</time></trkpt><trkpt lat="46.5455154" lon="12.5991366"><ele>1206.0</ele><time>2026-05-01T08:15:48.753Z</time></trkpt><trkpt lat="46.5454205" lon="12.5991151"><ele>1206.0</ele><time>2026-05-01T08:15:49.754Z</time></trkpt><trkpt lat="46.545357" lon="12.5990977"><ele>1206.0</ele><time>2026-05-01T08:15:50.754Z</time></trkpt><trkpt lat="46.545298" lon="12.5990619"><ele>1206.0</ele><time>2026-05-01T08:15:51.754Z</time></trkpt><trkpt lat="46.5452417" lon="12.5990072"><ele>1206.0</ele><time>2026-05-01T08:15:52.754Z</time></trkpt><trkpt lat="46.5451853" lon="12.5989366"><ele>1205.6</ele><time>2026-05-01T08:15:53.753Z</time></trkpt><trkpt lat="46.5451354" lon="12.5988619"><ele>1205.1999999999998</ele><time>2026-05-01T08:15:54.752Z</time></trkpt><trkpt lat="46.545086" lon="12.5987922"><ele>1204.8000000000002</ele><time>2026-05-01T08:15:55.754Z</time></trkpt><trkpt lat="46.5449898" lon="12.5986892"><ele>1204.4</ele><time>2026-05-01T08:15:57.754Z</time></trkpt><trkpt lat="46.5448576" lon="12.5986343"><ele>1204.0</ele><time>2026-05-01T08:15:59.753Z</time></trkpt><trkpt lat="46.5447791" lon="12.5986186"><ele>1200.0</ele><time>2026-05-01T08:16:00.754Z</time></trkpt><trkpt lat="46.5446945" lon="12.5985992"><ele>1196.0</ele><time>2026-05-01T08:16:01.754Z</time></trkpt><trkpt lat="46.544611" lon="12.5985781"><ele>1192.0</ele><time>2026-05-01T08:16:02.754Z</time></trkpt><trkpt lat="46.5445249" lon="12.5985475"><ele>1188.0</ele><time>2026-05-01T08:16:03.754Z</time></trkpt><trkpt lat="46.5444362" lon="12.5985094"><ele>1184.0</ele><time>2026-05-01T08:16:04.754Z</time></trkpt><trkpt lat="46.5443397" lon="12.5984716"><ele>1184.0</ele><time>2026-05-01T08:16:05.752Z</time></trkpt><trkpt lat="46.5442464" lon="12.5984281"><ele>1184.0</ele><time>2026-05-01T08:16:06.753Z</time></trkpt><trkpt lat="46.5441548" lon="12.5983721"><ele>1184.0</ele><time>2026-05-01T08:16:07.754Z</time></trkpt><trkpt lat="46.5440572" lon="12.5983212"><ele>1184.0</ele><time>2026-05-01T08:16:08.754Z</time></trkpt><trkpt lat="46.5439608" lon="12.5982555"><ele>1184.0</ele><time>2026-05-01T08:16:09.753Z</time></trkpt><trkpt lat="46.5438704" lon="12.5981986"><ele>1184.0</ele><time>2026-05-01T08:16:10.754Z</time></trkpt><trkpt lat="46.5437904" lon="12.5981445"><ele>1184.0</ele><time>2026-05-01T08:16:11.753Z</time></trkpt><trkpt lat="46.5437123" lon="12.5981015"><ele>1184.0</ele><time>2026-05-01T08:16:12.754Z</time></trkpt><trkpt lat="46.5436226" lon="12.598054"><ele>1184.0</ele><time>2026-05-01T08:16:13.753Z</time></trkpt><trkpt lat="46.5435309" lon="12.5980057"><ele>1184.0</ele><time>2026-05-01T08:16:14.753Z</time></trkpt><trkpt lat="46.5434381" lon="12.5979497"><ele>1185.2</ele><time>2026-05-01T08:16:15.754Z</time></trkpt><trkpt lat="46.5433571" lon="12.5978927"><ele>1186.4</ele><time>2026-05-01T08:16:16.754Z</time></trkpt><trkpt lat="46.5432697" lon="12.5978496"><ele>1187.6</ele><time>2026-05-01T08:16:17.753Z</time></trkpt><trkpt lat="46.5431707" lon="12.5978165"><ele>1188.8</ele><time>2026-05-01T08:16:18.753Z</time></trkpt><trkpt lat="46.5430818" lon="12.5977887"><ele>1190.0</ele><time>2026-05-01T08:16:19.754Z</time></trkpt><trkpt lat="46.5429993" lon="12.5977565"><ele>1182.5</ele><time>2026-05-01T08:16:20.754Z</time></trkpt><trkpt lat="46.5428262" lon="12.5977004"><ele>1175.0</ele><time>2026-05-01T08:16:22.755Z</time></trkpt><trkpt lat="46.5427314" lon="12.5976558"><ele>1167.5</ele><time>2026-05-01T08:16:23.754Z</time></trkpt><trkpt lat="46.5426372" lon="12.5976067"><ele>1160.0</ele><time>2026-05-01T08:16:24.753Z</time></trkpt><trkpt lat="46.5425407" lon="12.5975602"><ele>1160.0</ele><time>2026-05-01T08:16:25.754Z</time></trkpt><trkpt lat="46.5424365" lon="12.5975062"><ele>1160.0</ele><time>2026-05-01T08:16:26.754Z</time></trkpt><trkpt lat="46.5423243" lon="12.5974502"><ele>1160.0</ele><time>2026-05-01T08:16:27.754Z</time></trkpt><trkpt lat="46.5422189" lon="12.5973941"><ele>1160.0</ele><time>2026-05-01T08:16:28.754Z</time></trkpt><trkpt lat="46.5421259" lon="12.5973302"><ele>1160.0</ele><time>2026-05-01T08:16:29.754Z</time></trkpt><trkpt lat="46.5420308" lon="12.5972614"><ele>1159.3333333333335</ele><time>2026-05-01T08:16:30.754Z</time></trkpt><trkpt lat="46.5419486" lon="12.597199"><ele>1158.6666666666667</ele><time>2026-05-01T08:16:31.752Z</time></trkpt><trkpt lat="46.541871" lon="12.5971564"><ele>1158.0</ele><time>2026-05-01T08:16:32.753Z</time></trkpt><trkpt lat="46.5417885" lon="12.5971474"><ele>1157.3333333333333</ele><time>2026-05-01T08:16:33.754Z</time></trkpt><trkpt lat="46.5417003" lon="12.5971666"><ele>1156.6666666666665</ele><time>2026-05-01T08:16:34.754Z</time></trkpt><trkpt lat="46.5416022" lon="12.5971807"><ele>1156.0</ele><time>2026-05-01T08:16:35.753Z</time></trkpt><trkpt lat="46.5414928" lon="12.5971941"><ele>1156.0</ele><time>2026-05-01T08:16:36.753Z</time></trkpt><trkpt lat="46.5413869" lon="12.5971817"><ele>1156.0</ele><time>2026-05-01T08:16:37.754Z</time></trkpt><trkpt lat="46.5412723" lon="12.5971588"><ele>1156.0</ele><time>2026-05-01T08:16:38.753Z</time></trkpt><trkpt lat="46.5411687" lon="12.5971204"><ele>1156.0</ele><time>2026-05-01T08:16:39.752Z</time></trkpt><trkpt lat="46.5410574" lon="12.5970851"><ele>1156.0</ele><time>2026-05-01T08:16:40.754Z</time></trkpt><trkpt lat="46.540946" lon="12.5970486"><ele>1155.0</ele><time>2026-05-01T08:16:41.752Z</time></trkpt><trkpt lat="46.5408274" lon="12.5970081"><ele>1154.0</ele><time>2026-05-01T08:16:42.753Z</time></trkpt><trkpt lat="46.5407016" lon="12.596975"><ele>1153.0</ele><time>2026-05-01T08:16:43.753Z</time></trkpt><trkpt lat="46.5405888" lon="12.5969399"><ele>1152.0</ele><time>2026-05-01T08:16:44.754Z</time></trkpt><trkpt lat="46.5404913" lon="12.5969054"><ele>1146.8333333333333</ele><time>2026-05-01T08:16:45.754Z</time></trkpt><trkpt lat="46.5404151" lon="12.5968781"><ele>1141.6666666666667</ele><time>2026-05-01T08:16:46.754Z</time></trkpt><trkpt lat="46.5403421" lon="12.5968453"><ele>1136.5</ele><time>2026-05-01T08:16:47.754Z</time></trkpt><trkpt lat="46.5402478" lon="12.5968252"><ele>1131.3333333333335</ele><time>2026-05-01T08:16:48.754Z</time></trkpt><trkpt lat="46.5401761" lon="12.5968096"><ele>1126.1666666666667</ele><time>2026-05-01T08:16:49.755Z</time></trkpt><trkpt lat="46.5400728" lon="12.5967166"><ele>1121.0</ele><time>2026-05-01T08:16:51.754Z</time></trkpt><trkpt lat="46.5400538" lon="12.5966278"><ele>1121.2</ele><time>2026-05-01T08:16:52.753Z</time></trkpt><trkpt lat="46.5400326" lon="12.5964253"><ele>1121.3999999999999</ele><time>2026-05-01T08:16:54.753Z</time></trkpt><trkpt lat="46.54001" lon="12.5963258"><ele>1121.6</ele><time>2026-05-01T08:16:55.754Z</time></trkpt><trkpt lat="46.5399702" lon="12.5961603"><ele>1121.8</ele><time>2026-05-01T08:16:57.754Z</time></trkpt><trkpt lat="46.539927" lon="12.5960169"><ele>1122.0</ele><time>2026-05-01T08:16:59.754Z</time></trkpt><trkpt lat="46.5398306" lon="12.5959371"><ele>1122.0</ele><time>2026-05-01T08:17:01.753Z</time></trkpt><trkpt lat="46.5397335" lon="12.595858"><ele>1122.0</ele><time>2026-05-01T08:17:03.753Z</time></trkpt><trkpt lat="46.5396278" lon="12.5957771"><ele>1122.0</ele><time>2026-05-01T08:17:05.753Z</time></trkpt><trkpt lat="46.5395318" lon="12.5957119"><ele>1122.0</ele><time>2026-05-01T08:17:07.754Z</time></trkpt><trkpt lat="46.5394443" lon="12.5956796"><ele>1122.0</ele><time>2026-05-01T08:17:09.753Z</time></trkpt><trkpt lat="46.5393677" lon="12.5956606"><ele>1122.0</ele><time>2026-05-01T08:17:11.754Z</time></trkpt><trkpt lat="46.5392687" lon="12.5956654"><ele>1122.0</ele><time>2026-05-01T08:17:51.755Z</time></trkpt><trkpt lat="46.539165" lon="12.5956566"><ele>1122.0</ele><time>2026-05-01T08:17:53.753Z</time></trkpt><trkpt lat="46.5390938" lon="12.5956459"><ele>1122.0</ele><time>2026-05-01T08:17:54.755Z</time></trkpt><trkpt lat="46.5390217" lon="12.5956457"><ele>1122.0</ele><time>2026-05-01T08:17:55.754Z</time></trkpt><trkpt lat="46.5389314" lon="12.5956483"><ele>1122.0</ele><time>2026-05-01T08:17:56.755Z</time></trkpt><trkpt lat="46.5388327" lon="12.5956472"><ele>1122.0</ele><time>2026-05-01T08:17:57.753Z</time></trkpt><trkpt lat="46.5387333" lon="12.5956469"><ele>1122.0</ele><time>2026-05-01T08:17:58.754Z</time></trkpt><trkpt lat="46.538625" lon="12.595653"><ele>1122.0</ele><time>2026-05-01T08:17:59.754Z</time></trkpt><trkpt lat="46.5385132" lon="12.5956786"><ele>1122.0</ele><time>2026-05-01T08:18:00.753Z</time></trkpt><trkpt lat="46.5384012" lon="12.595744"><ele>1122.0</ele><time>2026-05-01T08:18:01.753Z</time></trkpt><trkpt lat="46.5382927" lon="12.595845"><ele>1122.25</ele><time>2026-05-01T08:18:02.752Z</time></trkpt><trkpt lat="46.5381915" lon="12.5959875"><ele>1122.5</ele><time>2026-05-01T08:18:03.754Z</time></trkpt><trkpt lat="46.5380936" lon="12.5961394"><ele>1122.75</ele><time>2026-05-01T08:18:04.755Z</time></trkpt><trkpt lat="46.5379975" lon="12.5962866"><ele>1123.0</ele><time>2026-05-01T08:18:05.754Z</time></trkpt><trkpt lat="46.5378995" lon="12.5964372"><ele>1126.25</ele><time>2026-05-01T08:18:06.753Z</time></trkpt><trkpt lat="46.5378086" lon="12.5965797"><ele>1129.5</ele><time>2026-05-01T08:18:07.754Z</time></trkpt><trkpt lat="46.5377171" lon="12.5967298"><ele>1132.75</ele><time>2026-05-01T08:18:08.754Z</time></trkpt><trkpt lat="46.5376203" lon="12.5968782"><ele>1136.0</ele><time>2026-05-01T08:18:09.753Z</time></trkpt><trkpt lat="46.5375152" lon="12.5970293"><ele>1136.0</ele><time>2026-05-01T08:18:10.753Z</time></trkpt><trkpt lat="46.5373915" lon="12.5971658"><ele>1136.0</ele><time>2026-05-01T08:18:11.754Z</time></trkpt><trkpt lat="46.5372446" lon="12.5972951"><ele>1136.0</ele><time>2026-05-01T08:18:12.754Z</time></trkpt><trkpt lat="46.5370868" lon="12.5974073"><ele>1144.3333333333335</ele><time>2026-05-01T08:18:13.754Z</time></trkpt><trkpt lat="46.5369356" lon="12.5975095"><ele>1152.6666666666667</ele><time>2026-05-01T08:18:14.754Z</time></trkpt><trkpt lat="46.5367975" lon="12.597605"><ele>1161.0</ele><time>2026-05-01T08:18:15.755Z</time></trkpt><trkpt lat="46.5366748" lon="12.5977022"><ele>1161.0</ele><time>2026-05-01T08:18:16.755Z</time></trkpt><trkpt lat="46.5365598" lon="12.5978324"><ele>1161.0</ele><time>2026-05-01T08:18:17.754Z</time></trkpt><trkpt lat="46.5364502" lon="12.5979965"><ele>1161.0</ele><time>2026-05-01T08:18:18.754Z</time></trkpt><trkpt lat="46.5363604" lon="12.5982229"><ele>1159.3333333333333</ele><time>2026-05-01T08:18:19.754Z</time></trkpt><trkpt lat="46.5362547" lon="12.5984192"><ele>1157.6666666666665</ele><time>2026-05-01T08:18:20.754Z</time></trkpt><trkpt lat="46.5361206" lon="12.5985928"><ele>1156.0</ele><time>2026-05-01T08:18:21.755Z</time></trkpt><trkpt lat="46.5359514" lon="12.5987456"><ele>1156.0</ele><time>2026-05-01T08:18:22.754Z</time></trkpt><trkpt lat="46.5357581" lon="12.598871"><ele>1156.0</ele><time>2026-05-01T08:18:23.754Z</time></trkpt><trkpt lat="46.5355818" lon="12.5989715"><ele>1156.0</ele><time>2026-05-01T08:18:24.753Z</time></trkpt><trkpt lat="46.535435" lon="12.5990501"><ele>1159.75</ele><time>2026-05-01T08:18:25.753Z</time></trkpt><trkpt lat="46.5353116" lon="12.5990796"><ele>1163.5</ele><time>2026-05-01T08:18:26.754Z</time></trkpt><trkpt lat="46.5351984" lon="12.5990512"><ele>1167.25</ele><time>2026-05-01T08:18:27.755Z</time></trkpt><trkpt lat="46.5350781" lon="12.598962"><ele>1171.0</ele><time>2026-05-01T08:18:28.753Z</time></trkpt><trkpt lat="46.5349436" lon="12.5988358"><ele>1171.0</ele><time>2026-05-01T08:18:29.753Z</time></trkpt><trkpt lat="46.5348308" lon="12.598731"><ele>1171.0</ele><time>2026-05-01T08:18:30.754Z</time></trkpt><trkpt lat="46.5347388" lon="12.5986702"><ele>1171.0</ele><time>2026-05-01T08:18:31.754Z</time></trkpt><trkpt lat="46.5346611" lon="12.5986656"><ele>1171.0</ele><time>2026-05-01T08:18:32.753Z</time></trkpt><trkpt lat="46.5346029" lon="12.5987199"><ele>1171.0</ele><time>2026-05-01T08:18:33.755Z</time></trkpt><trkpt lat="46.5345562" lon="12.5988217"><ele>1171.25</ele><time>2026-05-01T08:18:34.754Z</time></trkpt><trkpt lat="46.5345113" lon="12.5989638"><ele>1171.5</ele><time>2026-05-01T08:18:35.755Z</time></trkpt><trkpt lat="46.5344509" lon="12.5991421"><ele>1171.75</ele><time>2026-05-01T08:18:36.753Z</time></trkpt><trkpt lat="46.5343737" lon="12.5993669"><ele>1172.0</ele><time>2026-05-01T08:18:37.755Z</time></trkpt><trkpt lat="46.5343126" lon="12.5995712"><ele>1172.6</ele><time>2026-05-01T08:18:38.755Z</time></trkpt><trkpt lat="46.5342585" lon="12.5997487"><ele>1173.2</ele><time>2026-05-01T08:18:39.754Z</time></trkpt><trkpt lat="46.5342156" lon="12.5998916"><ele>1173.8</ele><time>2026-05-01T08:18:40.754Z</time></trkpt><trkpt lat="46.5341752" lon="12.6000049"><ele>1174.4</ele><time>2026-05-01T08:18:41.755Z</time></trkpt><trkpt lat="46.5341281" lon="12.6000846"><ele>1175.0</ele><time>2026-05-01T08:18:42.753Z</time></trkpt><trkpt lat="46.5340607" lon="12.6001162"><ele>1175.0</ele><time>2026-05-01T08:18:43.753Z</time></trkpt><trkpt lat="46.5339815" lon="12.6000951"><ele>1175.0</ele><time>2026-05-01T08:18:44.755Z</time></trkpt><trkpt lat="46.5338925" lon="12.6000356"><ele>1175.0</ele><time>2026-05-01T08:18:45.755Z</time></trkpt><trkpt lat="46.5338074" lon="12.599964"><ele>1175.0</ele><time>2026-05-01T08:18:46.753Z</time></trkpt><trkpt lat="46.5337288" lon="12.5999125"><ele>1175.0</ele><time>2026-05-01T08:18:47.755Z</time></trkpt><trkpt lat="46.5336612" lon="12.5999004"><ele>1175.0</ele><time>2026-05-01T08:18:48.755Z</time></trkpt><trkpt lat="46.5336027" lon="12.6000407"><ele>1175.0</ele><time>2026-05-01T08:18:50.755Z</time></trkpt><trkpt lat="46.533643" lon="12.6001235"><ele>1175.0</ele><time>2026-05-01T08:18:51.754Z</time></trkpt><trkpt lat="46.5337152" lon="12.6001822"><ele>1175.0</ele><time>2026-05-01T08:18:52.754Z</time></trkpt><trkpt lat="46.5337832" lon="12.6002465"><ele>1175.0</ele><time>2026-05-01T08:18:53.755Z</time></trkpt><trkpt lat="46.5338134" lon="12.6003413"><ele>1175.0</ele><time>2026-05-01T08:18:54.753Z</time></trkpt><trkpt lat="46.5337558" lon="12.6004664"><ele>1175.0</ele><time>2026-05-01T08:18:56.754Z</time></trkpt><trkpt lat="46.5336504" lon="12.6003586"><ele>1176.1666666666667</ele><time>2026-05-01T08:18:58.755Z</time></trkpt><trkpt lat="46.5335907" lon="12.6002613"><ele>1177.3333333333335</ele><time>2026-05-01T08:18:59.755Z</time></trkpt><trkpt lat="46.5335257" lon="12.6002085"><ele>1178.5</ele><time>2026-05-01T08:19:00.753Z</time></trkpt><trkpt lat="46.5334433" lon="12.6002907"><ele>1179.6666666666667</ele><time>2026-05-01T08:19:02.755Z</time></trkpt><trkpt lat="46.5334633" lon="12.6003792"><ele>1180.8333333333333</ele><time>2026-05-01T08:19:03.755Z</time></trkpt><trkpt lat="46.5335165" lon="12.6004727"><ele>1182.0</ele><time>2026-05-01T08:19:04.754Z</time></trkpt><trkpt lat="46.5335795" lon="12.6005596"><ele>1186.0</ele><time>2026-05-01T08:19:05.755Z</time></trkpt><trkpt lat="46.5336337" lon="12.6006503"><ele>1190.0</ele><time>2026-05-01T08:19:06.754Z</time></trkpt><trkpt lat="46.533572" lon="12.6007704"><ele>1194.0</ele><time>2026-05-01T08:19:08.754Z</time></trkpt><trkpt lat="46.5334615" lon="12.6006742"><ele>1198.0</ele><time>2026-05-01T08:19:10.753Z</time></trkpt><trkpt lat="46.5334103" lon="12.6005697"><ele>1202.0</ele><time>2026-05-01T08:19:11.753Z</time></trkpt><trkpt lat="46.5333496" lon="12.6004968"><ele>1202.0</ele><time>2026-05-01T08:19:12.753Z</time></trkpt><trkpt lat="46.5332853" lon="12.6004999"><ele>1202.0</ele><time>2026-05-01T08:19:13.754Z</time></trkpt><trkpt lat="46.5332573" lon="12.6006398"><ele>1202.0</ele><time>2026-05-01T08:19:15.754Z</time></trkpt><trkpt lat="46.5333039" lon="12.600736"><ele>1202.0</ele><time>2026-05-01T08:19:16.754Z</time></trkpt><trkpt lat="46.5333793" lon="12.600833"><ele>1202.0</ele><time>2026-05-01T08:19:17.755Z</time></trkpt><trkpt lat="46.5334579" lon="12.6009306"><ele>1202.0</ele><time>2026-05-01T08:19:18.754Z</time></trkpt><trkpt lat="46.5335004" lon="12.6010297"><ele>1202.0</ele><time>2026-05-01T08:19:19.754Z</time></trkpt><trkpt lat="46.533522" lon="12.60112"><ele>1202.0</ele><time>2026-05-01T08:19:20.752Z</time></trkpt><trkpt lat="46.5334543" lon="12.6012159"><ele>1202.0</ele><time>2026-05-01T08:19:22.754Z</time></trkpt><trkpt lat="46.533344" lon="12.6011254"><ele>1202.0</ele><time>2026-05-01T08:19:24.753Z</time></trkpt><trkpt lat="46.5332962" lon="12.6010107"><ele>1202.0</ele><time>2026-05-01T08:19:25.754Z</time></trkpt><trkpt lat="46.5332397" lon="12.6008936"><ele>1202.0</ele><time>2026-05-01T08:19:26.755Z</time></trkpt><trkpt lat="46.53318" lon="12.6008074"><ele>1202.0</ele><time>2026-05-01T08:19:27.753Z</time></trkpt><trkpt lat="46.5331202" lon="12.6007658"><ele>1202.0</ele><time>2026-05-01T08:19:28.754Z</time></trkpt><trkpt lat="46.5330405" lon="12.6008427"><ele>1202.0</ele><time>2026-05-01T08:19:30.755Z</time></trkpt><trkpt lat="46.5330961" lon="12.6010233"><ele>1202.0</ele><time>2026-05-01T08:19:32.755Z</time></trkpt><trkpt lat="46.5331537" lon="12.6011175"><ele>1202.0</ele><time>2026-05-01T08:19:33.755Z</time></trkpt><trkpt lat="46.5332211" lon="12.6012102"><ele>1202.0</ele><time>2026-05-01T08:19:34.754Z</time></trkpt><trkpt lat="46.5332818" lon="12.6012908"><ele>1202.0</ele><time>2026-05-01T08:19:35.754Z</time></trkpt><trkpt lat="46.5333184" lon="12.6013749"><ele>1202.0</ele><time>2026-05-01T08:19:36.754Z</time></trkpt><trkpt lat="46.5332819" lon="12.6015302"><ele>1202.0</ele><time>2026-05-01T08:19:38.755Z</time></trkpt><trkpt lat="46.5331725" lon="12.6014903"><ele>1202.0</ele><time>2026-05-01T08:19:40.754Z</time></trkpt><trkpt lat="46.5331251" lon="12.6013904"><ele>1202.0</ele><time>2026-05-01T08:19:41.755Z</time></trkpt><trkpt lat="46.5330736" lon="12.6012781"><ele>1202.0</ele><time>2026-05-01T08:19:42.755Z</time></trkpt><trkpt lat="46.5330193" lon="12.6011838"><ele>1202.0</ele><time>2026-05-01T08:19:43.755Z</time></trkpt><trkpt lat="46.5329621" lon="12.6011306"><ele>1202.0</ele><time>2026-05-01T08:19:44.753Z</time></trkpt><trkpt lat="46.5328699" lon="12.6012085"><ele>1202.0</ele><time>2026-05-01T08:19:46.754Z</time></trkpt><trkpt lat="46.5328748" lon="12.6013099"><ele>1203.1666666666667</ele><time>2026-05-01T08:19:47.754Z</time></trkpt><trkpt lat="46.5329144" lon="12.6014227"><ele>1204.3333333333335</ele><time>2026-05-01T08:19:48.753Z</time></trkpt><trkpt lat="46.532973" lon="12.601524"><ele>1205.5</ele><time>2026-05-01T08:19:49.755Z</time></trkpt><trkpt lat="46.5330262" lon="12.6016162"><ele>1206.6666666666667</ele><time>2026-05-01T08:19:50.753Z</time></trkpt><trkpt lat="46.5330439" lon="12.6017053"><ele>1207.8333333333333</ele><time>2026-05-01T08:19:51.755Z</time></trkpt><trkpt lat="46.5329744" lon="12.6018045"><ele>1209.0</ele><time>2026-05-01T08:19:53.755Z</time></trkpt><trkpt lat="46.5329144" lon="12.6017735"><ele>1215.2</ele><time>2026-05-01T08:19:54.752Z</time></trkpt><trkpt lat="46.5328631" lon="12.6016819"><ele>1221.4</ele><time>2026-05-01T08:19:55.753Z</time></trkpt><trkpt lat="46.5328162" lon="12.6015413"><ele>1227.6</ele><time>2026-05-01T08:19:56.754Z</time></trkpt><trkpt lat="46.53277" lon="12.6014082"><ele>1233.8</ele><time>2026-05-01T08:19:57.753Z</time></trkpt><trkpt lat="46.5327246" lon="12.6012973"><ele>1240.0</ele><time>2026-05-01T08:19:58.754Z</time></trkpt><trkpt lat="46.5326682" lon="12.6012324"><ele>1240.0</ele><time>2026-05-01T08:19:59.754Z</time></trkpt><trkpt lat="46.5326086" lon="12.6012025"><ele>1240.0</ele><time>2026-05-01T08:20:00.755Z</time></trkpt><trkpt lat="46.5325907" lon="12.6013017"><ele>1240.0</ele><time>2026-05-01T08:20:01.755Z</time></trkpt><trkpt lat="46.5325917" lon="12.6013991"><ele>1240.0</ele><time>2026-05-01T08:20:02.754Z</time></trkpt><trkpt lat="46.5326231" lon="12.6015188"><ele>1240.0</ele><time>2026-05-01T08:20:03.753Z</time></trkpt><trkpt lat="46.5327028" lon="12.601671"><ele>1240.0</ele><time>2026-05-01T08:20:04.753Z</time></trkpt><trkpt lat="46.5327743" lon="12.6018057"><ele>1240.0</ele><time>2026-05-01T08:20:05.755Z</time></trkpt><trkpt lat="46.5327977" lon="12.6019135"><ele>1240.0</ele><time>2026-05-01T08:20:06.753Z</time></trkpt><trkpt lat="46.5328105" lon="12.6020181"><ele>1240.0</ele><time>2026-05-01T08:20:07.754Z</time></trkpt><trkpt lat="46.5327226" lon="12.6020887"><ele>1240.0</ele><time>2026-05-01T08:20:09.754Z</time></trkpt><trkpt lat="46.5326646" lon="12.6020252"><ele>1240.0</ele><time>2026-05-01T08:20:10.754Z</time></trkpt><trkpt lat="46.5326193" lon="12.6019092"><ele>1240.0</ele><time>2026-05-01T08:20:11.754Z</time></trkpt><trkpt lat="46.5325855" lon="12.6017893"><ele>1240.0</ele><time>2026-05-01T08:20:12.754Z</time></trkpt><trkpt lat="46.5325327" lon="12.6017109"><ele>1240.0</ele><time>2026-05-01T08:20:13.755Z</time></trkpt><trkpt lat="46.5324372" lon="12.6017339"><ele>1240.0</ele><time>2026-05-01T08:20:15.754Z</time></trkpt><trkpt lat="46.5324361" lon="12.6018288"><ele>1240.0</ele><time>2026-05-01T08:20:16.753Z</time></trkpt><trkpt lat="46.5324837" lon="12.601956"><ele>1240.0</ele><time>2026-05-01T08:20:17.755Z</time></trkpt><trkpt lat="46.5325664" lon="12.6021073"><ele>1242.8</ele><time>2026-05-01T08:20:18.754Z</time></trkpt><trkpt lat="46.5326347" lon="12.6022263"><ele>1245.6</ele><time>2026-05-01T08:20:19.753Z</time></trkpt><trkpt lat="46.5326689" lon="12.602325"><ele>1248.4</ele><time>2026-05-01T08:20:20.753Z</time></trkpt><trkpt lat="46.5326259" lon="12.6024759"><ele>1251.2</ele><time>2026-05-01T08:20:22.753Z</time></trkpt><trkpt lat="46.5325384" lon="12.6023961"><ele>1254.0</ele><time>2026-05-01T08:20:23.754Z</time></trkpt><trkpt lat="46.5324759" lon="12.6022923"><ele>1254.0</ele><time>2026-05-01T08:20:24.755Z</time></trkpt><trkpt lat="46.532411" lon="12.6021483"><ele>1254.0</ele><time>2026-05-01T08:20:25.754Z</time></trkpt><trkpt lat="46.5323469" lon="12.6019961"><ele>1254.0</ele><time>2026-05-01T08:20:26.754Z</time></trkpt><trkpt lat="46.5322858" lon="12.6018616"><ele>1254.0</ele><time>2026-05-01T08:20:27.753Z</time></trkpt><trkpt lat="46.5322222" lon="12.6017418"><ele>1254.0</ele><time>2026-05-01T08:20:28.754Z</time></trkpt><trkpt lat="46.5321463" lon="12.6016521"><ele>1254.0</ele><time>2026-05-01T08:20:29.755Z</time></trkpt><trkpt lat="46.5320512" lon="12.601596"><ele>1254.0</ele><time>2026-05-01T08:20:30.754Z</time></trkpt><trkpt lat="46.5319415" lon="12.6015799"><ele>1254.0</ele><time>2026-05-01T08:20:31.753Z</time></trkpt><trkpt lat="46.5318267" lon="12.6015842"><ele>1254.0</ele><time>2026-05-01T08:20:32.754Z</time></trkpt><trkpt lat="46.5317091" lon="12.601593"><ele>1254.0</ele><time>2026-05-01T08:20:33.755Z</time></trkpt><trkpt lat="46.5315891" lon="12.6016049"><ele>1254.0</ele><time>2026-05-01T08:20:34.754Z</time></trkpt><trkpt lat="46.5314808" lon="12.6016056"><ele>1254.0</ele><time>2026-05-01T08:20:35.752Z</time></trkpt><trkpt lat="46.5313825" lon="12.6015827"><ele>1254.0</ele><time>2026-05-01T08:20:36.754Z</time></trkpt><trkpt lat="46.5312868" lon="12.6015418"><ele>1254.0</ele><time>2026-05-01T08:20:37.755Z</time></trkpt><trkpt lat="46.5311908" lon="12.6014866"><ele>1253.0</ele><time>2026-05-01T08:20:38.755Z</time></trkpt><trkpt lat="46.5310993" lon="12.6014106"><ele>1252.0</ele><time>2026-05-01T08:20:39.753Z</time></trkpt><trkpt lat="46.5310133" lon="12.6013189"><ele>1251.0</ele><time>2026-05-01T08:20:40.755Z</time></trkpt><trkpt lat="46.5309281" lon="12.6012347"><ele>1250.0</ele><time>2026-05-01T08:20:41.755Z</time></trkpt><trkpt lat="46.5308393" lon="12.6011474"><ele>1249.0</ele><time>2026-05-01T08:20:42.754Z</time></trkpt><trkpt lat="46.5307492" lon="12.6010629"><ele>1249.0</ele><time>2026-05-01T08:20:43.754Z</time></trkpt><trkpt lat="46.530658" lon="12.6009805"><ele>1249.0</ele><time>2026-05-01T08:20:44.755Z</time></trkpt><trkpt lat="46.5305695" lon="12.6008927"><ele>1249.0</ele><time>2026-05-01T08:20:45.753Z</time></trkpt><trkpt lat="46.530484" lon="12.6008051"><ele>1249.0</ele><time>2026-05-01T08:20:46.753Z</time></trkpt><trkpt lat="46.5303931" lon="12.6007266"><ele>1249.0</ele><time>2026-05-01T08:20:47.753Z</time></trkpt><trkpt lat="46.5303011" lon="12.6006476"><ele>1254.25</ele><time>2026-05-01T08:20:48.754Z</time></trkpt><trkpt lat="46.530187" lon="12.6006288"><ele>1259.5</ele><time>2026-05-01T08:20:49.755Z</time></trkpt><trkpt lat="46.5300782" lon="12.6006084"><ele>1264.75</ele><time>2026-05-01T08:20:50.754Z</time></trkpt><trkpt lat="46.5299593" lon="12.6006312"><ele>1270.0</ele><time>2026-05-01T08:20:51.754Z</time></trkpt><trkpt lat="46.5298408" lon="12.6006399"><ele>1270.0</ele><time>2026-05-01T08:20:52.755Z</time></trkpt><trkpt lat="46.5297272" lon="12.6006469"><ele>1270.0</ele><time>2026-05-01T08:20:53.753Z</time></trkpt><trkpt lat="46.529613" lon="12.6006526"><ele>1270.0</ele><time>2026-05-01T08:20:54.754Z</time></trkpt><trkpt lat="46.5294997" lon="12.6006587"><ele>1270.0</ele><time>2026-05-01T08:20:55.755Z</time></trkpt><trkpt lat="46.5293853" lon="12.6006611"><ele>1270.5</ele><time>2026-05-01T08:20:56.753Z</time></trkpt><trkpt lat="46.5292712" lon="12.6006591"><ele>1271.0</ele><time>2026-05-01T08:20:57.753Z</time></trkpt><trkpt lat="46.529156" lon="12.600649"><ele>1271.5</ele><time>2026-05-01T08:20:58.754Z</time></trkpt><trkpt lat="46.5290403" lon="12.6006315"><ele>1272.0</ele><time>2026-05-01T08:20:59.754Z</time></trkpt><trkpt lat="46.5289293" lon="12.6006029"><ele>1272.0</ele><time>2026-05-01T08:21:00.754Z</time></trkpt><trkpt lat="46.528818" lon="12.6005798"><ele>1272.0</ele><time>2026-05-01T08:21:01.754Z</time></trkpt><trkpt lat="46.5287062" lon="12.6005622"><ele>1272.0</ele><time>2026-05-01T08:21:02.753Z</time></trkpt><trkpt lat="46.5285925" lon="12.6005363"><ele>1272.0</ele><time>2026-05-01T08:21:03.754Z</time></trkpt><trkpt lat="46.5284824" lon="12.6005045"><ele>1271.8</ele><time>2026-05-01T08:21:04.755Z</time></trkpt><trkpt lat="46.5283737" lon="12.600476"><ele>1271.6</ele><time>2026-05-01T08:21:05.754Z</time></trkpt><trkpt lat="46.5282685" lon="12.6004498"><ele>1271.3999999999999</ele><time>2026-05-01T08:21:06.754Z</time></trkpt><trkpt lat="46.528163" lon="12.6004256"><ele>1271.2</ele><time>2026-05-01T08:21:07.754Z</time></trkpt><trkpt lat="46.5280704" lon="12.6003946"><ele>1271.0</ele><time>2026-05-01T08:21:08.754Z</time></trkpt><trkpt lat="46.5279744" lon="12.6003879"><ele>1271.2</ele><time>2026-05-01T08:21:09.754Z</time></trkpt><trkpt lat="46.5278868" lon="12.6004118"><ele>1271.3999999999999</ele><time>2026-05-01T08:21:10.755Z</time></trkpt><trkpt lat="46.5277994" lon="12.6004495"><ele>1271.6</ele><time>2026-05-01T08:21:11.753Z</time></trkpt><trkpt lat="46.5277078" lon="12.6005327"><ele>1271.8</ele><time>2026-05-01T08:21:12.754Z</time></trkpt><trkpt lat="46.5276114" lon="12.6005991"><ele>1272.0</ele><time>2026-05-01T08:21:13.754Z</time></trkpt><trkpt lat="46.5275082" lon="12.6006485"><ele>1272.0</ele><time>2026-05-01T08:21:14.753Z</time></trkpt><trkpt lat="46.5274056" lon="12.6006904"><ele>1272.0</ele><time>2026-05-01T08:21:15.754Z</time></trkpt><trkpt lat="46.5272996" lon="12.6007211"><ele>1272.0</ele><time>2026-05-01T08:21:16.754Z</time></trkpt><trkpt lat="46.5271911" lon="12.6007462"><ele>1272.0</ele><time>2026-05-01T08:21:17.753Z</time></trkpt><trkpt lat="46.5270862" lon="12.6007514"><ele>1272.0</ele><time>2026-05-01T08:21:18.753Z</time></trkpt><trkpt lat="46.5269798" lon="12.600764"><ele>1271.8</ele><time>2026-05-01T08:21:19.753Z</time></trkpt><trkpt lat="46.5268737" lon="12.6007945"><ele>1271.6</ele><time>2026-05-01T08:21:20.755Z</time></trkpt><trkpt lat="46.5267656" lon="12.6008216"><ele>1271.3999999999999</ele><time>2026-05-01T08:21:21.755Z</time></trkpt><trkpt lat="46.526657" lon="12.6008442"><ele>1271.2</ele><time>2026-05-01T08:21:22.754Z</time></trkpt><trkpt lat="46.5265512" lon="12.6008693"><ele>1271.0</ele><time>2026-05-01T08:21:23.754Z</time></trkpt><trkpt lat="46.5264432" lon="12.6008889"><ele>1271.0</ele><time>2026-05-01T08:21:24.753Z</time></trkpt><trkpt lat="46.5263392" lon="12.600922"><ele>1271.0</ele><time>2026-05-01T08:21:25.755Z</time></trkpt><trkpt lat="46.5262404" lon="12.6009769"><ele>1271.0</ele><time>2026-05-01T08:21:26.755Z</time></trkpt><trkpt lat="46.5261466" lon="12.6010277"><ele>1271.0</ele><time>2026-05-01T08:21:27.754Z</time></trkpt><trkpt lat="46.5260524" lon="12.6010497"><ele>1271.0</ele><time>2026-05-01T08:21:28.754Z</time></trkpt><trkpt lat="46.5259631" lon="12.6010503"><ele>1270.6</ele><time>2026-05-01T08:21:29.754Z</time></trkpt><trkpt lat="46.5258723" lon="12.6010395"><ele>1270.1999999999998</ele><time>2026-05-01T08:21:30.755Z</time></trkpt><trkpt lat="46.5257837" lon="12.6010198"><ele>1269.8000000000002</ele><time>2026-05-01T08:21:31.755Z</time></trkpt><trkpt lat="46.5256981" lon="12.6009908"><ele>1269.4</ele><time>2026-05-01T08:21:32.754Z</time></trkpt><trkpt lat="46.5256163" lon="12.6009451"><ele>1269.0</ele><time>2026-05-01T08:21:33.753Z</time></trkpt><trkpt lat="46.5255287" lon="12.6008879"><ele>1269.0</ele><time>2026-05-01T08:21:34.753Z</time></trkpt><trkpt lat="46.5254395" lon="12.6008084"><ele>1269.0</ele><time>2026-05-01T08:21:35.754Z</time></trkpt><trkpt lat="46.5253501" lon="12.6007393"><ele>1269.0</ele><time>2026-05-01T08:21:36.755Z</time></trkpt><trkpt lat="46.5252544" lon="12.6006775"><ele>1269.0</ele><time>2026-05-01T08:21:37.755Z</time></trkpt><trkpt lat="46.525152" lon="12.6006292"><ele>1269.0</ele><time>2026-05-01T08:21:38.754Z</time></trkpt><trkpt lat="46.5250421" lon="12.6006068"><ele>1272.25</ele><time>2026-05-01T08:21:39.753Z</time></trkpt><trkpt lat="46.5249294" lon="12.6006094"><ele>1275.5</ele><time>2026-05-01T08:21:40.753Z</time></trkpt><trkpt lat="46.5248167" lon="12.6006277"><ele>1278.75</ele><time>2026-05-01T08:21:41.755Z</time></trkpt><trkpt lat="46.524705" lon="12.60066"><ele>1282.0</ele><time>2026-05-01T08:21:42.754Z</time></trkpt><trkpt lat="46.5245994" lon="12.600725"><ele>1282.25</ele><time>2026-05-01T08:21:43.754Z</time></trkpt><trkpt lat="46.524496" lon="12.600787"><ele>1282.5</ele><time>2026-05-01T08:21:44.755Z</time></trkpt><trkpt lat="46.5243842" lon="12.6008571"><ele>1282.75</ele><time>2026-05-01T08:21:45.756Z</time></trkpt><trkpt lat="46.5242796" lon="12.6009242"><ele>1283.0</ele><time>2026-05-01T08:21:46.755Z</time></trkpt><trkpt lat="46.5241742" lon="12.6009823"><ele>1283.0</ele><time>2026-05-01T08:21:47.754Z</time></trkpt><trkpt lat="46.5240774" lon="12.6010266"><ele>1283.0</ele><time>2026-05-01T08:21:48.755Z</time></trkpt><trkpt lat="46.5239846" lon="12.6010451"><ele>1283.0</ele><time>2026-05-01T08:21:49.753Z</time></trkpt><trkpt lat="46.5239014" lon="12.6010428"><ele>1283.0</ele><time>2026-05-01T08:21:50.753Z</time></trkpt><trkpt lat="46.5238246" lon="12.6009582"><ele>1283.0</ele><time>2026-05-01T08:21:51.755Z</time></trkpt><trkpt lat="46.5237527" lon="12.6008642"><ele>1282.0</ele><time>2026-05-01T08:21:52.754Z</time></trkpt><trkpt lat="46.523682" lon="12.6007602"><ele>1281.0</ele><time>2026-05-01T08:21:53.755Z</time></trkpt><trkpt lat="46.5236223" lon="12.6006391"><ele>1280.0</ele><time>2026-05-01T08:21:54.754Z</time></trkpt><trkpt lat="46.5235679" lon="12.6005144"><ele>1279.0</ele><time>2026-05-01T08:21:55.755Z</time></trkpt><trkpt lat="46.5235524" lon="12.6003708"><ele>1278.0</ele><time>2026-05-01T08:21:56.754Z</time></trkpt><trkpt lat="46.5235348" lon="12.6002311"><ele>1278.0</ele><time>2026-05-01T08:21:57.755Z</time></trkpt><trkpt lat="46.5235259" lon="12.6001013"><ele>1278.0</ele><time>2026-05-01T08:21:58.754Z</time></trkpt><trkpt lat="46.5235092" lon="12.5999862"><ele>1278.0</ele><time>2026-05-01T08:21:59.755Z</time></trkpt><trkpt lat="46.5234907" lon="12.5998766"><ele>1278.0</ele><time>2026-05-01T08:22:00.755Z</time></trkpt><trkpt lat="46.5234658" lon="12.5997721"><ele>1278.0</ele><time>2026-05-01T08:22:01.754Z</time></trkpt><trkpt lat="46.5234195" lon="12.5996909"><ele>1278.0</ele><time>2026-05-01T08:22:02.754Z</time></trkpt><trkpt lat="46.5233591" lon="12.5996304"><ele>1278.0</ele><time>2026-05-01T08:22:03.754Z</time></trkpt><trkpt lat="46.5232884" lon="12.5995976"><ele>1278.0</ele><time>2026-05-01T08:22:04.755Z</time></trkpt><trkpt lat="46.5232045" lon="12.5995933"><ele>1278.0</ele><time>2026-05-01T08:22:05.754Z</time></trkpt><trkpt lat="46.5231002" lon="12.5996087"><ele>1278.0</ele><time>2026-05-01T08:22:06.755Z</time></trkpt><trkpt lat="46.5229867" lon="12.59964"><ele>1278.0</ele><time>2026-05-01T08:22:07.755Z</time></trkpt><trkpt lat="46.5228632" lon="12.5996618"><ele>1280.5</ele><time>2026-05-01T08:22:08.754Z</time></trkpt><trkpt lat="46.5227428" lon="12.5996572"><ele>1283.0</ele><time>2026-05-01T08:22:09.754Z</time></trkpt><trkpt lat="46.5226246" lon="12.5996212"><ele>1285.5</ele><time>2026-05-01T08:22:10.754Z</time></trkpt><trkpt lat="46.5225125" lon="12.5995464"><ele>1288.0</ele><time>2026-05-01T08:22:11.755Z</time></trkpt><trkpt lat="46.5223934" lon="12.5994696"><ele>1289.75</ele><time>2026-05-01T08:22:12.754Z</time></trkpt><trkpt lat="46.5222757" lon="12.5993901"><ele>1291.5</ele><time>2026-05-01T08:22:13.754Z</time></trkpt><trkpt lat="46.5221611" lon="12.5993033"><ele>1293.25</ele><time>2026-05-01T08:22:14.754Z</time></trkpt><trkpt lat="46.5220778" lon="12.599175"><ele>1295.0</ele><time>2026-05-01T08:22:15.754Z</time></trkpt><trkpt lat="46.5219782" lon="12.5990621"><ele>1295.0</ele><time>2026-05-01T08:22:16.754Z</time></trkpt><trkpt lat="46.5218722" lon="12.5989723"><ele>1295.0</ele><time>2026-05-01T08:22:17.755Z</time></trkpt><trkpt lat="46.5217644" lon="12.5988897"><ele>1295.0</ele><time>2026-05-01T08:22:18.754Z</time></trkpt><trkpt lat="46.5216446" lon="12.5988497"><ele>1295.0</ele><time>2026-05-01T08:22:19.755Z</time></trkpt><trkpt lat="46.5215169" lon="12.5988367"><ele>1295.0</ele><time>2026-05-01T08:22:20.754Z</time></trkpt><trkpt lat="46.5213939" lon="12.598834"><ele>1295.0</ele><time>2026-05-01T08:22:21.758Z</time></trkpt><trkpt lat="46.5212659" lon="12.5988444"><ele>1295.0</ele><time>2026-05-01T08:22:22.755Z</time></trkpt><trkpt lat="46.5211377" lon="12.5988464"><ele>1295.0</ele><time>2026-05-01T08:22:23.753Z</time></trkpt><trkpt lat="46.5209984" lon="12.5988543"><ele>1295.75</ele><time>2026-05-01T08:22:24.753Z</time></trkpt><trkpt lat="46.5208621" lon="12.5988461"><ele>1296.5</ele><time>2026-05-01T08:22:25.754Z</time></trkpt><trkpt lat="46.5207233" lon="12.5988358"><ele>1297.25</ele><time>2026-05-01T08:22:26.755Z</time></trkpt><trkpt lat="46.5205888" lon="12.5988177"><ele>1298.0</ele><time>2026-05-01T08:22:27.755Z</time></trkpt><trkpt lat="46.5204476" lon="12.5988124"><ele>1298.0</ele><time>2026-05-01T08:22:28.754Z</time></trkpt><trkpt lat="46.5203139" lon="12.5988028"><ele>1298.0</ele><time>2026-05-01T08:22:29.754Z</time></trkpt><trkpt lat="46.5201828" lon="12.5988022"><ele>1298.0</ele><time>2026-05-01T08:22:30.755Z</time></trkpt><trkpt lat="46.5200561" lon="12.598799"><ele>1298.0</ele><time>2026-05-01T08:22:31.755Z</time></trkpt><trkpt lat="46.5199334" lon="12.5987949"><ele>1298.0</ele><time>2026-05-01T08:22:32.753Z</time></trkpt><trkpt lat="46.5198182" lon="12.5987866"><ele>1298.0</ele><time>2026-05-01T08:22:33.754Z</time></trkpt><trkpt lat="46.5197082" lon="12.5987711"><ele>1298.0</ele><time>2026-05-01T08:22:34.754Z</time></trkpt><trkpt lat="46.5196123" lon="12.5987334"><ele>1298.0</ele><time>2026-05-01T08:22:35.755Z</time></trkpt><trkpt lat="46.5195014" lon="12.598704"><ele>1298.0</ele><time>2026-05-01T08:22:36.754Z</time></trkpt><trkpt lat="46.5193915" lon="12.5986926"><ele>1299.25</ele><time>2026-05-01T08:22:37.754Z</time></trkpt><trkpt lat="46.5192827" lon="12.5986782"><ele>1300.5</ele><time>2026-05-01T08:22:38.754Z</time></trkpt><trkpt lat="46.519167" lon="12.5987445"><ele>1301.75</ele><time>2026-05-01T08:22:39.753Z</time></trkpt><trkpt lat="46.5190581" lon="12.5988039"><ele>1303.0</ele><time>2026-05-01T08:22:40.755Z</time></trkpt><trkpt lat="46.5189578" lon="12.5988824"><ele>1303.0</ele><time>2026-05-01T08:22:41.752Z</time></trkpt><trkpt lat="46.5188555" lon="12.5989667"><ele>1303.0</ele><time>2026-05-01T08:22:42.755Z</time></trkpt><trkpt lat="46.5187483" lon="12.5990654"><ele>1303.0</ele><time>2026-05-01T08:22:43.755Z</time></trkpt><trkpt lat="46.5186479" lon="12.5991759"><ele>1303.0</ele><time>2026-05-01T08:22:44.755Z</time></trkpt><trkpt lat="46.5185585" lon="12.5992722"><ele>1305.0</ele><time>2026-05-01T08:22:45.754Z</time></trkpt><trkpt lat="46.5184687" lon="12.5993721"><ele>1307.0</ele><time>2026-05-01T08:22:46.755Z</time></trkpt><trkpt lat="46.5183726" lon="12.5994571"><ele>1309.0</ele><time>2026-05-01T08:22:47.755Z</time></trkpt><trkpt lat="46.518277" lon="12.5995294"><ele>1311.0</ele><time>2026-05-01T08:22:48.755Z</time></trkpt><trkpt lat="46.5181683" lon="12.5995916"><ele>1311.5</ele><time>2026-05-01T08:22:49.754Z</time></trkpt><trkpt lat="46.5180435" lon="12.5996336"><ele>1312.0</ele><time>2026-05-01T08:22:50.753Z</time></trkpt><trkpt lat="46.5179225" lon="12.59965"><ele>1312.5</ele><time>2026-05-01T08:22:51.755Z</time></trkpt><trkpt lat="46.5177873" lon="12.5996639"><ele>1313.0</ele><time>2026-05-01T08:22:52.754Z</time></trkpt><trkpt lat="46.5176506" lon="12.5996789"><ele>1313.75</ele><time>2026-05-01T08:22:53.755Z</time></trkpt><trkpt lat="46.5175236" lon="12.5996898"><ele>1314.5</ele><time>2026-05-01T08:22:54.754Z</time></trkpt><trkpt lat="46.5174021" lon="12.5997282"><ele>1315.25</ele><time>2026-05-01T08:22:55.755Z</time></trkpt><trkpt lat="46.5172769" lon="12.5997609"><ele>1316.0</ele><time>2026-05-01T08:22:56.753Z</time></trkpt><trkpt lat="46.5171651" lon="12.5998169"><ele>1316.8</ele><time>2026-05-01T08:22:57.754Z</time></trkpt><trkpt lat="46.5170591" lon="12.5998694"><ele>1317.6</ele><time>2026-05-01T08:22:58.755Z</time></trkpt><trkpt lat="46.5169478" lon="12.5999363"><ele>1318.4</ele><time>2026-05-01T08:22:59.754Z</time></trkpt><trkpt lat="46.516851" lon="12.5999852"><ele>1319.2</ele><time>2026-05-01T08:23:00.755Z</time></trkpt><trkpt lat="46.5167446" lon="12.600026"><ele>1320.0</ele><time>2026-05-01T08:23:01.754Z</time></trkpt><trkpt lat="46.5166234" lon="12.6000547"><ele>1320.0</ele><time>2026-05-01T08:23:02.755Z</time></trkpt><trkpt lat="46.5165023" lon="12.6000779"><ele>1320.0</ele><time>2026-05-01T08:23:03.754Z</time></trkpt><trkpt lat="46.516379" lon="12.6001001"><ele>1320.0</ele><time>2026-05-01T08:23:04.754Z</time></trkpt><trkpt lat="46.5162531" lon="12.6001096"><ele>1320.0</ele><time>2026-05-01T08:23:05.755Z</time></trkpt><trkpt lat="46.5161234" lon="12.6001099"><ele>1322.0</ele><time>2026-05-01T08:23:06.754Z</time></trkpt><trkpt lat="46.5159773" lon="12.6001073"><ele>1324.0</ele><time>2026-05-01T08:23:07.755Z</time></trkpt><trkpt lat="46.5158354" lon="12.6000906"><ele>1326.0</ele><time>2026-05-01T08:23:08.755Z</time></trkpt><trkpt lat="46.5157027" lon="12.600082"><ele>1328.0</ele><time>2026-05-01T08:23:09.755Z</time></trkpt><trkpt lat="46.5155671" lon="12.6000722"><ele>1328.0</ele><time>2026-05-01T08:23:10.755Z</time></trkpt><trkpt lat="46.5154342" lon="12.600071"><ele>1328.0</ele><time>2026-05-01T08:23:11.755Z</time></trkpt><trkpt lat="46.5152982" lon="12.6000782"><ele>1328.0</ele><time>2026-05-01T08:23:12.754Z</time></trkpt><trkpt lat="46.5151709" lon="12.6000931"><ele>1328.0</ele><time>2026-05-01T08:23:13.754Z</time></trkpt><trkpt lat="46.5150451" lon="12.6001108"><ele>1330.2</ele><time>2026-05-01T08:23:14.755Z</time></trkpt><trkpt lat="46.5149209" lon="12.6001348"><ele>1332.4</ele><time>2026-05-01T08:23:15.755Z</time></trkpt><trkpt lat="46.5147992" lon="12.6001555"><ele>1334.6000000000001</ele><time>2026-05-01T08:23:16.755Z</time></trkpt><trkpt lat="46.5147053" lon="12.600171"><ele>1336.8000000000002</ele><time>2026-05-01T08:23:17.754Z</time></trkpt><trkpt lat="46.5146064" lon="12.6001952"><ele>1339.0</ele><time>2026-05-01T08:23:18.755Z</time></trkpt><trkpt lat="46.5145171" lon="12.6002223"><ele>1339.5</ele><time>2026-05-01T08:23:19.754Z</time></trkpt><trkpt lat="46.5144323" lon="12.6002595"><ele>1340.0</ele><time>2026-05-01T08:23:20.753Z</time></trkpt><trkpt lat="46.514348" lon="12.6002959"><ele>1340.5</ele><time>2026-05-01T08:23:21.754Z</time></trkpt><trkpt lat="46.5142612" lon="12.6003336"><ele>1341.0</ele><time>2026-05-01T08:23:22.755Z</time></trkpt><trkpt lat="46.5141857" lon="12.6003798"><ele>1341.5</ele><time>2026-05-01T08:23:23.754Z</time></trkpt><trkpt lat="46.5141107" lon="12.6004321"><ele>1342.0</ele><time>2026-05-01T08:23:24.755Z</time></trkpt><trkpt lat="46.5140392" lon="12.6004729"><ele>1342.0</ele><time>2026-05-01T08:23:25.754Z</time></trkpt><trkpt lat="46.5139666" lon="12.6004931"><ele>1342.0</ele><time>2026-05-01T08:23:26.754Z</time></trkpt><trkpt lat="46.5138938" lon="12.6005057"><ele>1342.0</ele><time>2026-05-01T08:23:27.753Z</time></trkpt><trkpt lat="46.5138307" lon="12.6005219"><ele>1342.0</ele><time>2026-05-01T08:23:28.755Z</time></trkpt><trkpt lat="46.5137187" lon="12.6005283"><ele>1342.0</ele><time>2026-05-01T08:23:30.755Z</time></trkpt><trkpt lat="46.513621" lon="12.6005029"><ele>1342.0</ele><time>2026-05-01T08:23:32.754Z</time></trkpt><trkpt lat="46.5135534" lon="12.6004137"><ele>1343.6</ele><time>2026-05-01T08:23:34.754Z</time></trkpt><trkpt lat="46.5135656" lon="12.6002873"><ele>1345.1999999999998</ele><time>2026-05-01T08:23:36.754Z</time></trkpt><trkpt lat="46.5136472" lon="12.6001977"><ele>1346.8</ele><time>2026-05-01T08:23:38.755Z</time></trkpt><trkpt lat="46.5137635" lon="12.6001472"><ele>1348.4</ele><time>2026-05-01T08:23:40.755Z</time></trkpt><trkpt lat="46.5138148" lon="12.6000904"><ele>1350.0</ele><time>2026-05-01T08:23:41.754Z</time></trkpt><trkpt lat="46.5138465" lon="12.5999711"><ele>1350.0</ele><time>2026-05-01T08:23:43.755Z</time></trkpt><trkpt lat="46.5137785" lon="12.5998483"><ele>1350.0</ele><time>2026-05-01T08:23:45.754Z</time></trkpt><trkpt lat="46.5137139" lon="12.5998057"><ele>1350.0</ele><time>2026-05-01T08:23:46.754Z</time></trkpt><trkpt lat="46.5136438" lon="12.5997487"><ele>1350.0</ele><time>2026-05-01T08:23:47.753Z</time></trkpt><trkpt lat="46.5135883" lon="12.5996776"><ele>1350.0</ele><time>2026-05-01T08:23:48.752Z</time></trkpt><trkpt lat="46.5135405" lon="12.5995764"><ele>1350.0</ele><time>2026-05-01T08:23:49.754Z</time></trkpt><trkpt lat="46.513515" lon="12.5994806"><ele>1354.3333333333333</ele><time>2026-05-01T08:23:50.754Z</time></trkpt><trkpt lat="46.513485" lon="12.5993908"><ele>1358.6666666666667</ele><time>2026-05-01T08:23:51.754Z</time></trkpt><trkpt lat="46.5134431" lon="12.5992807"><ele>1363.0</ele><time>2026-05-01T08:23:52.755Z</time></trkpt><trkpt lat="46.513397" lon="12.5991871"><ele>1367.3333333333335</ele><time>2026-05-01T08:23:53.755Z</time></trkpt><trkpt lat="46.5133367" lon="12.5990972"><ele>1371.6666666666667</ele><time>2026-05-01T08:23:54.754Z</time></trkpt><trkpt lat="46.5132695" lon="12.5990024"><ele>1376.0</ele><time>2026-05-01T08:23:55.755Z</time></trkpt><trkpt lat="46.5132116" lon="12.598898"><ele>1376.0</ele><time>2026-05-01T08:23:56.755Z</time></trkpt><trkpt lat="46.513153" lon="12.5987854"><ele>1376.0</ele><time>2026-05-01T08:23:57.755Z</time></trkpt><trkpt lat="46.5130949" lon="12.5986611"><ele>1376.0</ele><time>2026-05-01T08:23:58.753Z</time></trkpt><trkpt lat="46.513036" lon="12.5985776"><ele>1376.0</ele><time>2026-05-01T08:23:59.755Z</time></trkpt><trkpt lat="46.5129658" lon="12.5985057"><ele>1376.0</ele><time>2026-05-01T08:24:00.755Z</time></trkpt><trkpt lat="46.5128952" lon="12.5984331"><ele>1379.1666666666667</ele><time>2026-05-01T08:24:01.755Z</time></trkpt><trkpt lat="46.5128369" lon="12.598366"><ele>1382.3333333333335</ele><time>2026-05-01T08:24:02.755Z</time></trkpt><trkpt lat="46.5127607" lon="12.5983048"><ele>1385.5</ele><time>2026-05-01T08:24:03.755Z</time></trkpt><trkpt lat="46.5126842" lon="12.5982562"><ele>1388.6666666666667</ele><time>2026-05-01T08:24:04.753Z</time></trkpt><trkpt lat="46.5126043" lon="12.5982057"><ele>1391.8333333333333</ele><time>2026-05-01T08:24:05.755Z</time></trkpt><trkpt lat="46.5125254" lon="12.598144"><ele>1395.0</ele><time>2026-05-01T08:24:06.755Z</time></trkpt><trkpt lat="46.5124609" lon="12.598106"><ele>1395.0</ele><time>2026-05-01T08:24:07.754Z</time></trkpt><trkpt lat="46.5124047" lon="12.5980375"><ele>1395.0</ele><time>2026-05-01T08:24:08.753Z</time></trkpt><trkpt lat="46.5123546" lon="12.5979613"><ele>1395.0</ele><time>2026-05-01T08:24:09.755Z</time></trkpt><trkpt lat="46.5122891" lon="12.5978909"><ele>1395.0</ele><time>2026-05-01T08:24:10.753Z</time></trkpt><trkpt lat="46.5122164" lon="12.5978333"><ele>1395.0</ele><time>2026-05-01T08:24:11.754Z</time></trkpt><trkpt lat="46.5121416" lon="12.5977817"><ele>1395.0</ele><time>2026-05-01T08:24:12.753Z</time></trkpt><trkpt lat="46.5120704" lon="12.5977092"><ele>1397.0</ele><time>2026-05-01T08:24:13.755Z</time></trkpt><trkpt lat="46.5120074" lon="12.5976176"><ele>1399.0</ele><time>2026-05-01T08:24:14.753Z</time></trkpt><trkpt lat="46.5119455" lon="12.5975285"><ele>1401.0</ele><time>2026-05-01T08:24:15.755Z</time></trkpt><trkpt lat="46.5118851" lon="12.5974367"><ele>1403.0</ele><time>2026-05-01T08:24:16.755Z</time></trkpt><trkpt lat="46.5118359" lon="12.5973422"><ele>1405.0</ele><time>2026-05-01T08:24:17.754Z</time></trkpt><trkpt lat="46.5118016" lon="12.5972446"><ele>1407.0</ele><time>2026-05-01T08:24:18.755Z</time></trkpt><trkpt lat="46.5117748" lon="12.5971516"><ele>1412.8</ele><time>2026-05-01T08:24:19.754Z</time></trkpt><trkpt lat="46.5116938" lon="12.5969909"><ele>1418.6</ele><time>2026-05-01T08:24:21.753Z</time></trkpt><trkpt lat="46.5116232" lon="12.5969131"><ele>1424.3999999999999</ele><time>2026-05-01T08:24:22.754Z</time></trkpt><trkpt lat="46.5115526" lon="12.5968307"><ele>1430.1999999999998</ele><time>2026-05-01T08:24:23.755Z</time></trkpt><trkpt lat="46.5114882" lon="12.5967483"><ele>1436.0</ele><time>2026-05-01T08:24:24.754Z</time></trkpt><trkpt lat="46.511425" lon="12.5966777"><ele>1436.0</ele><time>2026-05-01T08:24:25.755Z</time></trkpt><trkpt lat="46.511368" lon="12.5966192"><ele>1436.0</ele><time>2026-05-01T08:24:26.754Z</time></trkpt><trkpt lat="46.511309" lon="12.5965775"><ele>1436.0</ele><time>2026-05-01T08:24:27.755Z</time></trkpt><trkpt lat="46.5112453" lon="12.5965416"><ele>1436.0</ele><time>2026-05-01T08:24:28.755Z</time></trkpt><trkpt lat="46.5111839" lon="12.5965139"><ele>1436.0</ele><time>2026-05-01T08:24:29.754Z</time></trkpt><trkpt lat="46.5110707" lon="12.5964563"><ele>1436.0</ele><time>2026-05-01T08:24:31.755Z</time></trkpt><trkpt lat="46.5110107" lon="12.5964115"><ele>1436.4</ele><time>2026-05-01T08:24:32.753Z</time></trkpt><trkpt lat="46.5109586" lon="12.5963566"><ele>1436.8</ele><time>2026-05-01T08:24:33.755Z</time></trkpt><trkpt lat="46.5108809" lon="12.5962534"><ele>1437.2</ele><time>2026-05-01T08:24:35.754Z</time></trkpt><trkpt lat="46.510797" lon="12.5961745"><ele>1437.6000000000001</ele><time>2026-05-01T08:24:37.755Z</time></trkpt><trkpt lat="46.5107243" lon="12.5960723"><ele>1438.0</ele><time>2026-05-01T08:24:39.755Z</time></trkpt><trkpt lat="46.5106196" lon="12.595978"><ele>1437.9999999999998</ele><time>2026-05-01T08:24:41.754Z</time></trkpt><trkpt lat="46.5105634" lon="12.5959339"><ele>1438.0</ele><time>2026-05-01T08:24:42.754Z</time></trkpt><trkpt lat="46.510457" lon="12.5958458"><ele>1438.0</ele><time>2026-05-01T08:24:44.755Z</time></trkpt><trkpt lat="46.5103972" lon="12.5958121"><ele>1438.0</ele><time>2026-05-01T08:24:45.754Z</time></trkpt><trkpt lat="46.5103344" lon="12.5957818"><ele>1438.0</ele><time>2026-05-01T08:24:46.755Z</time></trkpt><trkpt lat="46.5102705" lon="12.5957523"><ele>1437.9999999999998</ele><time>2026-05-01T08:24:47.754Z</time></trkpt><trkpt lat="46.5102133" lon="12.5957068"><ele>1438.0</ele><time>2026-05-01T08:24:48.755Z</time></trkpt><trkpt lat="46.5101547" lon="12.5956312"><ele>1437.6666666666665</ele><time>2026-05-01T08:24:49.754Z</time></trkpt><trkpt lat="46.5100917" lon="12.5955516"><ele>1437.3333333333333</ele><time>2026-05-01T08:24:50.754Z</time></trkpt><trkpt lat="46.5100284" lon="12.5954718"><ele>1437.0</ele><time>2026-05-01T08:24:51.755Z</time></trkpt><trkpt lat="46.5099623" lon="12.5953856"><ele>1436.6666666666667</ele><time>2026-05-01T08:24:52.755Z</time></trkpt><trkpt lat="46.5098977" lon="12.5952927"><ele>1436.3333333333335</ele><time>2026-05-01T08:24:53.755Z</time></trkpt><trkpt lat="46.5098311" lon="12.5952115"><ele>1436.0</ele><time>2026-05-01T08:24:54.754Z</time></trkpt><trkpt lat="46.5097626" lon="12.5951451"><ele>1438.3333333333335</ele><time>2026-05-01T08:24:55.755Z</time></trkpt><trkpt lat="46.509689" lon="12.5950876"><ele>1440.6666666666667</ele><time>2026-05-01T08:24:56.754Z</time></trkpt><trkpt lat="46.5096232" lon="12.5950172"><ele>1443.0</ele><time>2026-05-01T08:24:57.755Z</time></trkpt><trkpt lat="46.5095599" lon="12.5949406"><ele>1445.3333333333333</ele><time>2026-05-01T08:24:58.754Z</time></trkpt><trkpt lat="46.5094978" lon="12.5948777"><ele>1447.6666666666665</ele><time>2026-05-01T08:24:59.755Z</time></trkpt><trkpt lat="46.509398" lon="12.5947933"><ele>1450.0</ele><time>2026-05-01T08:25:01.755Z</time></trkpt><trkpt lat="46.5093" lon="12.5948009"><ele>1450.0</ele><time>2026-05-01T08:25:03.753Z</time></trkpt><trkpt lat="46.5092085" lon="12.594824"><ele>1450.0</ele><time>2026-05-01T08:25:05.755Z</time></trkpt><trkpt lat="46.5091292" lon="12.594806"><ele>1450.0</ele><time>2026-05-01T08:25:07.754Z</time></trkpt><trkpt lat="46.5090696" lon="12.5947434"><ele>1450.0</ele><time>2026-05-01T08:25:47.754Z</time></trkpt><trkpt lat="46.5090086" lon="12.594698"><ele>1450.0</ele><time>2026-05-01T08:25:51.753Z</time></trkpt><trkpt lat="46.5089266" lon="12.5946567"><ele>1450.0</ele><time>2026-05-01T08:25:55.755Z</time></trkpt><trkpt lat="46.5088902" lon="12.5947321"><ele>1450.0</ele><time>2026-05-01T08:26:02.755Z</time></trkpt><trkpt lat="46.5089025" lon="12.5948243"><ele>1450.0</ele><time>2026-05-01T08:26:05.755Z</time></trkpt><trkpt lat="46.5088755" lon="12.5949242"><ele>1450.0</ele><time>2026-05-01T08:26:13.754Z</time></trkpt><trkpt lat="46.5088624" lon="12.5950659"><ele>1450.0</ele><time>2026-05-01T08:26:15.754Z</time></trkpt><trkpt lat="46.5088404" lon="12.5952143"><ele>1450.0</ele><time>2026-05-01T08:26:17.754Z</time></trkpt><trkpt lat="46.5088082" lon="12.5953501"><ele>1450.0</ele><time>2026-05-01T08:26:19.755Z</time></trkpt><trkpt lat="46.5087935" lon="12.5955075"><ele>1448.4</ele><time>2026-05-01T08:26:21.754Z</time></trkpt><trkpt lat="46.5087858" lon="12.5955984"><ele>1446.8</ele><time>2026-05-01T08:26:22.755Z</time></trkpt><trkpt lat="46.5087568" lon="12.5957507"><ele>1445.1999999999998</ele><time>2026-05-01T08:26:24.755Z</time></trkpt><trkpt lat="46.5086655" lon="12.5958011"><ele>1443.6</ele><time>2026-05-01T08:26:26.755Z</time></trkpt><trkpt lat="46.5085495" lon="12.5958254"><ele>1442.0</ele><time>2026-05-01T08:26:28.755Z</time></trkpt><trkpt lat="46.5084545" lon="12.5958596"><ele>1442.0</ele><time>2026-05-01T08:26:30.753Z</time></trkpt><trkpt lat="46.5083862" lon="12.5958855"><ele>1442.0</ele><time>2026-05-01T08:26:32.754Z</time></trkpt><trkpt lat="46.5083149" lon="12.5959237"><ele>1442.0</ele><time>2026-05-01T08:26:34.754Z</time></trkpt><trkpt lat="46.5082131" lon="12.5959836"><ele>1442.0</ele><time>2026-05-01T08:26:36.755Z</time></trkpt><trkpt lat="46.5081035" lon="12.5959956"><ele>1442.0</ele><time>2026-05-01T08:26:38.755Z</time></trkpt><trkpt lat="46.5080362" lon="12.5959893"><ele>1442.0</ele><time>2026-05-01T08:26:39.755Z</time></trkpt><trkpt lat="46.5079157" lon="12.5959704"><ele>1442.8333333333335</ele><time>2026-05-01T08:26:41.754Z</time></trkpt><trkpt lat="46.5077905" lon="12.5959641"><ele>1443.6666666666667</ele><time>2026-05-01T08:26:43.755Z</time></trkpt><trkpt lat="46.5077205" lon="12.5959837"><ele>1444.5</ele><time>2026-05-01T08:26:44.755Z</time></trkpt><trkpt lat="46.5076544" lon="12.5960003"><ele>1445.3333333333333</ele><time>2026-05-01T08:26:45.754Z</time></trkpt><trkpt lat="46.5075839" lon="12.5960109"><ele>1446.1666666666665</ele><time>2026-05-01T08:26:46.755Z</time></trkpt><trkpt lat="46.5075223" lon="12.5960489"><ele>1447.0</ele><time>2026-05-01T08:26:47.754Z</time></trkpt><trkpt lat="46.507455" lon="12.5960933"><ele>1447.0</ele><time>2026-05-01T08:26:48.755Z</time></trkpt><trkpt lat="46.5073846" lon="12.5961212"><ele>1447.0</ele><time>2026-05-01T08:26:49.755Z</time></trkpt><trkpt lat="46.5073179" lon="12.596141"><ele>1447.0</ele><time>2026-05-01T08:26:50.755Z</time></trkpt><trkpt lat="46.5072506" lon="12.5961647"><ele>1447.0</ele><time>2026-05-01T08:26:51.755Z</time></trkpt><trkpt lat="46.5071363" lon="12.5962126"><ele>1447.0</ele><time>2026-05-01T08:26:53.754Z</time></trkpt><trkpt lat="46.5070776" lon="12.596256"><ele>1447.0</ele><time>2026-05-01T08:26:54.755Z</time></trkpt><trkpt lat="46.5069664" lon="12.5963163"><ele>1444.3999999999999</ele><time>2026-05-01T08:26:56.755Z</time></trkpt><trkpt lat="46.5068577" lon="12.5963653"><ele>1441.8</ele><time>2026-05-01T08:26:58.754Z</time></trkpt><trkpt lat="46.506751" lon="12.5963952"><ele>1439.2</ele><time>2026-05-01T08:27:00.754Z</time></trkpt><trkpt lat="46.5066413" lon="12.5964142"><ele>1436.6</ele><time>2026-05-01T08:27:02.754Z</time></trkpt><trkpt lat="46.5065309" lon="12.596409"><ele>1434.0</ele><time>2026-05-01T08:27:04.754Z</time></trkpt><trkpt lat="46.5064227" lon="12.596413"><ele>1434.0</ele><time>2026-05-01T08:27:06.755Z</time></trkpt><trkpt lat="46.5063207" lon="12.596387"><ele>1434.0</ele><time>2026-05-01T08:27:08.755Z</time></trkpt><trkpt lat="46.5062237" lon="12.5963816"><ele>1434.0</ele><time>2026-05-01T08:27:10.755Z</time></trkpt><trkpt lat="46.5061183" lon="12.5964082"><ele>1434.0</ele><time>2026-05-01T08:27:12.755Z</time></trkpt><trkpt lat="46.5060382" lon="12.5964051"><ele>1434.0</ele><time>2026-05-01T08:27:14.754Z</time></trkpt><trkpt lat="46.5059795" lon="12.5964479"><ele>1434.6666666666667</ele><time>2026-05-01T08:27:16.755Z</time></trkpt><trkpt lat="46.5059406" lon="12.5965524"><ele>1435.3333333333333</ele><time>2026-05-01T08:27:18.755Z</time></trkpt><trkpt lat="46.5059307" lon="12.5966577"><ele>1436.0</ele><time>2026-05-01T08:27:20.755Z</time></trkpt><trkpt lat="46.505928" lon="12.596765"><ele>1436.6666666666665</ele><time>2026-05-01T08:27:22.756Z</time></trkpt><trkpt lat="46.5058998" lon="12.5968521"><ele>1437.3333333333333</ele><time>2026-05-01T08:27:24.755Z</time></trkpt><trkpt lat="46.5058572" lon="12.5969618"><ele>1438.0</ele><time>2026-05-01T08:27:27.754Z</time></trkpt><trkpt lat="46.5057786" lon="12.5970116"><ele>1438.0</ele><time>2026-05-01T08:27:30.754Z</time></trkpt><trkpt lat="46.5056788" lon="12.5969721"><ele>1438.0</ele><time>2026-05-01T08:27:32.756Z</time></trkpt><trkpt lat="46.5055676" lon="12.5969519"><ele>1438.0</ele><time>2026-05-01T08:27:34.755Z</time></trkpt><trkpt lat="46.5054666" lon="12.5969143"><ele>1438.0</ele><time>2026-05-01T08:27:36.755Z</time></trkpt><trkpt lat="46.5053496" lon="12.5969159"><ele>1438.0</ele><time>2026-05-01T08:27:38.755Z</time></trkpt><trkpt lat="46.5052449" lon="12.5969117"><ele>1437.3333333333333</ele><time>2026-05-01T08:27:40.755Z</time></trkpt><trkpt lat="46.505146" lon="12.5968937"><ele>1436.6666666666665</ele><time>2026-05-01T08:27:42.755Z</time></trkpt><trkpt lat="46.5050561" lon="12.5968811"><ele>1436.0</ele><time>2026-05-01T08:27:44.756Z</time></trkpt><trkpt lat="46.5049687" lon="12.5968619"><ele>1435.3333333333333</ele><time>2026-05-01T08:27:46.755Z</time></trkpt><trkpt lat="46.5048885" lon="12.5968375"><ele>1434.6666666666667</ele><time>2026-05-01T08:27:48.754Z</time></trkpt><trkpt lat="46.5048102" lon="12.5968769"><ele>1434.0</ele><time>2026-05-01T08:27:50.755Z</time></trkpt><trkpt lat="46.5047154" lon="12.5968868"><ele>1434.0</ele><time>2026-05-01T08:27:52.755Z</time></trkpt><trkpt lat="46.5046424" lon="12.5968386"><ele>1434.0</ele><time>2026-05-01T08:27:54.755Z</time></trkpt><trkpt lat="46.5045828" lon="12.5967891"><ele>1434.0</ele><time>2026-05-01T08:27:56.755Z</time></trkpt><trkpt lat="46.5045982" lon="12.5966613"><ele>1434.0</ele><time>2026-05-01T08:33:03.754Z</time></trkpt><trkpt lat="46.5045415" lon="12.5965557"><ele>1434.0</ele><time>2026-05-01T08:33:05.755Z</time></trkpt><trkpt lat="46.504509" lon="12.596429"><ele>1434.0</ele><time>2026-05-01T08:33:07.754Z</time></trkpt><trkpt lat="46.5044744" lon="12.5963464"><ele>1434.2857142857142</ele><time>2026-05-01T08:33:09.755Z</time></trkpt><trkpt lat="46.5044278" lon="12.5962577"><ele>1434.5714285714284</ele><time>2026-05-01T08:33:11.755Z</time></trkpt><trkpt lat="46.5043932" lon="12.5961633"><ele>1434.857142857143</ele><time>2026-05-01T08:33:13.755Z</time></trkpt><trkpt lat="46.5043626" lon="12.5960628"><ele>1435.142857142857</ele><time>2026-05-01T08:33:15.754Z</time></trkpt><trkpt lat="46.5043071" lon="12.5959938"><ele>1435.4285714285716</ele><time>2026-05-01T08:33:17.756Z</time></trkpt><trkpt lat="46.5042525" lon="12.5959397"><ele>1435.7142857142858</ele><time>2026-05-01T08:33:19.755Z</time></trkpt><trkpt lat="46.5042028" lon="12.5958454"><ele>1436.0</ele><time>2026-05-01T08:33:22.754Z</time></trkpt><trkpt lat="46.5041225" lon="12.5957785"><ele>1437.4</ele><time>2026-05-01T08:33:25.755Z</time></trkpt><trkpt lat="46.5040419" lon="12.5957106"><ele>1438.8</ele><time>2026-05-01T08:33:27.755Z</time></trkpt><trkpt lat="46.5039789" lon="12.5955877"><ele>1440.2</ele><time>2026-05-01T08:33:29.754Z</time></trkpt><trkpt lat="46.5039144" lon="12.595455"><ele>1441.6000000000001</ele><time>2026-05-01T08:33:31.755Z</time></trkpt><trkpt lat="46.5038631" lon="12.5953281"><ele>1443.0</ele><time>2026-05-01T08:33:33.753Z</time></trkpt><trkpt lat="46.5037876" lon="12.5952329"><ele>1446.2</ele><time>2026-05-01T08:33:35.755Z</time></trkpt><trkpt lat="46.503701" lon="12.5951911"><ele>1449.4</ele><time>2026-05-01T08:33:37.756Z</time></trkpt><trkpt lat="46.5035922" lon="12.5951876"><ele>1452.6000000000001</ele><time>2026-05-01T08:33:39.755Z</time></trkpt><trkpt lat="46.5034936" lon="12.5951898"><ele>1455.8000000000002</ele><time>2026-05-01T08:33:41.755Z</time></trkpt><trkpt lat="46.5033923" lon="12.5951864"><ele>1459.0</ele><time>2026-05-01T08:33:43.756Z</time></trkpt><trkpt lat="46.5033218" lon="12.5951133"><ele>1459.0</ele><time>2026-05-01T08:33:45.755Z</time></trkpt><trkpt lat="46.5032316" lon="12.595049"><ele>1459.0</ele><time>2026-05-01T08:33:47.755Z</time></trkpt><trkpt lat="46.5031275" lon="12.5949866"><ele>1459.0</ele><time>2026-05-01T08:33:49.756Z</time></trkpt><trkpt lat="46.5030287" lon="12.5948871"><ele>1459.0</ele><time>2026-05-01T08:33:51.756Z</time></trkpt><trkpt lat="46.5029209" lon="12.5948012"><ele>1459.8000000000002</ele><time>2026-05-01T08:33:53.755Z</time></trkpt><trkpt lat="46.5028634" lon="12.5947625"><ele>1460.6000000000001</ele><time>2026-05-01T08:33:54.754Z</time></trkpt><trkpt lat="46.5027531" lon="12.5946849"><ele>1461.4</ele><time>2026-05-01T08:33:56.755Z</time></trkpt><trkpt lat="46.5026571" lon="12.5946039"><ele>1462.2</ele><time>2026-05-01T08:33:58.755Z</time></trkpt><trkpt lat="46.5025614" lon="12.594539"><ele>1463.0</ele><time>2026-05-01T08:34:00.755Z</time></trkpt><trkpt lat="46.5024748" lon="12.5944672"><ele>1464.1666666666667</ele><time>2026-05-01T08:34:02.755Z</time></trkpt><trkpt lat="46.5024198" lon="12.5944214"><ele>1465.3333333333335</ele><time>2026-05-01T08:34:04.755Z</time></trkpt><trkpt lat="46.5023446" lon="12.5943916"><ele>1466.5</ele><time>2026-05-01T08:34:06.754Z</time></trkpt><trkpt lat="46.5022664" lon="12.5943622"><ele>1467.6666666666667</ele><time>2026-05-01T08:34:08.754Z</time></trkpt><trkpt lat="46.5021636" lon="12.5943242"><ele>1468.8333333333333</ele><time>2026-05-01T08:34:10.755Z</time></trkpt><trkpt lat="46.5020617" lon="12.5942889"><ele>1470.0</ele><time>2026-05-01T08:34:12.755Z</time></trkpt><trkpt lat="46.5019712" lon="12.5942343"><ele>1471.8333333333333</ele><time>2026-05-01T08:34:14.755Z</time></trkpt><trkpt lat="46.5019041" lon="12.5941639"><ele>1473.6666666666667</ele><time>2026-05-01T08:34:16.756Z</time></trkpt><trkpt lat="46.5018491" lon="12.5941079"><ele>1475.5</ele><time>2026-05-01T08:34:18.755Z</time></trkpt><trkpt lat="46.5017712" lon="12.5940288"><ele>1477.3333333333335</ele><time>2026-05-01T08:34:20.755Z</time></trkpt><trkpt lat="46.5016892" lon="12.594001"><ele>1479.1666666666667</ele><time>2026-05-01T08:34:22.755Z</time></trkpt><trkpt lat="46.5016232" lon="12.5939334"><ele>1481.0</ele><time>2026-05-01T08:34:24.754Z</time></trkpt><trkpt lat="46.5015337" lon="12.5938977"><ele>1481.0</ele><time>2026-05-01T08:34:26.755Z</time></trkpt><trkpt lat="46.5014818" lon="12.5938133"><ele>1481.0</ele><time>2026-05-01T08:34:28.756Z</time></trkpt><trkpt lat="46.5014178" lon="12.5937186"><ele>1481.0</ele><time>2026-05-01T08:34:31.754Z</time></trkpt><trkpt lat="46.50133" lon="12.5936792"><ele>1481.0</ele><time>2026-05-01T08:34:34.755Z</time></trkpt><trkpt lat="46.5012734" lon="12.5936084"><ele>1481.0</ele><time>2026-05-01T08:34:37.754Z</time></trkpt><trkpt lat="46.5012189" lon="12.5935621"><ele>1481.0</ele><time>2026-05-01T08:34:39.754Z</time></trkpt><trkpt lat="46.5011488" lon="12.5935527"><ele>1483.5714285714287</ele><time>2026-05-01T08:34:42.755Z</time></trkpt><trkpt lat="46.5010907" lon="12.5934906"><ele>1486.142857142857</ele><time>2026-05-01T08:34:45.755Z</time></trkpt><trkpt lat="46.5010713" lon="12.5933929"><ele>1488.7142857142858</ele><time>2026-05-01T08:34:48.754Z</time></trkpt><trkpt lat="46.5010265" lon="12.5933112"><ele>1491.2857142857142</ele><time>2026-05-01T08:34:51.756Z</time></trkpt><trkpt lat="46.5009809" lon="12.5932419"><ele>1493.857142857143</ele><time>2026-05-01T08:34:54.755Z</time></trkpt><trkpt lat="46.5009654" lon="12.5931323"><ele>1496.4285714285716</ele><time>2026-05-01T08:36:09.755Z</time></trkpt><trkpt lat="46.5009658" lon="12.5930123"><ele>1499.0</ele><time>2026-05-01T08:36:12.753Z</time></trkpt><trkpt lat="46.50091" lon="12.5929511"><ele>1499.0</ele><time>2026-05-01T08:36:14.755Z</time></trkpt><trkpt lat="46.5008506" lon="12.5929161"><ele>1499.0</ele><time>2026-05-01T08:36:16.755Z</time></trkpt><trkpt lat="46.500815" lon="12.5927987"><ele>1499.0</ele><time>2026-05-01T08:36:19.755Z</time></trkpt><trkpt lat="46.5007889" lon="12.5926923"><ele>1499.0</ele><time>2026-05-01T08:36:22.755Z</time></trkpt><trkpt lat="46.5007482" lon="12.5925831"><ele>1499.0</ele><time>2026-05-01T08:36:37.756Z</time></trkpt><trkpt lat="46.5007093" lon="12.5925001"><ele>1499.0</ele><time>2026-05-01T08:36:39.755Z</time></trkpt><trkpt lat="46.500668" lon="12.5924309"><ele>1499.0</ele><time>2026-05-01T08:36:41.755Z</time></trkpt><trkpt lat="46.5006228" lon="12.5923391"><ele>1500.8333333333335</ele><time>2026-05-01T08:36:43.755Z</time></trkpt><trkpt lat="46.5005789" lon="12.5922563"><ele>1502.6666666666667</ele><time>2026-05-01T08:36:45.755Z</time></trkpt><trkpt lat="46.5005707" lon="12.5921605"><ele>1504.5</ele><time>2026-05-01T08:36:47.754Z</time></trkpt><trkpt lat="46.5005752" lon="12.5920364"><ele>1506.3333333333333</ele><time>2026-05-01T08:36:49.755Z</time></trkpt><trkpt lat="46.5005337" lon="12.5919155"><ele>1508.1666666666665</ele><time>2026-05-01T08:36:51.755Z</time></trkpt><trkpt lat="46.5005292" lon="12.5917641"><ele>1510.0</ele><time>2026-05-01T08:36:53.755Z</time></trkpt><trkpt lat="46.5005276" lon="12.5915963"><ele>1513.0</ele><time>2026-05-01T08:36:55.755Z</time></trkpt><trkpt lat="46.5005051" lon="12.5914691"><ele>1516.0</ele><time>2026-05-01T08:36:57.754Z</time></trkpt><trkpt lat="46.5004784" lon="12.5913558"><ele>1519.0</ele><time>2026-05-01T08:36:59.755Z</time></trkpt><trkpt lat="46.5004929" lon="12.5912069"><ele>1522.0</ele><time>2026-05-01T08:37:01.754Z</time></trkpt><trkpt lat="46.5004957" lon="12.5910342"><ele>1525.0</ele><time>2026-05-01T08:37:03.754Z</time></trkpt><trkpt lat="46.5004854" lon="12.5909385"><ele>1527.5</ele><time>2026-05-01T08:37:04.755Z</time></trkpt><trkpt lat="46.5004683" lon="12.5908344"><ele>1530.0</ele><time>2026-05-01T08:37:05.755Z</time></trkpt><trkpt lat="46.5004481" lon="12.5907309"><ele>1532.5</ele><time>2026-05-01T08:37:06.755Z</time></trkpt><trkpt lat="46.5004328" lon="12.5906303"><ele>1535.0</ele><time>2026-05-01T08:37:07.754Z</time></trkpt><trkpt lat="46.5004233" lon="12.5904764"><ele>1537.5000000000002</ele><time>2026-05-01T08:37:09.755Z</time></trkpt><trkpt lat="46.5004686" lon="12.5904128"><ele>1540.0</ele><time>2026-05-01T08:37:12.754Z</time></trkpt><trkpt lat="46.5005072" lon="12.5904873"><ele>1540.0000000000002</ele><time>2026-05-01T08:37:14.754Z</time></trkpt><trkpt lat="46.5005624" lon="12.5905422"><ele>1540.0</ele><time>2026-05-01T08:37:16.756Z</time></trkpt><trkpt lat="46.5006245" lon="12.5906413"><ele>1540.0</ele><time>2026-05-01T08:37:19.754Z</time></trkpt><trkpt lat="46.5006669" lon="12.5907435"><ele>1540.0</ele><time>2026-05-01T08:37:21.755Z</time></trkpt><trkpt lat="46.500715" lon="12.5908546"><ele>1540.0000000000002</ele><time>2026-05-01T08:37:23.755Z</time></trkpt><trkpt lat="46.5007636" lon="12.5909386"><ele>1540.0</ele><time>2026-05-01T08:37:25.755Z</time></trkpt><trkpt lat="46.5008333" lon="12.5910319"><ele>1540.0000000000002</ele><time>2026-05-01T08:37:27.754Z</time></trkpt><trkpt lat="46.5009185" lon="12.5911032"><ele>1540.0</ele><time>2026-05-01T08:37:29.754Z</time></trkpt><trkpt lat="46.5009814" lon="12.5911735"><ele>1540.0</ele><time>2026-05-01T08:37:31.754Z</time></trkpt><trkpt lat="46.5010436" lon="12.5912221"><ele>1540.0</ele><time>2026-05-01T08:37:33.755Z</time></trkpt><trkpt lat="46.5011146" lon="12.5912142"><ele>1540.0000000000002</ele><time>2026-05-01T08:37:35.754Z</time></trkpt><trkpt lat="46.5011774" lon="12.5912027"><ele>1540.0</ele><time>2026-05-01T08:37:37.754Z</time></trkpt><trkpt lat="46.5012441" lon="12.5911155"><ele>1544.0</ele><time>2026-05-01T08:37:39.755Z</time></trkpt><trkpt lat="46.5013372" lon="12.591028"><ele>1548.0</ele><time>2026-05-01T08:37:41.755Z</time></trkpt><trkpt lat="46.5013958" lon="12.5909756"><ele>1552.0</ele><time>2026-05-01T08:37:42.755Z</time></trkpt><trkpt lat="46.5015157" lon="12.59093"><ele>1556.0</ele><time>2026-05-01T08:37:44.755Z</time></trkpt><trkpt lat="46.5016291" lon="12.5909098"><ele>1560.0</ele><time>2026-05-01T08:37:46.755Z</time></trkpt><trkpt lat="46.5016976" lon="12.590898"><ele>1560.0</ele><time>2026-05-01T08:37:47.755Z</time></trkpt><trkpt lat="46.5017607" lon="12.5909041"><ele>1560.0</ele><time>2026-05-01T08:37:48.755Z</time></trkpt><trkpt lat="46.5018514" lon="12.5909284"><ele>1560.0</ele><time>2026-05-01T08:37:50.754Z</time></trkpt><trkpt lat="46.5019109" lon="12.5909761"><ele>1560.0</ele><time>2026-05-01T08:37:51.755Z</time></trkpt><trkpt lat="46.5020135" lon="12.5910335"><ele>1560.0</ele><time>2026-05-01T08:37:53.754Z</time></trkpt><trkpt lat="46.502075" lon="12.5910548"><ele>1560.0</ele><time>2026-05-01T08:37:54.755Z</time></trkpt><trkpt lat="46.5021915" lon="12.5910347"><ele>1561.5</ele><time>2026-05-01T08:37:56.755Z</time></trkpt><trkpt lat="46.5022912" lon="12.5909508"><ele>1563.0</ele><time>2026-05-01T08:37:58.754Z</time></trkpt><trkpt lat="46.5023757" lon="12.5908301"><ele>1564.5</ele><time>2026-05-01T08:38:00.754Z</time></trkpt><trkpt lat="46.5023719" lon="12.5907366"><ele>1566.0</ele><time>2026-05-01T08:38:01.755Z</time></trkpt><trkpt lat="46.5023742" lon="12.5906357"><ele>1567.5</ele><time>2026-05-01T08:38:02.755Z</time></trkpt><trkpt lat="46.5023014" lon="12.5905935"><ele>1569.0</ele><time>2026-05-01T08:38:03.755Z</time></trkpt><trkpt lat="46.5021884" lon="12.5904952"><ele>1569.0</ele><time>2026-05-01T08:38:05.754Z</time></trkpt><trkpt lat="46.502127" lon="12.5904363"><ele>1569.0</ele><time>2026-05-01T08:38:06.755Z</time></trkpt><trkpt lat="46.5020543" lon="12.5903853"><ele>1569.0</ele><time>2026-05-01T08:38:07.755Z</time></trkpt><trkpt lat="46.5019673" lon="12.590348"><ele>1569.0</ele><time>2026-05-01T08:38:08.755Z</time></trkpt><trkpt lat="46.501883" lon="12.5903177"><ele>1569.0</ele><time>2026-05-01T08:38:09.755Z</time></trkpt><trkpt lat="46.5018056" lon="12.59028"><ele>1569.0</ele><time>2026-05-01T08:38:10.753Z</time></trkpt><trkpt lat="46.5016961" lon="12.5902294"><ele>1571.2</ele><time>2026-05-01T08:38:12.754Z</time></trkpt><trkpt lat="46.5016123" lon="12.5901456"><ele>1573.4</ele><time>2026-05-01T08:38:14.755Z</time></trkpt><trkpt lat="46.5015932" lon="12.5900263"><ele>1575.6</ele><time>2026-05-01T08:38:16.754Z</time></trkpt><trkpt lat="46.5016682" lon="12.5899886"><ele>1577.8</ele><time>2026-05-01T08:38:18.755Z</time></trkpt><trkpt lat="46.5017655" lon="12.589991"><ele>1580.0</ele><time>2026-05-01T08:38:20.755Z</time></trkpt><trkpt lat="46.5018508" lon="12.5899065"><ele>1579.9999999999998</ele><time>2026-05-01T08:38:22.754Z</time></trkpt><trkpt lat="46.5018552" lon="12.5897889"><ele>1580.0</ele><time>2026-05-01T08:38:24.756Z</time></trkpt><trkpt lat="46.5018132" lon="12.5896436"><ele>1580.0</ele><time>2026-05-01T08:38:26.754Z</time></trkpt><trkpt lat="46.5017958" lon="12.5895521"><ele>1580.0</ele><time>2026-05-01T08:38:27.754Z</time></trkpt><trkpt lat="46.5017987" lon="12.5894389"><ele>1579.9999999999998</ele><time>2026-05-01T08:38:29.754Z</time></trkpt><trkpt lat="46.5017825" lon="12.5893101"><ele>1580.0</ele><time>2026-05-01T08:38:31.754Z</time></trkpt><trkpt lat="46.5017451" lon="12.5892126"><ele>1584.8</ele><time>2026-05-01T08:38:33.754Z</time></trkpt><trkpt lat="46.5017345" lon="12.5890404"><ele>1589.6</ele><time>2026-05-01T08:38:35.755Z</time></trkpt><trkpt lat="46.5017202" lon="12.5888749"><ele>1594.4</ele><time>2026-05-01T08:38:37.755Z</time></trkpt><trkpt lat="46.50171" lon="12.5887734"><ele>1599.2</ele><time>2026-05-01T08:38:38.754Z</time></trkpt><trkpt lat="46.5017016" lon="12.5886025"><ele>1604.0</ele><time>2026-05-01T08:38:40.754Z</time></trkpt><trkpt lat="46.5016984" lon="12.5884426"><ele>1606.9999999999998</ele><time>2026-05-01T08:38:42.754Z</time></trkpt><trkpt lat="46.5016705" lon="12.5883498"><ele>1610.0</ele><time>2026-05-01T08:38:43.754Z</time></trkpt><trkpt lat="46.5016441" lon="12.5882596"><ele>1613.0</ele><time>2026-05-01T08:38:44.755Z</time></trkpt><trkpt lat="46.5015652" lon="12.58812"><ele>1616.0</ele><time>2026-05-01T08:38:46.755Z</time></trkpt><trkpt lat="46.5014773" lon="12.5880516"><ele>1618.9999999999998</ele><time>2026-05-01T08:38:48.755Z</time></trkpt><trkpt lat="46.5014007" lon="12.5880156"><ele>1622.0</ele><time>2026-05-01T08:39:24.754Z</time></trkpt><trkpt lat="46.5013197" lon="12.5879423"><ele>1622.0</ele><time>2026-05-01T08:39:26.754Z</time></trkpt><trkpt lat="46.5012544" lon="12.5878602"><ele>1622.0</ele><time>2026-05-01T08:39:28.755Z</time></trkpt><trkpt lat="46.5011804" lon="12.5877677"><ele>1622.0</ele><time>2026-05-01T08:39:30.755Z</time></trkpt><trkpt lat="46.5011458" lon="12.5876739"><ele>1622.0</ele><time>2026-05-01T08:39:37.755Z</time></trkpt><trkpt lat="46.5010768" lon="12.5874868"><ele>1622.0</ele><time>2026-05-01T08:39:39.754Z</time></trkpt><trkpt lat="46.50103" lon="12.5873913"><ele>1622.142857142857</ele><time>2026-05-01T08:39:40.755Z</time></trkpt><trkpt lat="46.5009726" lon="12.5873108"><ele>1622.2857142857144</ele><time>2026-05-01T08:39:41.754Z</time></trkpt><trkpt lat="46.5009229" lon="12.5872419"><ele>1622.4285714285716</ele><time>2026-05-01T08:39:42.753Z</time></trkpt><trkpt lat="46.5008722" lon="12.5871797"><ele>1622.5714285714284</ele><time>2026-05-01T08:39:43.754Z</time></trkpt><trkpt lat="46.5008132" lon="12.5871164"><ele>1622.7142857142858</ele><time>2026-05-01T08:39:44.755Z</time></trkpt><trkpt lat="46.500752" lon="12.5870723"><ele>1622.857142857143</ele><time>2026-05-01T08:39:45.754Z</time></trkpt><trkpt lat="46.5006842" lon="12.5870264"><ele>1623.0</ele><time>2026-05-01T08:39:46.755Z</time></trkpt><trkpt lat="46.5006219" lon="12.5869729"><ele>1627.3333333333333</ele><time>2026-05-01T08:39:47.754Z</time></trkpt><trkpt lat="46.5005624" lon="12.5869071"><ele>1631.6666666666665</ele><time>2026-05-01T08:39:48.755Z</time></trkpt><trkpt lat="46.5005135" lon="12.5868445"><ele>1636.0</ele><time>2026-05-01T08:39:49.754Z</time></trkpt><trkpt lat="46.5004783" lon="12.5867123"><ele>1640.3333333333333</ele><time>2026-05-01T08:39:51.754Z</time></trkpt><trkpt lat="46.5004769" lon="12.5865564"><ele>1644.6666666666665</ele><time>2026-05-01T08:39:53.754Z</time></trkpt><trkpt lat="46.5005084" lon="12.5864719"><ele>1649.0</ele><time>2026-05-01T08:39:54.754Z</time></trkpt><trkpt lat="46.5005529" lon="12.586344"><ele>1648.9999999999998</ele><time>2026-05-01T08:39:56.754Z</time></trkpt><trkpt lat="46.5005964" lon="12.5862453"><ele>1649.0</ele><time>2026-05-01T08:39:58.755Z</time></trkpt><trkpt lat="46.500612" lon="12.5861182"><ele>1649.0</ele><time>2026-05-01T08:40:49.755Z</time></trkpt><trkpt lat="46.5006362" lon="12.5860111"><ele>1649.0</ele><time>2026-05-01T08:40:51.755Z</time></trkpt><trkpt lat="46.5006621" lon="12.5858708"><ele>1648.9999999999998</ele><time>2026-05-01T08:40:53.754Z</time></trkpt><trkpt lat="46.5006786" lon="12.5857409"><ele>1649.0</ele><time>2026-05-01T08:40:55.753Z</time></trkpt><trkpt lat="46.5006775" lon="12.5856352"><ele>1650.2</ele><time>2026-05-01T08:40:57.755Z</time></trkpt><trkpt lat="46.5006557" lon="12.5855474"><ele>1651.4</ele><time>2026-05-01T08:40:59.755Z</time></trkpt><trkpt lat="46.5005962" lon="12.5854541"><ele>1652.6</ele><time>2026-05-01T08:41:02.754Z</time></trkpt><trkpt lat="46.5005007" lon="12.5854222"><ele>1653.8</ele><time>2026-05-01T08:41:04.754Z</time></trkpt><trkpt lat="46.5003987" lon="12.5854436"><ele>1655.0</ele><time>2026-05-01T08:41:06.755Z</time></trkpt><trkpt lat="46.5002978" lon="12.5854657"><ele>1654.9999999999998</ele><time>2026-05-01T08:41:08.754Z</time></trkpt><trkpt lat="46.5001907" lon="12.5854436"><ele>1655.0</ele><time>2026-05-01T08:41:10.755Z</time></trkpt><trkpt lat="46.500126" lon="12.5854262"><ele>1655.0</ele><time>2026-05-01T08:41:11.755Z</time></trkpt><trkpt lat="46.5000605" lon="12.5854007"><ele>1655.0</ele><time>2026-05-01T08:41:12.754Z</time></trkpt><trkpt lat="46.4999835" lon="12.5853887"><ele>1654.9999999999998</ele><time>2026-05-01T08:41:13.755Z</time></trkpt><trkpt lat="46.4999131" lon="12.5854019"><ele>1655.0</ele><time>2026-05-01T08:41:14.755Z</time></trkpt><trkpt lat="46.4997881" lon="12.5853959"><ele>1660.2</ele><time>2026-05-01T08:41:16.755Z</time></trkpt><trkpt lat="46.4997196" lon="12.5853017"><ele>1665.4</ele><time>2026-05-01T08:41:18.755Z</time></trkpt><trkpt lat="46.4996699" lon="12.5851677"><ele>1670.6</ele><time>2026-05-01T08:41:20.754Z</time></trkpt><trkpt lat="46.4996561" lon="12.585055"><ele>1675.8</ele><time>2026-05-01T08:41:21.755Z</time></trkpt><trkpt lat="46.499622" lon="12.5849058"><ele>1681.0</ele><time>2026-05-01T08:41:23.754Z</time></trkpt><trkpt lat="46.4995952" lon="12.5847786"><ele>1683.3333333333335</ele><time>2026-05-01T08:41:25.754Z</time></trkpt><trkpt lat="46.499569" lon="12.584666"><ele>1685.6666666666667</ele><time>2026-05-01T08:41:27.754Z</time></trkpt><trkpt lat="46.4995162" lon="12.5845558"><ele>1688.0</ele><time>2026-05-01T08:41:30.754Z</time></trkpt><trkpt lat="46.4994575" lon="12.5844735"><ele>1690.3333333333335</ele><time>2026-05-01T08:41:32.754Z</time></trkpt><trkpt lat="46.4993833" lon="12.584409"><ele>1692.6666666666667</ele><time>2026-05-01T08:41:34.755Z</time></trkpt><trkpt lat="46.4993172" lon="12.5843239"><ele>1695.0</ele><time>2026-05-01T08:41:36.755Z</time></trkpt><trkpt lat="46.499248" lon="12.5842136"><ele>1695.0</ele><time>2026-05-01T08:41:38.755Z</time></trkpt><trkpt lat="46.4992522" lon="12.5840745"><ele>1695.0</ele><time>2026-05-01T08:41:40.755Z</time></trkpt><trkpt lat="46.4992913" lon="12.5839627"><ele>1695.0</ele><time>2026-05-01T08:41:46.754Z</time></trkpt><trkpt lat="46.4993475" lon="12.583904"><ele>1695.0</ele><time>2026-05-01T08:41:49.755Z</time></trkpt><trkpt lat="46.4994035" lon="12.5838074"><ele>1695.0</ele><time>2026-05-01T08:41:51.755Z</time></trkpt><trkpt lat="46.4993968" lon="12.5836676"><ele>1695.0</ele><time>2026-05-01T08:41:55.707Z</time></trkpt><trkpt lat="46.4994362" lon="12.5835689"><ele>1698.8</ele><time>2026-05-01T08:42:16.754Z</time></trkpt><trkpt lat="46.4994646" lon="12.5834805"><ele>1702.6</ele><time>2026-05-01T08:42:40.754Z</time></trkpt><trkpt lat="46.4995301" lon="12.5834053"><ele>1706.4</ele><time>2026-05-01T08:42:44.753Z</time></trkpt><trkpt lat="46.4995889" lon="12.5832594"><ele>1710.2</ele><time>2026-05-01T08:42:47.755Z</time></trkpt><trkpt lat="46.4996091" lon="12.583104"><ele>1714.0</ele><time>2026-05-01T08:42:50.754Z</time></trkpt><trkpt lat="46.4995973" lon="12.5829833"><ele>1714.0000000000002</ele><time>2026-05-01T08:42:52.755Z</time></trkpt><trkpt lat="46.4995247" lon="12.5829228"><ele>1714.0</ele><time>2026-05-01T08:42:55.754Z</time></trkpt><trkpt lat="46.4994912" lon="12.5828311"><ele>1714.0</ele><time>2026-05-01T08:42:57.701Z</time></trkpt><trkpt lat="46.4994451" lon="12.582747"><ele>1714.0</ele><time>2026-05-01T08:42:58.755Z</time></trkpt><trkpt lat="46.4994097" lon="12.5826623"><ele>1714.0000000000002</ele><time>2026-05-01T08:43:00.755Z</time></trkpt><trkpt lat="46.4993364" lon="12.5825727"><ele>1714.0</ele><time>2026-05-01T08:43:02.754Z</time></trkpt><trkpt lat="46.4992885" lon="12.5825024"><ele>1717.1666666666667</ele><time>2026-05-01T08:43:05.755Z</time></trkpt><trkpt lat="46.4992424" lon="12.5824345"><ele>1720.3333333333335</ele><time>2026-05-01T08:44:23.754Z</time></trkpt><trkpt lat="46.4992253" lon="12.5823158"><ele>1723.5</ele><time>2026-05-01T08:44:26.754Z</time></trkpt><trkpt lat="46.49916" lon="12.5822284"><ele>1726.6666666666665</ele><time>2026-05-01T08:44:29.755Z</time></trkpt><trkpt lat="46.4990856" lon="12.5821638"><ele>1729.8333333333333</ele><time>2026-05-01T08:44:32.754Z</time></trkpt><trkpt lat="46.4990285" lon="12.582112"><ele>1733.0</ele><time>2026-05-01T08:44:34.755Z</time></trkpt><trkpt lat="46.4989806" lon="12.5820409"><ele>1735.8333333333333</ele><time>2026-05-01T08:44:36.753Z</time></trkpt><trkpt lat="46.4989163" lon="12.5819777"><ele>1738.6666666666665</ele><time>2026-05-01T08:44:38.691Z</time></trkpt><trkpt lat="46.4988577" lon="12.5819246"><ele>1741.5</ele><time>2026-05-01T08:44:41.754Z</time></trkpt><trkpt lat="46.4988203" lon="12.5818464"><ele>1744.3333333333335</ele><time>2026-05-01T08:44:43.755Z</time></trkpt><trkpt lat="46.4987967" lon="12.5817595"><ele>1747.1666666666667</ele><time>2026-05-01T08:44:46.754Z</time></trkpt><trkpt lat="46.4987592" lon="12.5816324"><ele>1750.0</ele><time>2026-05-01T08:44:48.755Z</time></trkpt><trkpt lat="46.4987136" lon="12.5815358"><ele>1750.0000000000002</ele><time>2026-05-01T08:44:50.755Z</time></trkpt><trkpt lat="46.4986647" lon="12.58141"><ele>1750.0</ele><time>2026-05-01T08:44:52.753Z</time></trkpt><trkpt lat="46.4986045" lon="12.5812893"><ele>1750.0</ele><time>2026-05-01T08:44:54.753Z</time></trkpt><trkpt lat="46.4985486" lon="12.5812097"><ele>1750.0</ele><time>2026-05-01T08:44:56.755Z</time></trkpt><trkpt lat="46.4985129" lon="12.5811258"><ele>1750.0000000000002</ele><time>2026-05-01T08:44:59.755Z</time></trkpt><trkpt lat="46.4984718" lon="12.5810366"><ele>1750.0</ele><time>2026-05-01T08:45:01.755Z</time></trkpt><trkpt lat="46.4983951" lon="12.5809562"><ele>1754.3333333333335</ele><time>2026-05-01T08:45:04.755Z</time></trkpt><trkpt lat="46.4983062" lon="12.5809202"><ele>1758.6666666666667</ele><time>2026-05-01T08:45:07.753Z</time></trkpt><trkpt lat="46.4982359" lon="12.5809012"><ele>1763.0</ele><time>2026-05-01T08:45:09.754Z</time></trkpt><trkpt lat="46.4981549" lon="12.5808909"><ele>1767.3333333333335</ele><time>2026-05-01T08:45:12.755Z</time></trkpt><trkpt lat="46.4980808" lon="12.5808061"><ele>1771.6666666666667</ele><time>2026-05-01T08:45:15.754Z</time></trkpt><trkpt lat="46.4980165" lon="12.5807244"><ele>1776.0</ele><time>2026-05-01T08:45:17.755Z</time></trkpt><trkpt lat="46.4979571" lon="12.5806691"><ele>1775.5714285714284</ele><time>2026-05-01T08:45:19.754Z</time></trkpt><trkpt lat="46.4978824" lon="12.5806446"><ele>1775.1428571428573</ele><time>2026-05-01T08:45:22.754Z</time></trkpt><trkpt lat="46.497837" lon="12.5805355"><ele>1774.7142857142858</ele><time>2026-05-01T08:45:58.754Z</time></trkpt><trkpt lat="46.4978125" lon="12.5804408"><ele>1774.2857142857142</ele><time>2026-05-01T08:46:02.755Z</time></trkpt><trkpt lat="46.4977892" lon="12.5803422"><ele>1773.8571428571427</ele><time>2026-05-01T08:46:16.755Z</time></trkpt><trkpt lat="46.4977136" lon="12.5803609"><ele>1773.4285714285716</ele><time>2026-05-01T08:48:21.754Z</time></trkpt><trkpt lat="46.4976564" lon="12.5804069"><ele>1773.0</ele><time>2026-05-01T08:48:23.754Z</time></trkpt><trkpt lat="46.4975925" lon="12.5804529"><ele>1773.0</ele><time>2026-05-01T08:48:25.755Z</time></trkpt><trkpt lat="46.4975116" lon="12.5805068"><ele>1773.0</ele><time>2026-05-01T08:48:27.754Z</time></trkpt><trkpt lat="46.4974439" lon="12.5805583"><ele>1773.0</ele><time>2026-05-01T08:48:29.753Z</time></trkpt><trkpt lat="46.4973781" lon="12.5805237"><ele>1773.0</ele><time>2026-05-01T08:48:32.755Z</time></trkpt><trkpt lat="46.497322" lon="12.580469"><ele>1773.0</ele><time>2026-05-01T08:48:34.754Z</time></trkpt><trkpt lat="46.4972842" lon="12.5803879"><ele>1773.0</ele><time>2026-05-01T08:48:36.755Z</time></trkpt><trkpt lat="46.4972238" lon="12.5802939"><ele>1775.5</ele><time>2026-05-01T08:48:39.754Z</time></trkpt><trkpt lat="46.4971678" lon="12.5802141"><ele>1778.0</ele><time>2026-05-01T08:48:41.755Z</time></trkpt><trkpt lat="46.4970877" lon="12.5801107"><ele>1780.5</ele><time>2026-05-01T08:48:43.754Z</time></trkpt><trkpt lat="46.4970404" lon="12.5800414"><ele>1783.0</ele><time>2026-05-01T08:48:44.755Z</time></trkpt><trkpt lat="46.4969478" lon="12.5799619"><ele>1785.5</ele><time>2026-05-01T08:48:46.754Z</time></trkpt><trkpt lat="46.4968827" lon="12.5798932"><ele>1788.0</ele><time>2026-05-01T08:48:48.753Z</time></trkpt><trkpt lat="46.4968223" lon="12.5798395"><ele>1788.0</ele><time>2026-05-01T08:48:50.754Z</time></trkpt><trkpt lat="46.4967675" lon="12.5797919"><ele>1788.0</ele><time>2026-05-01T08:48:52.754Z</time></trkpt><trkpt lat="46.4966971" lon="12.5797231"><ele>1788.0</ele><time>2026-05-01T08:48:55.754Z</time></trkpt><trkpt lat="46.4966325" lon="12.5797325"><ele>1788.0</ele><time>2026-05-01T08:48:57.753Z</time></trkpt><trkpt lat="46.496571" lon="12.5798319"><ele>1788.0</ele><time>2026-05-01T08:49:00.755Z</time></trkpt><trkpt lat="46.4964802" lon="12.5798131"><ele>1788.0</ele><time>2026-05-01T08:49:02.754Z</time></trkpt><trkpt lat="46.4964039" lon="12.5798143"><ele>1788.0</ele><time>2026-05-01T08:54:45.754Z</time></trkpt><trkpt lat="46.4963329" lon="12.5798229"><ele>1788.0</ele><time>2026-05-01T08:54:48.754Z</time></trkpt><trkpt lat="46.49638" lon="12.5799303"><ele>1788.0</ele><time>2026-05-01T08:54:51.754Z</time></trkpt><trkpt lat="46.4964635" lon="12.579974"><ele>1788.0</ele><time>2026-05-01T08:54:54.755Z</time></trkpt><trkpt lat="46.496551" lon="12.5800159"><ele>1788.0</ele><time>2026-05-01T08:54:57.754Z</time></trkpt><trkpt lat="46.4966267" lon="12.5800462"><ele>1788.0</ele><time>2026-05-01T08:55:01.755Z</time></trkpt><trkpt lat="46.4967081" lon="12.5800758"><ele>1788.0</ele><time>2026-05-01T08:55:05.753Z</time></trkpt><trkpt lat="46.4967831" lon="12.5800969"><ele>1788.0</ele><time>2026-05-01T08:55:08.754Z</time></trkpt><trkpt lat="46.4968411" lon="12.5801677"><ele>1788.0</ele><time>2026-05-01T08:55:11.754Z</time></trkpt><trkpt lat="46.4968853" lon="12.5802352"><ele>1788.0</ele><time>2026-05-01T08:55:17.755Z</time></trkpt><trkpt lat="46.4969466" lon="12.5803013"><ele>1788.0</ele><time>2026-05-01T08:55:22.755Z</time></trkpt><trkpt lat="46.4970092" lon="12.5803936"><ele>1788.0</ele><time>2026-05-01T08:55:26.752Z</time></trkpt><trkpt lat="46.4970501" lon="12.5805213"><ele>1788.8571428571427</ele><time>2026-05-01T08:55:29.754Z</time></trkpt><trkpt lat="46.4970792" lon="12.5806096"><ele>1789.7142857142858</ele><time>2026-05-01T08:55:31.754Z</time></trkpt><trkpt lat="46.4971272" lon="12.5806976"><ele>1790.5714285714284</ele><time>2026-05-01T08:55:34.755Z</time></trkpt><trkpt lat="46.4971534" lon="12.5807854"><ele>1791.4285714285713</ele><time>2026-05-01T08:55:37.755Z</time></trkpt><trkpt lat="46.4971221" lon="12.5806964"><ele>1792.2857142857142</ele><time>2026-05-01T08:56:21.754Z</time></trkpt><trkpt lat="46.4971695" lon="12.5806092"><ele>1793.142857142857</ele><time>2026-05-01T08:56:32.754Z</time></trkpt><trkpt lat="46.4972304" lon="12.580521"><ele>1794.0</ele><time>2026-05-01T08:56:34.755Z</time></trkpt><trkpt lat="46.4972983" lon="12.5804757"><ele>1791.0</ele><time>2026-05-01T08:56:36.754Z</time></trkpt><trkpt lat="46.4973711" lon="12.5805526"><ele>1788.0</ele><time>2026-05-01T08:56:39.754Z</time></trkpt><trkpt lat="46.4974371" lon="12.5805874"><ele>1785.0</ele><time>2026-05-01T08:56:42.755Z</time></trkpt><trkpt lat="46.4974967" lon="12.5805568"><ele>1782.0</ele><time>2026-05-01T08:56:45.754Z</time></trkpt><trkpt lat="46.4975592" lon="12.5805177"><ele>1779.0</ele><time>2026-05-01T08:56:47.755Z</time></trkpt><trkpt lat="46.4976168" lon="12.5804745"><ele>1776.0</ele><time>2026-05-01T08:56:49.754Z</time></trkpt><trkpt lat="46.4976767" lon="12.5804004"><ele>1773.0</ele><time>2026-05-01T08:56:52.755Z</time></trkpt><trkpt lat="46.4977428" lon="12.5803962"><ele>1773.0</ele><time>2026-05-01T08:56:55.754Z</time></trkpt><trkpt lat="46.4977711" lon="12.5804975"><ele>1773.0</ele><time>2026-05-01T08:56:59.754Z</time></trkpt><trkpt lat="46.4978008" lon="12.5805985"><ele>1773.0</ele><time>2026-05-01T08:57:03.754Z</time></trkpt><trkpt lat="46.4978389" lon="12.5806861"><ele>1773.0</ele><time>2026-05-01T08:57:06.754Z</time></trkpt><trkpt lat="46.4979182" lon="12.5807229"><ele>1773.0</ele><time>2026-05-01T08:57:10.755Z</time></trkpt><trkpt lat="46.497969" lon="12.580784"><ele>1773.0</ele><time>2026-05-01T08:57:13.754Z</time></trkpt><trkpt lat="46.4980167" lon="12.5808545"><ele>1773.0</ele><time>2026-05-01T08:57:16.753Z</time></trkpt><trkpt lat="46.4980777" lon="12.5809095"><ele>1773.5</ele><time>2026-05-01T08:57:19.754Z</time></trkpt><trkpt lat="46.4981502" lon="12.580933"><ele>1774.0</ele><time>2026-05-01T08:57:22.754Z</time></trkpt><trkpt lat="46.4982437" lon="12.5809345"><ele>1774.5</ele><time>2026-05-01T08:57:26.755Z</time></trkpt><trkpt lat="46.4983198" lon="12.5809575"><ele>1775.0</ele><time>2026-05-01T08:57:29.754Z</time></trkpt><trkpt lat="46.4983899" lon="12.580998"><ele>1775.5</ele><time>2026-05-01T08:57:32.754Z</time></trkpt><trkpt lat="46.4984527" lon="12.5810558"><ele>1776.0</ele><time>2026-05-01T08:57:35.754Z</time></trkpt><trkpt lat="46.4984955" lon="12.5811637"><ele>1773.5</ele><time>2026-05-01T08:57:38.755Z</time></trkpt><trkpt lat="46.4985574" lon="12.5812673"><ele>1771.0</ele><time>2026-05-01T08:57:41.754Z</time></trkpt><trkpt lat="46.4986298" lon="12.5813264"><ele>1768.5</ele><time>2026-05-01T08:57:44.754Z</time></trkpt><trkpt lat="46.4986715" lon="12.5814364"><ele>1766.0</ele><time>2026-05-01T08:57:47.754Z</time></trkpt><trkpt lat="46.4987062" lon="12.5815248"><ele>1763.5</ele><time>2026-05-01T08:57:50.755Z</time></trkpt><trkpt lat="46.4987373" lon="12.5816249"><ele>1761.0</ele><time>2026-05-01T08:57:53.754Z</time></trkpt><trkpt lat="46.4987632" lon="12.5817174"><ele>1761.0000000000002</ele><time>2026-05-01T08:57:55.754Z</time></trkpt><trkpt lat="46.4987858" lon="12.5818107"><ele>1761.0</ele><time>2026-05-01T08:57:57.753Z</time></trkpt><trkpt lat="46.4988309" lon="12.5818858"><ele>1761.0</ele><time>2026-05-01T08:57:59.754Z</time></trkpt><trkpt lat="46.4988785" lon="12.5819532"><ele>1761.0</ele><time>2026-05-01T08:58:01.755Z</time></trkpt><trkpt lat="46.4989554" lon="12.5820021"><ele>1761.0</ele><time>2026-05-01T08:58:04.755Z</time></trkpt><trkpt lat="46.4990141" lon="12.5820823"><ele>1761.0000000000002</ele><time>2026-05-01T08:58:07.754Z</time></trkpt><trkpt lat="46.4990644" lon="12.5821672"><ele>1761.0</ele><time>2026-05-01T08:58:10.755Z</time></trkpt><trkpt lat="46.4991313" lon="12.582221"><ele>1756.3333333333333</ele><time>2026-05-01T08:58:13.754Z</time></trkpt><trkpt lat="46.4991927" lon="12.5822817"><ele>1751.6666666666665</ele><time>2026-05-01T08:58:16.754Z</time></trkpt><trkpt lat="46.4992453" lon="12.5823457"><ele>1747.0</ele><time>2026-05-01T08:58:19.753Z</time></trkpt><trkpt lat="46.4992288" lon="12.5824396"><ele>1742.3333333333333</ele><time>2026-05-01T08:58:22.755Z</time></trkpt><trkpt lat="46.4992671" lon="12.5825297"><ele>1737.6666666666665</ele><time>2026-05-01T08:58:26.755Z</time></trkpt><trkpt lat="46.4993385" lon="12.582598"><ele>1733.0</ele><time>2026-05-01T08:58:29.754Z</time></trkpt><trkpt lat="46.4993924" lon="12.5827018"><ele>1733.0000000000002</ele><time>2026-05-01T08:58:32.754Z</time></trkpt><trkpt lat="46.4994306" lon="12.5827761"><ele>1733.0</ele><time>2026-05-01T08:58:34.754Z</time></trkpt><trkpt lat="46.4994821" lon="12.582861"><ele>1733.0</ele><time>2026-05-01T08:58:37.755Z</time></trkpt><trkpt lat="46.4995368" lon="12.5829445"><ele>1733.0</ele><time>2026-05-01T08:58:41.754Z</time></trkpt><trkpt lat="46.4995735" lon="12.5830279"><ele>1733.0</ele><time>2026-05-01T08:58:44.754Z</time></trkpt><trkpt lat="46.4995568" lon="12.5831182"><ele>1733.0000000000002</ele><time>2026-05-01T08:58:47.753Z</time></trkpt><trkpt lat="46.4995559" lon="12.5832256"><ele>1733.0</ele><time>2026-05-01T08:58:50.754Z</time></trkpt><trkpt lat="46.4995001" lon="12.5833006"><ele>1729.8333333333333</ele><time>2026-05-01T08:58:53.754Z</time></trkpt><trkpt lat="46.4994748" lon="12.583414"><ele>1726.6666666666665</ele><time>2026-05-01T08:58:58.755Z</time></trkpt><trkpt lat="46.4994309" lon="12.5834902"><ele>1723.5</ele><time>2026-05-01T08:59:01.754Z</time></trkpt><trkpt lat="46.4994035" lon="12.5835775"><ele>1720.3333333333335</ele><time>2026-05-01T08:59:04.753Z</time></trkpt><trkpt lat="46.4993848" lon="12.5836973"><ele>1717.1666666666667</ele><time>2026-05-01T08:59:10.754Z</time></trkpt><trkpt lat="46.4993546" lon="12.5838065"><ele>1714.0</ele><time>2026-05-01T08:59:14.755Z</time></trkpt><trkpt lat="46.4993181" lon="12.5839074"><ele>1710.8333333333335</ele><time>2026-05-01T08:59:18.754Z</time></trkpt><trkpt lat="46.499254" lon="12.5839838"><ele>1707.6666666666667</ele><time>2026-05-01T08:59:22.755Z</time></trkpt><trkpt lat="46.4992314" lon="12.5840769"><ele>1704.5</ele><time>2026-05-01T08:59:25.755Z</time></trkpt><trkpt lat="46.499245" lon="12.5841921"><ele>1701.3333333333335</ele><time>2026-05-01T08:59:28.753Z</time></trkpt><trkpt lat="46.4992875" lon="12.5842824"><ele>1698.1666666666667</ele><time>2026-05-01T08:59:30.755Z</time></trkpt><trkpt lat="46.499336" lon="12.5843432"><ele>1695.0</ele><time>2026-05-01T08:59:32.755Z</time></trkpt><trkpt lat="46.4994083" lon="12.584414"><ele>1695.0</ele><time>2026-05-01T08:59:35.753Z</time></trkpt><trkpt lat="46.4994607" lon="12.5844689"><ele>1695.0</ele><time>2026-05-01T08:59:37.754Z</time></trkpt><trkpt lat="46.4995096" lon="12.5845272"><ele>1695.0</ele><time>2026-05-01T08:59:39.755Z</time></trkpt><trkpt lat="46.4995576" lon="12.5846175"><ele>1695.0</ele><time>2026-05-01T08:59:42.755Z</time></trkpt><trkpt lat="46.4995671" lon="12.5847153"><ele>1695.0</ele><time>2026-05-01T08:59:47.753Z</time></trkpt><trkpt lat="46.4995864" lon="12.584805"><ele>1695.0</ele><time>2026-05-01T08:59:50.754Z</time></trkpt><trkpt lat="46.4996142" lon="12.5849344"><ele>1695.0</ele><time>2026-05-01T08:59:53.753Z</time></trkpt><trkpt lat="46.4996378" lon="12.5850313"><ele>1692.6666666666667</ele><time>2026-05-01T08:59:55.753Z</time></trkpt><trkpt lat="46.4996616" lon="12.5851226"><ele>1690.3333333333335</ele><time>2026-05-01T08:59:57.755Z</time></trkpt><trkpt lat="46.4996804" lon="12.5852278"><ele>1688.0</ele><time>2026-05-01T09:00:08.755Z</time></trkpt><trkpt lat="46.4997404" lon="12.5853515"><ele>1685.6666666666667</ele><time>2026-05-01T09:00:11.755Z</time></trkpt><trkpt lat="46.4998012" lon="12.5854014"><ele>1683.3333333333335</ele><time>2026-05-01T09:00:13.753Z</time></trkpt><trkpt lat="46.4998913" lon="12.5854113"><ele>1681.0</ele><time>2026-05-01T09:00:15.753Z</time></trkpt><trkpt lat="46.499977" lon="12.5853951"><ele>1678.8</ele><time>2026-05-01T09:00:17.755Z</time></trkpt><trkpt lat="46.500055" lon="12.585436"><ele>1676.6</ele><time>2026-05-01T09:00:19.755Z</time></trkpt><trkpt lat="46.5001407" lon="12.5854603"><ele>1674.4</ele><time>2026-05-01T09:00:21.754Z</time></trkpt><trkpt lat="46.5002449" lon="12.5854616"><ele>1672.2</ele><time>2026-05-01T09:00:23.754Z</time></trkpt><trkpt lat="46.500337" lon="12.5854277"><ele>1670.0</ele><time>2026-05-01T09:00:25.754Z</time></trkpt><trkpt lat="46.5004287" lon="12.5854121"><ele>1669.9999999999998</ele><time>2026-05-01T09:00:27.753Z</time></trkpt><trkpt lat="46.5005218" lon="12.5854556"><ele>1670.0</ele><time>2026-05-01T09:00:29.755Z</time></trkpt><trkpt lat="46.500601" lon="12.5854906"><ele>1670.0</ele><time>2026-05-01T09:00:31.755Z</time></trkpt><trkpt lat="46.5006513" lon="12.5855837"><ele>1670.0</ele><time>2026-05-01T09:00:34.753Z</time></trkpt><trkpt lat="46.5006512" lon="12.585712"><ele>1669.9999999999998</ele><time>2026-05-01T09:00:37.754Z</time></trkpt><trkpt lat="46.5006478" lon="12.5858487"><ele>1670.0</ele><time>2026-05-01T09:00:40.755Z</time></trkpt><trkpt lat="46.5006273" lon="12.5859559"><ele>1669.9999999999998</ele><time>2026-05-01T09:00:42.755Z</time></trkpt><trkpt lat="46.5005936" lon="12.5860661"><ele>1670.0</ele><time>2026-05-01T09:00:44.753Z</time></trkpt><trkpt lat="46.5005584" lon="12.5861787"><ele>1670.0</ele><time>2026-05-01T09:00:46.754Z</time></trkpt><trkpt lat="46.5005305" lon="12.5862871"><ele>1670.0</ele><time>2026-05-01T09:00:48.754Z</time></trkpt><trkpt lat="46.5005092" lon="12.5863889"><ele>1669.9999999999998</ele><time>2026-05-01T09:00:50.754Z</time></trkpt><trkpt lat="46.5004917" lon="12.5864862"><ele>1670.0</ele><time>2026-05-01T09:00:52.754Z</time></trkpt><trkpt lat="46.5004922" lon="12.5865908"><ele>1666.4999999999998</ele><time>2026-05-01T09:00:53.755Z</time></trkpt><trkpt lat="46.5005009" lon="12.5867165"><ele>1663.0</ele><time>2026-05-01T09:00:55.755Z</time></trkpt><trkpt lat="46.5005172" lon="12.5868205"><ele>1659.5</ele><time>2026-05-01T09:00:57.754Z</time></trkpt><trkpt lat="46.5005635" lon="12.5869079"><ele>1656.0</ele><time>2026-05-01T09:00:59.754Z</time></trkpt><trkpt lat="46.5006513" lon="12.5869862"><ele>1652.4999999999998</ele><time>2026-05-01T09:01:01.753Z</time></trkpt><trkpt lat="46.5007435" lon="12.5870584"><ele>1649.0</ele><time>2026-05-01T09:01:03.754Z</time></trkpt><trkpt lat="46.5008451" lon="12.5871682"><ele>1643.8000000000002</ele><time>2026-05-01T09:01:05.753Z</time></trkpt><trkpt lat="46.5009345" lon="12.587267"><ele>1638.6000000000001</ele><time>2026-05-01T09:01:07.754Z</time></trkpt><trkpt lat="46.501014" lon="12.5873581"><ele>1633.4</ele><time>2026-05-01T09:01:09.755Z</time></trkpt><trkpt lat="46.5010723" lon="12.5874614"><ele>1628.2</ele><time>2026-05-01T09:01:11.754Z</time></trkpt><trkpt lat="46.5011324" lon="12.5876058"><ele>1623.0</ele><time>2026-05-01T09:01:13.754Z</time></trkpt><trkpt lat="46.5011879" lon="12.5877658"><ele>1622.8000000000002</ele><time>2026-05-01T09:01:15.754Z</time></trkpt><trkpt lat="46.5012865" lon="12.587862"><ele>1622.6</ele><time>2026-05-01T09:01:17.754Z</time></trkpt><trkpt lat="46.5013789" lon="12.5879374"><ele>1622.4</ele><time>2026-05-01T09:01:19.755Z</time></trkpt><trkpt lat="46.5014689" lon="12.5880329"><ele>1622.1999999999998</ele><time>2026-05-01T09:01:21.754Z</time></trkpt><trkpt lat="46.5015522" lon="12.5881414"><ele>1622.0</ele><time>2026-05-01T09:01:23.753Z</time></trkpt><trkpt lat="46.5016155" lon="12.5882644"><ele>1622.0</ele><time>2026-05-01T09:01:25.754Z</time></trkpt><trkpt lat="46.5016669" lon="12.588408"><ele>1622.0</ele><time>2026-05-01T09:01:27.755Z</time></trkpt><trkpt lat="46.5016803" lon="12.5885496"><ele>1622.0</ele><time>2026-05-01T09:01:29.754Z</time></trkpt><trkpt lat="46.5016722" lon="12.5886642"><ele>1622.0</ele><time>2026-05-01T09:01:31.754Z</time></trkpt><trkpt lat="46.5016802" lon="12.5888023"><ele>1622.0</ele><time>2026-05-01T09:01:33.754Z</time></trkpt><trkpt lat="46.5016971" lon="12.588949"><ele>1618.9999999999998</ele><time>2026-05-01T09:01:35.76Z</time></trkpt><trkpt lat="46.5017179" lon="12.5891057"><ele>1616.0</ele><time>2026-05-01T09:01:37.754Z</time></trkpt><trkpt lat="46.5017587" lon="12.5892218"><ele>1613.0</ele><time>2026-05-01T09:01:40.754Z</time></trkpt><trkpt lat="46.5017933" lon="12.5893455"><ele>1610.0</ele><time>2026-05-01T09:01:43.753Z</time></trkpt><trkpt lat="46.5018072" lon="12.5894456"><ele>1606.9999999999998</ele><time>2026-05-01T09:01:45.753Z</time></trkpt><trkpt lat="46.5018166" lon="12.5895496"><ele>1604.0</ele><time>2026-05-01T09:01:47.754Z</time></trkpt><trkpt lat="46.5018433" lon="12.5896552"><ele>1599.2</ele><time>2026-05-01T09:01:49.755Z</time></trkpt><trkpt lat="46.5018913" lon="12.5897671"><ele>1594.4</ele><time>2026-05-01T09:01:51.754Z</time></trkpt><trkpt lat="46.5019155" lon="12.5898579"><ele>1589.6</ele><time>2026-05-01T09:01:53.754Z</time></trkpt><trkpt lat="46.5018286" lon="12.5899464"><ele>1584.8</ele><time>2026-05-01T09:01:55.755Z</time></trkpt><trkpt lat="46.5017271" lon="12.5899703"><ele>1580.0</ele><time>2026-05-01T09:01:57.754Z</time></trkpt><trkpt lat="46.5016412" lon="12.5900049"><ele>1579.9999999999998</ele><time>2026-05-01T09:01:59.753Z</time></trkpt><trkpt lat="46.5016262" lon="12.5901376"><ele>1580.0</ele><time>2026-05-01T09:02:02.754Z</time></trkpt><trkpt lat="46.5016847" lon="12.5902212"><ele>1580.0</ele><time>2026-05-01T09:02:04.753Z</time></trkpt><trkpt lat="46.5017628" lon="12.5902773"><ele>1580.0</ele><time>2026-05-01T09:02:06.755Z</time></trkpt><trkpt lat="46.5018393" lon="12.5903113"><ele>1579.9999999999998</ele><time>2026-05-01T09:02:08.753Z</time></trkpt><trkpt lat="46.5019407" lon="12.5903551"><ele>1580.0</ele><time>2026-05-01T09:02:10.754Z</time></trkpt><trkpt lat="46.5020446" lon="12.5904072"><ele>1577.8</ele><time>2026-05-01T09:02:12.754Z</time></trkpt><trkpt lat="46.5021432" lon="12.5904689"><ele>1575.6</ele><time>2026-05-01T09:02:14.754Z</time></trkpt><trkpt lat="46.5022472" lon="12.5905377"><ele>1573.4</ele><time>2026-05-01T09:02:16.755Z</time></trkpt><trkpt lat="46.5023281" lon="12.5906131"><ele>1571.2</ele><time>2026-05-01T09:02:18.755Z</time></trkpt><trkpt lat="46.5023692" lon="12.5906901"><ele>1569.0</ele><time>2026-05-01T09:02:20.754Z</time></trkpt><trkpt lat="46.5023798" lon="12.5908062"><ele>1569.0</ele><time>2026-05-01T09:02:22.754Z</time></trkpt><trkpt lat="46.502341" lon="12.5909106"><ele>1569.0</ele><time>2026-05-01T09:02:24.754Z</time></trkpt><trkpt lat="46.5022692" lon="12.5909855"><ele>1569.0</ele><time>2026-05-01T09:02:26.755Z</time></trkpt><trkpt lat="46.5022085" lon="12.5910149"><ele>1569.0</ele><time>2026-05-01T09:02:27.754Z</time></trkpt><trkpt lat="46.5021262" lon="12.5910368"><ele>1569.0</ele><time>2026-05-01T09:02:29.754Z</time></trkpt><trkpt lat="46.5020524" lon="12.591053"><ele>1569.0</ele><time>2026-05-01T09:02:31.754Z</time></trkpt><trkpt lat="46.5019668" lon="12.5909926"><ele>1567.2</ele><time>2026-05-01T09:02:33.755Z</time></trkpt><trkpt lat="46.5018676" lon="12.5909462"><ele>1565.4</ele><time>2026-05-01T09:02:35.752Z</time></trkpt><trkpt lat="46.501792" lon="12.5909027"><ele>1563.6</ele><time>2026-05-01T09:02:37.755Z</time></trkpt><trkpt lat="46.5017106" lon="12.5908877"><ele>1561.8</ele><time>2026-05-01T09:02:39.755Z</time></trkpt><trkpt lat="46.5016144" lon="12.5909111"><ele>1560.0</ele><time>2026-05-01T09:02:41.754Z</time></trkpt><trkpt lat="46.5015111" lon="12.5909283"><ele>1560.0</ele><time>2026-05-01T09:02:43.755Z</time></trkpt><trkpt lat="46.5014105" lon="12.5909818"><ele>1560.0</ele><time>2026-05-01T09:02:45.753Z</time></trkpt><trkpt lat="46.501335" lon="12.591057"><ele>1560.0</ele><time>2026-05-01T09:02:47.754Z</time></trkpt><trkpt lat="46.5012852" lon="12.5911144"><ele>1560.0</ele><time>2026-05-01T09:02:49.755Z</time></trkpt><trkpt lat="46.5011912" lon="12.5911839"><ele>1560.0</ele><time>2026-05-01T09:02:51.754Z</time></trkpt><trkpt lat="46.5011118" lon="12.5911935"><ele>1560.0</ele><time>2026-05-01T09:02:53.755Z</time></trkpt><trkpt lat="46.5010181" lon="12.5911809"><ele>1557.142857142857</ele><time>2026-05-01T09:02:55.755Z</time></trkpt><trkpt lat="46.500957" lon="12.5911277"><ele>1554.2857142857142</ele><time>2026-05-01T09:02:57.755Z</time></trkpt><trkpt lat="46.5009002" lon="12.5910699"><ele>1551.4285714285716</ele><time>2026-05-01T09:02:59.753Z</time></trkpt><trkpt lat="46.5008279" lon="12.5910114"><ele>1548.5714285714284</ele><time>2026-05-01T09:03:01.755Z</time></trkpt><trkpt lat="46.5007648" lon="12.5909457"><ele>1545.7142857142858</ele><time>2026-05-01T09:03:03.755Z</time></trkpt><trkpt lat="46.5007175" lon="12.5908673"><ele>1542.857142857143</ele><time>2026-05-01T09:03:05.755Z</time></trkpt><trkpt lat="46.5006814" lon="12.5907799"><ele>1540.0</ele><time>2026-05-01T09:03:07.755Z</time></trkpt><trkpt lat="46.500635" lon="12.5906692"><ele>1540.0</ele><time>2026-05-01T09:03:09.754Z</time></trkpt><trkpt lat="46.500568" lon="12.5905782"><ele>1540.0</ele><time>2026-05-01T09:03:11.755Z</time></trkpt><trkpt lat="46.5005159" lon="12.590521"><ele>1540.0</ele><time>2026-05-01T09:03:13.754Z</time></trkpt><trkpt lat="46.5004566" lon="12.590443"><ele>1540.0</ele><time>2026-05-01T09:03:16.755Z</time></trkpt><trkpt lat="46.5003974" lon="12.5904957"><ele>1540.0</ele><time>2026-05-01T09:03:20.754Z</time></trkpt><trkpt lat="46.5004049" lon="12.5905887"><ele>1540.0</ele><time>2026-05-01T09:03:22.755Z</time></trkpt><trkpt lat="46.5004217" lon="12.5906822"><ele>1540.0</ele><time>2026-05-01T09:03:24.754Z</time></trkpt><trkpt lat="46.5004421" lon="12.5908074"><ele>1540.0</ele><time>2026-05-01T09:03:26.755Z</time></trkpt><trkpt lat="46.5004709" lon="12.5909529"><ele>1540.0</ele><time>2026-05-01T09:03:28.755Z</time></trkpt><trkpt lat="46.5004887" lon="12.5910975"><ele>1540.0</ele><time>2026-05-01T09:03:30.755Z</time></trkpt><trkpt lat="46.5004839" lon="12.5912368"><ele>1540.0</ele><time>2026-05-01T09:03:32.754Z</time></trkpt><trkpt lat="46.5004779" lon="12.5913666"><ele>1540.0</ele><time>2026-05-01T09:03:34.755Z</time></trkpt><trkpt lat="46.5004955" lon="12.5914803"><ele>1537.5000000000002</ele><time>2026-05-01T09:03:36.754Z</time></trkpt><trkpt lat="46.5005207" lon="12.5915798"><ele>1535.0</ele><time>2026-05-01T09:03:38.753Z</time></trkpt><trkpt lat="46.5005213" lon="12.5917186"><ele>1532.5</ele><time>2026-05-01T09:03:40.755Z</time></trkpt><trkpt lat="46.500449" lon="12.5917568"><ele>1530.0</ele><time>2026-05-01T09:03:55.754Z</time></trkpt><trkpt lat="46.5003797" lon="12.5917562"><ele>1527.5</ele><time>2026-05-01T09:03:59.755Z</time></trkpt><trkpt lat="46.5003181" lon="12.5917178"><ele>1525.0</ele><time>2026-05-01T09:04:24.755Z</time></trkpt><trkpt lat="46.5002269" lon="12.5917757"><ele>1523.2857142857142</ele><time>2026-05-01T09:04:27.755Z</time></trkpt><trkpt lat="46.5001628" lon="12.5918177"><ele>1521.5714285714284</ele><time>2026-05-01T09:04:29.755Z</time></trkpt><trkpt lat="46.5000986" lon="12.5918236"><ele>1519.857142857143</ele><time>2026-05-01T09:04:31.755Z</time></trkpt><trkpt lat="46.5000229" lon="12.5918211"><ele>1518.142857142857</ele><time>2026-05-01T09:04:34.755Z</time></trkpt><trkpt lat="46.4999622" lon="12.5918529"><ele>1516.4285714285716</ele><time>2026-05-01T09:04:37.754Z</time></trkpt><trkpt lat="46.4998993" lon="12.5919366"><ele>1514.7142857142858</ele><time>2026-05-01T09:04:40.755Z</time></trkpt><trkpt lat="46.4998416" lon="12.5920149"><ele>1513.0</ele><time>2026-05-01T09:04:43.755Z</time></trkpt><trkpt lat="46.49979" lon="12.5921186"><ele>1512.1666666666665</ele><time>2026-05-01T09:04:46.753Z</time></trkpt><trkpt lat="46.4997749" lon="12.5922101"><ele>1511.3333333333333</ele><time>2026-05-01T09:04:48.755Z</time></trkpt><trkpt lat="46.4997484" lon="12.5923002"><ele>1510.5</ele><time>2026-05-01T09:04:50.754Z</time></trkpt><trkpt lat="46.4996724" lon="12.5923725"><ele>1509.6666666666667</ele><time>2026-05-01T09:04:53.755Z</time></trkpt><trkpt lat="46.4996085" lon="12.5924517"><ele>1508.8333333333335</ele><time>2026-05-01T09:04:56.754Z</time></trkpt><trkpt lat="46.4995533" lon="12.5925206"><ele>1508.0</ele><time>2026-05-01T09:04:58.754Z</time></trkpt><trkpt lat="46.4995178" lon="12.5926233"><ele>1507.0</ele><time>2026-05-01T09:05:00.754Z</time></trkpt><trkpt lat="46.499498" lon="12.5927368"><ele>1506.0</ele><time>2026-05-01T09:05:02.755Z</time></trkpt><trkpt lat="46.4994851" lon="12.5928305"><ele>1505.0</ele><time>2026-05-01T09:05:04.755Z</time></trkpt><trkpt lat="46.4994666" lon="12.5929408"><ele>1504.0</ele><time>2026-05-01T09:05:07.755Z</time></trkpt><trkpt lat="46.4995324" lon="12.592999"><ele>1503.0</ele><time>2026-05-01T09:05:09.754Z</time></trkpt><trkpt lat="46.4996107" lon="12.5930788"><ele>1502.0</ele><time>2026-05-01T09:05:11.754Z</time></trkpt><trkpt lat="46.4996838" lon="12.5931685"><ele>1502.0</ele><time>2026-05-01T09:05:13.755Z</time></trkpt><trkpt lat="46.4997279" lon="12.5932712"><ele>1502.0</ele><time>2026-05-01T09:05:15.754Z</time></trkpt><trkpt lat="46.4997901" lon="12.5933718"><ele>1502.0</ele><time>2026-05-01T09:05:17.754Z</time></trkpt><trkpt lat="46.4998582" lon="12.5934806"><ele>1502.0</ele><time>2026-05-01T09:05:19.754Z</time></trkpt><trkpt lat="46.4999328" lon="12.5935808"><ele>1502.0</ele><time>2026-05-01T09:05:21.755Z</time></trkpt><trkpt lat="46.5000003" lon="12.5936521"><ele>1501.0</ele><time>2026-05-01T09:05:23.755Z</time></trkpt><trkpt lat="46.5000633" lon="12.5937599"><ele>1500.0</ele><time>2026-05-01T09:05:25.755Z</time></trkpt><trkpt lat="46.5001251" lon="12.5938561"><ele>1499.0</ele><time>2026-05-01T09:05:27.754Z</time></trkpt><trkpt lat="46.5001845" lon="12.5939429"><ele>1498.0</ele><time>2026-05-01T09:05:29.755Z</time></trkpt><trkpt lat="46.500236" lon="12.5940659"><ele>1497.0</ele><time>2026-05-01T09:05:31.755Z</time></trkpt><trkpt lat="46.5002506" lon="12.5941936"><ele>1497.0</ele><time>2026-05-01T09:05:33.755Z</time></trkpt><trkpt lat="46.5002438" lon="12.5943259"><ele>1497.0</ele><time>2026-05-01T09:05:35.755Z</time></trkpt><trkpt lat="46.5002541" lon="12.5944808"><ele>1497.0</ele><time>2026-05-01T09:05:37.755Z</time></trkpt><trkpt lat="46.5002841" lon="12.5945643"><ele>1497.0</ele><time>2026-05-01T09:05:38.755Z</time></trkpt><trkpt lat="46.5003231" lon="12.5947035"><ele>1497.0</ele><time>2026-05-01T09:05:40.755Z</time></trkpt><trkpt lat="46.5003856" lon="12.5948551"><ele>1495.6</ele><time>2026-05-01T09:05:42.755Z</time></trkpt><trkpt lat="46.5004091" lon="12.5950026"><ele>1494.1999999999998</ele><time>2026-05-01T09:05:44.754Z</time></trkpt><trkpt lat="46.5003972" lon="12.5951487"><ele>1492.8</ele><time>2026-05-01T09:05:46.755Z</time></trkpt><trkpt lat="46.5004056" lon="12.5952843"><ele>1491.4</ele><time>2026-05-01T09:05:48.755Z</time></trkpt><trkpt lat="46.5004165" lon="12.5954255"><ele>1490.0</ele><time>2026-05-01T09:05:50.755Z</time></trkpt><trkpt lat="46.5003999" lon="12.5955738"><ele>1489.0</ele><time>2026-05-01T09:05:52.754Z</time></trkpt><trkpt lat="46.5003559" lon="12.5956971"><ele>1488.0</ele><time>2026-05-01T09:05:54.754Z</time></trkpt><trkpt lat="46.5002976" lon="12.595793"><ele>1487.0</ele><time>2026-05-01T09:05:56.754Z</time></trkpt><trkpt lat="46.5002417" lon="12.595904"><ele>1486.0</ele><time>2026-05-01T09:05:58.754Z</time></trkpt><trkpt lat="46.5002257" lon="12.5960418"><ele>1485.0</ele><time>2026-05-01T09:06:00.755Z</time></trkpt><trkpt lat="46.5002454" lon="12.5961767"><ele>1485.0</ele><time>2026-05-01T09:06:02.754Z</time></trkpt><trkpt lat="46.5002809" lon="12.5963191"><ele>1485.0</ele><time>2026-05-01T09:06:04.753Z</time></trkpt><trkpt lat="46.5003357" lon="12.5964466"><ele>1485.0</ele><time>2026-05-01T09:06:06.754Z</time></trkpt><trkpt lat="46.5004139" lon="12.5965567"><ele>1485.0</ele><time>2026-05-01T09:06:08.755Z</time></trkpt><trkpt lat="46.5004791" lon="12.5966913"><ele>1485.0</ele><time>2026-05-01T09:06:10.754Z</time></trkpt><trkpt lat="46.5005467" lon="12.5968207"><ele>1480.8</ele><time>2026-05-01T09:06:12.755Z</time></trkpt><trkpt lat="46.5006011" lon="12.5969608"><ele>1476.6</ele><time>2026-05-01T09:06:14.755Z</time></trkpt><trkpt lat="46.5006224" lon="12.5971143"><ele>1472.4</ele><time>2026-05-01T09:06:16.754Z</time></trkpt><trkpt lat="46.5006407" lon="12.5972552"><ele>1468.2</ele><time>2026-05-01T09:06:18.755Z</time></trkpt><trkpt lat="46.500641" lon="12.5974178"><ele>1464.0</ele><time>2026-05-01T09:06:20.755Z</time></trkpt><trkpt lat="46.5006684" lon="12.5975014"><ele>1462.8000000000002</ele><time>2026-05-01T09:06:21.755Z</time></trkpt><trkpt lat="46.5007029" lon="12.5975919"><ele>1461.6000000000001</ele><time>2026-05-01T09:06:22.755Z</time></trkpt><trkpt lat="46.5007338" lon="12.59768"><ele>1460.4</ele><time>2026-05-01T09:06:23.755Z</time></trkpt><trkpt lat="46.5007903" lon="12.5978451"><ele>1459.2</ele><time>2026-05-01T09:06:25.755Z</time></trkpt><trkpt lat="46.5008378" lon="12.5980153"><ele>1458.0</ele><time>2026-05-01T09:06:27.755Z</time></trkpt><trkpt lat="46.5008437" lon="12.5981982"><ele>1457.0</ele><time>2026-05-01T09:06:29.755Z</time></trkpt><trkpt lat="46.5008304" lon="12.5982963"><ele>1456.0</ele><time>2026-05-01T09:06:30.755Z</time></trkpt><trkpt lat="46.5008127" lon="12.5983975"><ele>1455.0</ele><time>2026-05-01T09:06:31.754Z</time></trkpt><trkpt lat="46.5007697" lon="12.5984975"><ele>1454.0</ele><time>2026-05-01T09:06:32.755Z</time></trkpt><trkpt lat="46.5007419" lon="12.5985973"><ele>1453.0</ele><time>2026-05-01T09:06:33.755Z</time></trkpt><trkpt lat="46.5007235" lon="12.5986923"><ele>1452.0</ele><time>2026-05-01T09:06:34.754Z</time></trkpt><trkpt lat="46.5007057" lon="12.5987981"><ele>1451.0</ele><time>2026-05-01T09:06:35.755Z</time></trkpt><trkpt lat="46.5006844" lon="12.598905"><ele>1449.5714285714287</ele><time>2026-05-01T09:06:36.755Z</time></trkpt><trkpt lat="46.5006568" lon="12.5990011"><ele>1448.142857142857</ele><time>2026-05-01T09:06:37.755Z</time></trkpt><trkpt lat="46.5006374" lon="12.5991066"><ele>1446.7142857142858</ele><time>2026-05-01T09:06:38.755Z</time></trkpt><trkpt lat="46.5006141" lon="12.5992084"><ele>1445.2857142857142</ele><time>2026-05-01T09:06:39.754Z</time></trkpt><trkpt lat="46.5005922" lon="12.5993072"><ele>1443.8571428571427</ele><time>2026-05-01T09:06:40.754Z</time></trkpt><trkpt lat="46.500574" lon="12.5994139"><ele>1442.4285714285713</ele><time>2026-05-01T09:06:41.756Z</time></trkpt><trkpt lat="46.5005693" lon="12.5995086"><ele>1441.0</ele><time>2026-05-01T09:06:42.755Z</time></trkpt><trkpt lat="46.5005564" lon="12.5996197"><ele>1440.0</ele><time>2026-05-01T09:06:43.754Z</time></trkpt><trkpt lat="46.5005515" lon="12.5997201"><ele>1439.0</ele><time>2026-05-01T09:06:44.754Z</time></trkpt><trkpt lat="46.5005445" lon="12.5998333"><ele>1438.0</ele><time>2026-05-01T09:06:45.755Z</time></trkpt><trkpt lat="46.5005407" lon="12.5999294"><ele>1437.0</ele><time>2026-05-01T09:06:46.755Z</time></trkpt><trkpt lat="46.5005457" lon="12.6000344"><ele>1436.0</ele><time>2026-05-01T09:06:47.755Z</time></trkpt><trkpt lat="46.5005452" lon="12.6001428"><ele>1435.0</ele><time>2026-05-01T09:06:48.755Z</time></trkpt><trkpt lat="46.5005459" lon="12.6002392"><ele>1434.0</ele><time>2026-05-01T09:06:49.754Z</time></trkpt><trkpt lat="46.5005482" lon="12.6003396"><ele>1433.7142857142858</ele><time>2026-05-01T09:06:50.755Z</time></trkpt><trkpt lat="46.5005441" lon="12.6004464"><ele>1433.4285714285713</ele><time>2026-05-01T09:06:51.755Z</time></trkpt><trkpt lat="46.5005183" lon="12.6005412"><ele>1433.1428571428573</ele><time>2026-05-01T09:06:52.755Z</time></trkpt><trkpt lat="46.5004894" lon="12.6006349"><ele>1432.857142857143</ele><time>2026-05-01T09:06:53.755Z</time></trkpt><trkpt lat="46.5004568" lon="12.6007232"><ele>1432.5714285714287</ele><time>2026-05-01T09:06:54.755Z</time></trkpt><trkpt lat="46.5004233" lon="12.600812"><ele>1432.2857142857144</ele><time>2026-05-01T09:06:55.755Z</time></trkpt><trkpt lat="46.5003845" lon="12.6009063"><ele>1432.0</ele><time>2026-05-01T09:06:56.755Z</time></trkpt><trkpt lat="46.5003427" lon="12.6009917"><ele>1432.0000000000002</ele><time>2026-05-01T09:06:57.755Z</time></trkpt><trkpt lat="46.5003032" lon="12.6010799"><ele>1432.0</ele><time>2026-05-01T09:06:58.755Z</time></trkpt><trkpt lat="46.500263" lon="12.601168"><ele>1432.0</ele><time>2026-05-01T09:06:59.755Z</time></trkpt><trkpt lat="46.5002245" lon="12.6012504"><ele>1432.0</ele><time>2026-05-01T09:07:00.754Z</time></trkpt><trkpt lat="46.500178" lon="12.6013334"><ele>1432.0</ele><time>2026-05-01T09:07:01.754Z</time></trkpt><trkpt lat="46.5001279" lon="12.6014209"><ele>1432.0000000000002</ele><time>2026-05-01T09:07:02.754Z</time></trkpt><trkpt lat="46.5000748" lon="12.601511"><ele>1432.0</ele><time>2026-05-01T09:07:03.755Z</time></trkpt><trkpt lat="46.5000172" lon="12.6015865"><ele>1430.5</ele><time>2026-05-01T09:07:04.754Z</time></trkpt><trkpt lat="46.499964" lon="12.601666"><ele>1429.0</ele><time>2026-05-01T09:07:05.755Z</time></trkpt><trkpt lat="46.4999171" lon="12.601762"><ele>1427.5</ele><time>2026-05-01T09:07:06.754Z</time></trkpt><trkpt lat="46.4998652" lon="12.6018554"><ele>1426.0</ele><time>2026-05-01T09:07:07.756Z</time></trkpt><trkpt lat="46.4998127" lon="12.6019491"><ele>1424.5</ele><time>2026-05-01T09:07:08.755Z</time></trkpt><trkpt lat="46.499744" lon="12.6020306"><ele>1423.0</ele><time>2026-05-01T09:07:09.755Z</time></trkpt><trkpt lat="46.4996812" lon="12.602128"><ele>1422.0</ele><time>2026-05-01T09:07:10.755Z</time></trkpt><trkpt lat="46.499612" lon="12.6022105"><ele>1421.0</ele><time>2026-05-01T09:07:11.755Z</time></trkpt><trkpt lat="46.4995383" lon="12.6022759"><ele>1420.0</ele><time>2026-05-01T09:07:12.754Z</time></trkpt><trkpt lat="46.4994603" lon="12.6023416"><ele>1419.0</ele><time>2026-05-01T09:07:13.755Z</time></trkpt><trkpt lat="46.4993743" lon="12.6024036"><ele>1418.0</ele><time>2026-05-01T09:07:14.756Z</time></trkpt><trkpt lat="46.4992888" lon="12.6024756"><ele>1417.6000000000001</ele><time>2026-05-01T09:07:15.756Z</time></trkpt><trkpt lat="46.4992058" lon="12.6025563"><ele>1417.2</ele><time>2026-05-01T09:07:16.755Z</time></trkpt><trkpt lat="46.499116" lon="12.6026429"><ele>1416.8</ele><time>2026-05-01T09:07:17.755Z</time></trkpt><trkpt lat="46.4990155" lon="12.6027295"><ele>1416.4</ele><time>2026-05-01T09:07:18.755Z</time></trkpt><trkpt lat="46.4989178" lon="12.6028133"><ele>1416.0</ele><time>2026-05-01T09:07:19.755Z</time></trkpt><trkpt lat="46.4988305" lon="12.6028994"><ele>1417.6</ele><time>2026-05-01T09:07:20.755Z</time></trkpt><trkpt lat="46.4987459" lon="12.602985"><ele>1419.1999999999998</ele><time>2026-05-01T09:07:21.755Z</time></trkpt><trkpt lat="46.4986574" lon="12.603073"><ele>1420.8000000000002</ele><time>2026-05-01T09:07:22.754Z</time></trkpt><trkpt lat="46.498572" lon="12.6031657"><ele>1422.4</ele><time>2026-05-01T09:07:23.754Z</time></trkpt><trkpt lat="46.498487" lon="12.6032639"><ele>1424.0</ele><time>2026-05-01T09:07:24.755Z</time></trkpt><trkpt lat="46.4984013" lon="12.6033665"><ele>1424.0</ele><time>2026-05-01T09:07:25.754Z</time></trkpt><trkpt lat="46.4983254" lon="12.6034754"><ele>1424.0</ele><time>2026-05-01T09:07:26.754Z</time></trkpt><trkpt lat="46.4982616" lon="12.603594"><ele>1424.0</ele><time>2026-05-01T09:07:27.756Z</time></trkpt><trkpt lat="46.4981926" lon="12.6037015"><ele>1424.0</ele><time>2026-05-01T09:07:28.754Z</time></trkpt><trkpt lat="46.4981163" lon="12.6037989"><ele>1424.0</ele><time>2026-05-01T09:07:29.754Z</time></trkpt><trkpt lat="46.4980277" lon="12.6038865"><ele>1423.8000000000002</ele><time>2026-05-01T09:07:30.755Z</time></trkpt><trkpt lat="46.4979391" lon="12.6039614"><ele>1423.6000000000001</ele><time>2026-05-01T09:07:31.755Z</time></trkpt><trkpt lat="46.4978501" lon="12.6040305"><ele>1423.4</ele><time>2026-05-01T09:07:32.754Z</time></trkpt><trkpt lat="46.4977656" lon="12.6041088"><ele>1423.2</ele><time>2026-05-01T09:07:33.755Z</time></trkpt><trkpt lat="46.4976843" lon="12.604195"><ele>1423.0</ele><time>2026-05-01T09:07:34.756Z</time></trkpt><trkpt lat="46.4976082" lon="12.6042913"><ele>1424.0</ele><time>2026-05-01T09:07:35.755Z</time></trkpt><trkpt lat="46.4975358" lon="12.6043975"><ele>1425.0</ele><time>2026-05-01T09:07:36.755Z</time></trkpt><trkpt lat="46.4974645" lon="12.6045105"><ele>1426.0</ele><time>2026-05-01T09:07:37.755Z</time></trkpt><trkpt lat="46.4973906" lon="12.6046244"><ele>1427.0</ele><time>2026-05-01T09:07:38.754Z</time></trkpt><trkpt lat="46.4973258" lon="12.6047462"><ele>1428.0</ele><time>2026-05-01T09:07:39.755Z</time></trkpt><trkpt lat="46.4972616" lon="12.6048649"><ele>1428.0</ele><time>2026-05-01T09:07:40.754Z</time></trkpt><trkpt lat="46.4971958" lon="12.6049732"><ele>1428.0</ele><time>2026-05-01T09:07:41.755Z</time></trkpt><trkpt lat="46.4971257" lon="12.6050717"><ele>1428.0</ele><time>2026-05-01T09:07:42.754Z</time></trkpt><trkpt lat="46.4970538" lon="12.6051701"><ele>1428.0</ele><time>2026-05-01T09:07:43.755Z</time></trkpt><trkpt lat="46.4969817" lon="12.6052642"><ele>1428.0</ele><time>2026-05-01T09:07:44.755Z</time></trkpt><trkpt lat="46.4969059" lon="12.6053441"><ele>1429.0</ele><time>2026-05-01T09:07:45.756Z</time></trkpt><trkpt lat="46.4968337" lon="12.6054199"><ele>1430.0</ele><time>2026-05-01T09:07:46.755Z</time></trkpt><trkpt lat="46.4967688" lon="12.6055093"><ele>1431.0</ele><time>2026-05-01T09:07:47.756Z</time></trkpt><trkpt lat="46.4967257" lon="12.605621"><ele>1432.0</ele><time>2026-05-01T09:07:48.755Z</time></trkpt><trkpt lat="46.496687" lon="12.6057347"><ele>1433.0</ele><time>2026-05-01T09:07:49.755Z</time></trkpt><trkpt lat="46.4966323" lon="12.6058466"><ele>1434.0</ele><time>2026-05-01T09:07:50.756Z</time></trkpt><trkpt lat="46.4965832" lon="12.6059574"><ele>1434.0</ele><time>2026-05-01T09:07:51.755Z</time></trkpt><trkpt lat="46.496539" lon="12.6060655"><ele>1434.0</ele><time>2026-05-01T09:07:52.755Z</time></trkpt><trkpt lat="46.4964847" lon="12.6061592"><ele>1434.0</ele><time>2026-05-01T09:07:53.755Z</time></trkpt><trkpt lat="46.496417" lon="12.606259"><ele>1434.0</ele><time>2026-05-01T09:07:54.756Z</time></trkpt><trkpt lat="46.4963506" lon="12.6063329"><ele>1434.0</ele><time>2026-05-01T09:07:55.755Z</time></trkpt><trkpt lat="46.4962867" lon="12.6064022"><ele>1434.0</ele><time>2026-05-01T09:07:56.755Z</time></trkpt><trkpt lat="46.4962186" lon="12.6064994"><ele>1434.6666666666667</ele><time>2026-05-01T09:07:57.755Z</time></trkpt><trkpt lat="46.4961549" lon="12.6065899"><ele>1435.3333333333333</ele><time>2026-05-01T09:07:58.755Z</time></trkpt><trkpt lat="46.4961137" lon="12.6066993"><ele>1436.0</ele><time>2026-05-01T09:07:59.755Z</time></trkpt><trkpt lat="46.4960674" lon="12.606809"><ele>1436.6666666666665</ele><time>2026-05-01T09:08:00.755Z</time></trkpt><trkpt lat="46.4960146" lon="12.606909"><ele>1437.3333333333333</ele><time>2026-05-01T09:08:01.755Z</time></trkpt><trkpt lat="46.4959566" lon="12.606988"><ele>1438.0</ele><time>2026-05-01T09:08:02.755Z</time></trkpt><trkpt lat="46.495904" lon="12.6070487"><ele>1436.4</ele><time>2026-05-01T09:08:03.755Z</time></trkpt><trkpt lat="46.4958129" lon="12.6071418"><ele>1434.8000000000002</ele><time>2026-05-01T09:08:05.755Z</time></trkpt><trkpt lat="46.495766" lon="12.6072081"><ele>1433.2</ele><time>2026-05-01T09:09:31.755Z</time></trkpt><trkpt lat="46.4957011" lon="12.607328"><ele>1431.6</ele><time>2026-05-01T09:09:34.755Z</time></trkpt><trkpt lat="46.4956298" lon="12.6074305"><ele>1430.0</ele><time>2026-05-01T09:09:36.755Z</time></trkpt><trkpt lat="46.4955459" lon="12.6075596"><ele>1430.0</ele><time>2026-05-01T09:09:38.753Z</time></trkpt><trkpt lat="46.4955063" lon="12.6076348"><ele>1430.0</ele><time>2026-05-01T09:09:39.754Z</time></trkpt><trkpt lat="46.4954398" lon="12.6077828"><ele>1430.0</ele><time>2026-05-01T09:09:41.756Z</time></trkpt><trkpt lat="46.4953983" lon="12.607953"><ele>1430.0</ele><time>2026-05-01T09:09:43.755Z</time></trkpt><trkpt lat="46.4953848" lon="12.6081293"><ele>1430.0</ele><time>2026-05-01T09:09:45.756Z</time></trkpt><trkpt lat="46.4953847" lon="12.6082215"><ele>1429.6</ele><time>2026-05-01T09:09:46.755Z</time></trkpt><trkpt lat="46.4953886" lon="12.6083896"><ele>1429.2</ele><time>2026-05-01T09:09:48.756Z</time></trkpt><trkpt lat="46.4954036" lon="12.6085429"><ele>1428.8000000000002</ele><time>2026-05-01T09:09:50.755Z</time></trkpt><trkpt lat="46.4954856" lon="12.608657"><ele>1428.4</ele><time>2026-05-01T09:09:52.755Z</time></trkpt><trkpt lat="46.4955439" lon="12.6087005"><ele>1428.0</ele><time>2026-05-01T09:09:53.755Z</time></trkpt><trkpt lat="46.4956067" lon="12.608747"><ele>1428.0</ele><time>2026-05-01T09:09:54.755Z</time></trkpt><trkpt lat="46.4956774" lon="12.6087909"><ele>1428.0</ele><time>2026-05-01T09:09:55.755Z</time></trkpt><trkpt lat="46.4957455" lon="12.6088365"><ele>1428.0</ele><time>2026-05-01T09:09:56.755Z</time></trkpt><trkpt lat="46.4958176" lon="12.6088931"><ele>1428.0</ele><time>2026-05-01T09:09:57.755Z</time></trkpt><trkpt lat="46.4958762" lon="12.608973"><ele>1428.0</ele><time>2026-05-01T09:09:58.754Z</time></trkpt><trkpt lat="46.4959281" lon="12.6090725"><ele>1428.0</ele><time>2026-05-01T09:09:59.754Z</time></trkpt><trkpt lat="46.4959722" lon="12.6091731"><ele>1428.0</ele><time>2026-05-01T09:10:00.754Z</time></trkpt><trkpt lat="46.4960163" lon="12.6092735"><ele>1428.0</ele><time>2026-05-01T09:10:01.755Z</time></trkpt><trkpt lat="46.4960602" lon="12.6093606"><ele>1428.0</ele><time>2026-05-01T09:10:02.754Z</time></trkpt><trkpt lat="46.4961003" lon="12.6094584"><ele>1428.0</ele><time>2026-05-01T09:10:03.755Z</time></trkpt><trkpt lat="46.4961393" lon="12.60956"><ele>1428.0</ele><time>2026-05-01T09:10:04.753Z</time></trkpt><trkpt lat="46.496177" lon="12.6096682"><ele>1428.0</ele><time>2026-05-01T09:10:05.755Z</time></trkpt><trkpt lat="46.49622" lon="12.6097729"><ele>1428.6000000000001</ele><time>2026-05-01T09:10:06.754Z</time></trkpt><trkpt lat="46.4962715" lon="12.6098732"><ele>1429.2</ele><time>2026-05-01T09:10:07.755Z</time></trkpt><trkpt lat="46.4963252" lon="12.6099791"><ele>1429.8</ele><time>2026-05-01T09:10:08.753Z</time></trkpt><trkpt lat="46.4963823" lon="12.6100948"><ele>1430.4</ele><time>2026-05-01T09:10:09.756Z</time></trkpt><trkpt lat="46.4964412" lon="12.6102094"><ele>1431.0</ele><time>2026-05-01T09:10:10.756Z</time></trkpt><trkpt lat="46.4964965" lon="12.6103386"><ele>1432.1999999999998</ele><time>2026-05-01T09:10:11.755Z</time></trkpt><trkpt lat="46.4965436" lon="12.6104807"><ele>1433.3999999999999</ele><time>2026-05-01T09:10:12.755Z</time></trkpt><trkpt lat="46.4965774" lon="12.6106338"><ele>1434.6</ele><time>2026-05-01T09:10:13.755Z</time></trkpt><trkpt lat="46.496613" lon="12.6107928"><ele>1435.8</ele><time>2026-05-01T09:10:14.755Z</time></trkpt><trkpt lat="46.4966494" lon="12.6109444"><ele>1437.0</ele><time>2026-05-01T09:10:15.755Z</time></trkpt><trkpt lat="46.4967105" lon="12.6110859"><ele>1438.0</ele><time>2026-05-01T09:10:16.756Z</time></trkpt><trkpt lat="46.4967743" lon="12.6112091"><ele>1439.0</ele><time>2026-05-01T09:10:17.755Z</time></trkpt><trkpt lat="46.4968068" lon="12.6113393"><ele>1440.0</ele><time>2026-05-01T09:10:18.754Z</time></trkpt><trkpt lat="46.4968168" lon="12.6114756"><ele>1441.0</ele><time>2026-05-01T09:10:19.756Z</time></trkpt><trkpt lat="46.4968254" lon="12.6116339"><ele>1442.0</ele><time>2026-05-01T09:10:20.755Z</time></trkpt><trkpt lat="46.4968635" lon="12.6117838"><ele>1442.0</ele><time>2026-05-01T09:10:21.756Z</time></trkpt><trkpt lat="46.4969148" lon="12.6119424"><ele>1442.0</ele><time>2026-05-01T09:10:22.755Z</time></trkpt><trkpt lat="46.4969708" lon="12.6120863"><ele>1442.0</ele><time>2026-05-01T09:10:23.755Z</time></trkpt><trkpt lat="46.4970227" lon="12.6122227"><ele>1442.0</ele><time>2026-05-01T09:10:24.756Z</time></trkpt><trkpt lat="46.4970739" lon="12.612353"><ele>1442.0</ele><time>2026-05-01T09:10:25.755Z</time></trkpt><trkpt lat="46.4971265" lon="12.6124834"><ele>1442.0</ele><time>2026-05-01T09:10:26.755Z</time></trkpt><trkpt lat="46.4971743" lon="12.6126119"><ele>1442.0</ele><time>2026-05-01T09:10:27.755Z</time></trkpt><trkpt lat="46.4972231" lon="12.6127372"><ele>1442.0</ele><time>2026-05-01T09:10:28.755Z</time></trkpt><trkpt lat="46.4972727" lon="12.612863"><ele>1442.0</ele><time>2026-05-01T09:10:29.755Z</time></trkpt><trkpt lat="46.4973171" lon="12.6129953"><ele>1442.0</ele><time>2026-05-01T09:10:30.753Z</time></trkpt><trkpt lat="46.497348" lon="12.6131116"><ele>1442.1666666666667</ele><time>2026-05-01T09:10:31.754Z</time></trkpt><trkpt lat="46.4973753" lon="12.6132307"><ele>1442.3333333333335</ele><time>2026-05-01T09:10:32.754Z</time></trkpt><trkpt lat="46.4973703" lon="12.6133457"><ele>1442.5</ele><time>2026-05-01T09:10:33.756Z</time></trkpt><trkpt lat="46.4973637" lon="12.6134639"><ele>1442.6666666666667</ele><time>2026-05-01T09:10:34.756Z</time></trkpt><trkpt lat="46.49736" lon="12.6135732"><ele>1442.8333333333333</ele><time>2026-05-01T09:10:35.755Z</time></trkpt><trkpt lat="46.4973679" lon="12.6136727"><ele>1443.0</ele><time>2026-05-01T09:10:36.754Z</time></trkpt><trkpt lat="46.4974276" lon="12.6138189"><ele>1443.1666666666667</ele><time>2026-05-01T09:10:38.755Z</time></trkpt><trkpt lat="46.4974857" lon="12.6138666"><ele>1443.3333333333333</ele><time>2026-05-01T09:10:39.755Z</time></trkpt><trkpt lat="46.4975714" lon="12.6139045"><ele>1443.5</ele><time>2026-05-01T09:10:40.755Z</time></trkpt><trkpt lat="46.4976499" lon="12.6139509"><ele>1443.6666666666665</ele><time>2026-05-01T09:10:41.754Z</time></trkpt><trkpt lat="46.4977153" lon="12.6140136"><ele>1443.8333333333333</ele><time>2026-05-01T09:10:42.755Z</time></trkpt><trkpt lat="46.4977799" lon="12.6141072"><ele>1444.0</ele><time>2026-05-01T09:10:43.755Z</time></trkpt><trkpt lat="46.4978457" lon="12.6142028"><ele>1444.4</ele><time>2026-05-01T09:10:44.756Z</time></trkpt><trkpt lat="46.4979232" lon="12.6142882"><ele>1444.8000000000002</ele><time>2026-05-01T09:10:45.753Z</time></trkpt><trkpt lat="46.4979908" lon="12.6143813"><ele>1445.1999999999998</ele><time>2026-05-01T09:10:46.755Z</time></trkpt><trkpt lat="46.4980492" lon="12.6144906"><ele>1445.6</ele><time>2026-05-01T09:10:47.754Z</time></trkpt><trkpt lat="46.4981029" lon="12.614608"><ele>1446.0</ele><time>2026-05-01T09:10:48.756Z</time></trkpt><trkpt lat="46.4981499" lon="12.6147396"><ele>1446.0</ele><time>2026-05-01T09:10:49.754Z</time></trkpt><trkpt lat="46.4981981" lon="12.614871"><ele>1446.0</ele><time>2026-05-01T09:10:50.756Z</time></trkpt><trkpt lat="46.4982532" lon="12.6150025"><ele>1446.0</ele><time>2026-05-01T09:10:51.756Z</time></trkpt><trkpt lat="46.4983191" lon="12.6151319"><ele>1446.0</ele><time>2026-05-01T09:10:52.754Z</time></trkpt><trkpt lat="46.4983849" lon="12.6152603"><ele>1446.0</ele><time>2026-05-01T09:10:53.753Z</time></trkpt><trkpt lat="46.4984463" lon="12.6153855"><ele>1448.8</ele><time>2026-05-01T09:10:54.754Z</time></trkpt><trkpt lat="46.4985107" lon="12.6155166"><ele>1451.6</ele><time>2026-05-01T09:10:55.755Z</time></trkpt><trkpt lat="46.4985711" lon="12.6156486"><ele>1454.4</ele><time>2026-05-01T09:10:56.756Z</time></trkpt><trkpt lat="46.4986327" lon="12.6157779"><ele>1457.2</ele><time>2026-05-01T09:10:57.755Z</time></trkpt><trkpt lat="46.4986947" lon="12.6159079"><ele>1460.0</ele><time>2026-05-01T09:10:58.755Z</time></trkpt><trkpt lat="46.498751" lon="12.6160398"><ele>1460.6</ele><time>2026-05-01T09:10:59.753Z</time></trkpt><trkpt lat="46.4988069" lon="12.6161703"><ele>1461.2</ele><time>2026-05-01T09:11:00.755Z</time></trkpt><trkpt lat="46.4988616" lon="12.6162976"><ele>1461.8000000000002</ele><time>2026-05-01T09:11:01.755Z</time></trkpt><trkpt lat="46.4989216" lon="12.6164231"><ele>1462.4</ele><time>2026-05-01T09:11:02.755Z</time></trkpt><trkpt lat="46.4989901" lon="12.616537"><ele>1463.0</ele><time>2026-05-01T09:11:03.755Z</time></trkpt><trkpt lat="46.4990644" lon="12.6166491"><ele>1463.0</ele><time>2026-05-01T09:11:04.755Z</time></trkpt><trkpt lat="46.4991248" lon="12.6167595"><ele>1463.0</ele><time>2026-05-01T09:11:05.756Z</time></trkpt><trkpt lat="46.4991832" lon="12.6168801"><ele>1463.0</ele><time>2026-05-01T09:11:06.754Z</time></trkpt><trkpt lat="46.4992501" lon="12.6169909"><ele>1463.0</ele><time>2026-05-01T09:11:07.755Z</time></trkpt><trkpt lat="46.499328" lon="12.6170964"><ele>1463.0</ele><time>2026-05-01T09:11:08.756Z</time></trkpt><trkpt lat="46.499415" lon="12.6171925"><ele>1465.5</ele><time>2026-05-01T09:11:09.755Z</time></trkpt><trkpt lat="46.4995167" lon="12.6172687"><ele>1468.0</ele><time>2026-05-01T09:11:10.755Z</time></trkpt><trkpt lat="46.4996299" lon="12.6173121"><ele>1470.5</ele><time>2026-05-01T09:11:11.755Z</time></trkpt><trkpt lat="46.4997534" lon="12.6173283"><ele>1473.0</ele><time>2026-05-01T09:11:12.754Z</time></trkpt><trkpt lat="46.49986" lon="12.6173544"><ele>1473.0</ele><time>2026-05-01T09:11:13.756Z</time></trkpt><trkpt lat="46.4999596" lon="12.6174044"><ele>1473.0</ele><time>2026-05-01T09:11:14.754Z</time></trkpt><trkpt lat="46.500052" lon="12.6174793"><ele>1473.0</ele><time>2026-05-01T09:11:15.756Z</time></trkpt><trkpt lat="46.5001397" lon="12.6175514"><ele>1473.0</ele><time>2026-05-01T09:11:16.754Z</time></trkpt><trkpt lat="46.5002236" lon="12.6175972"><ele>1473.0</ele><time>2026-05-01T09:11:17.756Z</time></trkpt><trkpt lat="46.500305" lon="12.6176307"><ele>1473.0</ele><time>2026-05-01T09:11:18.754Z</time></trkpt><trkpt lat="46.5003772" lon="12.6176401"><ele>1473.0</ele><time>2026-05-01T09:11:19.755Z</time></trkpt><trkpt lat="46.5004515" lon="12.6176077"><ele>1473.0</ele><time>2026-05-01T09:11:20.756Z</time></trkpt><trkpt lat="46.5005122" lon="12.6175376"><ele>1473.0</ele><time>2026-05-01T09:11:21.754Z</time></trkpt><trkpt lat="46.5005609" lon="12.6174268"><ele>1473.0</ele><time>2026-05-01T09:11:22.755Z</time></trkpt><trkpt lat="46.5006012" lon="12.6172863"><ele>1473.0</ele><time>2026-05-01T09:11:23.756Z</time></trkpt><trkpt lat="46.5006403" lon="12.6171324"><ele>1477.8000000000002</ele><time>2026-05-01T09:11:24.753Z</time></trkpt><trkpt lat="46.5006892" lon="12.6169898"><ele>1482.6</ele><time>2026-05-01T09:11:25.755Z</time></trkpt><trkpt lat="46.5007273" lon="12.6168434"><ele>1487.4</ele><time>2026-05-01T09:11:26.755Z</time></trkpt><trkpt lat="46.5007523" lon="12.6166935"><ele>1492.1999999999998</ele><time>2026-05-01T09:11:27.755Z</time></trkpt><trkpt lat="46.5007782" lon="12.6165743"><ele>1497.0</ele><time>2026-05-01T09:11:28.754Z</time></trkpt><trkpt lat="46.5007965" lon="12.6164617"><ele>1497.0</ele><time>2026-05-01T09:11:29.754Z</time></trkpt><trkpt lat="46.5008368" lon="12.6163032"><ele>1497.0</ele><time>2026-05-01T09:11:31.754Z</time></trkpt><trkpt lat="46.5008461" lon="12.6161809"><ele>1497.0</ele><time>2026-05-01T09:11:32.756Z</time></trkpt><trkpt lat="46.5008408" lon="12.6160398"><ele>1497.0</ele><time>2026-05-01T09:11:33.755Z</time></trkpt><trkpt lat="46.5008398" lon="12.6159034"><ele>1497.0</ele><time>2026-05-01T09:11:34.754Z</time></trkpt><trkpt lat="46.5008443" lon="12.6157574"><ele>1496.3999999999999</ele><time>2026-05-01T09:11:35.755Z</time></trkpt><trkpt lat="46.5008487" lon="12.6156216"><ele>1495.8</ele><time>2026-05-01T09:11:36.753Z</time></trkpt><trkpt lat="46.5008449" lon="12.6154869"><ele>1495.2</ele><time>2026-05-01T09:11:37.755Z</time></trkpt><trkpt lat="46.5008366" lon="12.6153544"><ele>1494.6</ele><time>2026-05-01T09:11:38.754Z</time></trkpt><trkpt lat="46.5008338" lon="12.6152237"><ele>1494.0</ele><time>2026-05-01T09:11:39.756Z</time></trkpt><trkpt lat="46.5008382" lon="12.6150947"><ele>1492.5</ele><time>2026-05-01T09:11:40.755Z</time></trkpt><trkpt lat="46.500847" lon="12.6149662"><ele>1491.0</ele><time>2026-05-01T09:11:41.756Z</time></trkpt><trkpt lat="46.5008605" lon="12.6148393"><ele>1489.5</ele><time>2026-05-01T09:11:42.756Z</time></trkpt><trkpt lat="46.5008745" lon="12.614714"><ele>1488.0</ele><time>2026-05-01T09:11:43.756Z</time></trkpt><trkpt lat="46.5008914" lon="12.614581"><ele>1486.5</ele><time>2026-05-01T09:11:44.756Z</time></trkpt><trkpt lat="46.5009071" lon="12.6144535"><ele>1485.0</ele><time>2026-05-01T09:11:45.755Z</time></trkpt><trkpt lat="46.5009172" lon="12.6143214"><ele>1484.0</ele><time>2026-05-01T09:11:46.755Z</time></trkpt><trkpt lat="46.5009165" lon="12.6141945"><ele>1483.0</ele><time>2026-05-01T09:11:47.755Z</time></trkpt><trkpt lat="46.5009101" lon="12.6140759"><ele>1482.0</ele><time>2026-05-01T09:11:48.756Z</time></trkpt><trkpt lat="46.5009059" lon="12.6139475"><ele>1481.0</ele><time>2026-05-01T09:11:49.756Z</time></trkpt><trkpt lat="46.5009152" lon="12.6138178"><ele>1480.0</ele><time>2026-05-01T09:11:50.754Z</time></trkpt><trkpt lat="46.5009261" lon="12.6136931"><ele>1479.0</ele><time>2026-05-01T09:11:51.756Z</time></trkpt><trkpt lat="46.5009328" lon="12.6135689"><ele>1478.3333333333333</ele><time>2026-05-01T09:11:52.755Z</time></trkpt><trkpt lat="46.5009317" lon="12.6134441"><ele>1477.6666666666667</ele><time>2026-05-01T09:11:53.755Z</time></trkpt><trkpt lat="46.5009252" lon="12.613316"><ele>1477.0</ele><time>2026-05-01T09:11:54.756Z</time></trkpt><trkpt lat="46.5009174" lon="12.6131911"><ele>1476.3333333333335</ele><time>2026-05-01T09:11:55.755Z</time></trkpt><trkpt lat="46.5009122" lon="12.6130704"><ele>1475.6666666666667</ele><time>2026-05-01T09:11:56.756Z</time></trkpt><trkpt lat="46.5009067" lon="12.6129391"><ele>1475.0</ele><time>2026-05-01T09:11:57.754Z</time></trkpt><trkpt lat="46.5008993" lon="12.6128107"><ele>1473.8333333333335</ele><time>2026-05-01T09:11:58.755Z</time></trkpt><trkpt lat="46.500894" lon="12.612681"><ele>1472.6666666666667</ele><time>2026-05-01T09:11:59.755Z</time></trkpt><trkpt lat="46.5008994" lon="12.6125513"><ele>1471.5</ele><time>2026-05-01T09:12:00.756Z</time></trkpt><trkpt lat="46.5008997" lon="12.6124268"><ele>1470.3333333333333</ele><time>2026-05-01T09:12:01.755Z</time></trkpt><trkpt lat="46.5009109" lon="12.6123031"><ele>1469.1666666666665</ele><time>2026-05-01T09:12:02.756Z</time></trkpt><trkpt lat="46.5009213" lon="12.6121775"><ele>1468.0</ele><time>2026-05-01T09:12:03.755Z</time></trkpt><trkpt lat="46.5009403" lon="12.6120548"><ele>1465.4</ele><time>2026-05-01T09:12:04.756Z</time></trkpt><trkpt lat="46.5009656" lon="12.6119237"><ele>1462.8000000000002</ele><time>2026-05-01T09:12:05.756Z</time></trkpt><trkpt lat="46.5009916" lon="12.6117962"><ele>1460.2</ele><time>2026-05-01T09:12:06.754Z</time></trkpt><trkpt lat="46.5010146" lon="12.6116696"><ele>1457.6</ele><time>2026-05-01T09:12:07.756Z</time></trkpt><trkpt lat="46.5010512" lon="12.6115508"><ele>1455.0</ele><time>2026-05-01T09:12:08.755Z</time></trkpt><trkpt lat="46.5010802" lon="12.6114348"><ele>1455.0</ele><time>2026-05-01T09:12:09.756Z</time></trkpt><trkpt lat="46.5011057" lon="12.6113198"><ele>1455.0</ele><time>2026-05-01T09:12:10.753Z</time></trkpt><trkpt lat="46.5011313" lon="12.6112012"><ele>1455.0</ele><time>2026-05-01T09:12:11.756Z</time></trkpt><trkpt lat="46.5011563" lon="12.6110738"><ele>1455.0</ele><time>2026-05-01T09:12:12.755Z</time></trkpt><trkpt lat="46.501181" lon="12.6109569"><ele>1455.0</ele><time>2026-05-01T09:12:13.754Z</time></trkpt><trkpt lat="46.501219" lon="12.6108512"><ele>1455.0</ele><time>2026-05-01T09:12:14.755Z</time></trkpt><trkpt lat="46.5012468" lon="12.6107358"><ele>1457.5</ele><time>2026-05-01T09:12:15.754Z</time></trkpt><trkpt lat="46.5012759" lon="12.6106221"><ele>1460.0</ele><time>2026-05-01T09:12:16.755Z</time></trkpt><trkpt lat="46.5012986" lon="12.6104989"><ele>1462.5</ele><time>2026-05-01T09:12:17.755Z</time></trkpt><trkpt lat="46.5013275" lon="12.6103877"><ele>1465.0</ele><time>2026-05-01T09:12:18.755Z</time></trkpt><trkpt lat="46.5013627" lon="12.6102773"><ele>1467.5</ele><time>2026-05-01T09:12:19.755Z</time></trkpt><trkpt lat="46.5014024" lon="12.6101579"><ele>1470.0</ele><time>2026-05-01T09:12:20.756Z</time></trkpt><trkpt lat="46.5014452" lon="12.6100518"><ele>1470.0</ele><time>2026-05-01T09:12:21.755Z</time></trkpt><trkpt lat="46.5014916" lon="12.6099449"><ele>1470.0</ele><time>2026-05-01T09:12:22.755Z</time></trkpt><trkpt lat="46.5015481" lon="12.6098445"><ele>1470.0</ele><time>2026-05-01T09:12:23.755Z</time></trkpt><trkpt lat="46.5016034" lon="12.6097449"><ele>1470.0</ele><time>2026-05-01T09:12:24.755Z</time></trkpt><trkpt lat="46.501662" lon="12.6096519"><ele>1470.0</ele><time>2026-05-01T09:12:25.755Z</time></trkpt><trkpt lat="46.501725" lon="12.6095707"><ele>1470.0</ele><time>2026-05-01T09:12:26.755Z</time></trkpt><trkpt lat="46.501796" lon="12.609489"><ele>1470.1666666666667</ele><time>2026-05-01T09:12:27.755Z</time></trkpt><trkpt lat="46.5018642" lon="12.6094063"><ele>1470.3333333333333</ele><time>2026-05-01T09:12:28.756Z</time></trkpt><trkpt lat="46.5019296" lon="12.6093184"><ele>1470.5</ele><time>2026-05-01T09:12:29.756Z</time></trkpt><trkpt lat="46.5019969" lon="12.6092385"><ele>1470.6666666666665</ele><time>2026-05-01T09:12:30.756Z</time></trkpt><trkpt lat="46.5020611" lon="12.6091547"><ele>1470.8333333333333</ele><time>2026-05-01T09:12:31.754Z</time></trkpt><trkpt lat="46.5021269" lon="12.6090688"><ele>1471.0</ele><time>2026-05-01T09:12:32.754Z</time></trkpt><trkpt lat="46.5021974" lon="12.6089979"><ele>1471.0</ele><time>2026-05-01T09:12:33.755Z</time></trkpt><trkpt lat="46.50227" lon="12.6089195"><ele>1471.0</ele><time>2026-05-01T09:12:34.756Z</time></trkpt><trkpt lat="46.5023383" lon="12.6088412"><ele>1471.0</ele><time>2026-05-01T09:12:35.756Z</time></trkpt><trkpt lat="46.502409" lon="12.6087666"><ele>1471.0</ele><time>2026-05-01T09:12:36.755Z</time></trkpt><trkpt lat="46.5024824" lon="12.608697"><ele>1471.0</ele><time>2026-05-01T09:12:37.755Z</time></trkpt><trkpt lat="46.5025514" lon="12.6086235"><ele>1471.0</ele><time>2026-05-01T09:12:38.755Z</time></trkpt><trkpt lat="46.5026259" lon="12.6085568"><ele>1469.1666666666665</ele><time>2026-05-01T09:12:39.756Z</time></trkpt><trkpt lat="46.5027039" lon="12.6085041"><ele>1467.3333333333333</ele><time>2026-05-01T09:12:40.756Z</time></trkpt><trkpt lat="46.5027746" lon="12.6084407"><ele>1465.5</ele><time>2026-05-01T09:12:41.755Z</time></trkpt><trkpt lat="46.5028465" lon="12.6083773"><ele>1463.6666666666667</ele><time>2026-05-01T09:12:42.755Z</time></trkpt><trkpt lat="46.5029105" lon="12.6083211"><ele>1461.8333333333335</ele><time>2026-05-01T09:12:43.755Z</time></trkpt><trkpt lat="46.5029745" lon="12.6082446"><ele>1460.0</ele><time>2026-05-01T09:12:44.754Z</time></trkpt><trkpt lat="46.5030312" lon="12.6081693"><ele>1460.0</ele><time>2026-05-01T09:12:45.754Z</time></trkpt><trkpt lat="46.5030906" lon="12.6080967"><ele>1460.0</ele><time>2026-05-01T09:12:46.755Z</time></trkpt><trkpt lat="46.5031567" lon="12.6080365"><ele>1460.0</ele><time>2026-05-01T09:12:47.755Z</time></trkpt><trkpt lat="46.5032242" lon="12.6079772"><ele>1460.0</ele><time>2026-05-01T09:12:48.755Z</time></trkpt><trkpt lat="46.5032912" lon="12.6079218"><ele>1460.0</ele><time>2026-05-01T09:12:49.754Z</time></trkpt><trkpt lat="46.5033625" lon="12.6078632"><ele>1460.0</ele><time>2026-05-01T09:12:50.756Z</time></trkpt><trkpt lat="46.5034279" lon="12.6078011"><ele>1459.1666666666667</ele><time>2026-05-01T09:12:51.755Z</time></trkpt><trkpt lat="46.5034915" lon="12.6077399"><ele>1458.3333333333335</ele><time>2026-05-01T09:12:52.755Z</time></trkpt><trkpt lat="46.5035554" lon="12.6076603"><ele>1457.5</ele><time>2026-05-01T09:12:53.755Z</time></trkpt><trkpt lat="46.5036189" lon="12.6075969"><ele>1456.6666666666667</ele><time>2026-05-01T09:12:54.755Z</time></trkpt><trkpt lat="46.5036821" lon="12.6075126"><ele>1455.8333333333333</ele><time>2026-05-01T09:12:55.755Z</time></trkpt><trkpt lat="46.5037443" lon="12.6074341"><ele>1455.0</ele><time>2026-05-01T09:12:56.755Z</time></trkpt><trkpt lat="46.5038041" lon="12.6073501"><ele>1455.0</ele><time>2026-05-01T09:12:57.754Z</time></trkpt><trkpt lat="46.5038722" lon="12.6072761"><ele>1455.0</ele><time>2026-05-01T09:12:58.755Z</time></trkpt><trkpt lat="46.5039329" lon="12.607206"><ele>1455.0</ele><time>2026-05-01T09:12:59.756Z</time></trkpt><trkpt lat="46.5040078" lon="12.6071359"><ele>1455.0</ele><time>2026-05-01T09:13:00.755Z</time></trkpt><trkpt lat="46.5040778" lon="12.6070784"><ele>1455.0</ele><time>2026-05-01T09:13:01.755Z</time></trkpt><trkpt lat="46.5041464" lon="12.6070186"><ele>1455.0</ele><time>2026-05-01T09:13:02.755Z</time></trkpt><trkpt lat="46.5042129" lon="12.6069563"><ele>1453.3333333333333</ele><time>2026-05-01T09:13:03.756Z</time></trkpt><trkpt lat="46.5042814" lon="12.6068975"><ele>1451.6666666666667</ele><time>2026-05-01T09:13:04.755Z</time></trkpt><trkpt lat="46.5043582" lon="12.6068425"><ele>1450.0</ele><time>2026-05-01T09:13:05.755Z</time></trkpt><trkpt lat="46.5044311" lon="12.6067845"><ele>1448.3333333333335</ele><time>2026-05-01T09:13:06.755Z</time></trkpt><trkpt lat="46.5044983" lon="12.606729"><ele>1446.6666666666667</ele><time>2026-05-01T09:13:07.755Z</time></trkpt><trkpt lat="46.5045702" lon="12.6066647"><ele>1445.0</ele><time>2026-05-01T09:13:08.755Z</time></trkpt><trkpt lat="46.5046457" lon="12.6065996"><ele>1445.0</ele><time>2026-05-01T09:13:09.754Z</time></trkpt><trkpt lat="46.5047207" lon="12.606535"><ele>1445.0</ele><time>2026-05-01T09:13:10.755Z</time></trkpt><trkpt lat="46.5047914" lon="12.6064796"><ele>1445.0</ele><time>2026-05-01T09:13:11.756Z</time></trkpt><trkpt lat="46.5048578" lon="12.6064345"><ele>1445.0</ele><time>2026-05-01T09:13:12.755Z</time></trkpt><trkpt lat="46.504927" lon="12.6063881"><ele>1445.0</ele><time>2026-05-01T09:13:13.756Z</time></trkpt><trkpt lat="46.5049942" lon="12.6063473"><ele>1445.0</ele><time>2026-05-01T09:13:14.755Z</time></trkpt><trkpt lat="46.5050597" lon="12.6063148"><ele>1445.0</ele><time>2026-05-01T09:13:15.754Z</time></trkpt><trkpt lat="46.5051195" lon="12.6062747"><ele>1445.0</ele><time>2026-05-01T09:13:16.754Z</time></trkpt><trkpt lat="46.5051802" lon="12.6062256"><ele>1445.0</ele><time>2026-05-01T09:13:17.755Z</time></trkpt><trkpt lat="46.5052376" lon="12.6061851"><ele>1445.0</ele><time>2026-05-01T09:13:18.755Z</time></trkpt><trkpt lat="46.5052954" lon="12.6061364"><ele>1445.0</ele><time>2026-05-01T09:13:19.756Z</time></trkpt><trkpt lat="46.5053471" lon="12.6060812"><ele>1445.0</ele><time>2026-05-01T09:13:20.756Z</time></trkpt><trkpt lat="46.5054273" lon="12.6059399"><ele>1443.2857142857142</ele><time>2026-05-01T09:13:22.755Z</time></trkpt><trkpt lat="46.5054639" lon="12.6058622"><ele>1441.5714285714284</ele><time>2026-05-01T09:13:23.756Z</time></trkpt><trkpt lat="46.5055003" lon="12.6057863"><ele>1439.8571428571427</ele><time>2026-05-01T09:13:24.756Z</time></trkpt><trkpt lat="46.505546" lon="12.6057075"><ele>1438.142857142857</ele><time>2026-05-01T09:13:25.755Z</time></trkpt><trkpt lat="46.5055859" lon="12.6056311"><ele>1436.4285714285716</ele><time>2026-05-01T09:13:26.754Z</time></trkpt><trkpt lat="46.5056422" lon="12.6055673"><ele>1434.7142857142856</ele><time>2026-05-01T09:13:27.755Z</time></trkpt><trkpt lat="46.5057104" lon="12.6054981"><ele>1433.0</ele><time>2026-05-01T09:13:28.756Z</time></trkpt><trkpt lat="46.505775" lon="12.6054338"><ele>1433.0</ele><time>2026-05-01T09:13:29.756Z</time></trkpt><trkpt lat="46.5058405" lon="12.6053682"><ele>1433.0</ele><time>2026-05-01T09:13:30.755Z</time></trkpt><trkpt lat="46.5058965" lon="12.6052928"><ele>1433.0</ele><time>2026-05-01T09:13:31.756Z</time></trkpt><trkpt lat="46.5059585" lon="12.6052183"><ele>1433.0</ele><time>2026-05-01T09:13:32.754Z</time></trkpt><trkpt lat="46.5060205" lon="12.6051426"><ele>1433.0</ele><time>2026-05-01T09:13:33.756Z</time></trkpt><trkpt lat="46.506076" lon="12.6050635"><ele>1433.0</ele><time>2026-05-01T09:13:34.755Z</time></trkpt><trkpt lat="46.5061276" lon="12.6049727"><ele>1432.6666666666667</ele><time>2026-05-01T09:13:35.755Z</time></trkpt><trkpt lat="46.5061782" lon="12.6048752"><ele>1432.3333333333335</ele><time>2026-05-01T09:13:36.755Z</time></trkpt><trkpt lat="46.5062204" lon="12.6047615"><ele>1432.0</ele><time>2026-05-01T09:13:37.755Z</time></trkpt><trkpt lat="46.5062639" lon="12.6046501"><ele>1431.6666666666667</ele><time>2026-05-01T09:13:38.756Z</time></trkpt><trkpt lat="46.5063023" lon="12.6045385"><ele>1431.3333333333333</ele><time>2026-05-01T09:13:39.754Z</time></trkpt><trkpt lat="46.506339" lon="12.6044158"><ele>1431.0</ele><time>2026-05-01T09:13:40.755Z</time></trkpt><trkpt lat="46.5063822" lon="12.6043061"><ele>1426.6</ele><time>2026-05-01T09:13:41.755Z</time></trkpt><trkpt lat="46.5064317" lon="12.6041982"><ele>1422.1999999999998</ele><time>2026-05-01T09:13:42.756Z</time></trkpt><trkpt lat="46.5064875" lon="12.6040888"><ele>1417.8000000000002</ele><time>2026-05-01T09:13:43.756Z</time></trkpt><trkpt lat="46.506543" lon="12.6039773"><ele>1413.4</ele><time>2026-05-01T09:13:44.755Z</time></trkpt><trkpt lat="46.5065881" lon="12.603859"><ele>1409.0</ele><time>2026-05-01T09:13:45.755Z</time></trkpt><trkpt lat="46.5066302" lon="12.6037429"><ele>1406.4</ele><time>2026-05-01T09:13:46.755Z</time></trkpt><trkpt lat="46.5066689" lon="12.6036222"><ele>1403.8000000000002</ele><time>2026-05-01T09:13:47.755Z</time></trkpt><trkpt lat="46.5067096" lon="12.6035043"><ele>1401.1999999999998</ele><time>2026-05-01T09:13:48.755Z</time></trkpt><trkpt lat="46.5067599" lon="12.603388"><ele>1398.6</ele><time>2026-05-01T09:13:49.756Z</time></trkpt><trkpt lat="46.5068168" lon="12.6032789"><ele>1396.0</ele><time>2026-05-01T09:13:50.756Z</time></trkpt><trkpt lat="46.5068811" lon="12.603174"><ele>1396.0</ele><time>2026-05-01T09:13:51.754Z</time></trkpt><trkpt lat="46.5069533" lon="12.6030805"><ele>1396.0</ele><time>2026-05-01T09:13:52.754Z</time></trkpt><trkpt lat="46.5070315" lon="12.6030029"><ele>1396.0</ele><time>2026-05-01T09:13:53.755Z</time></trkpt><trkpt lat="46.5071075" lon="12.6029493"><ele>1396.0</ele><time>2026-05-01T09:13:54.755Z</time></trkpt><trkpt lat="46.5071931" lon="12.6029157"><ele>1396.0</ele><time>2026-05-01T09:13:55.755Z</time></trkpt><trkpt lat="46.5072782" lon="12.602911"><ele>1397.1666666666665</ele><time>2026-05-01T09:13:56.755Z</time></trkpt><trkpt lat="46.5073646" lon="12.6029319"><ele>1398.3333333333333</ele><time>2026-05-01T09:13:57.755Z</time></trkpt><trkpt lat="46.5074481" lon="12.6029573"><ele>1399.5</ele><time>2026-05-01T09:13:58.755Z</time></trkpt><trkpt lat="46.5075302" lon="12.6029825"><ele>1400.6666666666667</ele><time>2026-05-01T09:13:59.755Z</time></trkpt><trkpt lat="46.5076134" lon="12.6029901"><ele>1401.8333333333335</ele><time>2026-05-01T09:14:00.755Z</time></trkpt><trkpt lat="46.5076962" lon="12.6029846"><ele>1403.0</ele><time>2026-05-01T09:14:01.756Z</time></trkpt><trkpt lat="46.5077816" lon="12.6029609"><ele>1403.0</ele><time>2026-05-01T09:14:02.754Z</time></trkpt><trkpt lat="46.5078613" lon="12.6029187"><ele>1403.0</ele><time>2026-05-01T09:14:03.755Z</time></trkpt><trkpt lat="46.5079435" lon="12.6028898"><ele>1403.0</ele><time>2026-05-01T09:14:04.755Z</time></trkpt><trkpt lat="46.5080321" lon="12.6028909"><ele>1403.0</ele><time>2026-05-01T09:14:05.756Z</time></trkpt><trkpt lat="46.50812" lon="12.6029131"><ele>1403.0</ele><time>2026-05-01T09:14:06.756Z</time></trkpt><trkpt lat="46.5082007" lon="12.6029571"><ele>1403.0</ele><time>2026-05-01T09:14:07.756Z</time></trkpt><trkpt lat="46.5082836" lon="12.6030058"><ele>1403.6666666666667</ele><time>2026-05-01T09:14:08.755Z</time></trkpt><trkpt lat="46.5083658" lon="12.6030467"><ele>1404.3333333333335</ele><time>2026-05-01T09:14:09.756Z</time></trkpt><trkpt lat="46.5084456" lon="12.603088"><ele>1405.0</ele><time>2026-05-01T09:14:10.756Z</time></trkpt><trkpt lat="46.5085304" lon="12.6031351"><ele>1405.6666666666667</ele><time>2026-05-01T09:14:11.755Z</time></trkpt><trkpt lat="46.5086169" lon="12.6031715"><ele>1406.3333333333333</ele><time>2026-05-01T09:14:12.756Z</time></trkpt><trkpt lat="46.5087014" lon="12.6032051"><ele>1407.0</ele><time>2026-05-01T09:14:13.754Z</time></trkpt><trkpt lat="46.50879" lon="12.6032234"><ele>1400.8</ele><time>2026-05-01T09:14:14.756Z</time></trkpt><trkpt lat="46.5088771" lon="12.6032578"><ele>1394.6</ele><time>2026-05-01T09:14:15.755Z</time></trkpt><trkpt lat="46.5089633" lon="12.6032931"><ele>1388.3999999999999</ele><time>2026-05-01T09:14:16.754Z</time></trkpt><trkpt lat="46.5090481" lon="12.6033273"><ele>1382.1999999999998</ele><time>2026-05-01T09:14:17.755Z</time></trkpt><trkpt lat="46.5091288" lon="12.6033729"><ele>1376.0</ele><time>2026-05-01T09:14:18.754Z</time></trkpt><trkpt lat="46.5092028" lon="12.6034637"><ele>1376.0</ele><time>2026-05-01T09:14:19.754Z</time></trkpt><trkpt lat="46.5092758" lon="12.6035426"><ele>1376.0</ele><time>2026-05-01T09:14:20.756Z</time></trkpt><trkpt lat="46.5093463" lon="12.6036153"><ele>1376.0</ele><time>2026-05-01T09:14:21.756Z</time></trkpt><trkpt lat="46.5094159" lon="12.6036903"><ele>1376.0</ele><time>2026-05-01T09:14:22.755Z</time></trkpt><trkpt lat="46.5094841" lon="12.6037695"><ele>1376.0</ele><time>2026-05-01T09:14:23.756Z</time></trkpt><trkpt lat="46.5095567" lon="12.6038383"><ele>1376.0</ele><time>2026-05-01T09:14:24.756Z</time></trkpt><trkpt lat="46.5096356" lon="12.603889"><ele>1379.0</ele><time>2026-05-01T09:14:25.755Z</time></trkpt><trkpt lat="46.5097166" lon="12.6039129"><ele>1382.0</ele><time>2026-05-01T09:14:26.756Z</time></trkpt><trkpt lat="46.5097973" lon="12.6039162"><ele>1385.0</ele><time>2026-05-01T09:14:27.755Z</time></trkpt><trkpt lat="46.5098732" lon="12.6038936"><ele>1388.0</ele><time>2026-05-01T09:14:28.755Z</time></trkpt><trkpt lat="46.5099469" lon="12.6038262"><ele>1391.0</ele><time>2026-05-01T09:14:29.756Z</time></trkpt><trkpt lat="46.5100234" lon="12.6037748"><ele>1394.0</ele><time>2026-05-01T09:14:30.754Z</time></trkpt><trkpt lat="46.5100923" lon="12.603719"><ele>1394.0</ele><time>2026-05-01T09:14:31.756Z</time></trkpt><trkpt lat="46.5101643" lon="12.603668"><ele>1394.0</ele><time>2026-05-01T09:14:32.756Z</time></trkpt><trkpt lat="46.5102387" lon="12.603635"><ele>1394.0</ele><time>2026-05-01T09:14:33.755Z</time></trkpt><trkpt lat="46.5103155" lon="12.6036115"><ele>1394.0</ele><time>2026-05-01T09:14:34.755Z</time></trkpt><trkpt lat="46.5103855" lon="12.6035783"><ele>1394.0</ele><time>2026-05-01T09:14:35.756Z</time></trkpt><trkpt lat="46.5104561" lon="12.6035428"><ele>1394.0</ele><time>2026-05-01T09:14:36.755Z</time></trkpt><trkpt lat="46.5105299" lon="12.60351"><ele>1388.6666666666667</ele><time>2026-05-01T09:14:37.756Z</time></trkpt><trkpt lat="46.5106032" lon="12.6034772"><ele>1383.3333333333335</ele><time>2026-05-01T09:14:38.756Z</time></trkpt><trkpt lat="46.5106757" lon="12.6034381"><ele>1378.0</ele><time>2026-05-01T09:14:39.756Z</time></trkpt><trkpt lat="46.5107505" lon="12.6034092"><ele>1372.6666666666667</ele><time>2026-05-01T09:14:40.755Z</time></trkpt><trkpt lat="46.5108199" lon="12.6033706"><ele>1367.3333333333333</ele><time>2026-05-01T09:14:41.755Z</time></trkpt><trkpt lat="46.51089" lon="12.6033351"><ele>1362.0</ele><time>2026-05-01T09:14:42.755Z</time></trkpt><trkpt lat="46.5109562" lon="12.6032895"><ele>1362.0</ele><time>2026-05-01T09:14:43.756Z</time></trkpt><trkpt lat="46.5110231" lon="12.6032348"><ele>1362.0</ele><time>2026-05-01T09:14:44.755Z</time></trkpt><trkpt lat="46.511086" lon="12.6031767"><ele>1362.0</ele><time>2026-05-01T09:14:45.755Z</time></trkpt><trkpt lat="46.5111475" lon="12.6031141"><ele>1362.0</ele><time>2026-05-01T09:14:46.756Z</time></trkpt><trkpt lat="46.511209" lon="12.6030552"><ele>1362.0</ele><time>2026-05-01T09:14:47.756Z</time></trkpt><trkpt lat="46.5112695" lon="12.6029909"><ele>1362.0</ele><time>2026-05-01T09:14:48.756Z</time></trkpt><trkpt lat="46.5113313" lon="12.6029278"><ele>1361.3333333333333</ele><time>2026-05-01T09:14:49.755Z</time></trkpt><trkpt lat="46.5113896" lon="12.6028598"><ele>1360.6666666666667</ele><time>2026-05-01T09:14:50.756Z</time></trkpt><trkpt lat="46.5114463" lon="12.6027788"><ele>1360.0</ele><time>2026-05-01T09:14:51.756Z</time></trkpt><trkpt lat="46.5114947" lon="12.6026652"><ele>1359.3333333333335</ele><time>2026-05-01T09:14:52.754Z</time></trkpt><trkpt lat="46.5115461" lon="12.6025537"><ele>1358.6666666666667</ele><time>2026-05-01T09:14:53.756Z</time></trkpt><trkpt lat="46.5116092" lon="12.6024411"><ele>1358.0</ele><time>2026-05-01T09:14:54.755Z</time></trkpt><trkpt lat="46.5116734" lon="12.6023418"><ele>1358.0</ele><time>2026-05-01T09:14:55.754Z</time></trkpt><trkpt lat="46.5117374" lon="12.6022518"><ele>1358.0</ele><time>2026-05-01T09:14:56.754Z</time></trkpt><trkpt lat="46.5118015" lon="12.6021687"><ele>1358.0</ele><time>2026-05-01T09:14:57.755Z</time></trkpt><trkpt lat="46.5118638" lon="12.6020889"><ele>1358.0</ele><time>2026-05-01T09:14:58.754Z</time></trkpt><trkpt lat="46.5119271" lon="12.6020125"><ele>1358.0</ele><time>2026-05-01T09:14:59.756Z</time></trkpt><trkpt lat="46.511996" lon="12.6019554"><ele>1358.0</ele><time>2026-05-01T09:15:00.756Z</time></trkpt><trkpt lat="46.5120732" lon="12.6019177"><ele>1357.0</ele><time>2026-05-01T09:15:01.754Z</time></trkpt><trkpt lat="46.5121559" lon="12.6019048"><ele>1356.0</ele><time>2026-05-01T09:15:02.756Z</time></trkpt><trkpt lat="46.5122449" lon="12.6019193"><ele>1355.0</ele><time>2026-05-01T09:15:03.756Z</time></trkpt><trkpt lat="46.5123319" lon="12.6019504"><ele>1354.0</ele><time>2026-05-01T09:15:04.756Z</time></trkpt><trkpt lat="46.5124179" lon="12.6019831"><ele>1353.0</ele><time>2026-05-01T09:15:05.755Z</time></trkpt><trkpt lat="46.5125031" lon="12.6020157"><ele>1352.0</ele><time>2026-05-01T09:15:06.756Z</time></trkpt><trkpt lat="46.5125848" lon="12.60204"><ele>1352.0</ele><time>2026-05-01T09:15:07.756Z</time></trkpt><trkpt lat="46.5126571" lon="12.6020554"><ele>1352.0</ele><time>2026-05-01T09:15:08.755Z</time></trkpt><trkpt lat="46.512726" lon="12.6020477"><ele>1352.0</ele><time>2026-05-01T09:15:09.755Z</time></trkpt><trkpt lat="46.5127911" lon="12.6020164"><ele>1352.0</ele><time>2026-05-01T09:15:10.756Z</time></trkpt><trkpt lat="46.5128569" lon="12.6019793"><ele>1352.0</ele><time>2026-05-01T09:15:11.756Z</time></trkpt><trkpt lat="46.5129166" lon="12.6019438"><ele>1352.0</ele><time>2026-05-01T09:15:12.756Z</time></trkpt><trkpt lat="46.5129855" lon="12.6018947"><ele>1352.0</ele><time>2026-05-01T09:15:13.756Z</time></trkpt><trkpt lat="46.5130623" lon="12.60185"><ele>1351.3333333333335</ele><time>2026-05-01T09:15:14.756Z</time></trkpt><trkpt lat="46.5131414" lon="12.6018056"><ele>1350.6666666666667</ele><time>2026-05-01T09:15:15.756Z</time></trkpt><trkpt lat="46.5132181" lon="12.6017597"><ele>1350.0</ele><time>2026-05-01T09:15:16.755Z</time></trkpt><trkpt lat="46.513295" lon="12.6017061"><ele>1349.3333333333333</ele><time>2026-05-01T09:15:17.755Z</time></trkpt><trkpt lat="46.513371" lon="12.6016421"><ele>1348.6666666666665</ele><time>2026-05-01T09:15:18.756Z</time></trkpt><trkpt lat="46.5134494" lon="12.6015776"><ele>1348.0</ele><time>2026-05-01T09:15:19.755Z</time></trkpt><trkpt lat="46.5135169" lon="12.6015084"><ele>1348.0</ele><time>2026-05-01T09:15:20.756Z</time></trkpt><trkpt lat="46.51359" lon="12.601437"><ele>1348.0</ele><time>2026-05-01T09:15:21.755Z</time></trkpt><trkpt lat="46.5136696" lon="12.6013759"><ele>1348.0</ele><time>2026-05-01T09:15:22.756Z</time></trkpt><trkpt lat="46.5137441" lon="12.6013236"><ele>1348.0</ele><time>2026-05-01T09:15:23.756Z</time></trkpt><trkpt lat="46.5138196" lon="12.6012711"><ele>1348.0</ele><time>2026-05-01T09:15:24.756Z</time></trkpt><trkpt lat="46.5138931" lon="12.6012207"><ele>1348.0</ele><time>2026-05-01T09:15:25.756Z</time></trkpt><trkpt lat="46.5139636" lon="12.6011624"><ele>1347.0</ele><time>2026-05-01T09:15:26.756Z</time></trkpt><trkpt lat="46.5140335" lon="12.6010931"><ele>1346.0</ele><time>2026-05-01T09:15:27.756Z</time></trkpt><trkpt lat="46.5140976" lon="12.6010107"><ele>1345.0</ele><time>2026-05-01T09:15:28.753Z</time></trkpt><trkpt lat="46.5141569" lon="12.6009267"><ele>1344.0</ele><time>2026-05-01T09:15:29.755Z</time></trkpt><trkpt lat="46.5142047" lon="12.6008187"><ele>1343.0</ele><time>2026-05-01T09:15:30.755Z</time></trkpt><trkpt lat="46.514246" lon="12.6007098"><ele>1342.0</ele><time>2026-05-01T09:15:31.755Z</time></trkpt><trkpt lat="46.5142831" lon="12.6005953"><ele>1342.0</ele><time>2026-05-01T09:15:32.756Z</time></trkpt><trkpt lat="46.514322" lon="12.6004819"><ele>1342.0</ele><time>2026-05-01T09:15:33.756Z</time></trkpt><trkpt lat="46.5143472" lon="12.6003795"><ele>1342.0</ele><time>2026-05-01T09:15:34.756Z</time></trkpt><trkpt lat="46.5143861" lon="12.6003061"><ele>1342.0</ele><time>2026-05-01T09:15:35.754Z</time></trkpt><trkpt lat="46.5144331" lon="12.6002431"><ele>1342.0</ele><time>2026-05-01T09:15:36.755Z</time></trkpt><trkpt lat="46.5145478" lon="12.6001833"><ele>1342.0</ele><time>2026-05-01T09:15:38.754Z</time></trkpt><trkpt lat="46.5146273" lon="12.600183"><ele>1341.3999999999999</ele><time>2026-05-01T09:15:39.754Z</time></trkpt><trkpt lat="46.5147135" lon="12.6001813"><ele>1340.8</ele><time>2026-05-01T09:15:40.756Z</time></trkpt><trkpt lat="46.5148026" lon="12.6001658"><ele>1340.2</ele><time>2026-05-01T09:15:41.755Z</time></trkpt><trkpt lat="46.5148929" lon="12.6001464"><ele>1339.6</ele><time>2026-05-01T09:15:42.755Z</time></trkpt><trkpt lat="46.514992" lon="12.600125"><ele>1339.0</ele><time>2026-05-01T09:15:43.756Z</time></trkpt><trkpt lat="46.5150895" lon="12.600116"><ele>1339.0</ele><time>2026-05-01T09:15:44.755Z</time></trkpt><trkpt lat="46.5151909" lon="12.600107"><ele>1339.0</ele><time>2026-05-01T09:15:45.756Z</time></trkpt><trkpt lat="46.5152924" lon="12.6000987"><ele>1339.0</ele><time>2026-05-01T09:15:46.756Z</time></trkpt><trkpt lat="46.5153951" lon="12.6001004"><ele>1339.0</ele><time>2026-05-01T09:15:47.755Z</time></trkpt><trkpt lat="46.5155032" lon="12.6001034"><ele>1339.0</ele><time>2026-05-01T09:15:48.755Z</time></trkpt><trkpt lat="46.5156149" lon="12.6001041"><ele>1336.8000000000002</ele><time>2026-05-01T09:15:49.756Z</time></trkpt><trkpt lat="46.5157217" lon="12.6001131"><ele>1334.6000000000001</ele><time>2026-05-01T09:15:50.755Z</time></trkpt><trkpt lat="46.5158325" lon="12.6001197"><ele>1332.4</ele><time>2026-05-01T09:15:51.756Z</time></trkpt><trkpt lat="46.5159418" lon="12.6001294"><ele>1330.2</ele><time>2026-05-01T09:15:52.756Z</time></trkpt><trkpt lat="46.5160622" lon="12.6001451"><ele>1328.0</ele><time>2026-05-01T09:15:53.756Z</time></trkpt><trkpt lat="46.5161728" lon="12.6001477"><ele>1326.4</ele><time>2026-05-01T09:15:54.756Z</time></trkpt><trkpt lat="46.516282" lon="12.600146"><ele>1324.8000000000002</ele><time>2026-05-01T09:15:55.756Z</time></trkpt><trkpt lat="46.5163955" lon="12.6001376"><ele>1323.2</ele><time>2026-05-01T09:15:56.756Z</time></trkpt><trkpt lat="46.5165079" lon="12.6001254"><ele>1321.6</ele><time>2026-05-01T09:15:57.756Z</time></trkpt><trkpt lat="46.5166182" lon="12.6000898"><ele>1320.0</ele><time>2026-05-01T09:15:58.755Z</time></trkpt><trkpt lat="46.5167295" lon="12.6000584"><ele>1320.0</ele><time>2026-05-01T09:15:59.756Z</time></trkpt><trkpt lat="46.5168409" lon="12.6000165"><ele>1320.0</ele><time>2026-05-01T09:16:00.756Z</time></trkpt><trkpt lat="46.516952" lon="12.5999568"><ele>1320.0</ele><time>2026-05-01T09:16:01.755Z</time></trkpt><trkpt lat="46.5170563" lon="12.5998705"><ele>1320.0</ele><time>2026-05-01T09:16:02.756Z</time></trkpt><trkpt lat="46.5171721" lon="12.5998108"><ele>1319.0</ele><time>2026-05-01T09:16:03.755Z</time></trkpt><trkpt lat="46.5172999" lon="12.5997692"><ele>1318.0</ele><time>2026-05-01T09:16:04.756Z</time></trkpt><trkpt lat="46.5174343" lon="12.599719"><ele>1317.0</ele><time>2026-05-01T09:16:05.755Z</time></trkpt><trkpt lat="46.5175625" lon="12.5996793"><ele>1316.0</ele><time>2026-05-01T09:16:06.756Z</time></trkpt><trkpt lat="46.5177073" lon="12.599684"><ele>1316.0</ele><time>2026-05-01T09:16:07.756Z</time></trkpt><trkpt lat="46.5178359" lon="12.5996765"><ele>1316.0</ele><time>2026-05-01T09:16:08.754Z</time></trkpt><trkpt lat="46.5179681" lon="12.5996638"><ele>1316.0</ele><time>2026-05-01T09:16:09.756Z</time></trkpt><trkpt lat="46.5180826" lon="12.5996321"><ele>1316.0</ele><time>2026-05-01T09:16:10.756Z</time></trkpt><trkpt lat="46.5181902" lon="12.5995879"><ele>1315.25</ele><time>2026-05-01T09:16:11.756Z</time></trkpt><trkpt lat="46.518288" lon="12.5995306"><ele>1314.5</ele><time>2026-05-01T09:16:12.754Z</time></trkpt><trkpt lat="46.5183797" lon="12.5994535"><ele>1313.75</ele><time>2026-05-01T09:16:13.756Z</time></trkpt><trkpt lat="46.5184781" lon="12.599363"><ele>1313.0</ele><time>2026-05-01T09:16:14.756Z</time></trkpt><trkpt lat="46.5185772" lon="12.5992558"><ele>1312.5</ele><time>2026-05-01T09:16:15.755Z</time></trkpt><trkpt lat="46.5186753" lon="12.5991483"><ele>1312.0</ele><time>2026-05-01T09:16:16.756Z</time></trkpt><trkpt lat="46.5187702" lon="12.5990521"><ele>1311.5</ele><time>2026-05-01T09:16:17.755Z</time></trkpt><trkpt lat="46.518869" lon="12.5989615"><ele>1311.0</ele><time>2026-05-01T09:16:18.756Z</time></trkpt><trkpt lat="46.5189785" lon="12.5988803"><ele>1309.0</ele><time>2026-05-01T09:16:19.755Z</time></trkpt><trkpt lat="46.5190895" lon="12.5988165"><ele>1307.0</ele><time>2026-05-01T09:16:20.755Z</time></trkpt><trkpt lat="46.5191947" lon="12.5987637"><ele>1305.0</ele><time>2026-05-01T09:16:21.756Z</time></trkpt><trkpt lat="46.5193047" lon="12.5987332"><ele>1303.0</ele><time>2026-05-01T09:16:22.756Z</time></trkpt><trkpt lat="46.519426" lon="12.5987339"><ele>1303.0</ele><time>2026-05-01T09:16:23.756Z</time></trkpt><trkpt lat="46.5195496" lon="12.5987526"><ele>1303.0</ele><time>2026-05-01T09:16:24.756Z</time></trkpt><trkpt lat="46.5196674" lon="12.5987831"><ele>1303.0</ele><time>2026-05-01T09:16:25.756Z</time></trkpt><trkpt lat="46.5197811" lon="12.598808"><ele>1303.0</ele><time>2026-05-01T09:16:26.755Z</time></trkpt><trkpt lat="46.5198856" lon="12.5988198"><ele>1301.75</ele><time>2026-05-01T09:16:27.755Z</time></trkpt><trkpt lat="46.5199843" lon="12.5988226"><ele>1300.5</ele><time>2026-05-01T09:16:28.756Z</time></trkpt><trkpt lat="46.520097" lon="12.59883"><ele>1299.25</ele><time>2026-05-01T09:16:29.756Z</time></trkpt><trkpt lat="46.5202259" lon="12.5988322"><ele>1298.0</ele><time>2026-05-01T09:16:30.756Z</time></trkpt><trkpt lat="46.5203499" lon="12.5988397"><ele>1298.0</ele><time>2026-05-01T09:16:31.756Z</time></trkpt><trkpt lat="46.5204804" lon="12.598847"><ele>1298.0</ele><time>2026-05-01T09:16:32.755Z</time></trkpt><trkpt lat="46.5206064" lon="12.5988501"><ele>1298.0</ele><time>2026-05-01T09:16:33.755Z</time></trkpt><trkpt lat="46.5207414" lon="12.5988789"><ele>1298.0</ele><time>2026-05-01T09:16:34.756Z</time></trkpt><trkpt lat="46.5208693" lon="12.5988905"><ele>1298.0</ele><time>2026-05-01T09:16:35.756Z</time></trkpt><trkpt lat="46.5210131" lon="12.598892"><ele>1298.0</ele><time>2026-05-01T09:16:36.756Z</time></trkpt><trkpt lat="46.5211492" lon="12.5988855"><ele>1298.0</ele><time>2026-05-01T09:16:37.755Z</time></trkpt><trkpt lat="46.5212751" lon="12.5988688"><ele>1298.0</ele><time>2026-05-01T09:16:38.756Z</time></trkpt><trkpt lat="46.5213947" lon="12.5988556"><ele>1297.25</ele><time>2026-05-01T09:16:39.756Z</time></trkpt><trkpt lat="46.5215189" lon="12.5988413"><ele>1296.5</ele><time>2026-05-01T09:16:40.756Z</time></trkpt><trkpt lat="46.521632" lon="12.5988496"><ele>1295.75</ele><time>2026-05-01T09:16:41.755Z</time></trkpt><trkpt lat="46.5217364" lon="12.5988866"><ele>1295.0</ele><time>2026-05-01T09:16:42.756Z</time></trkpt><trkpt lat="46.5218388" lon="12.598947"><ele>1295.0</ele><time>2026-05-01T09:16:43.756Z</time></trkpt><trkpt lat="46.5219409" lon="12.5990328"><ele>1295.0</ele><time>2026-05-01T09:16:44.756Z</time></trkpt><trkpt lat="46.5220376" lon="12.5991419"><ele>1295.0</ele><time>2026-05-01T09:16:45.756Z</time></trkpt><trkpt lat="46.5221325" lon="12.5992594"><ele>1295.0</ele><time>2026-05-01T09:16:46.756Z</time></trkpt><trkpt lat="46.5222283" lon="12.5993579"><ele>1295.75</ele><time>2026-05-01T09:16:47.756Z</time></trkpt><trkpt lat="46.5223298" lon="12.5994481"><ele>1296.5</ele><time>2026-05-01T09:16:48.755Z</time></trkpt><trkpt lat="46.5224352" lon="12.5995329"><ele>1297.25</ele><time>2026-05-01T09:16:49.756Z</time></trkpt><trkpt lat="46.5225424" lon="12.5996001"><ele>1298.0</ele><time>2026-05-01T09:16:50.756Z</time></trkpt><trkpt lat="46.5226478" lon="12.5996484"><ele>1296.0</ele><time>2026-05-01T09:16:51.756Z</time></trkpt><trkpt lat="46.5227504" lon="12.5996734"><ele>1294.0</ele><time>2026-05-01T09:16:52.755Z</time></trkpt><trkpt lat="46.5228595" lon="12.599666"><ele>1292.0</ele><time>2026-05-01T09:16:53.756Z</time></trkpt><trkpt lat="46.5229624" lon="12.5996357"><ele>1290.0</ele><time>2026-05-01T09:16:54.756Z</time></trkpt><trkpt lat="46.5230603" lon="12.5996013"><ele>1288.0</ele><time>2026-05-01T09:16:55.756Z</time></trkpt><trkpt lat="46.5231551" lon="12.5995866"><ele>1286.3333333333333</ele><time>2026-05-01T09:16:56.755Z</time></trkpt><trkpt lat="46.5232384" lon="12.5995881"><ele>1284.6666666666665</ele><time>2026-05-01T09:16:57.755Z</time></trkpt><trkpt lat="46.5233167" lon="12.5996118"><ele>1283.0</ele><time>2026-05-01T09:16:58.756Z</time></trkpt><trkpt lat="46.5233906" lon="12.599659"><ele>1281.3333333333333</ele><time>2026-05-01T09:16:59.756Z</time></trkpt><trkpt lat="46.5234459" lon="12.5997368"><ele>1279.6666666666667</ele><time>2026-05-01T09:17:00.754Z</time></trkpt><trkpt lat="46.5234885" lon="12.599837"><ele>1278.0</ele><time>2026-05-01T09:17:01.756Z</time></trkpt><trkpt lat="46.5235179" lon="12.5999576"><ele>1278.0</ele><time>2026-05-01T09:17:02.755Z</time></trkpt><trkpt lat="46.5235253" lon="12.6000938"><ele>1278.0</ele><time>2026-05-01T09:17:03.755Z</time></trkpt><trkpt lat="46.5235361" lon="12.6002304"><ele>1278.0</ele><time>2026-05-01T09:17:04.756Z</time></trkpt><trkpt lat="46.5235547" lon="12.600367"><ele>1278.0</ele><time>2026-05-01T09:17:05.756Z</time></trkpt><trkpt lat="46.5235814" lon="12.600502"><ele>1278.0</ele><time>2026-05-01T09:17:06.755Z</time></trkpt><trkpt lat="46.5236173" lon="12.6006409"><ele>1279.0</ele><time>2026-05-01T09:17:07.756Z</time></trkpt><trkpt lat="46.5236728" lon="12.6007576"><ele>1280.0</ele><time>2026-05-01T09:17:08.756Z</time></trkpt><trkpt lat="46.5237384" lon="12.6008647"><ele>1281.0</ele><time>2026-05-01T09:17:09.756Z</time></trkpt><trkpt lat="46.523811" lon="12.6009549"><ele>1282.0</ele><time>2026-05-01T09:17:10.754Z</time></trkpt><trkpt lat="46.5238922" lon="12.601009"><ele>1283.0</ele><time>2026-05-01T09:17:11.756Z</time></trkpt><trkpt lat="46.5239754" lon="12.6010539"><ele>1283.0</ele><time>2026-05-01T09:17:12.754Z</time></trkpt><trkpt lat="46.5240901" lon="12.6010101"><ele>1283.0</ele><time>2026-05-01T09:17:13.756Z</time></trkpt><trkpt lat="46.5241978" lon="12.600973"><ele>1283.0</ele><time>2026-05-01T09:17:14.756Z</time></trkpt><trkpt lat="46.5243058" lon="12.6009088"><ele>1283.0</ele><time>2026-05-01T09:17:15.756Z</time></trkpt><trkpt lat="46.524411" lon="12.6008521"><ele>1283.0</ele><time>2026-05-01T09:17:16.755Z</time></trkpt><trkpt lat="46.5245139" lon="12.6007915"><ele>1283.0</ele><time>2026-05-01T09:17:17.755Z</time></trkpt><trkpt lat="46.5246166" lon="12.6007421"><ele>1283.0</ele><time>2026-05-01T09:17:18.756Z</time></trkpt><trkpt lat="46.524717" lon="12.6006881"><ele>1283.0</ele><time>2026-05-01T09:17:19.755Z</time></trkpt><trkpt lat="46.5248211" lon="12.6006579"><ele>1283.0</ele><time>2026-05-01T09:17:20.756Z</time></trkpt><trkpt lat="46.5249294" lon="12.6006355"><ele>1282.8000000000002</ele><time>2026-05-01T09:17:21.755Z</time></trkpt><trkpt lat="46.5250376" lon="12.6006379"><ele>1282.6</ele><time>2026-05-01T09:17:22.756Z</time></trkpt><trkpt lat="46.5251425" lon="12.6006549"><ele>1282.4</ele><time>2026-05-01T09:17:23.756Z</time></trkpt><trkpt lat="46.5252449" lon="12.6006933"><ele>1282.1999999999998</ele><time>2026-05-01T09:17:24.755Z</time></trkpt><trkpt lat="46.5253421" lon="12.6007572"><ele>1282.0</ele><time>2026-05-01T09:17:25.756Z</time></trkpt><trkpt lat="46.5254413" lon="12.6008312"><ele>1279.3999999999999</ele><time>2026-05-01T09:17:26.756Z</time></trkpt><trkpt lat="46.5255389" lon="12.6009026"><ele>1276.8</ele><time>2026-05-01T09:17:27.756Z</time></trkpt><trkpt lat="46.5256387" lon="12.6009718"><ele>1274.2</ele><time>2026-05-01T09:17:28.755Z</time></trkpt><trkpt lat="46.5257523" lon="12.6010059"><ele>1271.6</ele><time>2026-05-01T09:17:29.756Z</time></trkpt><trkpt lat="46.5258628" lon="12.6010293"><ele>1269.0</ele><time>2026-05-01T09:17:30.756Z</time></trkpt><trkpt lat="46.5259699" lon="12.6010405"><ele>1269.0</ele><time>2026-05-01T09:17:31.755Z</time></trkpt><trkpt lat="46.5260716" lon="12.6010261"><ele>1269.0</ele><time>2026-05-01T09:17:32.756Z</time></trkpt><trkpt lat="46.5261672" lon="12.6009976"><ele>1269.0</ele><time>2026-05-01T09:17:33.756Z</time></trkpt><trkpt lat="46.5262504" lon="12.600959"><ele>1269.0</ele><time>2026-05-01T09:17:34.756Z</time></trkpt><trkpt lat="46.5263199" lon="12.6009386"><ele>1269.0</ele><time>2026-05-01T09:17:35.756Z</time></trkpt><trkpt lat="46.5264126" lon="12.6009638"><ele>1269.4</ele><time>2026-05-01T09:17:37.756Z</time></trkpt><trkpt lat="46.5264508" lon="12.6011041"><ele>1269.8000000000002</ele><time>2026-05-01T09:17:39.756Z</time></trkpt><trkpt lat="46.5264778" lon="12.601277"><ele>1270.1999999999998</ele><time>2026-05-01T09:17:41.756Z</time></trkpt><trkpt lat="46.5264937" lon="12.6014449"><ele>1270.6</ele><time>2026-05-01T09:17:43.756Z</time></trkpt><trkpt lat="46.5264702" lon="12.601575"><ele>1271.0</ele><time>2026-05-01T09:17:45.755Z</time></trkpt><trkpt lat="46.526534" lon="12.6016338"><ele>1273.3333333333335</ele><time>2026-05-01T09:17:50.756Z</time></trkpt><trkpt lat="46.5266216" lon="12.6016225"><ele>1275.6666666666667</ele><time>2026-05-01T09:17:54.756Z</time></trkpt><trkpt lat="46.5267" lon="12.6016386"><ele>1278.0</ele><time>2026-05-01T09:17:57.756Z</time></trkpt><trkpt lat="46.5266915" lon="12.6017514"><ele>1280.3333333333333</ele><time>2026-05-01T09:17:59.756Z</time></trkpt><trkpt lat="46.5266719" lon="12.601874"><ele>1282.6666666666665</ele><time>2026-05-01T09:18:01.756Z</time></trkpt><trkpt lat="46.5266404" lon="12.60196"><ele>1285.0</ele><time>2026-05-01T09:18:03.756Z</time></trkpt><trkpt lat="46.5266036" lon="12.6020375"><ele>1286.7142857142858</ele><time>2026-05-01T09:18:05.756Z</time></trkpt><trkpt lat="46.5265415" lon="12.602082"><ele>1288.4285714285716</ele><time>2026-05-01T09:18:08.756Z</time></trkpt><trkpt lat="46.5264755" lon="12.6020196"><ele>1290.1428571428573</ele><time>2026-05-01T09:18:12.756Z</time></trkpt><trkpt lat="46.5264087" lon="12.602016"><ele>1291.857142857143</ele><time>2026-05-01T09:18:16.755Z</time></trkpt><trkpt lat="46.5263913" lon="12.6021091"><ele>1293.5714285714284</ele><time>2026-05-01T09:18:18.755Z</time></trkpt><trkpt lat="46.5263455" lon="12.6022019"><ele>1295.2857142857144</ele><time>2026-05-01T09:18:20.756Z</time></trkpt><trkpt lat="46.5262936" lon="12.6022823"><ele>1297.0</ele><time>2026-05-01T09:18:22.756Z</time></trkpt><trkpt lat="46.5262321" lon="12.602354"><ele>1297.0</ele><time>2026-05-01T09:18:24.755Z</time></trkpt><trkpt lat="46.5261561" lon="12.6023887"><ele>1297.0</ele><time>2026-05-01T09:18:26.756Z</time></trkpt><trkpt lat="46.5260727" lon="12.6024163"><ele>1297.0</ele><time>2026-05-01T09:18:28.755Z</time></trkpt><trkpt lat="46.5259915" lon="12.6024621"><ele>1297.0</ele><time>2026-05-01T09:18:30.756Z</time></trkpt><trkpt lat="46.5258961" lon="12.6025114"><ele>1297.0</ele><time>2026-05-01T09:18:32.756Z</time></trkpt><trkpt lat="46.525801" lon="12.6025271"><ele>1297.0</ele><time>2026-05-01T09:18:34.756Z</time></trkpt><trkpt lat="46.5257143" lon="12.6025302"><ele>1297.0</ele><time>2026-05-01T09:18:36.756Z</time></trkpt><trkpt lat="46.5256373" lon="12.6025091"><ele>1297.0</ele><time>2026-05-01T09:18:38.756Z</time></trkpt><trkpt lat="46.5255261" lon="12.6025173"><ele>1297.0</ele><time>2026-05-01T09:18:40.756Z</time></trkpt><trkpt lat="46.5254111" lon="12.6025037"><ele>1297.0</ele><time>2026-05-01T09:18:42.756Z</time></trkpt><trkpt lat="46.5253269" lon="12.6025164"><ele>1297.0</ele><time>2026-05-01T09:18:44.756Z</time></trkpt><trkpt lat="46.5252312" lon="12.6025019"><ele>1298.0</ele><time>2026-05-01T09:18:46.756Z</time></trkpt><trkpt lat="46.5251683" lon="12.6024641"><ele>1299.0</ele><time>2026-05-01T09:18:48.756Z</time></trkpt><trkpt lat="46.525103" lon="12.6023936"><ele>1300.0</ele><time>2026-05-01T09:18:50.756Z</time></trkpt><trkpt lat="46.5250087" lon="12.6023146"><ele>1301.0</ele><time>2026-05-01T09:18:52.755Z</time></trkpt><trkpt lat="46.5249189" lon="12.602253"><ele>1302.0</ele><time>2026-05-01T09:18:54.755Z</time></trkpt><trkpt lat="46.5248632" lon="12.602146"><ele>1302.0</ele><time>2026-05-01T09:18:56.756Z</time></trkpt><trkpt lat="46.5247662" lon="12.60212"><ele>1302.0</ele><time>2026-05-01T09:18:58.756Z</time></trkpt><trkpt lat="46.524647" lon="12.6021126"><ele>1302.0</ele><time>2026-05-01T09:19:00.756Z</time></trkpt><trkpt lat="46.5245294" lon="12.6020997"><ele>1302.0</ele><time>2026-05-01T09:19:02.756Z</time></trkpt><trkpt lat="46.5244266" lon="12.6020629"><ele>1302.0</ele><time>2026-05-01T09:19:04.756Z</time></trkpt><trkpt lat="46.5243352" lon="12.6020417"><ele>1305.0</ele><time>2026-05-01T09:19:06.756Z</time></trkpt><trkpt lat="46.5242209" lon="12.6020485"><ele>1308.0</ele><time>2026-05-01T09:19:08.756Z</time></trkpt><trkpt lat="46.5241266" lon="12.6020322"><ele>1311.0</ele><time>2026-05-01T09:19:10.756Z</time></trkpt><trkpt lat="46.5240416" lon="12.6020562"><ele>1314.0</ele><time>2026-05-01T09:19:12.755Z</time></trkpt><trkpt lat="46.5239532" lon="12.6021108"><ele>1317.0</ele><time>2026-05-01T09:19:14.755Z</time></trkpt><trkpt lat="46.5238591" lon="12.6021862"><ele>1317.0</ele><time>2026-05-01T09:19:16.755Z</time></trkpt><trkpt lat="46.5237734" lon="12.602236"><ele>1317.0</ele><time>2026-05-01T09:19:18.756Z</time></trkpt><trkpt lat="46.5236937" lon="12.6022313"><ele>1317.0</ele><time>2026-05-01T09:19:20.756Z</time></trkpt><trkpt lat="46.5236019" lon="12.6022184"><ele>1317.0</ele><time>2026-05-01T09:19:22.756Z</time></trkpt><trkpt lat="46.5235153" lon="12.6022022"><ele>1317.0</ele><time>2026-05-01T09:19:24.755Z</time></trkpt><trkpt lat="46.5234346" lon="12.6022207"><ele>1317.0</ele><time>2026-05-01T09:19:26.755Z</time></trkpt><trkpt lat="46.5233539" lon="12.6022453"><ele>1320.8</ele><time>2026-05-01T09:19:28.756Z</time></trkpt><trkpt lat="46.5232789" lon="12.6022875"><ele>1324.6</ele><time>2026-05-01T09:19:30.756Z</time></trkpt><trkpt lat="46.5231919" lon="12.6023678"><ele>1328.3999999999999</ele><time>2026-05-01T09:19:32.756Z</time></trkpt><trkpt lat="46.5231093" lon="12.6024291"><ele>1332.1999999999998</ele><time>2026-05-01T09:19:34.756Z</time></trkpt><trkpt lat="46.5230309" lon="12.602497"><ele>1336.0</ele><time>2026-05-01T09:19:36.756Z</time></trkpt><trkpt lat="46.5229522" lon="12.6025738"><ele>1338.6666666666665</ele><time>2026-05-01T09:19:38.756Z</time></trkpt><trkpt lat="46.5228733" lon="12.6026391"><ele>1341.3333333333333</ele><time>2026-05-01T09:19:40.755Z</time></trkpt><trkpt lat="46.5227747" lon="12.6026854"><ele>1344.0</ele><time>2026-05-01T09:19:42.756Z</time></trkpt><trkpt lat="46.522711" lon="12.6027168"><ele>1346.6666666666667</ele><time>2026-05-01T09:19:43.756Z</time></trkpt><trkpt lat="46.5226403" lon="12.6027345"><ele>1349.3333333333335</ele><time>2026-05-01T09:19:44.756Z</time></trkpt><trkpt lat="46.5225755" lon="12.6027536"><ele>1352.0</ele><time>2026-05-01T09:19:45.756Z</time></trkpt><trkpt lat="46.5224625" lon="12.6027775"><ele>1352.0</ele><time>2026-05-01T09:19:47.756Z</time></trkpt><trkpt lat="46.5223468" lon="12.6027731"><ele>1352.0</ele><time>2026-05-01T09:19:49.756Z</time></trkpt><trkpt lat="46.5222488" lon="12.6027808"><ele>1352.0</ele><time>2026-05-01T09:19:51.755Z</time></trkpt><trkpt lat="46.5221396" lon="12.6027583"><ele>1352.0</ele><time>2026-05-01T09:19:53.756Z</time></trkpt><trkpt lat="46.5220565" lon="12.6028029"><ele>1352.0</ele><time>2026-05-01T09:19:55.755Z</time></trkpt><trkpt lat="46.521971" lon="12.6028891"><ele>1358.1666666666667</ele><time>2026-05-01T09:19:57.756Z</time></trkpt><trkpt lat="46.5219348" lon="12.6029641"><ele>1364.3333333333335</ele><time>2026-05-01T09:19:58.756Z</time></trkpt><trkpt lat="46.5218722" lon="12.6030833"><ele>1370.5</ele><time>2026-05-01T09:20:00.755Z</time></trkpt><trkpt lat="46.5218163" lon="12.6031926"><ele>1376.6666666666667</ele><time>2026-05-01T09:20:02.755Z</time></trkpt><trkpt lat="46.5217371" lon="12.603305"><ele>1382.8333333333333</ele><time>2026-05-01T09:20:04.755Z</time></trkpt><trkpt lat="46.5216843" lon="12.6033816"><ele>1389.0</ele><time>2026-05-01T09:20:06.756Z</time></trkpt><trkpt lat="46.5216376" lon="12.6034716"><ele>1389.0</ele><time>2026-05-01T09:20:08.756Z</time></trkpt><trkpt lat="46.5215537" lon="12.6035494"><ele>1389.0</ele><time>2026-05-01T09:20:11.756Z</time></trkpt><trkpt lat="46.5215009" lon="12.6036548"><ele>1389.0</ele><time>2026-05-01T09:20:13.757Z</time></trkpt><trkpt lat="46.5215271" lon="12.6037591"><ele>1389.0</ele><time>2026-05-01T09:20:17.756Z</time></trkpt><trkpt lat="46.5215362" lon="12.6038878"><ele>1389.0</ele><time>2026-05-01T09:20:20.757Z</time></trkpt><trkpt lat="46.5214915" lon="12.6039532"><ele>1389.0</ele><time>2026-05-01T09:20:24.755Z</time></trkpt><trkpt lat="46.5215553" lon="12.6039385"><ele>1388.9999999999998</ele><time>2026-05-01T09:22:04.754Z</time></trkpt><trkpt lat="46.5215377" lon="12.6038374"><ele>1389.0</ele><time>2026-05-01T09:22:45.754Z</time></trkpt><trkpt lat="46.5215287" lon="12.60373"><ele>1389.0</ele><time>2026-05-01T09:22:50.757Z</time></trkpt><trkpt lat="46.5215359" lon="12.6036332"><ele>1389.0</ele><time>2026-05-01T09:22:53.756Z</time></trkpt><trkpt lat="46.5215746" lon="12.6035507"><ele>1389.0</ele><time>2026-05-01T09:22:56.757Z</time></trkpt><trkpt lat="46.5216392" lon="12.6034954"><ele>1388.9999999999998</ele><time>2026-05-01T09:22:59.756Z</time></trkpt><trkpt lat="46.5216674" lon="12.6034042"><ele>1389.0</ele><time>2026-05-01T09:23:02.756Z</time></trkpt><trkpt lat="46.5217019" lon="12.6033226"><ele>1388.9999999999998</ele><time>2026-05-01T09:23:05.756Z</time></trkpt><trkpt lat="46.5217543" lon="12.6032529"><ele>1389.0</ele><time>2026-05-01T09:23:09.755Z</time></trkpt><trkpt lat="46.5217974" lon="12.6031775"><ele>1389.0</ele><time>2026-05-01T09:23:12.756Z</time></trkpt><trkpt lat="46.5218376" lon="12.6030917"><ele>1389.0</ele><time>2026-05-01T09:23:36.756Z</time></trkpt><trkpt lat="46.5218858" lon="12.603025"><ele>1389.0</ele><time>2026-05-01T09:23:42.757Z</time></trkpt><trkpt lat="46.5219118" lon="12.6029362"><ele>1388.9999999999998</ele><time>2026-05-01T09:23:48.757Z</time></trkpt><trkpt lat="46.5219692" lon="12.6028572"><ele>1389.0</ele><time>2026-05-01T09:23:53.756Z</time></trkpt><trkpt lat="46.5220386" lon="12.6027998"><ele>1382.8333333333333</ele><time>2026-05-01T09:23:56.756Z</time></trkpt><trkpt lat="46.5221215" lon="12.6027622"><ele>1376.6666666666667</ele><time>2026-05-01T09:23:59.755Z</time></trkpt><trkpt lat="46.5221875" lon="12.6027801"><ele>1370.5</ele><time>2026-05-01T09:24:01.757Z</time></trkpt><trkpt lat="46.5222737" lon="12.6027808"><ele>1364.3333333333335</ele><time>2026-05-01T09:24:04.757Z</time></trkpt><trkpt lat="46.5223543" lon="12.6027858"><ele>1358.1666666666667</ele><time>2026-05-01T09:24:06.756Z</time></trkpt><trkpt lat="46.5224481" lon="12.6027819"><ele>1352.0</ele><time>2026-05-01T09:24:09.755Z</time></trkpt><trkpt lat="46.5225439" lon="12.60276"><ele>1352.0</ele><time>2026-05-01T09:24:11.757Z</time></trkpt><trkpt lat="46.5226234" lon="12.6027317"><ele>1352.0</ele><time>2026-05-01T09:24:13.756Z</time></trkpt><trkpt lat="46.5226939" lon="12.6027136"><ele>1352.0</ele><time>2026-05-01T09:24:15.757Z</time></trkpt><trkpt lat="46.5227867" lon="12.6026746"><ele>1352.0</ele><time>2026-05-01T09:24:18.756Z</time></trkpt><trkpt lat="46.52286" lon="12.6026353"><ele>1352.0</ele><time>2026-05-01T09:24:20.756Z</time></trkpt><trkpt lat="46.5229251" lon="12.6025869"><ele>1352.0</ele><time>2026-05-01T09:24:22.757Z</time></trkpt><trkpt lat="46.5229738" lon="12.602509"><ele>1349.3333333333335</ele><time>2026-05-01T09:24:24.757Z</time></trkpt><trkpt lat="46.5230579" lon="12.6024271"><ele>1346.6666666666667</ele><time>2026-05-01T09:24:27.756Z</time></trkpt><trkpt lat="46.5231377" lon="12.6023637"><ele>1344.0</ele><time>2026-05-01T09:24:29.757Z</time></trkpt><trkpt lat="46.5232181" lon="12.6023123"><ele>1341.3333333333333</ele><time>2026-05-01T09:24:31.756Z</time></trkpt><trkpt lat="46.5232738" lon="12.6022596"><ele>1338.6666666666665</ele><time>2026-05-01T09:24:33.756Z</time></trkpt><trkpt lat="46.5233503" lon="12.602225"><ele>1336.0</ele><time>2026-05-01T09:24:35.755Z</time></trkpt><trkpt lat="46.5234487" lon="12.602206"><ele>1336.0</ele><time>2026-05-01T09:24:37.756Z</time></trkpt><trkpt lat="46.5235444" lon="12.6021951"><ele>1336.0</ele><time>2026-05-01T09:24:39.756Z</time></trkpt><trkpt lat="46.5236524" lon="12.602203"><ele>1336.0</ele><time>2026-05-01T09:24:41.756Z</time></trkpt><trkpt lat="46.5237262" lon="12.6022349"><ele>1336.0</ele><time>2026-05-01T09:24:43.755Z</time></trkpt><trkpt lat="46.5237917" lon="12.6022062"><ele>1336.0</ele><time>2026-05-01T09:24:45.757Z</time></trkpt><trkpt lat="46.5238547" lon="12.6021736"><ele>1336.0</ele><time>2026-05-01T09:24:47.755Z</time></trkpt><trkpt lat="46.5239156" lon="12.6021332"><ele>1332.8333333333333</ele><time>2026-05-01T09:24:49.755Z</time></trkpt><trkpt lat="46.5239837" lon="12.6020595"><ele>1329.6666666666665</ele><time>2026-05-01T09:24:51.756Z</time></trkpt><trkpt lat="46.5240647" lon="12.6019938"><ele>1326.5</ele><time>2026-05-01T09:24:53.756Z</time></trkpt><trkpt lat="46.5241662" lon="12.6020374"><ele>1323.3333333333333</ele><time>2026-05-01T09:24:55.755Z</time></trkpt><trkpt lat="46.5242361" lon="12.6020346"><ele>1320.1666666666667</ele><time>2026-05-01T09:24:57.757Z</time></trkpt><trkpt lat="46.524313" lon="12.6020146"><ele>1317.0</ele><time>2026-05-01T09:24:59.757Z</time></trkpt><trkpt lat="46.5243894" lon="12.6020158"><ele>1317.0</ele><time>2026-05-01T09:25:01.756Z</time></trkpt><trkpt lat="46.5244806" lon="12.6020563"><ele>1317.0</ele><time>2026-05-01T09:25:04.757Z</time></trkpt><trkpt lat="46.5245622" lon="12.6020846"><ele>1317.0</ele><time>2026-05-01T09:25:07.756Z</time></trkpt><trkpt lat="46.5246655" lon="12.6021028"><ele>1317.0</ele><time>2026-05-01T09:25:09.757Z</time></trkpt><trkpt lat="46.5247681" lon="12.6021104"><ele>1317.0</ele><time>2026-05-01T09:25:11.754Z</time></trkpt><trkpt lat="46.5248494" lon="12.6021209"><ele>1314.5</ele><time>2026-05-01T09:25:13.755Z</time></trkpt><trkpt lat="46.5248995" lon="12.6021817"><ele>1312.0</ele><time>2026-05-01T09:25:16.756Z</time></trkpt><trkpt lat="46.5249397" lon="12.6022764"><ele>1309.5</ele><time>2026-05-01T09:25:19.757Z</time></trkpt><trkpt lat="46.5250196" lon="12.6023307"><ele>1307.0</ele><time>2026-05-01T09:25:22.756Z</time></trkpt><trkpt lat="46.5250825" lon="12.6024018"><ele>1304.5</ele><time>2026-05-01T09:25:25.757Z</time></trkpt><trkpt lat="46.525146" lon="12.6024683"><ele>1302.0</ele><time>2026-05-01T09:25:28.757Z</time></trkpt><trkpt lat="46.525193" lon="12.6025364"><ele>1302.0</ele><time>2026-05-01T09:25:58.756Z</time></trkpt><trkpt lat="46.5252738" lon="12.6025287"><ele>1302.0</ele><time>2026-05-01T09:26:01.756Z</time></trkpt><trkpt lat="46.5253466" lon="12.6025624"><ele>1302.0</ele><time>2026-05-01T09:26:04.757Z</time></trkpt><trkpt lat="46.5254324" lon="12.6025635"><ele>1302.0</ele><time>2026-05-01T09:26:08.757Z</time></trkpt><trkpt lat="46.5255088" lon="12.6026148"><ele>1302.0</ele><time>2026-05-01T09:26:11.755Z</time></trkpt><trkpt lat="46.5255888" lon="12.6026268"><ele>1302.0</ele><time>2026-05-01T09:26:14.757Z</time></trkpt><trkpt lat="46.5256671" lon="12.602679"><ele>1302.1666666666667</ele><time>2026-05-01T09:26:17.757Z</time></trkpt><trkpt lat="46.5257397" lon="12.6027549"><ele>1302.3333333333333</ele><time>2026-05-01T09:26:20.757Z</time></trkpt><trkpt lat="46.5258087" lon="12.6028144"><ele>1302.5</ele><time>2026-05-01T09:26:23.757Z</time></trkpt><trkpt lat="46.5258688" lon="12.6028757"><ele>1302.6666666666665</ele><time>2026-05-01T09:26:26.757Z</time></trkpt><trkpt lat="46.5259512" lon="12.6028923"><ele>1302.8333333333333</ele><time>2026-05-01T09:26:29.756Z</time></trkpt><trkpt lat="46.5260192" lon="12.60287"><ele>1303.0</ele><time>2026-05-01T09:26:31.756Z</time></trkpt><trkpt lat="46.5260842" lon="12.6028354"><ele>1302.0</ele><time>2026-05-01T09:26:33.756Z</time></trkpt><trkpt lat="46.5261586" lon="12.6027976"><ele>1301.0</ele><time>2026-05-01T09:26:35.754Z</time></trkpt><trkpt lat="46.5262201" lon="12.6027608"><ele>1300.0</ele><time>2026-05-01T09:26:37.756Z</time></trkpt><trkpt lat="46.5262722" lon="12.6026984"><ele>1299.0</ele><time>2026-05-01T09:26:39.756Z</time></trkpt><trkpt lat="46.5263183" lon="12.6026059"><ele>1298.0</ele><time>2026-05-01T09:26:41.756Z</time></trkpt><trkpt lat="46.5263456" lon="12.6024781"><ele>1297.0</ele><time>2026-05-01T09:26:43.756Z</time></trkpt><trkpt lat="46.5263945" lon="12.6023843"><ele>1297.0</ele><time>2026-05-01T09:26:45.757Z</time></trkpt><trkpt lat="46.5264392" lon="12.6022848"><ele>1297.0</ele><time>2026-05-01T09:26:47.757Z</time></trkpt><trkpt lat="46.5264642" lon="12.6021685"><ele>1297.0</ele><time>2026-05-01T09:26:49.757Z</time></trkpt><trkpt lat="46.5265101" lon="12.6020872"><ele>1297.0</ele><time>2026-05-01T09:26:51.757Z</time></trkpt><trkpt lat="46.5265862" lon="12.6020767"><ele>1297.0</ele><time>2026-05-01T09:26:53.757Z</time></trkpt><trkpt lat="46.5266528" lon="12.6021842"><ele>1297.0</ele><time>2026-05-01T09:26:55.756Z</time></trkpt><trkpt lat="46.5267058" lon="12.6023268"><ele>1297.0</ele><time>2026-05-01T09:26:57.755Z</time></trkpt><trkpt lat="46.5267355" lon="12.6024757"><ele>1297.0</ele><time>2026-05-01T09:26:59.757Z</time></trkpt><trkpt lat="46.526752" lon="12.602593"><ele>1297.0</ele><time>2026-05-01T09:27:01.757Z</time></trkpt><trkpt lat="46.5267928" lon="12.602732"><ele>1297.0</ele><time>2026-05-01T09:27:03.757Z</time></trkpt><trkpt lat="46.5268085" lon="12.6028513"><ele>1297.0</ele><time>2026-05-01T09:27:05.757Z</time></trkpt><trkpt lat="46.5267936" lon="12.6029908"><ele>1297.8</ele><time>2026-05-01T09:27:07.757Z</time></trkpt><trkpt lat="46.5267717" lon="12.6031303"><ele>1298.6</ele><time>2026-05-01T09:27:09.757Z</time></trkpt><trkpt lat="46.5267512" lon="12.6032822"><ele>1299.3999999999999</ele><time>2026-05-01T09:27:11.756Z</time></trkpt><trkpt lat="46.5267601" lon="12.6034149"><ele>1300.1999999999998</ele><time>2026-05-01T09:27:13.756Z</time></trkpt><trkpt lat="46.5267724" lon="12.6035226"><ele>1301.0</ele><time>2026-05-01T09:27:15.757Z</time></trkpt><trkpt lat="46.5268188" lon="12.6036165"><ele>1301.5</ele><time>2026-05-01T09:27:18.755Z</time></trkpt><trkpt lat="46.5269013" lon="12.6036898"><ele>1302.0</ele><time>2026-05-01T09:27:21.757Z</time></trkpt><trkpt lat="46.5269555" lon="12.6037458"><ele>1302.5</ele><time>2026-05-01T09:27:23.757Z</time></trkpt><trkpt lat="46.5270304" lon="12.6038226"><ele>1303.0</ele><time>2026-05-01T09:27:26.755Z</time></trkpt><trkpt lat="46.5270941" lon="12.6038856"><ele>1303.5</ele><time>2026-05-01T09:27:28.756Z</time></trkpt><trkpt lat="46.5271551" lon="12.6039385"><ele>1304.0</ele><time>2026-05-01T09:27:30.756Z</time></trkpt><trkpt lat="46.527204" lon="12.6039973"><ele>1305.5</ele><time>2026-05-01T09:27:32.757Z</time></trkpt><trkpt lat="46.527263" lon="12.6040491"><ele>1307.0</ele><time>2026-05-01T09:27:34.757Z</time></trkpt><trkpt lat="46.5273179" lon="12.6041226"><ele>1308.5</ele><time>2026-05-01T09:27:36.756Z</time></trkpt><trkpt lat="46.5273748" lon="12.6041798"><ele>1310.0</ele><time>2026-05-01T09:27:38.757Z</time></trkpt><trkpt lat="46.5274517" lon="12.6042272"><ele>1311.5</ele><time>2026-05-01T09:27:42.762Z</time></trkpt><trkpt lat="46.5275437" lon="12.6043345"><ele>1313.0</ele><time>2026-05-01T09:27:45.758Z</time></trkpt><trkpt lat="46.5276282" lon="12.6043414"><ele>1313.0000000000002</ele><time>2026-05-01T09:27:47.759Z</time></trkpt><trkpt lat="46.5276951" lon="12.6043682"><ele>1313.0</ele><time>2026-05-01T09:27:49.751Z</time></trkpt><trkpt lat="46.5277544" lon="12.6044037"><ele>1313.0</ele><time>2026-05-01T09:27:51.755Z</time></trkpt><trkpt lat="46.5277847" lon="12.6044862"><ele>1313.0</ele><time>2026-05-01T09:27:53.757Z</time></trkpt><trkpt lat="46.5278366" lon="12.6045497"><ele>1313.0</ele><time>2026-05-01T09:27:55.763Z</time></trkpt><trkpt lat="46.5278851" lon="12.6046243"><ele>1313.0000000000002</ele><time>2026-05-01T09:27:57.759Z</time></trkpt><trkpt lat="46.5279397" lon="12.6046877"><ele>1313.0</ele><time>2026-05-01T09:27:59.754Z</time></trkpt><trkpt lat="46.5280039" lon="12.6047497"><ele>1315.6666666666667</ele><time>2026-05-01T09:28:01.752Z</time></trkpt><trkpt lat="46.528077" lon="12.6048311"><ele>1318.3333333333335</ele><time>2026-05-01T09:28:03.754Z</time></trkpt><trkpt lat="46.5281363" lon="12.6049089"><ele>1321.0</ele><time>2026-05-01T09:28:05.761Z</time></trkpt><trkpt lat="46.5282136" lon="12.6049817"><ele>1323.6666666666667</ele><time>2026-05-01T09:28:08.758Z</time></trkpt><trkpt lat="46.5282627" lon="12.6050519"><ele>1326.3333333333333</ele><time>2026-05-01T09:28:10.764Z</time></trkpt><trkpt lat="46.5283311" lon="12.6051481"><ele>1329.0</ele><time>2026-05-01T09:28:13.762Z</time></trkpt><trkpt lat="46.5283737" lon="12.6052211"><ele>1329.0</ele><time>2026-05-01T09:28:15.76Z</time></trkpt><trkpt lat="46.5284172" lon="12.6053023"><ele>1329.0</ele><time>2026-05-01T09:28:17.76Z</time></trkpt><trkpt lat="46.5284661" lon="12.6054087"><ele>1329.0</ele><time>2026-05-01T09:28:20.754Z</time></trkpt><trkpt lat="46.5285465" lon="12.6054624"><ele>1329.0</ele><time>2026-05-01T09:28:23.763Z</time></trkpt><trkpt lat="46.5286073" lon="12.6055041"><ele>1329.0</ele><time>2026-05-01T09:28:26.758Z</time></trkpt><trkpt lat="46.5286862" lon="12.6055596"><ele>1329.0</ele><time>2026-05-01T09:28:29.76Z</time></trkpt><trkpt lat="46.5287482" lon="12.6055875"><ele>1331.2857142857142</ele><time>2026-05-01T09:28:31.757Z</time></trkpt><trkpt lat="46.5288124" lon="12.6055932"><ele>1333.5714285714287</ele><time>2026-05-01T09:28:33.754Z</time></trkpt><trkpt lat="46.5288906" lon="12.6056201"><ele>1335.857142857143</ele><time>2026-05-01T09:28:36.762Z</time></trkpt><trkpt lat="46.5289538" lon="12.6056311"><ele>1338.142857142857</ele><time>2026-05-01T09:28:38.756Z</time></trkpt><trkpt lat="46.5290247" lon="12.6056673"><ele>1340.4285714285713</ele><time>2026-05-01T09:28:40.762Z</time></trkpt><trkpt lat="46.5290852" lon="12.6057181"><ele>1342.7142857142858</ele><time>2026-05-01T09:28:42.758Z</time></trkpt><trkpt lat="46.5291288" lon="12.6058068"><ele>1345.0</ele><time>2026-05-01T09:28:44.758Z</time></trkpt><trkpt lat="46.5291486" lon="12.605911"><ele>1345.0</ele><time>2026-05-01T09:28:46.76Z</time></trkpt><trkpt lat="46.5291839" lon="12.6060196"><ele>1345.0</ele><time>2026-05-01T09:28:48.763Z</time></trkpt><trkpt lat="46.5292056" lon="12.6061405"><ele>1345.0</ele><time>2026-05-01T09:28:51.754Z</time></trkpt><trkpt lat="46.5292421" lon="12.6062369"><ele>1345.0</ele><time>2026-05-01T09:28:53.756Z</time></trkpt><trkpt lat="46.5292911" lon="12.6063107"><ele>1345.0</ele><time>2026-05-01T09:28:55.761Z</time></trkpt><trkpt lat="46.5293602" lon="12.6063809"><ele>1345.0</ele><time>2026-05-01T09:28:59.745Z</time></trkpt><trkpt lat="46.5294007" lon="12.6064671"><ele>1350.2</ele><time>2026-05-01T09:29:01.761Z</time></trkpt><trkpt lat="46.5294387" lon="12.6065756"><ele>1355.4</ele><time>2026-05-01T09:29:04.752Z</time></trkpt><trkpt lat="46.5295345" lon="12.6067537"><ele>1360.6</ele><time>2026-05-01T09:29:07.75Z</time></trkpt><trkpt lat="46.5294774" lon="12.6066744"><ele>1365.8</ele><time>2026-05-01T09:30:26.751Z</time></trkpt><trkpt lat="46.5294349" lon="12.6065796"><ele>1371.0</ele><time>2026-05-01T09:30:32.751Z</time></trkpt><trkpt lat="46.5294137" lon="12.6064717"><ele>1371.0</ele><time>2026-05-01T09:30:36.751Z</time></trkpt><trkpt lat="46.5293533" lon="12.6064107"><ele>1371.0</ele><time>2026-05-01T09:30:40.75Z</time></trkpt><trkpt lat="46.5293118" lon="12.6062995"><ele>1371.0</ele><time>2026-05-01T09:30:45.75Z</time></trkpt><trkpt lat="46.5292734" lon="12.6062131"><ele>1371.0</ele><time>2026-05-01T09:30:48.751Z</time></trkpt><trkpt lat="46.5292662" lon="12.6061134"><ele>1371.0</ele><time>2026-05-01T09:30:53.75Z</time></trkpt><trkpt lat="46.5292367" lon="12.6059961"><ele>1371.0</ele><time>2026-05-01T09:31:02.751Z</time></trkpt><trkpt lat="46.5291988" lon="12.6058934"><ele>1366.6666666666667</ele><time>2026-05-01T09:31:05.751Z</time></trkpt><trkpt lat="46.5291689" lon="12.6057991"><ele>1362.3333333333333</ele><time>2026-05-01T09:31:07.751Z</time></trkpt><trkpt lat="46.5291286" lon="12.6056863"><ele>1358.0</ele><time>2026-05-01T09:31:10.751Z</time></trkpt><trkpt lat="46.5290704" lon="12.6056473"><ele>1353.6666666666665</ele><time>2026-05-01T09:31:12.751Z</time></trkpt><trkpt lat="46.528988" lon="12.6056046"><ele>1349.3333333333333</ele><time>2026-05-01T09:31:15.751Z</time></trkpt><trkpt lat="46.5289064" lon="12.6055825"><ele>1345.0</ele><time>2026-05-01T09:31:18.751Z</time></trkpt><trkpt lat="46.5288406" lon="12.6055442"><ele>1345.0</ele><time>2026-05-01T09:31:22.751Z</time></trkpt><trkpt lat="46.5288173" lon="12.6054464"><ele>1345.0</ele><time>2026-05-01T09:31:26.751Z</time></trkpt><trkpt lat="46.5288199" lon="12.6053532"><ele>1345.0</ele><time>2026-05-01T09:31:30.751Z</time></trkpt><trkpt lat="46.528863" lon="12.6052711"><ele>1345.0</ele><time>2026-05-01T09:31:33.751Z</time></trkpt><trkpt lat="46.5289212" lon="12.6052188"><ele>1345.0</ele><time>2026-05-01T09:31:38.751Z</time></trkpt><trkpt lat="46.5289531" lon="12.6051233"><ele>1345.0</ele><time>2026-05-01T09:31:44.751Z</time></trkpt><trkpt lat="46.5289504" lon="12.6050167"><ele>1345.0</ele><time>2026-05-01T09:31:47.751Z</time></trkpt><trkpt lat="46.5289531" lon="12.6049138"><ele>1343.6666666666665</ele><time>2026-05-01T09:31:50.751Z</time></trkpt><trkpt lat="46.5289198" lon="12.6047868"><ele>1342.3333333333333</ele><time>2026-05-01T09:31:53.751Z</time></trkpt><trkpt lat="46.5288838" lon="12.604688"><ele>1341.0</ele><time>2026-05-01T09:31:56.751Z</time></trkpt><trkpt lat="46.5288087" lon="12.604709"><ele>1339.6666666666667</ele><time>2026-05-01T09:32:10.751Z</time></trkpt><trkpt lat="46.5287978" lon="12.604606"><ele>1338.3333333333335</ele><time>2026-05-01T09:32:14.751Z</time></trkpt><trkpt lat="46.5287941" lon="12.6045122"><ele>1337.0</ele><time>2026-05-01T09:32:17.751Z</time></trkpt><trkpt lat="46.5287601" lon="12.6044001"><ele>1334.5</ele><time>2026-05-01T09:32:20.751Z</time></trkpt><trkpt lat="46.5287114" lon="12.604316"><ele>1332.0</ele><time>2026-05-01T09:32:22.751Z</time></trkpt><trkpt lat="46.5286546" lon="12.6042558"><ele>1329.5</ele><time>2026-05-01T09:32:24.751Z</time></trkpt><trkpt lat="46.5285923" lon="12.604177"><ele>1327.0</ele><time>2026-05-01T09:32:26.751Z</time></trkpt><trkpt lat="46.5285505" lon="12.6040738"><ele>1324.5</ele><time>2026-05-01T09:32:28.751Z</time></trkpt><trkpt lat="46.5285349" lon="12.6039421"><ele>1322.0</ele><time>2026-05-01T09:32:30.75Z</time></trkpt><trkpt lat="46.5285346" lon="12.6038051"><ele>1320.6</ele><time>2026-05-01T09:32:32.75Z</time></trkpt><trkpt lat="46.5285318" lon="12.6036526"><ele>1319.1999999999998</ele><time>2026-05-01T09:32:34.751Z</time></trkpt><trkpt lat="46.5285291" lon="12.6034923"><ele>1317.8</ele><time>2026-05-01T09:32:36.751Z</time></trkpt><trkpt lat="46.5285348" lon="12.603346"><ele>1316.4</ele><time>2026-05-01T09:32:38.751Z</time></trkpt><trkpt lat="46.5285321" lon="12.6031812"><ele>1315.0</ele><time>2026-05-01T09:32:40.751Z</time></trkpt><trkpt lat="46.5285442" lon="12.6030369"><ele>1315.0</ele><time>2026-05-01T09:32:42.75Z</time></trkpt><trkpt lat="46.5285618" lon="12.6029275"><ele>1315.0</ele><time>2026-05-01T09:32:45.751Z</time></trkpt><trkpt lat="46.5286276" lon="12.6029556"><ele>1315.0</ele><time>2026-05-01T09:32:47.751Z</time></trkpt><trkpt lat="46.5287494" lon="12.6029619"><ele>1315.0</ele><time>2026-05-01T09:32:49.751Z</time></trkpt><trkpt lat="46.528814" lon="12.6029512"><ele>1315.0</ele><time>2026-05-01T09:32:50.75Z</time></trkpt><trkpt lat="46.5288828" lon="12.602943"><ele>1315.0</ele><time>2026-05-01T09:32:51.751Z</time></trkpt><trkpt lat="46.5289558" lon="12.6029383"><ele>1315.142857142857</ele><time>2026-05-01T09:32:52.75Z</time></trkpt><trkpt lat="46.5290301" lon="12.6029422"><ele>1315.2857142857142</ele><time>2026-05-01T09:32:53.751Z</time></trkpt><trkpt lat="46.5290965" lon="12.6029678"><ele>1315.4285714285716</ele><time>2026-05-01T09:32:54.751Z</time></trkpt><trkpt lat="46.5291641" lon="12.6029934"><ele>1315.5714285714284</ele><time>2026-05-01T09:32:55.751Z</time></trkpt><trkpt lat="46.5292316" lon="12.6030122"><ele>1315.7142857142858</ele><time>2026-05-01T09:32:56.751Z</time></trkpt><trkpt lat="46.5293012" lon="12.6030334"><ele>1315.857142857143</ele><time>2026-05-01T09:32:57.751Z</time></trkpt><trkpt lat="46.529379" lon="12.6030646"><ele>1316.0</ele><time>2026-05-01T09:32:58.751Z</time></trkpt><trkpt lat="46.5294562" lon="12.603104"><ele>1316.0</ele><time>2026-05-01T09:32:59.751Z</time></trkpt><trkpt lat="46.5295393" lon="12.6031496"><ele>1316.0</ele><time>2026-05-01T09:33:00.751Z</time></trkpt><trkpt lat="46.5296226" lon="12.6032145"><ele>1316.0</ele><time>2026-05-01T09:33:01.751Z</time></trkpt><trkpt lat="46.5297067" lon="12.6032774"><ele>1316.0</ele><time>2026-05-01T09:33:02.751Z</time></trkpt><trkpt lat="46.5297846" lon="12.603353"><ele>1316.0</ele><time>2026-05-01T09:33:03.751Z</time></trkpt><trkpt lat="46.5298605" lon="12.6034223"><ele>1316.5</ele><time>2026-05-01T09:33:04.751Z</time></trkpt><trkpt lat="46.5299265" lon="12.6034786"><ele>1317.0</ele><time>2026-05-01T09:33:05.751Z</time></trkpt><trkpt lat="46.5299905" lon="12.6035268"><ele>1317.5</ele><time>2026-05-01T09:33:06.751Z</time></trkpt><trkpt lat="46.5300512" lon="12.6035541"><ele>1318.0</ele><time>2026-05-01T09:33:07.751Z</time></trkpt><trkpt lat="46.530097" lon="12.6036677"><ele>1318.5</ele><time>2026-05-01T09:33:09.751Z</time></trkpt><trkpt lat="46.5300252" lon="12.6037828"><ele>1319.0</ele><time>2026-05-01T09:33:11.751Z</time></trkpt><trkpt lat="46.5299699" lon="12.6038826"><ele>1320.3333333333335</ele><time>2026-05-01T09:33:13.751Z</time></trkpt><trkpt lat="46.5299863" lon="12.6039733"><ele>1321.6666666666667</ele><time>2026-05-01T09:33:15.751Z</time></trkpt><trkpt lat="46.5300588" lon="12.6040518"><ele>1323.0</ele><time>2026-05-01T09:33:16.751Z</time></trkpt><trkpt lat="46.5301123" lon="12.6041192"><ele>1324.3333333333333</ele><time>2026-05-01T09:33:17.75Z</time></trkpt><trkpt lat="46.5301588" lon="12.6041898"><ele>1325.6666666666665</ele><time>2026-05-01T09:33:18.751Z</time></trkpt><trkpt lat="46.5302015" lon="12.6042649"><ele>1327.0</ele><time>2026-05-01T09:33:19.751Z</time></trkpt><trkpt lat="46.5302881" lon="12.604404"><ele>1327.0</ele><time>2026-05-01T09:33:21.751Z</time></trkpt><trkpt lat="46.5303332" lon="12.6044772"><ele>1327.0</ele><time>2026-05-01T09:33:22.751Z</time></trkpt><trkpt lat="46.5303889" lon="12.6045543"><ele>1327.0</ele><time>2026-05-01T09:33:23.751Z</time></trkpt><trkpt lat="46.5304656" lon="12.6046331"><ele>1327.0</ele><time>2026-05-01T09:33:24.75Z</time></trkpt><trkpt lat="46.5305421" lon="12.6046956"><ele>1327.0</ele><time>2026-05-01T09:33:25.751Z</time></trkpt><trkpt lat="46.5306224" lon="12.6047503"><ele>1327.0</ele><time>2026-05-01T09:33:26.751Z</time></trkpt><trkpt lat="46.530688" lon="12.6047834"><ele>1328.1666666666665</ele><time>2026-05-01T09:33:27.751Z</time></trkpt><trkpt lat="46.5307496" lon="12.6048243"><ele>1329.3333333333333</ele><time>2026-05-01T09:33:28.751Z</time></trkpt><trkpt lat="46.5307773" lon="12.6049743"><ele>1330.5</ele><time>2026-05-01T09:33:30.751Z</time></trkpt><trkpt lat="46.5308135" lon="12.6050521"><ele>1331.6666666666667</ele><time>2026-05-01T09:33:31.75Z</time></trkpt><trkpt lat="46.5309286" lon="12.6051408"><ele>1332.8333333333335</ele><time>2026-05-01T09:33:33.751Z</time></trkpt><trkpt lat="46.5309979" lon="12.6051685"><ele>1334.0</ele><time>2026-05-01T09:33:34.751Z</time></trkpt><trkpt lat="46.5310717" lon="12.6051958"><ele>1334.0</ele><time>2026-05-01T09:33:35.751Z</time></trkpt><trkpt lat="46.5311418" lon="12.6052367"><ele>1334.0</ele><time>2026-05-01T09:33:36.751Z</time></trkpt><trkpt lat="46.5312095" lon="12.605275"><ele>1334.0</ele><time>2026-05-01T09:33:37.751Z</time></trkpt><trkpt lat="46.5312801" lon="12.6053175"><ele>1334.0</ele><time>2026-05-01T09:33:38.751Z</time></trkpt><trkpt lat="46.5313451" lon="12.6053551"><ele>1334.0</ele><time>2026-05-01T09:33:39.75Z</time></trkpt><trkpt lat="46.5314406" lon="12.6053967"><ele>1334.0</ele><time>2026-05-01T09:33:41.751Z</time></trkpt><trkpt lat="46.53153" lon="12.6054438"><ele>1333.8333333333335</ele><time>2026-05-01T09:33:43.751Z</time></trkpt><trkpt lat="46.53157" lon="12.6055456"><ele>1333.6666666666667</ele><time>2026-05-01T09:33:45.751Z</time></trkpt><trkpt lat="46.5315884" lon="12.6056653"><ele>1333.5</ele><time>2026-05-01T09:33:47.751Z</time></trkpt><trkpt lat="46.5316147" lon="12.6057812"><ele>1333.3333333333333</ele><time>2026-05-01T09:33:49.75Z</time></trkpt><trkpt lat="46.531665" lon="12.6058865"><ele>1333.1666666666665</ele><time>2026-05-01T09:33:51.751Z</time></trkpt><trkpt lat="46.5317267" lon="12.6059661"><ele>1333.0</ele><time>2026-05-01T09:33:53.751Z</time></trkpt><trkpt lat="46.5317808" lon="12.6060438"><ele>1333.0</ele><time>2026-05-01T09:33:55.751Z</time></trkpt><trkpt lat="46.5316921" lon="12.6059763"><ele>1333.0</ele><time>2026-05-01T09:34:57.751Z</time></trkpt><trkpt lat="46.531636" lon="12.6058781"><ele>1333.0</ele><time>2026-05-01T09:34:59.751Z</time></trkpt><trkpt lat="46.5315864" lon="12.6057476"><ele>1333.0</ele><time>2026-05-01T09:35:01.75Z</time></trkpt><trkpt lat="46.5315784" lon="12.6056108"><ele>1333.0</ele><time>2026-05-01T09:35:03.751Z</time></trkpt><trkpt lat="46.5315568" lon="12.6054965"><ele>1333.0</ele><time>2026-05-01T09:35:05.751Z</time></trkpt><trkpt lat="46.5314919" lon="12.6054238"><ele>1333.0</ele><time>2026-05-01T09:35:07.75Z</time></trkpt><trkpt lat="46.5313961" lon="12.605393"><ele>1333.0</ele><time>2026-05-01T09:35:09.751Z</time></trkpt><trkpt lat="46.5313058" lon="12.6053375"><ele>1333.0</ele><time>2026-05-01T09:35:11.751Z</time></trkpt><trkpt lat="46.5312019" lon="12.6052702"><ele>1333.0</ele><time>2026-05-01T09:35:13.751Z</time></trkpt><trkpt lat="46.5311022" lon="12.6051986"><ele>1333.2</ele><time>2026-05-01T09:35:15.751Z</time></trkpt><trkpt lat="46.5309943" lon="12.6051559"><ele>1333.4</ele><time>2026-05-01T09:35:17.751Z</time></trkpt><trkpt lat="46.5308868" lon="12.6051152"><ele>1333.6000000000001</ele><time>2026-05-01T09:35:19.751Z</time></trkpt><trkpt lat="46.5307946" lon="12.6050231"><ele>1333.8000000000002</ele><time>2026-05-01T09:35:21.751Z</time></trkpt><trkpt lat="46.530751" lon="12.6049552"><ele>1334.0</ele><time>2026-05-01T09:35:22.75Z</time></trkpt><trkpt lat="46.5307017" lon="12.6048033"><ele>1334.0</ele><time>2026-05-01T09:35:24.751Z</time></trkpt><trkpt lat="46.530609" lon="12.604746"><ele>1334.0</ele><time>2026-05-01T09:35:26.751Z</time></trkpt><trkpt lat="46.530505" lon="12.6046832"><ele>1334.0</ele><time>2026-05-01T09:35:28.751Z</time></trkpt><trkpt lat="46.5304055" lon="12.6045695"><ele>1334.0</ele><time>2026-05-01T09:35:30.751Z</time></trkpt><trkpt lat="46.5303583" lon="12.6044947"><ele>1334.0</ele><time>2026-05-01T09:35:31.75Z</time></trkpt><trkpt lat="46.5303114" lon="12.6044183"><ele>1332.8333333333335</ele><time>2026-05-01T09:35:32.75Z</time></trkpt><trkpt lat="46.5302627" lon="12.6043503"><ele>1331.6666666666667</ele><time>2026-05-01T09:35:33.751Z</time></trkpt><trkpt lat="46.5302134" lon="12.6042828"><ele>1330.5</ele><time>2026-05-01T09:35:34.751Z</time></trkpt><trkpt lat="46.530164" lon="12.6042151"><ele>1329.3333333333333</ele><time>2026-05-01T09:35:35.751Z</time></trkpt><trkpt lat="46.5300923" lon="12.6041033"><ele>1328.1666666666665</ele><time>2026-05-01T09:35:37.75Z</time></trkpt><trkpt lat="46.5299886" lon="12.6040182"><ele>1327.0</ele><time>2026-05-01T09:35:39.751Z</time></trkpt><trkpt lat="46.5299396" lon="12.6039556"><ele>1327.0</ele><time>2026-05-01T09:35:40.751Z</time></trkpt><trkpt lat="46.529976" lon="12.6038426"><ele>1327.0</ele><time>2026-05-01T09:35:42.751Z</time></trkpt><trkpt lat="46.5300627" lon="12.6037455"><ele>1327.0</ele><time>2026-05-01T09:35:44.751Z</time></trkpt><trkpt lat="46.5301461" lon="12.6036556"><ele>1327.0</ele><time>2026-05-01T09:35:46.75Z</time></trkpt><trkpt lat="46.530242" lon="12.6035934"><ele>1327.0</ele><time>2026-05-01T09:35:48.751Z</time></trkpt><trkpt lat="46.5303469" lon="12.6035251"><ele>1325.5714285714287</ele><time>2026-05-01T09:35:50.751Z</time></trkpt><trkpt lat="46.5304202" lon="12.6034446"><ele>1324.142857142857</ele><time>2026-05-01T09:35:52.751Z</time></trkpt><trkpt lat="46.5304796" lon="12.6033688"><ele>1322.7142857142858</ele><time>2026-05-01T09:35:54.75Z</time></trkpt><trkpt lat="46.530504" lon="12.6032786"><ele>1321.2857142857142</ele><time>2026-05-01T09:35:56.75Z</time></trkpt><trkpt lat="46.5305398" lon="12.6031915"><ele>1319.857142857143</ele><time>2026-05-01T09:35:59.751Z</time></trkpt><trkpt lat="46.5305506" lon="12.6030911"><ele>1318.4285714285716</ele><time>2026-05-01T09:36:03.751Z</time></trkpt><trkpt lat="46.530524" lon="12.6031767"><ele>1317.0</ele><time>2026-05-01T09:37:33.75Z</time></trkpt><trkpt lat="46.5305108" lon="12.6032705"><ele>1317.0</ele><time>2026-05-01T09:37:46.751Z</time></trkpt><trkpt lat="46.5304723" lon="12.603362"><ele>1317.0</ele><time>2026-05-01T09:37:48.751Z</time></trkpt><trkpt lat="46.5304288" lon="12.6034318"><ele>1317.0</ele><time>2026-05-01T09:37:50.75Z</time></trkpt><trkpt lat="46.5303807" lon="12.6034921"><ele>1317.0</ele><time>2026-05-01T09:37:52.75Z</time></trkpt><trkpt lat="46.5303274" lon="12.6035527"><ele>1317.0</ele><time>2026-05-01T09:37:54.75Z</time></trkpt><trkpt lat="46.5302543" lon="12.6035867"><ele>1317.0</ele><time>2026-05-01T09:37:57.751Z</time></trkpt><trkpt lat="46.5301925" lon="12.60361"><ele>1317.0</ele><time>2026-05-01T09:38:00.751Z</time></trkpt><trkpt lat="46.5302511" lon="12.6037246"><ele>1318.0</ele><time>2026-05-01T09:38:03.751Z</time></trkpt><trkpt lat="46.5303398" lon="12.6037651"><ele>1319.0</ele><time>2026-05-01T09:38:05.751Z</time></trkpt><trkpt lat="46.5304193" lon="12.6038005"><ele>1320.0</ele><time>2026-05-01T09:38:07.75Z</time></trkpt><trkpt lat="46.5304807" lon="12.6038931"><ele>1321.0</ele><time>2026-05-01T09:38:09.751Z</time></trkpt><trkpt lat="46.5305431" lon="12.6040017"><ele>1322.0</ele><time>2026-05-01T09:38:11.751Z</time></trkpt><trkpt lat="46.5306073" lon="12.6040677"><ele>1323.0</ele><time>2026-05-01T09:38:13.751Z</time></trkpt><trkpt lat="46.5306902" lon="12.6040621"><ele>1323.0</ele><time>2026-05-01T09:38:15.751Z</time></trkpt><trkpt lat="46.5307757" lon="12.6040164"><ele>1323.0</ele><time>2026-05-01T09:38:17.751Z</time></trkpt><trkpt lat="46.5308533" lon="12.6039645"><ele>1323.0</ele><time>2026-05-01T09:38:19.75Z</time></trkpt><trkpt lat="46.5309332" lon="12.6039045"><ele>1323.0</ele><time>2026-05-01T09:38:21.751Z</time></trkpt><trkpt lat="46.5310054" lon="12.6038176"><ele>1323.0</ele><time>2026-05-01T09:38:23.751Z</time></trkpt><trkpt lat="46.5310748" lon="12.6037522"><ele>1323.0</ele><time>2026-05-01T09:38:25.751Z</time></trkpt><trkpt lat="46.5311597" lon="12.6036846"><ele>1319.5</ele><time>2026-05-01T09:38:27.751Z</time></trkpt><trkpt lat="46.5312442" lon="12.603629"><ele>1316.0</ele><time>2026-05-01T09:38:29.751Z</time></trkpt><trkpt lat="46.5313146" lon="12.60355"><ele>1312.5</ele><time>2026-05-01T09:38:31.751Z</time></trkpt><trkpt lat="46.5313822" lon="12.6034501"><ele>1309.0</ele><time>2026-05-01T09:38:33.751Z</time></trkpt><trkpt lat="46.5314406" lon="12.6033747"><ele>1305.5</ele><time>2026-05-01T09:38:35.751Z</time></trkpt><trkpt lat="46.5314959" lon="12.6032829"><ele>1302.0</ele><time>2026-05-01T09:38:37.751Z</time></trkpt><trkpt lat="46.5315386" lon="12.6031916"><ele>1302.0</ele><time>2026-05-01T09:38:39.751Z</time></trkpt><trkpt lat="46.5315709" lon="12.6031058"><ele>1302.0</ele><time>2026-05-01T09:38:41.751Z</time></trkpt><trkpt lat="46.5315888" lon="12.6030088"><ele>1302.0</ele><time>2026-05-01T09:38:43.751Z</time></trkpt><trkpt lat="46.5316183" lon="12.6028942"><ele>1302.0</ele><time>2026-05-01T09:38:46.751Z</time></trkpt><trkpt lat="46.5316398" lon="12.6028054"><ele>1302.0</ele><time>2026-05-01T09:38:49.751Z</time></trkpt><trkpt lat="46.5316764" lon="12.6027277"><ele>1302.0</ele><time>2026-05-01T09:39:35.751Z</time></trkpt><trkpt lat="46.5316864" lon="12.6026343"><ele>1302.0</ele><time>2026-05-01T09:43:29.751Z</time></trkpt><trkpt lat="46.5317302" lon="12.6025468"><ele>1299.857142857143</ele><time>2026-05-01T09:43:35.75Z</time></trkpt><trkpt lat="46.5317645" lon="12.6024636"><ele>1297.7142857142858</ele><time>2026-05-01T09:43:42.75Z</time></trkpt><trkpt lat="46.5318322" lon="12.6024778"><ele>1295.5714285714284</ele><time>2026-05-01T09:43:46.751Z</time></trkpt><trkpt lat="46.5318941" lon="12.6025109"><ele>1293.4285714285716</ele><time>2026-05-01T09:43:49.751Z</time></trkpt><trkpt lat="46.5319635" lon="12.6025247"><ele>1291.2857142857142</ele><time>2026-05-01T09:43:53.75Z</time></trkpt><trkpt lat="46.5320102" lon="12.6024439"><ele>1289.142857142857</ele><time>2026-05-01T09:43:58.751Z</time></trkpt><trkpt lat="46.5320288" lon="12.6023292"><ele>1287.0</ele><time>2026-05-01T09:44:02.751Z</time></trkpt><trkpt lat="46.5320584" lon="12.6022149"><ele>1287.0</ele><time>2026-05-01T09:44:05.751Z</time></trkpt><trkpt lat="46.5320838" lon="12.6021246"><ele>1287.0</ele><time>2026-05-01T09:44:08.751Z</time></trkpt><trkpt lat="46.5321026" lon="12.6022192"><ele>1287.0</ele><time>2026-05-01T09:46:43.751Z</time></trkpt><trkpt lat="46.5320741" lon="12.6023492"><ele>1287.0</ele><time>2026-05-01T09:46:47.751Z</time></trkpt><trkpt lat="46.5320681" lon="12.6024513"><ele>1287.0</ele><time>2026-05-01T09:46:50.751Z</time></trkpt><trkpt lat="46.5319894" lon="12.6025102"><ele>1287.0</ele><time>2026-05-01T09:47:54.751Z</time></trkpt><trkpt lat="46.5319503" lon="12.6025843"><ele>1287.0</ele><time>2026-05-01T09:48:00.751Z</time></trkpt><trkpt lat="46.5318793" lon="12.6024946"><ele>1287.0</ele><time>2026-05-01T09:49:10.751Z</time></trkpt><trkpt lat="46.5318091" lon="12.6024805"><ele>1287.0</ele><time>2026-05-01T09:49:12.751Z</time></trkpt><trkpt lat="46.5317331" lon="12.6025728"><ele>1287.0</ele><time>2026-05-01T09:49:15.751Z</time></trkpt><trkpt lat="46.531694" lon="12.6026816"><ele>1287.0</ele><time>2026-05-01T09:49:18.751Z</time></trkpt><trkpt lat="46.5316673" lon="12.6027667"><ele>1287.0</ele><time>2026-05-01T09:49:20.751Z</time></trkpt><trkpt lat="46.5316319" lon="12.6028901"><ele>1289.5</ele><time>2026-05-01T09:49:23.751Z</time></trkpt><trkpt lat="46.5316187" lon="12.6029873"><ele>1292.0</ele><time>2026-05-01T09:49:25.751Z</time></trkpt><trkpt lat="46.5315931" lon="12.6030838"><ele>1294.5</ele><time>2026-05-01T09:49:27.75Z</time></trkpt><trkpt lat="46.531568" lon="12.6031889"><ele>1297.0</ele><time>2026-05-01T09:49:29.75Z</time></trkpt><trkpt lat="46.5315202" lon="12.6032835"><ele>1299.5</ele><time>2026-05-01T09:49:31.751Z</time></trkpt><trkpt lat="46.5314722" lon="12.6033599"><ele>1302.0</ele><time>2026-05-01T09:49:33.751Z</time></trkpt><trkpt lat="46.5314089" lon="12.6034457"><ele>1302.0</ele><time>2026-05-01T09:49:36.751Z</time></trkpt><trkpt lat="46.5313505" lon="12.6035226"><ele>1302.0</ele><time>2026-05-01T09:49:39.751Z</time></trkpt><trkpt lat="46.5312966" lon="12.603607"><ele>1302.0</ele><time>2026-05-01T09:49:42.75Z</time></trkpt><trkpt lat="46.531293" lon="12.6037061"><ele>1302.0</ele><time>2026-05-01T09:49:45.751Z</time></trkpt><trkpt lat="46.5313427" lon="12.6037881"><ele>1302.0</ele><time>2026-05-01T09:49:54.75Z</time></trkpt><trkpt lat="46.531291" lon="12.6038435"><ele>1302.0</ele><time>2026-05-01T09:50:07.75Z</time></trkpt><trkpt lat="46.5312084" lon="12.6038959"><ele>1306.1999999999998</ele><time>2026-05-01T09:50:10.751Z</time></trkpt><trkpt lat="46.5311135" lon="12.6039143"><ele>1310.4</ele><time>2026-05-01T09:50:12.751Z</time></trkpt><trkpt lat="46.5310435" lon="12.6039382"><ele>1314.6</ele><time>2026-05-01T09:50:14.751Z</time></trkpt><trkpt lat="46.5309468" lon="12.6039182"><ele>1318.8000000000002</ele><time>2026-05-01T09:50:17.751Z</time></trkpt><trkpt lat="46.5308634" lon="12.6039896"><ele>1323.0</ele><time>2026-05-01T09:50:19.751Z</time></trkpt><trkpt lat="46.5307609" lon="12.6040714"><ele>1323.0</ele><time>2026-05-01T09:50:21.751Z</time></trkpt><trkpt lat="46.5306421" lon="12.6040935"><ele>1323.0</ele><time>2026-05-01T09:50:23.75Z</time></trkpt><trkpt lat="46.5305527" lon="12.6040239"><ele>1323.0</ele><time>2026-05-01T09:50:25.751Z</time></trkpt><trkpt lat="46.5304816" lon="12.6038957"><ele>1323.0</ele><time>2026-05-01T09:50:27.751Z</time></trkpt><trkpt lat="46.5304169" lon="12.6038054"><ele>1323.0</ele><time>2026-05-01T09:50:29.751Z</time></trkpt><trkpt lat="46.530345" lon="12.6037729"><ele>1323.8000000000002</ele><time>2026-05-01T09:50:31.751Z</time></trkpt><trkpt lat="46.5302401" lon="12.6037241"><ele>1324.6</ele><time>2026-05-01T09:50:33.751Z</time></trkpt><trkpt lat="46.5301399" lon="12.6036555"><ele>1325.4</ele><time>2026-05-01T09:50:35.75Z</time></trkpt><trkpt lat="46.5300397" lon="12.6035916"><ele>1326.1999999999998</ele><time>2026-05-01T09:50:37.751Z</time></trkpt><trkpt lat="46.5299485" lon="12.6035211"><ele>1327.0</ele><time>2026-05-01T09:50:39.751Z</time></trkpt><trkpt lat="46.5298422" lon="12.6034366"><ele>1325.3999999999999</ele><time>2026-05-01T09:50:41.751Z</time></trkpt><trkpt lat="46.5297396" lon="12.6033448"><ele>1323.8</ele><time>2026-05-01T09:50:43.751Z</time></trkpt><trkpt lat="46.5296332" lon="12.6032525"><ele>1322.2</ele><time>2026-05-01T09:50:45.751Z</time></trkpt><trkpt lat="46.5295376" lon="12.6031612"><ele>1320.6</ele><time>2026-05-01T09:50:47.751Z</time></trkpt><trkpt lat="46.5294746" lon="12.6031445"><ele>1319.0</ele><time>2026-05-01T09:50:48.751Z</time></trkpt><trkpt lat="46.5293718" lon="12.6030706"><ele>1318.5</ele><time>2026-05-01T09:50:50.751Z</time></trkpt><trkpt lat="46.5293057" lon="12.6030445"><ele>1318.0</ele><time>2026-05-01T09:50:51.751Z</time></trkpt><trkpt lat="46.5292381" lon="12.6030212"><ele>1317.5</ele><time>2026-05-01T09:50:52.751Z</time></trkpt><trkpt lat="46.5291145" lon="12.6029747"><ele>1317.0</ele><time>2026-05-01T09:50:54.751Z</time></trkpt><trkpt lat="46.5290535" lon="12.6029458"><ele>1316.5</ele><time>2026-05-01T09:50:55.751Z</time></trkpt><trkpt lat="46.528983" lon="12.6029361"><ele>1316.0</ele><time>2026-05-01T09:50:56.751Z</time></trkpt><trkpt lat="46.528869" lon="12.6029377"><ele>1316.0</ele><time>2026-05-01T09:50:58.751Z</time></trkpt><trkpt lat="46.528753" lon="12.6029739"><ele>1316.0</ele><time>2026-05-01T09:51:00.751Z</time></trkpt><trkpt lat="46.5286337" lon="12.6029652"><ele>1316.0</ele><time>2026-05-01T09:51:02.751Z</time></trkpt><trkpt lat="46.5285639" lon="12.6029353"><ele>1316.0</ele><time>2026-05-01T09:51:03.75Z</time></trkpt><trkpt lat="46.528506" lon="12.6028631"><ele>1316.0</ele><time>2026-05-01T09:51:04.751Z</time></trkpt><trkpt lat="46.5284386" lon="12.6028088"><ele>1314.1666666666667</ele><time>2026-05-01T09:51:05.751Z</time></trkpt><trkpt lat="46.5283597" lon="12.602768"><ele>1312.3333333333335</ele><time>2026-05-01T09:51:06.751Z</time></trkpt><trkpt lat="46.5282737" lon="12.6027343"><ele>1310.5</ele><time>2026-05-01T09:51:07.75Z</time></trkpt><trkpt lat="46.5281917" lon="12.6027188"><ele>1308.6666666666667</ele><time>2026-05-01T09:51:08.75Z</time></trkpt><trkpt lat="46.5281193" lon="12.6027318"><ele>1306.8333333333333</ele><time>2026-05-01T09:51:09.751Z</time></trkpt><trkpt lat="46.5280352" lon="12.6027416"><ele>1305.0</ele><time>2026-05-01T09:51:10.75Z</time></trkpt><trkpt lat="46.5279583" lon="12.6027487"><ele>1304.5</ele><time>2026-05-01T09:51:11.751Z</time></trkpt><trkpt lat="46.5278748" lon="12.602756"><ele>1304.0</ele><time>2026-05-01T09:51:12.751Z</time></trkpt><trkpt lat="46.527797" lon="12.602769"><ele>1303.5</ele><time>2026-05-01T09:51:13.75Z</time></trkpt><trkpt lat="46.5277263" lon="12.6027772"><ele>1303.0</ele><time>2026-05-01T09:51:14.751Z</time></trkpt><trkpt lat="46.5276504" lon="12.6027826"><ele>1302.5</ele><time>2026-05-01T09:51:15.751Z</time></trkpt><trkpt lat="46.527585" lon="12.6027908"><ele>1302.0</ele><time>2026-05-01T09:51:16.751Z</time></trkpt><trkpt lat="46.5274622" lon="12.602817"><ele>1302.0</ele><time>2026-05-01T09:51:18.751Z</time></trkpt><trkpt lat="46.5273586" lon="12.60283"><ele>1302.0</ele><time>2026-05-01T09:51:20.751Z</time></trkpt><trkpt lat="46.5272851" lon="12.6028385"><ele>1302.0</ele><time>2026-05-01T09:51:22.751Z</time></trkpt><trkpt lat="46.5272117" lon="12.6028434"><ele>1302.0</ele><time>2026-05-01T09:53:20.751Z</time></trkpt><trkpt lat="46.5271192" lon="12.6028256"><ele>1302.0</ele><time>2026-05-01T09:53:22.751Z</time></trkpt><trkpt lat="46.5270181" lon="12.6027443"><ele>1301.1666666666667</ele><time>2026-05-01T09:53:24.75Z</time></trkpt><trkpt lat="46.5269258" lon="12.6026235"><ele>1300.3333333333333</ele><time>2026-05-01T09:53:26.75Z</time></trkpt><trkpt lat="46.5268715" lon="12.6025658"><ele>1299.5</ele><time>2026-05-01T09:53:27.751Z</time></trkpt><trkpt lat="46.5268204" lon="12.6025088"><ele>1298.6666666666665</ele><time>2026-05-01T09:53:28.751Z</time></trkpt><trkpt lat="46.5267718" lon="12.6024449"><ele>1297.8333333333333</ele><time>2026-05-01T09:53:29.751Z</time></trkpt><trkpt lat="46.5267288" lon="12.6023734"><ele>1297.0</ele><time>2026-05-01T09:53:30.75Z</time></trkpt><trkpt lat="46.5266914" lon="12.6022961"><ele>1297.0</ele><time>2026-05-01T09:53:31.751Z</time></trkpt><trkpt lat="46.5266588" lon="12.6022113"><ele>1297.0</ele><time>2026-05-01T09:53:32.751Z</time></trkpt><trkpt lat="46.5266393" lon="12.6021241"><ele>1297.0</ele><time>2026-05-01T09:53:33.751Z</time></trkpt><trkpt lat="46.5266449" lon="12.6020209"><ele>1297.0</ele><time>2026-05-01T09:53:34.751Z</time></trkpt><trkpt lat="46.5266583" lon="12.6019192"><ele>1297.0</ele><time>2026-05-01T09:53:35.751Z</time></trkpt><trkpt lat="46.526688" lon="12.6018202"><ele>1297.0</ele><time>2026-05-01T09:53:36.751Z</time></trkpt><trkpt lat="46.5267121" lon="12.6017188"><ele>1297.0</ele><time>2026-05-01T09:53:37.751Z</time></trkpt><trkpt lat="46.5267735" lon="12.6015593"><ele>1295.0</ele><time>2026-05-01T09:53:39.75Z</time></trkpt><trkpt lat="46.5268095" lon="12.6014789"><ele>1293.0</ele><time>2026-05-01T09:53:40.751Z</time></trkpt><trkpt lat="46.5268512" lon="12.6013977"><ele>1291.0</ele><time>2026-05-01T09:53:41.751Z</time></trkpt><trkpt lat="46.5268955" lon="12.6013072"><ele>1289.0</ele><time>2026-05-01T09:53:42.751Z</time></trkpt><trkpt lat="46.5269484" lon="12.601214"><ele>1287.0</ele><time>2026-05-01T09:53:43.751Z</time></trkpt><trkpt lat="46.5269992" lon="12.6011113"><ele>1285.0</ele><time>2026-05-01T09:53:44.75Z</time></trkpt><trkpt lat="46.5270436" lon="12.6010225"><ele>1282.8333333333333</ele><time>2026-05-01T09:53:45.75Z</time></trkpt><trkpt lat="46.5270911" lon="12.6009369"><ele>1280.6666666666665</ele><time>2026-05-01T09:53:46.751Z</time></trkpt><trkpt lat="46.5271434" lon="12.6008631"><ele>1278.5</ele><time>2026-05-01T09:53:47.751Z</time></trkpt><trkpt lat="46.5272042" lon="12.6007995"><ele>1276.3333333333333</ele><time>2026-05-01T09:53:48.751Z</time></trkpt><trkpt lat="46.5272806" lon="12.6007713"><ele>1274.1666666666667</ele><time>2026-05-01T09:53:49.751Z</time></trkpt><trkpt lat="46.5273544" lon="12.6007381"><ele>1272.0</ele><time>2026-05-01T09:53:50.751Z</time></trkpt><trkpt lat="46.5274344" lon="12.6007085"><ele>1272.0</ele><time>2026-05-01T09:53:51.751Z</time></trkpt><trkpt lat="46.5275055" lon="12.6006853"><ele>1272.0</ele><time>2026-05-01T09:53:52.751Z</time></trkpt><trkpt lat="46.5275837" lon="12.6006479"><ele>1272.0</ele><time>2026-05-01T09:53:53.751Z</time></trkpt><trkpt lat="46.5276523" lon="12.6006026"><ele>1272.0</ele><time>2026-05-01T09:53:54.751Z</time></trkpt><trkpt lat="46.5277235" lon="12.6005441"><ele>1272.0</ele><time>2026-05-01T09:53:55.751Z</time></trkpt><trkpt lat="46.527792" lon="12.6004883"><ele>1272.0</ele><time>2026-05-01T09:53:56.751Z</time></trkpt><trkpt lat="46.5278611" lon="12.6004424"><ele>1271.857142857143</ele><time>2026-05-01T09:53:57.751Z</time></trkpt><trkpt lat="46.5279304" lon="12.6004102"><ele>1271.7142857142858</ele><time>2026-05-01T09:53:58.751Z</time></trkpt><trkpt lat="46.5280069" lon="12.600405"><ele>1271.5714285714287</ele><time>2026-05-01T09:53:59.751Z</time></trkpt><trkpt lat="46.5280795" lon="12.6004218"><ele>1271.4285714285716</ele><time>2026-05-01T09:54:00.751Z</time></trkpt><trkpt lat="46.5281514" lon="12.6004426"><ele>1271.2857142857142</ele><time>2026-05-01T09:54:01.751Z</time></trkpt><trkpt lat="46.5282247" lon="12.6004679"><ele>1271.1428571428573</ele><time>2026-05-01T09:54:02.751Z</time></trkpt><trkpt lat="46.5283009" lon="12.6004912"><ele>1271.0</ele><time>2026-05-01T09:54:03.751Z</time></trkpt><trkpt lat="46.5283802" lon="12.6005129"><ele>1271.0</ele><time>2026-05-01T09:54:04.751Z</time></trkpt><trkpt lat="46.5284607" lon="12.6005306"><ele>1271.0</ele><time>2026-05-01T09:54:05.751Z</time></trkpt><trkpt lat="46.5285431" lon="12.6005479"><ele>1271.0</ele><time>2026-05-01T09:54:06.751Z</time></trkpt><trkpt lat="46.5286295" lon="12.6005678"><ele>1271.0</ele><time>2026-05-01T09:54:07.75Z</time></trkpt><trkpt lat="46.5287191" lon="12.6005969"><ele>1271.0</ele><time>2026-05-01T09:54:08.751Z</time></trkpt><trkpt lat="46.528808" lon="12.6006185"><ele>1271.0</ele><time>2026-05-01T09:54:09.751Z</time></trkpt><trkpt lat="46.5288963" lon="12.6006331"><ele>1271.2</ele><time>2026-05-01T09:54:10.751Z</time></trkpt><trkpt lat="46.5289842" lon="12.6006554"><ele>1271.3999999999999</ele><time>2026-05-01T09:54:11.751Z</time></trkpt><trkpt lat="46.5290768" lon="12.6006781"><ele>1271.6</ele><time>2026-05-01T09:54:12.75Z</time></trkpt><trkpt lat="46.5291736" lon="12.6006919"><ele>1271.8</ele><time>2026-05-01T09:54:13.751Z</time></trkpt><trkpt lat="46.5292695" lon="12.6007015"><ele>1272.0</ele><time>2026-05-01T09:54:14.75Z</time></trkpt><trkpt lat="46.5293692" lon="12.6007071"><ele>1272.0</ele><time>2026-05-01T09:54:15.751Z</time></trkpt><trkpt lat="46.5294667" lon="12.6007029"><ele>1272.0</ele><time>2026-05-01T09:54:16.751Z</time></trkpt><trkpt lat="46.5295621" lon="12.6006989"><ele>1272.0</ele><time>2026-05-01T09:54:17.75Z</time></trkpt><trkpt lat="46.5296595" lon="12.6006931"><ele>1272.0</ele><time>2026-05-01T09:54:18.75Z</time></trkpt><trkpt lat="46.5297557" lon="12.6006848"><ele>1272.0</ele><time>2026-05-01T09:54:19.751Z</time></trkpt><trkpt lat="46.5298463" lon="12.600675"><ele>1271.6666666666667</ele><time>2026-05-01T09:54:20.751Z</time></trkpt><trkpt lat="46.5299362" lon="12.6006688"><ele>1271.3333333333333</ele><time>2026-05-01T09:54:21.751Z</time></trkpt><trkpt lat="46.5300264" lon="12.600656"><ele>1271.0</ele><time>2026-05-01T09:54:22.75Z</time></trkpt><trkpt lat="46.530111" lon="12.6006534"><ele>1270.6666666666665</ele><time>2026-05-01T09:54:23.75Z</time></trkpt><trkpt lat="46.5301898" lon="12.6006638"><ele>1270.3333333333333</ele><time>2026-05-01T09:54:24.751Z</time></trkpt><trkpt lat="46.5302671" lon="12.6006928"><ele>1270.0</ele><time>2026-05-01T09:54:25.751Z</time></trkpt><trkpt lat="46.5303358" lon="12.6007202"><ele>1266.5</ele><time>2026-05-01T09:54:26.751Z</time></trkpt><trkpt lat="46.5304032" lon="12.600768"><ele>1263.0</ele><time>2026-05-01T09:54:27.751Z</time></trkpt><trkpt lat="46.5304694" lon="12.6008248"><ele>1259.5</ele><time>2026-05-01T09:54:28.75Z</time></trkpt><trkpt lat="46.5305433" lon="12.6008955"><ele>1256.0</ele><time>2026-05-01T09:54:29.751Z</time></trkpt><trkpt lat="46.5306163" lon="12.6009685"><ele>1252.5</ele><time>2026-05-01T09:54:30.751Z</time></trkpt><trkpt lat="46.5306899" lon="12.6010413"><ele>1249.0</ele><time>2026-05-01T09:54:31.751Z</time></trkpt><trkpt lat="46.5307633" lon="12.6011172"><ele>1251.6666666666665</ele><time>2026-05-01T09:54:32.751Z</time></trkpt><trkpt lat="46.53084" lon="12.6011947"><ele>1254.3333333333333</ele><time>2026-05-01T09:54:33.75Z</time></trkpt><trkpt lat="46.5309206" lon="12.6012807"><ele>1257.0</ele><time>2026-05-01T09:54:34.75Z</time></trkpt><trkpt lat="46.5309882" lon="12.6013543"><ele>1259.6666666666667</ele><time>2026-05-01T09:54:35.751Z</time></trkpt><trkpt lat="46.5310584" lon="12.6014191"><ele>1262.3333333333335</ele><time>2026-05-01T09:54:36.751Z</time></trkpt><trkpt lat="46.5311289" lon="12.6014863"><ele>1265.0</ele><time>2026-05-01T09:54:37.751Z</time></trkpt><trkpt lat="46.5312096" lon="12.6015416"><ele>1263.1666666666667</ele><time>2026-05-01T09:54:38.751Z</time></trkpt><trkpt lat="46.5312931" lon="12.6015862"><ele>1261.3333333333335</ele><time>2026-05-01T09:54:39.751Z</time></trkpt><trkpt lat="46.5313814" lon="12.6016098"><ele>1259.5</ele><time>2026-05-01T09:54:40.751Z</time></trkpt><trkpt lat="46.5314693" lon="12.601628"><ele>1257.6666666666667</ele><time>2026-05-01T09:54:41.751Z</time></trkpt><trkpt lat="46.5315594" lon="12.6016295"><ele>1255.8333333333333</ele><time>2026-05-01T09:54:42.751Z</time></trkpt><trkpt lat="46.5316431" lon="12.6016271"><ele>1254.0</ele><time>2026-05-01T09:54:43.751Z</time></trkpt><trkpt lat="46.5317156" lon="12.6016281"><ele>1254.0</ele><time>2026-05-01T09:54:44.751Z</time></trkpt><trkpt lat="46.5317845" lon="12.6016229"><ele>1254.0</ele><time>2026-05-01T09:54:45.751Z</time></trkpt><trkpt lat="46.5318498" lon="12.601608"><ele>1254.0</ele><time>2026-05-01T09:54:46.751Z</time></trkpt><trkpt lat="46.5319613" lon="12.6015904"><ele>1254.0</ele><time>2026-05-01T09:54:48.751Z</time></trkpt><trkpt lat="46.532046" lon="12.6015815"><ele>1254.0</ele><time>2026-05-01T09:54:50.751Z</time></trkpt><trkpt lat="46.532113" lon="12.6016022"><ele>1254.0</ele><time>2026-05-01T09:55:15.75Z</time></trkpt><trkpt lat="46.532164" lon="12.601673"><ele>1254.0</ele><time>2026-05-01T09:55:21.751Z</time></trkpt><trkpt lat="46.5322109" lon="12.6017457"><ele>1254.0</ele><time>2026-05-01T09:55:26.751Z</time></trkpt><trkpt lat="46.5322446" lon="12.6018324"><ele>1254.0</ele><time>2026-05-01T09:55:32.75Z</time></trkpt><trkpt lat="46.5322833" lon="12.6019099"><ele>1254.0</ele><time>2026-05-01T09:55:42.751Z</time></trkpt><trkpt lat="46.5323145" lon="12.6019939"><ele>1254.0</ele><time>2026-05-01T09:56:03.751Z</time></trkpt><trkpt lat="46.5323494" lon="12.602087"><ele>1254.0</ele><time>2026-05-01T09:56:08.751Z</time></trkpt><trkpt lat="46.5323963" lon="12.6021678"><ele>1254.0</ele><time>2026-05-01T09:56:11.75Z</time></trkpt><trkpt lat="46.532432" lon="12.6022451"><ele>1254.0</ele><time>2026-05-01T09:56:13.751Z</time></trkpt><trkpt lat="46.5324671" lon="12.602334"><ele>1254.0</ele><time>2026-05-01T09:56:15.751Z</time></trkpt><trkpt lat="46.5325162" lon="12.6024089"><ele>1254.0</ele><time>2026-05-01T09:56:17.751Z</time></trkpt><trkpt lat="46.5325886" lon="12.602468"><ele>1254.0</ele><time>2026-05-01T09:56:19.751Z</time></trkpt><trkpt lat="46.5326662" lon="12.6024763"><ele>1254.0</ele><time>2026-05-01T09:56:21.75Z</time></trkpt><trkpt lat="46.5326943" lon="12.6023933"><ele>1254.0</ele><time>2026-05-01T10:02:09.751Z</time></trkpt><trkpt lat="46.5326435" lon="12.6023012"><ele>1254.0</ele><time>2026-05-01T10:02:16.751Z</time></trkpt><trkpt lat="46.5326126" lon="12.6022043"><ele>1254.0</ele><time>2026-05-01T10:02:19.751Z</time></trkpt><trkpt lat="46.5325725" lon="12.6021319"><ele>1254.0</ele><time>2026-05-01T10:02:21.751Z</time></trkpt><trkpt lat="46.5325243" lon="12.6020453"><ele>1254.0</ele><time>2026-05-01T10:02:23.751Z</time></trkpt><trkpt lat="46.5324696" lon="12.6019417"><ele>1254.0</ele><time>2026-05-01T10:02:25.751Z</time></trkpt><trkpt lat="46.5324358" lon="12.6018379"><ele>1254.0</ele><time>2026-05-01T10:02:27.751Z</time></trkpt><trkpt lat="46.532458" lon="12.6017227"><ele>1254.0</ele><time>2026-05-01T10:02:29.751Z</time></trkpt><trkpt lat="46.5325418" lon="12.6017289"><ele>1254.0</ele><time>2026-05-01T10:02:31.751Z</time></trkpt><trkpt lat="46.5325882" lon="12.6018448"><ele>1254.0</ele><time>2026-05-01T10:02:33.751Z</time></trkpt><trkpt lat="46.5326326" lon="12.601988"><ele>1254.0</ele><time>2026-05-01T10:02:35.751Z</time></trkpt><trkpt lat="46.5327038" lon="12.6021047"><ele>1254.0</ele><time>2026-05-01T10:02:37.751Z</time></trkpt><trkpt lat="46.5327928" lon="12.6020212"><ele>1254.0</ele><time>2026-05-01T10:02:39.751Z</time></trkpt><trkpt lat="46.5327795" lon="12.6018811"><ele>1251.2</ele><time>2026-05-01T10:02:41.751Z</time></trkpt><trkpt lat="46.5327158" lon="12.6017495"><ele>1248.4</ele><time>2026-05-01T10:02:43.751Z</time></trkpt><trkpt lat="46.5326469" lon="12.6015943"><ele>1245.6</ele><time>2026-05-01T10:02:45.751Z</time></trkpt><trkpt lat="46.532615" lon="12.6015119"><ele>1242.8</ele><time>2026-05-01T10:02:46.751Z</time></trkpt><trkpt lat="46.5325629" lon="12.6013557"><ele>1240.0</ele><time>2026-05-01T10:02:48.75Z</time></trkpt><trkpt lat="46.5326319" lon="12.6012457"><ele>1240.0</ele><time>2026-05-01T10:02:50.751Z</time></trkpt><trkpt lat="46.532705" lon="12.6013"><ele>1240.0</ele><time>2026-05-01T10:02:52.751Z</time></trkpt><trkpt lat="46.5327568" lon="12.6014205"><ele>1240.0</ele><time>2026-05-01T10:02:54.751Z</time></trkpt><trkpt lat="46.5328075" lon="12.6015712"><ele>1240.0</ele><time>2026-05-01T10:02:56.751Z</time></trkpt><trkpt lat="46.532875" lon="12.6017282"><ele>1240.0</ele><time>2026-05-01T10:02:58.751Z</time></trkpt><trkpt lat="46.5329223" lon="12.6017894"><ele>1240.0</ele><time>2026-05-01T10:02:59.751Z</time></trkpt><trkpt lat="46.5330205" lon="12.6017805"><ele>1240.0</ele><time>2026-05-01T10:03:01.751Z</time></trkpt><trkpt lat="46.533039" lon="12.6016404"><ele>1240.0</ele><time>2026-05-01T10:03:03.751Z</time></trkpt><trkpt lat="46.5329736" lon="12.6014999"><ele>1240.0</ele><time>2026-05-01T10:03:05.751Z</time></trkpt><trkpt lat="46.5329224" lon="12.6014352"><ele>1240.0</ele><time>2026-05-01T10:03:06.751Z</time></trkpt><trkpt lat="46.5328629" lon="12.6012777"><ele>1233.8</ele><time>2026-05-01T10:03:08.751Z</time></trkpt><trkpt lat="46.5329057" lon="12.6011325"><ele>1227.6</ele><time>2026-05-01T10:03:10.751Z</time></trkpt><trkpt lat="46.5329978" lon="12.6011617"><ele>1221.4</ele><time>2026-05-01T10:03:12.751Z</time></trkpt><trkpt lat="46.5330559" lon="12.6012936"><ele>1215.2</ele><time>2026-05-01T10:03:14.751Z</time></trkpt><trkpt lat="46.5331291" lon="12.6014372"><ele>1209.0</ele><time>2026-05-01T10:03:16.751Z</time></trkpt><trkpt lat="46.5331747" lon="12.6015036"><ele>1209.0</ele><time>2026-05-01T10:03:17.751Z</time></trkpt><trkpt lat="46.5332882" lon="12.6015086"><ele>1209.0</ele><time>2026-05-01T10:03:19.751Z</time></trkpt><trkpt lat="46.5332955" lon="12.6013688"><ele>1209.0</ele><time>2026-05-01T10:03:21.751Z</time></trkpt><trkpt lat="46.5332338" lon="12.6012282"><ele>1209.0</ele><time>2026-05-01T10:03:23.751Z</time></trkpt><trkpt lat="46.5331429" lon="12.6011044"><ele>1209.0</ele><time>2026-05-01T10:03:25.75Z</time></trkpt><trkpt lat="46.53309" lon="12.6010382"><ele>1207.8333333333333</ele><time>2026-05-01T10:03:26.75Z</time></trkpt><trkpt lat="46.5330509" lon="12.6009558"><ele>1206.6666666666667</ele><time>2026-05-01T10:03:27.751Z</time></trkpt><trkpt lat="46.5330355" lon="12.6008646"><ele>1205.5</ele><time>2026-05-01T10:03:28.751Z</time></trkpt><trkpt lat="46.5330606" lon="12.6007786"><ele>1204.3333333333335</ele><time>2026-05-01T10:03:29.751Z</time></trkpt><trkpt lat="46.5331637" lon="12.6007729"><ele>1203.1666666666667</ele><time>2026-05-01T10:03:31.751Z</time></trkpt><trkpt lat="46.5332464" lon="12.6008864"><ele>1202.0</ele><time>2026-05-01T10:03:33.75Z</time></trkpt><trkpt lat="46.5332836" lon="12.6009626"><ele>1202.0</ele><time>2026-05-01T10:03:34.75Z</time></trkpt><trkpt lat="46.5333199" lon="12.6010498"><ele>1202.0</ele><time>2026-05-01T10:03:35.751Z</time></trkpt><trkpt lat="46.5333625" lon="12.6011367"><ele>1202.0</ele><time>2026-05-01T10:03:36.75Z</time></trkpt><trkpt lat="46.5334096" lon="12.6011987"><ele>1202.0</ele><time>2026-05-01T10:03:37.751Z</time></trkpt><trkpt lat="46.5335093" lon="12.6012005"><ele>1202.0</ele><time>2026-05-01T10:03:39.751Z</time></trkpt><trkpt lat="46.5335258" lon="12.6010612"><ele>1202.0</ele><time>2026-05-01T10:03:41.751Z</time></trkpt><trkpt lat="46.5334669" lon="12.6009462"><ele>1202.0</ele><time>2026-05-01T10:03:43.751Z</time></trkpt><trkpt lat="46.5333829" lon="12.6008459"><ele>1202.0</ele><time>2026-05-01T10:03:45.751Z</time></trkpt><trkpt lat="46.5333104" lon="12.6007257"><ele>1202.0</ele><time>2026-05-01T10:03:47.751Z</time></trkpt><trkpt lat="46.5332714" lon="12.6006421"><ele>1202.0</ele><time>2026-05-01T10:03:48.75Z</time></trkpt><trkpt lat="46.5332762" lon="12.6004979"><ele>1202.0</ele><time>2026-05-01T10:03:50.751Z</time></trkpt><trkpt lat="46.5333539" lon="12.6004866"><ele>1202.0</ele><time>2026-05-01T10:03:52.751Z</time></trkpt><trkpt lat="46.5334188" lon="12.6005887"><ele>1202.0</ele><time>2026-05-01T10:03:54.751Z</time></trkpt><trkpt lat="46.5334693" lon="12.6007318"><ele>1202.0</ele><time>2026-05-01T10:03:56.751Z</time></trkpt><trkpt lat="46.533566" lon="12.6007966"><ele>1202.0</ele><time>2026-05-01T10:03:58.751Z</time></trkpt><trkpt lat="46.5336273" lon="12.6006736"><ele>1202.0</ele><time>2026-05-01T10:04:00.751Z</time></trkpt><trkpt lat="46.5335745" lon="12.6005363"><ele>1202.0</ele><time>2026-05-01T10:04:02.751Z</time></trkpt><trkpt lat="46.5334826" lon="12.6004195"><ele>1202.0</ele><time>2026-05-01T10:04:04.75Z</time></trkpt><trkpt lat="46.5334531" lon="12.6002713"><ele>1202.0</ele><time>2026-05-01T10:04:06.751Z</time></trkpt><trkpt lat="46.5335416" lon="12.6002094"><ele>1202.0</ele><time>2026-05-01T10:04:08.75Z</time></trkpt><trkpt lat="46.5336278" lon="12.6002976"><ele>1202.0</ele><time>2026-05-01T10:04:10.75Z</time></trkpt><trkpt lat="46.5337034" lon="12.6004389"><ele>1198.8</ele><time>2026-05-01T10:04:12.75Z</time></trkpt><trkpt lat="46.5337665" lon="12.6004542"><ele>1195.6</ele><time>2026-05-01T10:04:13.751Z</time></trkpt><trkpt lat="46.5338163" lon="12.6003254"><ele>1192.3999999999999</ele><time>2026-05-01T10:04:15.751Z</time></trkpt><trkpt lat="46.5337483" lon="12.6002047"><ele>1189.2</ele><time>2026-05-01T10:04:17.751Z</time></trkpt><trkpt lat="46.5336438" lon="12.6001199"><ele>1186.0</ele><time>2026-05-01T10:04:19.751Z</time></trkpt><trkpt lat="46.5336429" lon="12.5999575"><ele>1184.1666666666665</ele><time>2026-05-01T10:04:21.751Z</time></trkpt><trkpt lat="46.5337419" lon="12.5999266"><ele>1182.3333333333333</ele><time>2026-05-01T10:04:23.75Z</time></trkpt><trkpt lat="46.5338394" lon="12.6000022"><ele>1180.5</ele><time>2026-05-01T10:04:25.751Z</time></trkpt><trkpt lat="46.5339117" lon="12.6000639"><ele>1178.6666666666667</ele><time>2026-05-01T10:04:27.751Z</time></trkpt><trkpt lat="46.5339718" lon="12.6001077"><ele>1176.8333333333335</ele><time>2026-05-01T10:04:29.751Z</time></trkpt><trkpt lat="46.5340464" lon="12.6001282"><ele>1175.0</ele><time>2026-05-01T10:04:31.751Z</time></trkpt><trkpt lat="46.5341256" lon="12.6000605"><ele>1175.0</ele><time>2026-05-01T10:04:33.75Z</time></trkpt><trkpt lat="46.5341712" lon="12.599936"><ele>1175.0</ele><time>2026-05-01T10:04:35.751Z</time></trkpt><trkpt lat="46.5342104" lon="12.5998155"><ele>1175.0</ele><time>2026-05-01T10:04:37.751Z</time></trkpt><trkpt lat="46.5342526" lon="12.5996978"><ele>1175.0</ele><time>2026-05-01T10:04:39.751Z</time></trkpt><trkpt lat="46.5342907" lon="12.5995726"><ele>1175.0</ele><time>2026-05-01T10:04:41.75Z</time></trkpt><trkpt lat="46.5343274" lon="12.5994503"><ele>1174.4</ele><time>2026-05-01T10:04:43.751Z</time></trkpt><trkpt lat="46.5343667" lon="12.5993271"><ele>1173.8</ele><time>2026-05-01T10:04:45.75Z</time></trkpt><trkpt lat="46.5344105" lon="12.599197"><ele>1173.2</ele><time>2026-05-01T10:04:47.751Z</time></trkpt><trkpt lat="46.53445" lon="12.5990648"><ele>1172.6</ele><time>2026-05-01T10:04:49.75Z</time></trkpt><trkpt lat="46.534496" lon="12.5989377"><ele>1172.0</ele><time>2026-05-01T10:04:51.751Z</time></trkpt><trkpt lat="46.5345439" lon="12.5988159"><ele>1171.8</ele><time>2026-05-01T10:04:53.751Z</time></trkpt><trkpt lat="46.5346165" lon="12.5987176"><ele>1171.6</ele><time>2026-05-01T10:04:55.751Z</time></trkpt><trkpt lat="46.5347213" lon="12.5986999"><ele>1171.3999999999999</ele><time>2026-05-01T10:04:57.751Z</time></trkpt><trkpt lat="46.5348276" lon="12.5987693"><ele>1171.2</ele><time>2026-05-01T10:04:59.751Z</time></trkpt><trkpt lat="46.5348842" lon="12.5988145"><ele>1171.0</ele><time>2026-05-01T10:05:00.751Z</time></trkpt><trkpt lat="46.5349393" lon="12.5988726"><ele>1171.0</ele><time>2026-05-01T10:05:01.751Z</time></trkpt><trkpt lat="46.5349974" lon="12.5989304"><ele>1171.0</ele><time>2026-05-01T10:05:02.751Z</time></trkpt><trkpt lat="46.5350583" lon="12.5989878"><ele>1171.0</ele><time>2026-05-01T10:05:03.751Z</time></trkpt><trkpt lat="46.5351227" lon="12.5990403"><ele>1171.0</ele><time>2026-05-01T10:05:04.75Z</time></trkpt><trkpt lat="46.5351916" lon="12.5990829"><ele>1171.0</ele><time>2026-05-01T10:05:05.751Z</time></trkpt><trkpt lat="46.5352715" lon="12.5991081"><ele>1171.0</ele><time>2026-05-01T10:05:06.751Z</time></trkpt><trkpt lat="46.5353535" lon="12.5991072"><ele>1168.0</ele><time>2026-05-01T10:05:07.75Z</time></trkpt><trkpt lat="46.5354368" lon="12.5990816"><ele>1165.0</ele><time>2026-05-01T10:05:08.751Z</time></trkpt><trkpt lat="46.5355213" lon="12.5990467"><ele>1162.0</ele><time>2026-05-01T10:05:09.751Z</time></trkpt><trkpt lat="46.5356077" lon="12.599001"><ele>1159.0</ele><time>2026-05-01T10:05:10.751Z</time></trkpt><trkpt lat="46.5356954" lon="12.5989514"><ele>1156.0</ele><time>2026-05-01T10:05:11.75Z</time></trkpt><trkpt lat="46.535787" lon="12.5989074"><ele>1156.0</ele><time>2026-05-01T10:05:12.751Z</time></trkpt><trkpt lat="46.5358765" lon="12.5988559"><ele>1156.0</ele><time>2026-05-01T10:05:13.751Z</time></trkpt><trkpt lat="46.5359681" lon="12.5987961"><ele>1156.0</ele><time>2026-05-01T10:05:14.751Z</time></trkpt><trkpt lat="46.5360574" lon="12.5987291"><ele>1156.0</ele><time>2026-05-01T10:05:15.751Z</time></trkpt><trkpt lat="46.5361421" lon="12.5986432"><ele>1156.0</ele><time>2026-05-01T10:05:16.751Z</time></trkpt><trkpt lat="46.5362199" lon="12.5985437"><ele>1153.6</ele><time>2026-05-01T10:05:17.751Z</time></trkpt><trkpt lat="46.5362901" lon="12.598431"><ele>1151.1999999999998</ele><time>2026-05-01T10:05:18.751Z</time></trkpt><trkpt lat="46.5363495" lon="12.5983008"><ele>1148.8000000000002</ele><time>2026-05-01T10:05:19.75Z</time></trkpt><trkpt lat="46.5364065" lon="12.5981713"><ele>1146.4</ele><time>2026-05-01T10:05:20.751Z</time></trkpt><trkpt lat="46.5364671" lon="12.5980321"><ele>1144.0</ele><time>2026-05-01T10:05:21.751Z</time></trkpt><trkpt lat="46.5365329" lon="12.5979071"><ele>1147.4</ele><time>2026-05-01T10:05:22.75Z</time></trkpt><trkpt lat="46.5366116" lon="12.5977995"><ele>1150.8000000000002</ele><time>2026-05-01T10:05:23.751Z</time></trkpt><trkpt lat="46.5367032" lon="12.5977028"><ele>1154.1999999999998</ele><time>2026-05-01T10:05:24.751Z</time></trkpt><trkpt lat="46.5367988" lon="12.5976212"><ele>1157.6</ele><time>2026-05-01T10:05:25.751Z</time></trkpt><trkpt lat="46.5369045" lon="12.5975471"><ele>1161.0</ele><time>2026-05-01T10:05:26.751Z</time></trkpt><trkpt lat="46.5370132" lon="12.597478"><ele>1154.75</ele><time>2026-05-01T10:05:27.751Z</time></trkpt><trkpt lat="46.5371215" lon="12.5974049"><ele>1148.5</ele><time>2026-05-01T10:05:28.751Z</time></trkpt><trkpt lat="46.537231" lon="12.5973286"><ele>1142.25</ele><time>2026-05-01T10:05:29.751Z</time></trkpt><trkpt lat="46.537334" lon="12.5972414"><ele>1136.0</ele><time>2026-05-01T10:05:30.75Z</time></trkpt><trkpt lat="46.537433" lon="12.5971411"><ele>1136.0</ele><time>2026-05-01T10:05:31.751Z</time></trkpt><trkpt lat="46.5375253" lon="12.5970239"><ele>1136.0</ele><time>2026-05-01T10:05:32.75Z</time></trkpt><trkpt lat="46.5376139" lon="12.5968975"><ele>1136.0</ele><time>2026-05-01T10:05:33.751Z</time></trkpt><trkpt lat="46.5377024" lon="12.5967675"><ele>1136.0</ele><time>2026-05-01T10:05:34.75Z</time></trkpt><trkpt lat="46.53779" lon="12.5966364"><ele>1135.75</ele><time>2026-05-01T10:05:35.751Z</time></trkpt><trkpt lat="46.5378796" lon="12.5965018"><ele>1135.5</ele><time>2026-05-01T10:05:36.75Z</time></trkpt><trkpt lat="46.5379684" lon="12.5963691"><ele>1135.25</ele><time>2026-05-01T10:05:37.751Z</time></trkpt><trkpt lat="46.5380548" lon="12.5962316"><ele>1135.0</ele><time>2026-05-01T10:05:38.751Z</time></trkpt><trkpt lat="46.5381413" lon="12.5960984"><ele>1135.0</ele><time>2026-05-01T10:05:39.751Z</time></trkpt><trkpt lat="46.5382201" lon="12.5959735"><ele>1135.0</ele><time>2026-05-01T10:05:40.751Z</time></trkpt><trkpt lat="46.5382991" lon="12.5958666"><ele>1135.0</ele><time>2026-05-01T10:05:41.751Z</time></trkpt><trkpt lat="46.538386" lon="12.5957768"><ele>1135.0</ele><time>2026-05-01T10:05:42.751Z</time></trkpt><trkpt lat="46.5384878" lon="12.5957155"><ele>1135.0</ele><time>2026-05-01T10:05:43.751Z</time></trkpt><trkpt lat="46.5385939" lon="12.5956837"><ele>1135.0</ele><time>2026-05-01T10:05:44.751Z</time></trkpt><trkpt lat="46.5387006" lon="12.5956694"><ele>1135.0</ele><time>2026-05-01T10:05:45.751Z</time></trkpt><trkpt lat="46.5388077" lon="12.5956656"><ele>1135.0</ele><time>2026-05-01T10:05:46.751Z</time></trkpt><trkpt lat="46.5389166" lon="12.5956646"><ele>1135.0</ele><time>2026-05-01T10:05:47.751Z</time></trkpt><trkpt lat="46.5390208" lon="12.5956672"><ele>1135.0</ele><time>2026-05-01T10:05:48.75Z</time></trkpt><trkpt lat="46.5391222" lon="12.5956716"><ele>1132.8333333333333</ele><time>2026-05-01T10:05:49.751Z</time></trkpt><trkpt lat="46.5392224" lon="12.5956755"><ele>1130.6666666666665</ele><time>2026-05-01T10:05:50.751Z</time></trkpt><trkpt lat="46.5393183" lon="12.5956801"><ele>1128.5</ele><time>2026-05-01T10:05:51.751Z</time></trkpt><trkpt lat="46.5394019" lon="12.5956823"><ele>1126.3333333333333</ele><time>2026-05-01T10:05:52.75Z</time></trkpt><trkpt lat="46.5394823" lon="12.5956976"><ele>1124.1666666666667</ele><time>2026-05-01T10:05:53.751Z</time></trkpt><trkpt lat="46.5395577" lon="12.5957414"><ele>1122.0</ele><time>2026-05-01T10:05:54.751Z</time></trkpt><trkpt lat="46.5396315" lon="12.5957981"><ele>1122.0</ele><time>2026-05-01T10:05:55.75Z</time></trkpt><trkpt lat="46.5397064" lon="12.5958572"><ele>1122.0</ele><time>2026-05-01T10:05:56.751Z</time></trkpt><trkpt lat="46.5397842" lon="12.5959078"><ele>1122.0</ele><time>2026-05-01T10:05:57.751Z</time></trkpt><trkpt lat="46.5398676" lon="12.5959406"><ele>1122.0</ele><time>2026-05-01T10:05:58.751Z</time></trkpt><trkpt lat="46.5399553" lon="12.5959421"><ele>1122.0</ele><time>2026-05-01T10:05:59.75Z</time></trkpt><trkpt lat="46.540034" lon="12.5959301"><ele>1122.0</ele><time>2026-05-01T10:06:00.751Z</time></trkpt><trkpt lat="46.5401095" lon="12.5959023"><ele>1122.0</ele><time>2026-05-01T10:06:01.751Z</time></trkpt><trkpt lat="46.5401743" lon="12.5958854"><ele>1122.0</ele><time>2026-05-01T10:06:02.75Z</time></trkpt><trkpt lat="46.5403007" lon="12.5958655"><ele>1122.0</ele><time>2026-05-01T10:06:04.75Z</time></trkpt><trkpt lat="46.5403667" lon="12.5958707"><ele>1122.0</ele><time>2026-05-01T10:06:05.751Z</time></trkpt><trkpt lat="46.5404402" lon="12.5958868"><ele>1122.0</ele><time>2026-05-01T10:06:06.751Z</time></trkpt><trkpt lat="46.5405143" lon="12.5959069"><ele>1122.0</ele><time>2026-05-01T10:06:07.751Z</time></trkpt><trkpt lat="46.5405877" lon="12.5959305"><ele>1121.5</ele><time>2026-05-01T10:06:08.751Z</time></trkpt><trkpt lat="46.5406661" lon="12.5959342"><ele>1121.0</ele><time>2026-05-01T10:06:09.751Z</time></trkpt><trkpt lat="46.540745" lon="12.595917"><ele>1120.5</ele><time>2026-05-01T10:06:10.751Z</time></trkpt><trkpt lat="46.5408217" lon="12.5958693"><ele>1120.0</ele><time>2026-05-01T10:06:11.75Z</time></trkpt><trkpt lat="46.5408972" lon="12.595826"><ele>1119.5</ele><time>2026-05-01T10:06:12.751Z</time></trkpt><trkpt lat="46.5409796" lon="12.5957905"><ele>1119.0</ele><time>2026-05-01T10:06:13.751Z</time></trkpt><trkpt lat="46.5410495" lon="12.5957731"><ele>1119.0</ele><time>2026-05-01T10:06:14.75Z</time></trkpt><trkpt lat="46.5411136" lon="12.5957602"><ele>1119.0</ele><time>2026-05-01T10:06:15.751Z</time></trkpt><trkpt lat="46.541193" lon="12.5957456"><ele>1119.0</ele><time>2026-05-01T10:06:16.751Z</time></trkpt><trkpt lat="46.5412751" lon="12.5957168"><ele>1119.0</ele><time>2026-05-01T10:06:17.75Z</time></trkpt><trkpt lat="46.5413559" lon="12.5956681"><ele>1119.0</ele><time>2026-05-01T10:06:18.751Z</time></trkpt><trkpt lat="46.5414412" lon="12.5956233"><ele>1119.0</ele><time>2026-05-01T10:06:19.751Z</time></trkpt><trkpt lat="46.5415243" lon="12.5955783"><ele>1116.8333333333333</ele><time>2026-05-01T10:06:20.751Z</time></trkpt><trkpt lat="46.5416024" lon="12.5955233"><ele>1114.6666666666667</ele><time>2026-05-01T10:06:21.751Z</time></trkpt><trkpt lat="46.5416796" lon="12.5954547"><ele>1112.5</ele><time>2026-05-01T10:06:22.751Z</time></trkpt><trkpt lat="46.5417502" lon="12.5953798"><ele>1110.3333333333335</ele><time>2026-05-01T10:06:23.751Z</time></trkpt><trkpt lat="46.541821" lon="12.5952942"><ele>1108.1666666666667</ele><time>2026-05-01T10:06:24.751Z</time></trkpt><trkpt lat="46.5418891" lon="12.5952093"><ele>1106.0</ele><time>2026-05-01T10:06:25.751Z</time></trkpt><trkpt lat="46.5419569" lon="12.5951216"><ele>1105.6666666666667</ele><time>2026-05-01T10:06:26.751Z</time></trkpt><trkpt lat="46.5420302" lon="12.5950437"><ele>1105.3333333333335</ele><time>2026-05-01T10:06:27.75Z</time></trkpt><trkpt lat="46.5421016" lon="12.5949698"><ele>1105.0</ele><time>2026-05-01T10:06:28.751Z</time></trkpt><trkpt lat="46.5421762" lon="12.5948962"><ele>1104.6666666666667</ele><time>2026-05-01T10:06:29.751Z</time></trkpt><trkpt lat="46.5422474" lon="12.5948228"><ele>1104.3333333333333</ele><time>2026-05-01T10:06:30.751Z</time></trkpt><trkpt lat="46.5423267" lon="12.5947624"><ele>1104.0</ele><time>2026-05-01T10:06:31.75Z</time></trkpt><trkpt lat="46.5424015" lon="12.5946891"><ele>1104.0</ele><time>2026-05-01T10:06:32.751Z</time></trkpt><trkpt lat="46.5424714" lon="12.594637"><ele>1104.0</ele><time>2026-05-01T10:06:33.75Z</time></trkpt><trkpt lat="46.5425342" lon="12.5945718"><ele>1104.0</ele><time>2026-05-01T10:06:34.751Z</time></trkpt><trkpt lat="46.542596" lon="12.5944957"><ele>1104.0</ele><time>2026-05-01T10:06:35.751Z</time></trkpt><trkpt lat="46.5426522" lon="12.5944222"><ele>1104.0</ele><time>2026-05-01T10:06:36.751Z</time></trkpt><trkpt lat="46.5427007" lon="12.594343"><ele>1104.0</ele><time>2026-05-01T10:06:37.75Z</time></trkpt><trkpt lat="46.5427872" lon="12.5942495"><ele>1104.0</ele><time>2026-05-01T10:06:39.751Z</time></trkpt><trkpt lat="46.5428619" lon="12.5942884"><ele>1104.0</ele><time>2026-05-01T10:06:42.751Z</time></trkpt><trkpt lat="46.5428397" lon="12.5943859"><ele>1104.0</ele><time>2026-05-01T10:06:46.751Z</time></trkpt><trkpt lat="46.5427945" lon="12.594475"><ele>1104.0</ele><time>2026-05-01T10:07:17.751Z</time></trkpt><trkpt lat="46.5427583" lon="12.5945595"><ele>1104.0</ele><time>2026-05-01T10:07:19.751Z</time></trkpt><trkpt lat="46.5426958" lon="12.5946736"><ele>1104.0</ele><time>2026-05-01T10:07:21.751Z</time></trkpt><trkpt lat="46.5426202" lon="12.5948163"><ele>1104.0</ele><time>2026-05-01T10:07:23.751Z</time></trkpt><trkpt lat="46.5425633" lon="12.5948828"><ele>1104.0</ele><time>2026-05-01T10:07:24.75Z</time></trkpt><trkpt lat="46.5425059" lon="12.5949458"><ele>1104.0</ele><time>2026-05-01T10:07:25.751Z</time></trkpt><trkpt lat="46.5424305" lon="12.5950055"><ele>1104.0</ele><time>2026-05-01T10:07:26.751Z</time></trkpt><trkpt lat="46.5423565" lon="12.5950793"><ele>1104.0</ele><time>2026-05-01T10:07:27.751Z</time></trkpt><trkpt lat="46.5422911" lon="12.5951648"><ele>1104.0</ele><time>2026-05-01T10:07:28.75Z</time></trkpt><trkpt lat="46.5422268" lon="12.5952587"><ele>1101.0</ele><time>2026-05-01T10:07:29.75Z</time></trkpt><trkpt lat="46.5421729" lon="12.5953391"><ele>1098.0</ele><time>2026-05-01T10:07:30.751Z</time></trkpt><trkpt lat="46.5421259" lon="12.595408"><ele>1095.0</ele><time>2026-05-01T10:07:31.751Z</time></trkpt><trkpt lat="46.5420564" lon="12.5955143"><ele>1092.0</ele><time>2026-05-01T10:07:33.751Z</time></trkpt><trkpt lat="46.5420544" lon="12.5956367"><ele>1089.0</ele><time>2026-05-01T10:07:36.751Z</time></trkpt><trkpt lat="46.5421287" lon="12.5956566"><ele>1086.0</ele><time>2026-05-01T10:07:38.75Z</time></trkpt><trkpt lat="46.5422096" lon="12.5955973"><ele>1086.0</ele><time>2026-05-01T10:07:40.751Z</time></trkpt><trkpt lat="46.5423044" lon="12.5955199"><ele>1086.0</ele><time>2026-05-01T10:07:42.751Z</time></trkpt><trkpt lat="46.5423731" lon="12.5954804"><ele>1086.0</ele><time>2026-05-01T10:07:43.751Z</time></trkpt><trkpt lat="46.5424424" lon="12.5954496"><ele>1086.0</ele><time>2026-05-01T10:07:44.75Z</time></trkpt><trkpt lat="46.5425165" lon="12.5954337"><ele>1086.0</ele><time>2026-05-01T10:07:45.751Z</time></trkpt><trkpt lat="46.5426007" lon="12.5954097"><ele>1086.0</ele><time>2026-05-01T10:07:46.751Z</time></trkpt><trkpt lat="46.5426829" lon="12.595396"><ele>1086.0</ele><time>2026-05-01T10:07:47.751Z</time></trkpt><trkpt lat="46.5427691" lon="12.5953847"><ele>1086.0</ele><time>2026-05-01T10:07:48.751Z</time></trkpt><trkpt lat="46.542855" lon="12.5953698"><ele>1086.0</ele><time>2026-05-01T10:07:49.751Z</time></trkpt><trkpt lat="46.5429438" lon="12.5953597"><ele>1086.0</ele><time>2026-05-01T10:07:50.751Z</time></trkpt><trkpt lat="46.5430348" lon="12.5953459"><ele>1086.0</ele><time>2026-05-01T10:07:51.751Z</time></trkpt><trkpt lat="46.5431231" lon="12.5953327"><ele>1086.0</ele><time>2026-05-01T10:07:52.751Z</time></trkpt><trkpt lat="46.543213" lon="12.5953153"><ele>1087.2</ele><time>2026-05-01T10:07:53.75Z</time></trkpt><trkpt lat="46.5433049" lon="12.59529"><ele>1088.3999999999999</ele><time>2026-05-01T10:07:54.751Z</time></trkpt><trkpt lat="46.5433983" lon="12.5952661"><ele>1089.6</ele><time>2026-05-01T10:07:55.751Z</time></trkpt><trkpt lat="46.5434976" lon="12.5952437"><ele>1090.8</ele><time>2026-05-01T10:07:56.751Z</time></trkpt><trkpt lat="46.5435992" lon="12.5952354"><ele>1092.0</ele><time>2026-05-01T10:07:57.751Z</time></trkpt><trkpt lat="46.5437009" lon="12.5952441"><ele>1091.4</ele><time>2026-05-01T10:07:58.751Z</time></trkpt><trkpt lat="46.5438004" lon="12.5952526"><ele>1090.8000000000002</ele><time>2026-05-01T10:07:59.751Z</time></trkpt><trkpt lat="46.5439039" lon="12.595256"><ele>1090.2</ele><time>2026-05-01T10:08:00.75Z</time></trkpt><trkpt lat="46.5440099" lon="12.5952799"><ele>1089.6000000000001</ele><time>2026-05-01T10:08:01.75Z</time></trkpt><trkpt lat="46.5441183" lon="12.5953123"><ele>1089.0</ele><time>2026-05-01T10:08:02.75Z</time></trkpt><trkpt lat="46.5442177" lon="12.5953644"><ele>1087.0</ele><time>2026-05-01T10:08:03.751Z</time></trkpt><trkpt lat="46.5443134" lon="12.5954235"><ele>1085.0</ele><time>2026-05-01T10:08:04.75Z</time></trkpt><trkpt lat="46.5443991" lon="12.5954924"><ele>1083.0</ele><time>2026-05-01T10:08:05.75Z</time></trkpt><trkpt lat="46.5444771" lon="12.5955672"><ele>1081.0</ele><time>2026-05-01T10:08:06.751Z</time></trkpt><trkpt lat="46.5445499" lon="12.5956438"><ele>1079.0</ele><time>2026-05-01T10:08:07.751Z</time></trkpt><trkpt lat="46.5446271" lon="12.5957093"><ele>1077.6000000000001</ele><time>2026-05-01T10:08:08.751Z</time></trkpt><trkpt lat="46.5447057" lon="12.5957677"><ele>1076.2</ele><time>2026-05-01T10:08:09.751Z</time></trkpt><trkpt lat="46.5447891" lon="12.5958249"><ele>1074.8000000000002</ele><time>2026-05-01T10:08:10.751Z</time></trkpt><trkpt lat="46.5448746" lon="12.5958761"><ele>1073.4</ele><time>2026-05-01T10:08:11.751Z</time></trkpt><trkpt lat="46.5449637" lon="12.5959188"><ele>1072.0</ele><time>2026-05-01T10:08:12.751Z</time></trkpt><trkpt lat="46.5450493" lon="12.5959403"><ele>1072.0</ele><time>2026-05-01T10:08:13.751Z</time></trkpt><trkpt lat="46.5451276" lon="12.5959506"><ele>1072.0</ele><time>2026-05-01T10:08:14.751Z</time></trkpt><trkpt lat="46.5452055" lon="12.5959478"><ele>1072.0</ele><time>2026-05-01T10:08:15.751Z</time></trkpt><trkpt lat="46.5452768" lon="12.59592"><ele>1072.0</ele><time>2026-05-01T10:08:16.751Z</time></trkpt><trkpt lat="46.5453506" lon="12.5958775"><ele>1072.0</ele><time>2026-05-01T10:08:17.751Z</time></trkpt><trkpt lat="46.5454206" lon="12.5958113"><ele>1072.0</ele><time>2026-05-01T10:08:18.751Z</time></trkpt><trkpt lat="46.5454897" lon="12.5957234"><ele>1068.4285714285716</ele><time>2026-05-01T10:08:19.751Z</time></trkpt><trkpt lat="46.5455545" lon="12.5956394"><ele>1064.857142857143</ele><time>2026-05-01T10:08:20.751Z</time></trkpt><trkpt lat="46.5456129" lon="12.5955696"><ele>1061.2857142857142</ele><time>2026-05-01T10:08:21.751Z</time></trkpt><trkpt lat="46.5456686" lon="12.5955026"><ele>1057.7142857142858</ele><time>2026-05-01T10:08:22.75Z</time></trkpt><trkpt lat="46.5457313" lon="12.5954636"><ele>1054.142857142857</ele><time>2026-05-01T10:08:23.75Z</time></trkpt><trkpt lat="46.5457957" lon="12.5954435"><ele>1050.5714285714287</ele><time>2026-05-01T10:08:24.751Z</time></trkpt><trkpt lat="46.5458634" lon="12.5954457"><ele>1047.0</ele><time>2026-05-01T10:08:25.75Z</time></trkpt><trkpt lat="46.5459782" lon="12.5955001"><ele>1047.0</ele><time>2026-05-01T10:08:27.751Z</time></trkpt><trkpt lat="46.5460718" lon="12.595574"><ele>1047.0</ele><time>2026-05-01T10:08:29.751Z</time></trkpt><trkpt lat="46.5461754" lon="12.5956091"><ele>1047.0</ele><time>2026-05-01T10:08:31.751Z</time></trkpt><trkpt lat="46.5462731" lon="12.5955246"><ele>1047.0</ele><time>2026-05-01T10:08:33.751Z</time></trkpt><trkpt lat="46.5463095" lon="12.5954444"><ele>1047.0</ele><time>2026-05-01T10:08:34.751Z</time></trkpt><trkpt lat="46.5463464" lon="12.5953513"><ele>1047.0</ele><time>2026-05-01T10:08:35.75Z</time></trkpt><trkpt lat="46.5463875" lon="12.5952549"><ele>1047.0</ele><time>2026-05-01T10:08:36.751Z</time></trkpt><trkpt lat="46.5464308" lon="12.5951551"><ele>1047.0</ele><time>2026-05-01T10:08:37.751Z</time></trkpt><trkpt lat="46.5464801" lon="12.5950571"><ele>1047.0</ele><time>2026-05-01T10:08:38.751Z</time></trkpt><trkpt lat="46.5465448" lon="12.594969"><ele>1047.0</ele><time>2026-05-01T10:08:39.751Z</time></trkpt><trkpt lat="46.546625" lon="12.5948918"><ele>1047.0</ele><time>2026-05-01T10:08:40.751Z</time></trkpt><trkpt lat="46.5467197" lon="12.5948153"><ele>1047.0</ele><time>2026-05-01T10:08:41.75Z</time></trkpt><trkpt lat="46.5468146" lon="12.5947409"><ele>1047.0</ele><time>2026-05-01T10:08:42.751Z</time></trkpt><trkpt lat="46.5469141" lon="12.5946596"><ele>1047.0</ele><time>2026-05-01T10:08:43.751Z</time></trkpt><trkpt lat="46.547014" lon="12.5945721"><ele>1047.0</ele><time>2026-05-01T10:08:44.751Z</time></trkpt><trkpt lat="46.5471099" lon="12.594497"><ele>1047.0</ele><time>2026-05-01T10:08:45.751Z</time></trkpt><trkpt lat="46.5472039" lon="12.5944211"><ele>1044.8</ele><time>2026-05-01T10:08:46.751Z</time></trkpt><trkpt lat="46.5472976" lon="12.5943383"><ele>1042.6</ele><time>2026-05-01T10:08:47.751Z</time></trkpt><trkpt lat="46.5473964" lon="12.5942607"><ele>1040.3999999999999</ele><time>2026-05-01T10:08:48.751Z</time></trkpt><trkpt lat="46.5475027" lon="12.5941992"><ele>1038.2</ele><time>2026-05-01T10:08:49.751Z</time></trkpt><trkpt lat="46.5476068" lon="12.59416"><ele>1036.0</ele><time>2026-05-01T10:08:50.751Z</time></trkpt><trkpt lat="46.5477171" lon="12.5941686"><ele>1036.0</ele><time>2026-05-01T10:08:51.751Z</time></trkpt><trkpt lat="46.5478274" lon="12.594192"><ele>1036.0</ele><time>2026-05-01T10:08:52.751Z</time></trkpt><trkpt lat="46.5479336" lon="12.5942164"><ele>1036.0</ele><time>2026-05-01T10:08:53.751Z</time></trkpt><trkpt lat="46.5480419" lon="12.5942289"><ele>1036.0</ele><time>2026-05-01T10:08:54.751Z</time></trkpt><trkpt lat="46.5481507" lon="12.5942404"><ele>1036.0</ele><time>2026-05-01T10:08:55.75Z</time></trkpt><trkpt lat="46.5482646" lon="12.5942488"><ele>1036.8</ele><time>2026-05-01T10:08:56.751Z</time></trkpt><trkpt lat="46.5483776" lon="12.5942418"><ele>1037.6</ele><time>2026-05-01T10:08:57.751Z</time></trkpt><trkpt lat="46.5484856" lon="12.5942109"><ele>1038.4</ele><time>2026-05-01T10:08:58.751Z</time></trkpt><trkpt lat="46.5485889" lon="12.5941586"><ele>1039.2</ele><time>2026-05-01T10:08:59.751Z</time></trkpt><trkpt lat="46.5486898" lon="12.5940978"><ele>1040.0</ele><time>2026-05-01T10:09:00.75Z</time></trkpt><trkpt lat="46.5487911" lon="12.5940264"><ele>1040.5</ele><time>2026-05-01T10:09:01.751Z</time></trkpt><trkpt lat="46.5488956" lon="12.5939482"><ele>1041.0</ele><time>2026-05-01T10:09:02.75Z</time></trkpt><trkpt lat="46.5490026" lon="12.5938704"><ele>1041.5</ele><time>2026-05-01T10:09:03.751Z</time></trkpt><trkpt lat="46.5491096" lon="12.5937909"><ele>1042.0</ele><time>2026-05-01T10:09:04.751Z</time></trkpt><trkpt lat="46.5492143" lon="12.593706"><ele>1042.0</ele><time>2026-05-01T10:09:05.751Z</time></trkpt><trkpt lat="46.5493129" lon="12.5936055"><ele>1042.0</ele><time>2026-05-01T10:09:06.75Z</time></trkpt><trkpt lat="46.5494035" lon="12.5934952"><ele>1042.0</ele><time>2026-05-01T10:09:07.751Z</time></trkpt><trkpt lat="46.5494882" lon="12.5933714"><ele>1042.0</ele><time>2026-05-01T10:09:08.751Z</time></trkpt><trkpt lat="46.549571" lon="12.5932419"><ele>1042.0</ele><time>2026-05-01T10:09:09.751Z</time></trkpt><trkpt lat="46.5496486" lon="12.5931122"><ele>1042.0</ele><time>2026-05-01T10:09:10.751Z</time></trkpt><trkpt lat="46.5497255" lon="12.5929762"><ele>1042.0</ele><time>2026-05-01T10:09:11.751Z</time></trkpt><trkpt lat="46.5498036" lon="12.5928487"><ele>1042.0</ele><time>2026-05-01T10:09:12.75Z</time></trkpt><trkpt lat="46.5498852" lon="12.5927272"><ele>1034.75</ele><time>2026-05-01T10:09:13.751Z</time></trkpt><trkpt lat="46.5499752" lon="12.5926105"><ele>1027.5</ele><time>2026-05-01T10:09:14.751Z</time></trkpt><trkpt lat="46.5500677" lon="12.5924947"><ele>1020.25</ele><time>2026-05-01T10:09:15.751Z</time></trkpt><trkpt lat="46.5501731" lon="12.5924125"><ele>1013.0</ele><time>2026-05-01T10:09:16.751Z</time></trkpt><trkpt lat="46.5502838" lon="12.5923417"><ele>1017.75</ele><time>2026-05-01T10:09:17.751Z</time></trkpt><trkpt lat="46.5503971" lon="12.5922827"><ele>1022.5</ele><time>2026-05-01T10:09:18.751Z</time></trkpt><trkpt lat="46.5505136" lon="12.5922225"><ele>1027.25</ele><time>2026-05-01T10:09:19.751Z</time></trkpt><trkpt lat="46.5506322" lon="12.5921608"><ele>1032.0</ele><time>2026-05-01T10:09:20.751Z</time></trkpt><trkpt lat="46.5507463" lon="12.5920961"><ele>1032.0</ele><time>2026-05-01T10:09:21.751Z</time></trkpt><trkpt lat="46.5508623" lon="12.5920326"><ele>1032.0</ele><time>2026-05-01T10:09:22.751Z</time></trkpt><trkpt lat="46.5509806" lon="12.5919724"><ele>1032.0</ele><time>2026-05-01T10:09:23.751Z</time></trkpt><trkpt lat="46.5510956" lon="12.5919179"><ele>1032.0</ele><time>2026-05-01T10:09:24.75Z</time></trkpt><trkpt lat="46.5512144" lon="12.591861"><ele>1027.25</ele><time>2026-05-01T10:09:25.751Z</time></trkpt><trkpt lat="46.5513309" lon="12.5918016"><ele>1022.5</ele><time>2026-05-01T10:09:26.75Z</time></trkpt><trkpt lat="46.5514496" lon="12.5917406"><ele>1017.75</ele><time>2026-05-01T10:09:27.751Z</time></trkpt><trkpt lat="46.5515696" lon="12.5916769"><ele>1013.0</ele><time>2026-05-01T10:09:28.751Z</time></trkpt><trkpt lat="46.5516872" lon="12.5916159"><ele>1013.0</ele><time>2026-05-01T10:09:29.751Z</time></trkpt><trkpt lat="46.5518038" lon="12.5915453"><ele>1013.0</ele><time>2026-05-01T10:09:30.751Z</time></trkpt><trkpt lat="46.551919" lon="12.5914692"><ele>1013.0</ele><time>2026-05-01T10:09:31.75Z</time></trkpt><trkpt lat="46.5520306" lon="12.5913729"><ele>1013.0</ele><time>2026-05-01T10:09:32.751Z</time></trkpt><trkpt lat="46.5521397" lon="12.5912714"><ele>1010.75</ele><time>2026-05-01T10:09:33.751Z</time></trkpt><trkpt lat="46.552245" lon="12.5911605"><ele>1008.5</ele><time>2026-05-01T10:09:34.751Z</time></trkpt><trkpt lat="46.5523487" lon="12.5910407"><ele>1006.25</ele><time>2026-05-01T10:09:35.751Z</time></trkpt><trkpt lat="46.5524403" lon="12.590921"><ele>1004.0</ele><time>2026-05-01T10:09:36.75Z</time></trkpt><trkpt lat="46.552524" lon="12.5907921"><ele>1004.0</ele><time>2026-05-01T10:09:37.751Z</time></trkpt><trkpt lat="46.5525986" lon="12.5906363"><ele>1004.0</ele><time>2026-05-01T10:09:38.751Z</time></trkpt><trkpt lat="46.5526606" lon="12.590486"><ele>1004.0</ele><time>2026-05-01T10:09:39.751Z</time></trkpt><trkpt lat="46.5527038" lon="12.5903311"><ele>1004.0</ele><time>2026-05-01T10:09:40.751Z</time></trkpt><trkpt lat="46.552733" lon="12.5901744"><ele>1001.4000000000001</ele><time>2026-05-01T10:09:41.751Z</time></trkpt><trkpt lat="46.5527518" lon="12.5900161"><ele>998.8000000000001</ele><time>2026-05-01T10:09:42.751Z</time></trkpt><trkpt lat="46.5527681" lon="12.5898651"><ele>996.1999999999999</ele><time>2026-05-01T10:09:43.751Z</time></trkpt><trkpt lat="46.5527779" lon="12.5897176"><ele>993.5999999999999</ele><time>2026-05-01T10:09:44.751Z</time></trkpt><trkpt lat="46.5527892" lon="12.5895769"><ele>991.0</ele><time>2026-05-01T10:09:45.751Z</time></trkpt><trkpt lat="46.5528037" lon="12.5894363"><ele>990.0</ele><time>2026-05-01T10:09:46.75Z</time></trkpt><trkpt lat="46.5528211" lon="12.5892906"><ele>988.9999999999999</ele><time>2026-05-01T10:09:47.751Z</time></trkpt><trkpt lat="46.5528421" lon="12.5891609"><ele>987.9999999999999</ele><time>2026-05-01T10:09:48.751Z</time></trkpt><trkpt lat="46.5528787" lon="12.5890378"><ele>987.0</ele><time>2026-05-01T10:09:49.75Z</time></trkpt><trkpt lat="46.5529254" lon="12.5889195"><ele>986.0</ele><time>2026-05-01T10:09:50.751Z</time></trkpt><trkpt lat="46.5529923" lon="12.5888142"><ele>986.0</ele><time>2026-05-01T10:09:51.75Z</time></trkpt><trkpt lat="46.5530774" lon="12.5887086"><ele>986.0</ele><time>2026-05-01T10:09:52.751Z</time></trkpt><trkpt lat="46.5531741" lon="12.5886203"><ele>986.0</ele><time>2026-05-01T10:09:53.751Z</time></trkpt><trkpt lat="46.5532815" lon="12.5885467"><ele>986.0</ele><time>2026-05-01T10:09:54.751Z</time></trkpt><trkpt lat="46.5533987" lon="12.5884763"><ele>986.0</ele><time>2026-05-01T10:09:55.75Z</time></trkpt><trkpt lat="46.5535152" lon="12.5884075"><ele>986.0</ele><time>2026-05-01T10:09:56.751Z</time></trkpt><trkpt lat="46.5536297" lon="12.588342"><ele>986.0</ele><time>2026-05-01T10:09:57.751Z</time></trkpt><trkpt lat="46.5537365" lon="12.5882773"><ele>986.0</ele><time>2026-05-01T10:09:58.75Z</time></trkpt><trkpt lat="46.5538483" lon="12.5882198"><ele>989.0</ele><time>2026-05-01T10:09:59.751Z</time></trkpt><trkpt lat="46.5539571" lon="12.5881496"><ele>992.0</ele><time>2026-05-01T10:10:00.751Z</time></trkpt><trkpt lat="46.5540674" lon="12.5880745"><ele>995.0</ele><time>2026-05-01T10:10:01.751Z</time></trkpt><trkpt lat="46.554181" lon="12.5879969"><ele>998.0</ele><time>2026-05-01T10:10:02.751Z</time></trkpt><trkpt lat="46.5542905" lon="12.5879009"><ele>996.0</ele><time>2026-05-01T10:10:03.751Z</time></trkpt><trkpt lat="46.5543985" lon="12.5877926"><ele>994.0</ele><time>2026-05-01T10:10:04.751Z</time></trkpt><trkpt lat="46.5545031" lon="12.5876743"><ele>992.0</ele><time>2026-05-01T10:10:05.751Z</time></trkpt><trkpt lat="46.5546024" lon="12.5875591"><ele>990.0</ele><time>2026-05-01T10:10:06.751Z</time></trkpt><trkpt lat="46.5546971" lon="12.5874472"><ele>990.0</ele><time>2026-05-01T10:10:07.751Z</time></trkpt><trkpt lat="46.5547872" lon="12.5873322"><ele>990.0</ele><time>2026-05-01T10:10:08.751Z</time></trkpt><trkpt lat="46.5548775" lon="12.5872148"><ele>990.0</ele><time>2026-05-01T10:10:09.751Z</time></trkpt><trkpt lat="46.5549689" lon="12.5870999"><ele>990.0</ele><time>2026-05-01T10:10:10.751Z</time></trkpt><trkpt lat="46.5550587" lon="12.5869997"><ele>986.0</ele><time>2026-05-01T10:10:11.751Z</time></trkpt><trkpt lat="46.5551572" lon="12.5869299"><ele>982.0</ele><time>2026-05-01T10:10:12.751Z</time></trkpt><trkpt lat="46.5552658" lon="12.5868952"><ele>978.0</ele><time>2026-05-01T10:10:13.75Z</time></trkpt><trkpt lat="46.5553849" lon="12.5868855"><ele>974.0</ele><time>2026-05-01T10:10:14.751Z</time></trkpt><trkpt lat="46.5555103" lon="12.5868865"><ele>973.0</ele><time>2026-05-01T10:10:15.751Z</time></trkpt><trkpt lat="46.5556384" lon="12.5868936"><ele>972.0</ele><time>2026-05-01T10:10:16.751Z</time></trkpt><trkpt lat="46.5557679" lon="12.5868767"><ele>971.0</ele><time>2026-05-01T10:10:17.751Z</time></trkpt><trkpt lat="46.5559006" lon="12.586842"><ele>970.0</ele><time>2026-05-01T10:10:18.75Z</time></trkpt><trkpt lat="46.5560363" lon="12.5867938"><ele>970.0</ele><time>2026-05-01T10:10:19.751Z</time></trkpt><trkpt lat="46.5561701" lon="12.5867333"><ele>970.0</ele><time>2026-05-01T10:10:20.751Z</time></trkpt><trkpt lat="46.5563052" lon="12.5866737"><ele>970.0</ele><time>2026-05-01T10:10:21.751Z</time></trkpt><trkpt lat="46.5564404" lon="12.5866125"><ele>970.0</ele><time>2026-05-01T10:10:22.751Z</time></trkpt><trkpt lat="46.5565793" lon="12.58655"><ele>971.75</ele><time>2026-05-01T10:10:23.751Z</time></trkpt><trkpt lat="46.55672" lon="12.5864852"><ele>973.5</ele><time>2026-05-01T10:10:24.751Z</time></trkpt><trkpt lat="46.5568614" lon="12.5864182"><ele>975.25</ele><time>2026-05-01T10:10:25.75Z</time></trkpt><trkpt lat="46.5570058" lon="12.5863488"><ele>977.0</ele><time>2026-05-01T10:10:26.751Z</time></trkpt><trkpt lat="46.5571511" lon="12.5862803"><ele>973.6666666666667</ele><time>2026-05-01T10:10:27.751Z</time></trkpt><trkpt lat="46.5572958" lon="12.5862149"><ele>970.3333333333333</ele><time>2026-05-01T10:10:28.751Z</time></trkpt><trkpt lat="46.5574425" lon="12.586142"><ele>967.0</ele><time>2026-05-01T10:10:29.751Z</time></trkpt><trkpt lat="46.5575868" lon="12.5860664"><ele>967.0</ele><time>2026-05-01T10:10:30.75Z</time></trkpt><trkpt lat="46.5577324" lon="12.5859877"><ele>967.0</ele><time>2026-05-01T10:10:31.751Z</time></trkpt><trkpt lat="46.5578738" lon="12.5859058"><ele>967.0</ele><time>2026-05-01T10:10:32.751Z</time></trkpt><trkpt lat="46.5580151" lon="12.5858233"><ele>969.0</ele><time>2026-05-01T10:10:33.75Z</time></trkpt><trkpt lat="46.5581577" lon="12.5857437"><ele>971.0</ele><time>2026-05-01T10:10:34.751Z</time></trkpt><trkpt lat="46.5582947" lon="12.5856593"><ele>973.0</ele><time>2026-05-01T10:10:35.751Z</time></trkpt><trkpt lat="46.5584318" lon="12.585574"><ele>973.0</ele><time>2026-05-01T10:10:36.751Z</time></trkpt><trkpt lat="46.5585637" lon="12.5854784"><ele>973.0</ele><time>2026-05-01T10:10:37.75Z</time></trkpt><trkpt lat="46.5586891" lon="12.5853775"><ele>973.0</ele><time>2026-05-01T10:10:38.751Z</time></trkpt><trkpt lat="46.5588158" lon="12.5852777"><ele>973.0</ele><time>2026-05-01T10:10:39.75Z</time></trkpt><trkpt lat="46.5589448" lon="12.5851962"><ele>969.0</ele><time>2026-05-01T10:10:40.751Z</time></trkpt><trkpt lat="46.5590838" lon="12.5851386"><ele>965.0</ele><time>2026-05-01T10:10:41.751Z</time></trkpt><trkpt lat="46.5592264" lon="12.5851005"><ele>961.0</ele><time>2026-05-01T10:10:42.751Z</time></trkpt><trkpt lat="46.559368" lon="12.5850751"><ele>957.0</ele><time>2026-05-01T10:10:43.751Z</time></trkpt><trkpt lat="46.5595074" lon="12.5850462"><ele>956.5</ele><time>2026-05-01T10:10:44.75Z</time></trkpt><trkpt lat="46.5596452" lon="12.5850074"><ele>956.0</ele><time>2026-05-01T10:10:45.751Z</time></trkpt><trkpt lat="46.5597867" lon="12.5849633"><ele>955.5</ele><time>2026-05-01T10:10:46.75Z</time></trkpt><trkpt lat="46.5599274" lon="12.5849245"><ele>955.0</ele><time>2026-05-01T10:10:47.75Z</time></trkpt><trkpt lat="46.5600605" lon="12.5848791"><ele>955.0</ele><time>2026-05-01T10:10:48.751Z</time></trkpt><trkpt lat="46.5602013" lon="12.5848325"><ele>955.0</ele><time>2026-05-01T10:10:49.751Z</time></trkpt><trkpt lat="46.5603375" lon="12.584792"><ele>955.0</ele><time>2026-05-01T10:10:50.75Z</time></trkpt><trkpt lat="46.5604747" lon="12.5847527"><ele>955.0</ele><time>2026-05-01T10:10:51.751Z</time></trkpt><trkpt lat="46.5606112" lon="12.5846995"><ele>954.25</ele><time>2026-05-01T10:10:52.751Z</time></trkpt><trkpt lat="46.5607432" lon="12.5846302"><ele>953.5</ele><time>2026-05-01T10:10:53.751Z</time></trkpt><trkpt lat="46.5608758" lon="12.5845529"><ele>952.75</ele><time>2026-05-01T10:10:54.75Z</time></trkpt><trkpt lat="46.5610047" lon="12.5844621"><ele>952.0</ele><time>2026-05-01T10:10:55.751Z</time></trkpt><trkpt lat="46.5611288" lon="12.584366"><ele>951.75</ele><time>2026-05-01T10:10:56.751Z</time></trkpt><trkpt lat="46.5612481" lon="12.5842574"><ele>951.5</ele><time>2026-05-01T10:10:57.75Z</time></trkpt><trkpt lat="46.5613626" lon="12.5841384"><ele>951.25</ele><time>2026-05-01T10:10:58.751Z</time></trkpt><trkpt lat="46.5614704" lon="12.5840135"><ele>951.0</ele><time>2026-05-01T10:10:59.751Z</time></trkpt><trkpt lat="46.5615727" lon="12.5838872"><ele>951.0</ele><time>2026-05-01T10:11:00.751Z</time></trkpt><trkpt lat="46.5616648" lon="12.5837573"><ele>951.0</ele><time>2026-05-01T10:11:01.751Z</time></trkpt><trkpt lat="46.5617522" lon="12.5836298"><ele>951.0</ele><time>2026-05-01T10:11:02.751Z</time></trkpt><trkpt lat="46.56183" lon="12.5835092"><ele>951.0</ele><time>2026-05-01T10:11:03.751Z</time></trkpt><trkpt lat="46.561907" lon="12.583384"><ele>950.5</ele><time>2026-05-01T10:11:04.75Z</time></trkpt><trkpt lat="46.5619784" lon="12.5832542"><ele>950.0</ele><time>2026-05-01T10:11:05.751Z</time></trkpt><trkpt lat="46.5620503" lon="12.5831252"><ele>949.5</ele><time>2026-05-01T10:11:06.751Z</time></trkpt><trkpt lat="46.5621309" lon="12.5830044"><ele>949.0</ele><time>2026-05-01T10:11:07.751Z</time></trkpt><trkpt lat="46.5622174" lon="12.5828946"><ele>948.75</ele><time>2026-05-01T10:11:08.751Z</time></trkpt><trkpt lat="46.5623092" lon="12.5827978"><ele>948.5</ele><time>2026-05-01T10:11:09.751Z</time></trkpt><trkpt lat="46.5624021" lon="12.582702"><ele>948.25</ele><time>2026-05-01T10:11:10.751Z</time></trkpt><trkpt lat="46.5624989" lon="12.5826029"><ele>948.0</ele><time>2026-05-01T10:11:11.751Z</time></trkpt><trkpt lat="46.5625938" lon="12.5825066"><ele>948.0</ele><time>2026-05-01T10:11:12.751Z</time></trkpt><trkpt lat="46.5626899" lon="12.5824101"><ele>948.0</ele><time>2026-05-01T10:11:13.751Z</time></trkpt><trkpt lat="46.562786" lon="12.5823112"><ele>948.0</ele><time>2026-05-01T10:11:14.751Z</time></trkpt><trkpt lat="46.5628901" lon="12.5822197"><ele>948.0</ele><time>2026-05-01T10:11:15.751Z</time></trkpt><trkpt lat="46.562998" lon="12.5821402"><ele>947.25</ele><time>2026-05-01T10:11:16.751Z</time></trkpt><trkpt lat="46.5631064" lon="12.5820646"><ele>946.5</ele><time>2026-05-01T10:11:17.75Z</time></trkpt><trkpt lat="46.5632151" lon="12.5819916"><ele>945.75</ele><time>2026-05-01T10:11:18.751Z</time></trkpt><trkpt lat="46.5633171" lon="12.5819228"><ele>945.0</ele><time>2026-05-01T10:11:19.751Z</time></trkpt><trkpt lat="46.5634174" lon="12.5818651"><ele>944.6</ele><time>2026-05-01T10:11:20.751Z</time></trkpt><trkpt lat="46.5635007" lon="12.5818066"><ele>944.2</ele><time>2026-05-01T10:11:21.751Z</time></trkpt><trkpt lat="46.5635791" lon="12.5817519"><ele>943.8</ele><time>2026-05-01T10:11:22.751Z</time></trkpt><trkpt lat="46.5636488" lon="12.581697"><ele>943.4</ele><time>2026-05-01T10:11:23.751Z</time></trkpt><trkpt lat="46.5637561" lon="12.5816085"><ele>943.0</ele><time>2026-05-01T10:11:25.751Z</time></trkpt><trkpt lat="46.5637586" lon="12.5814552"><ele>939.0</ele><time>2026-05-01T10:11:27.751Z</time></trkpt><trkpt lat="46.5637793" lon="12.5813152"><ele>939.0</ele><time>2026-05-01T10:11:29.751Z</time></trkpt><trkpt lat="46.5638549" lon="12.5812556"><ele>939.0</ele><time>2026-05-01T10:11:31.751Z</time></trkpt><trkpt lat="46.563909" lon="12.5811688"><ele>937.0</ele><time>2026-05-01T10:11:33.751Z</time></trkpt><trkpt lat="46.5638818" lon="12.5810851"><ele>937.0</ele><time>2026-05-01T10:11:35.751Z</time></trkpt></trkseg></trk></gpx>